<?xml version="1.0" encoding="UTF-8" standalone="no" ?>
<gpx xmlns="http://www.topografix.com/GPX/1/1" xmlns:xsi="http://www.w3.org/2001/XMLSchema-instance" xsi:schemaLocation="http://www.topografix.com/GPX/1/1 http://www.topografix.com/GPX/1/1/gpx.xsd" version="1.1" creator="VisuGPX - https://www.visugpx.com">
  <metadata>
    <name>Orgelet,La Vallée des Moulins.</name>
  </metadata>
  <trk>
    <name><![CDATA[Orgelet,La Vallée des Moulins._1]]></name>
    <trkseg>
      <trkpt lat="46.49823" lon="5.59315">
        <ele>390.9</ele>
        <time>2019-09-03T07:06:44Z</time>
      </trkpt>
      <trkpt lat="46.49828" lon="5.59314">
        <ele>386.1</ele>
        <time>2019-09-03T07:06:50Z</time>
      </trkpt>
      <trkpt lat="46.49835" lon="5.59319">
        <ele>389.9</ele>
        <time>2019-09-03T07:06:57Z</time>
      </trkpt>
      <trkpt lat="46.49842" lon="5.59328">
        <ele>394</ele>
        <time>2019-09-03T07:07:07Z</time>
      </trkpt>
      <trkpt lat="46.49852" lon="5.59337">
        <ele>398.6</ele>
        <time>2019-09-03T07:07:16Z</time>
      </trkpt>
      <trkpt lat="46.49868" lon="5.59348">
        <ele>397.9</ele>
        <time>2019-09-03T07:07:26Z</time>
      </trkpt>
      <trkpt lat="46.49873" lon="5.59351">
        <ele>397.3</ele>
        <time>2019-09-03T07:07:31Z</time>
      </trkpt>
      <trkpt lat="46.49875" lon="5.59358">
        <ele>396.4</ele>
        <time>2019-09-03T07:07:36Z</time>
      </trkpt>
      <trkpt lat="46.49877" lon="5.59364">
        <ele>395.1</ele>
        <time>2019-09-03T07:07:42Z</time>
      </trkpt>
      <trkpt lat="46.49886" lon="5.59372">
        <ele>391.1</ele>
        <time>2019-09-03T07:08:05Z</time>
      </trkpt>
      <trkpt lat="46.49891" lon="5.59374">
        <ele>390.5</ele>
        <time>2019-09-03T07:08:08Z</time>
      </trkpt>
      <trkpt lat="46.49896" lon="5.59376">
        <ele>389.7</ele>
        <time>2019-09-03T07:08:11Z</time>
      </trkpt>
      <trkpt lat="46.49901" lon="5.59377">
        <ele>388.6</ele>
        <time>2019-09-03T07:08:15Z</time>
      </trkpt>
      <trkpt lat="46.49903" lon="5.59384">
        <ele>387.5</ele>
        <time>2019-09-03T07:08:20Z</time>
      </trkpt>
      <trkpt lat="46.49906" lon="5.5939">
        <ele>386.7</ele>
        <time>2019-09-03T07:08:25Z</time>
      </trkpt>
      <trkpt lat="46.49908" lon="5.59397">
        <ele>386.2</ele>
        <time>2019-09-03T07:08:29Z</time>
      </trkpt>
      <trkpt lat="46.49911" lon="5.59402">
        <ele>385.6</ele>
        <time>2019-09-03T07:08:33Z</time>
      </trkpt>
      <trkpt lat="46.49915" lon="5.59408">
        <ele>385.2</ele>
        <time>2019-09-03T07:08:36Z</time>
      </trkpt>
      <trkpt lat="46.49918" lon="5.59414">
        <ele>384.7</ele>
        <time>2019-09-03T07:08:40Z</time>
      </trkpt>
      <trkpt lat="46.49924" lon="5.59424">
        <ele>383.5</ele>
        <time>2019-09-03T07:08:48Z</time>
      </trkpt>
      <trkpt lat="46.49927" lon="5.59431">
        <ele>383.5</ele>
        <time>2019-09-03T07:08:52Z</time>
      </trkpt>
      <trkpt lat="46.49928" lon="5.59437">
        <ele>383.6</ele>
        <time>2019-09-03T07:08:56Z</time>
      </trkpt>
      <trkpt lat="46.4993" lon="5.59445">
        <ele>383.5</ele>
        <time>2019-09-03T07:09:01Z</time>
      </trkpt>
      <trkpt lat="46.49932" lon="5.59451">
        <ele>383.2</ele>
        <time>2019-09-03T07:09:05Z</time>
      </trkpt>
      <trkpt lat="46.49934" lon="5.59458">
        <ele>382.5</ele>
        <time>2019-09-03T07:09:09Z</time>
      </trkpt>
      <trkpt lat="46.49937" lon="5.59465">
        <ele>381.8</ele>
        <time>2019-09-03T07:09:13Z</time>
      </trkpt>
      <trkpt lat="46.49941" lon="5.59471">
        <ele>380.9</ele>
        <time>2019-09-03T07:09:17Z</time>
      </trkpt>
      <trkpt lat="46.49944" lon="5.59475">
        <ele>380</ele>
        <time>2019-09-03T07:09:21Z</time>
      </trkpt>
      <trkpt lat="46.49949" lon="5.59479">
        <ele>379.5</ele>
        <time>2019-09-03T07:09:24Z</time>
      </trkpt>
      <trkpt lat="46.49952" lon="5.59483">
        <ele>379.2</ele>
        <time>2019-09-03T07:09:27Z</time>
      </trkpt>
      <trkpt lat="46.49956" lon="5.59488">
        <ele>379</ele>
        <time>2019-09-03T07:09:31Z</time>
      </trkpt>
      <trkpt lat="46.49959" lon="5.59495">
        <ele>378.9</ele>
        <time>2019-09-03T07:09:35Z</time>
      </trkpt>
      <trkpt lat="46.49961" lon="5.59501">
        <ele>378.9</ele>
        <time>2019-09-03T07:09:38Z</time>
      </trkpt>
      <trkpt lat="46.49965" lon="5.59505">
        <ele>378.9</ele>
        <time>2019-09-03T07:09:42Z</time>
      </trkpt>
      <trkpt lat="46.49969" lon="5.59511">
        <ele>379</ele>
        <time>2019-09-03T07:09:49Z</time>
      </trkpt>
      <trkpt lat="46.49971" lon="5.59517">
        <ele>379</ele>
        <time>2019-09-03T07:09:55Z</time>
      </trkpt>
      <trkpt lat="46.49975" lon="5.59524">
        <ele>379</ele>
        <time>2019-09-03T07:09:58Z</time>
      </trkpt>
      <trkpt lat="46.49977" lon="5.59532">
        <ele>379</ele>
        <time>2019-09-03T07:10:02Z</time>
      </trkpt>
      <trkpt lat="46.49978" lon="5.59539">
        <ele>379.1</ele>
        <time>2019-09-03T07:10:06Z</time>
      </trkpt>
      <trkpt lat="46.49981" lon="5.59547">
        <ele>379.2</ele>
        <time>2019-09-03T07:10:09Z</time>
      </trkpt>
      <trkpt lat="46.49983" lon="5.59554">
        <ele>379.5</ele>
        <time>2019-09-03T07:10:13Z</time>
      </trkpt>
      <trkpt lat="46.49985" lon="5.5956">
        <ele>379.8</ele>
        <time>2019-09-03T07:10:17Z</time>
      </trkpt>
      <trkpt lat="46.49987" lon="5.59568">
        <ele>380.1</ele>
        <time>2019-09-03T07:10:22Z</time>
      </trkpt>
      <trkpt lat="46.49987" lon="5.59576">
        <ele>380.5</ele>
        <time>2019-09-03T07:10:26Z</time>
      </trkpt>
      <trkpt lat="46.49992" lon="5.596">
        <ele>381.5</ele>
        <time>2019-09-03T07:10:40Z</time>
      </trkpt>
      <trkpt lat="46.49996" lon="5.59605">
        <ele>381.3</ele>
        <time>2019-09-03T07:10:44Z</time>
      </trkpt>
      <trkpt lat="46.50003" lon="5.59627">
        <ele>380</ele>
        <time>2019-09-03T07:11:01Z</time>
      </trkpt>
      <trkpt lat="46.50004" lon="5.59634">
        <ele>380.2</ele>
        <time>2019-09-03T07:11:05Z</time>
      </trkpt>
      <trkpt lat="46.50006" lon="5.5964">
        <ele>380.6</ele>
        <time>2019-09-03T07:11:09Z</time>
      </trkpt>
      <trkpt lat="46.50009" lon="5.59646">
        <ele>380.7</ele>
        <time>2019-09-03T07:11:12Z</time>
      </trkpt>
      <trkpt lat="46.50011" lon="5.59653">
        <ele>380.9</ele>
        <time>2019-09-03T07:11:16Z</time>
      </trkpt>
      <trkpt lat="46.50014" lon="5.5966">
        <ele>381.2</ele>
        <time>2019-09-03T07:11:19Z</time>
      </trkpt>
      <trkpt lat="46.50016" lon="5.59667">
        <ele>381.5</ele>
        <time>2019-09-03T07:11:23Z</time>
      </trkpt>
      <trkpt lat="46.50018" lon="5.59673">
        <ele>381.9</ele>
        <time>2019-09-03T07:11:28Z</time>
      </trkpt>
      <trkpt lat="46.5002" lon="5.5968">
        <ele>382.2</ele>
        <time>2019-09-03T07:11:35Z</time>
      </trkpt>
      <trkpt lat="46.50022" lon="5.59694">
        <ele>383.6</ele>
        <time>2019-09-03T07:11:43Z</time>
      </trkpt>
      <trkpt lat="46.50022" lon="5.59701">
        <ele>384.3</ele>
        <time>2019-09-03T07:11:49Z</time>
      </trkpt>
      <trkpt lat="46.50022" lon="5.59709">
        <ele>384.9</ele>
        <time>2019-09-03T07:11:54Z</time>
      </trkpt>
      <trkpt lat="46.50023" lon="5.59717">
        <ele>385.6</ele>
        <time>2019-09-03T07:11:59Z</time>
      </trkpt>
      <trkpt lat="46.50023" lon="5.59733">
        <ele>387.9</ele>
        <time>2019-09-03T07:12:11Z</time>
      </trkpt>
      <trkpt lat="46.50023" lon="5.59743">
        <ele>388.2</ele>
        <time>2019-09-03T07:12:16Z</time>
      </trkpt>
      <trkpt lat="46.50024" lon="5.5975">
        <ele>388.4</ele>
        <time>2019-09-03T07:12:20Z</time>
      </trkpt>
      <trkpt lat="46.50025" lon="5.59757">
        <ele>388.4</ele>
        <time>2019-09-03T07:12:25Z</time>
      </trkpt>
      <trkpt lat="46.50029" lon="5.59775">
        <ele>388.3</ele>
        <time>2019-09-03T07:12:33Z</time>
      </trkpt>
      <trkpt lat="46.5003" lon="5.59782">
        <ele>387.9</ele>
        <time>2019-09-03T07:12:38Z</time>
      </trkpt>
      <trkpt lat="46.50031" lon="5.5979">
        <ele>387</ele>
        <time>2019-09-03T07:12:43Z</time>
      </trkpt>
      <trkpt lat="46.50033" lon="5.59796">
        <ele>386.4</ele>
        <time>2019-09-03T07:12:47Z</time>
      </trkpt>
      <trkpt lat="46.50035" lon="5.59803">
        <ele>386</ele>
        <time>2019-09-03T07:12:50Z</time>
      </trkpt>
      <trkpt lat="46.50037" lon="5.5981">
        <ele>385.7</ele>
        <time>2019-09-03T07:12:54Z</time>
      </trkpt>
      <trkpt lat="46.50043" lon="5.59824">
        <ele>385</ele>
        <time>2019-09-03T07:13:04Z</time>
      </trkpt>
      <trkpt lat="46.50047" lon="5.59836">
        <ele>385.1</ele>
        <time>2019-09-03T07:13:12Z</time>
      </trkpt>
      <trkpt lat="46.50056" lon="5.59855">
        <ele>384.7</ele>
        <time>2019-09-03T07:13:28Z</time>
      </trkpt>
      <trkpt lat="46.50059" lon="5.59861">
        <ele>384.7</ele>
        <time>2019-09-03T07:13:32Z</time>
      </trkpt>
      <trkpt lat="46.50064" lon="5.59876">
        <ele>384.7</ele>
        <time>2019-09-03T07:13:43Z</time>
      </trkpt>
      <trkpt lat="46.50066" lon="5.59882">
        <ele>384.6</ele>
        <time>2019-09-03T07:13:47Z</time>
      </trkpt>
      <trkpt lat="46.50068" lon="5.59889">
        <ele>384.4</ele>
        <time>2019-09-03T07:13:51Z</time>
      </trkpt>
      <trkpt lat="46.50068" lon="5.59896">
        <ele>384</ele>
        <time>2019-09-03T07:13:57Z</time>
      </trkpt>
      <trkpt lat="46.5007" lon="5.59902">
        <ele>383.6</ele>
        <time>2019-09-03T07:14:02Z</time>
      </trkpt>
      <trkpt lat="46.50074" lon="5.59907">
        <ele>383.4</ele>
        <time>2019-09-03T07:14:05Z</time>
      </trkpt>
      <trkpt lat="46.50077" lon="5.59912">
        <ele>383</ele>
        <time>2019-09-03T07:14:10Z</time>
      </trkpt>
      <trkpt lat="46.50079" lon="5.59919">
        <ele>382.8</ele>
        <time>2019-09-03T07:14:15Z</time>
      </trkpt>
      <trkpt lat="46.50083" lon="5.59925">
        <ele>382.7</ele>
        <time>2019-09-03T07:14:19Z</time>
      </trkpt>
      <trkpt lat="46.50085" lon="5.59931">
        <ele>382.5</ele>
        <time>2019-09-03T07:14:22Z</time>
      </trkpt>
      <trkpt lat="46.50087" lon="5.59938">
        <ele>382.3</ele>
        <time>2019-09-03T07:14:26Z</time>
      </trkpt>
      <trkpt lat="46.50088" lon="5.59945">
        <ele>382.2</ele>
        <time>2019-09-03T07:14:29Z</time>
      </trkpt>
      <trkpt lat="46.50089" lon="5.59952">
        <ele>381.8</ele>
        <time>2019-09-03T07:14:34Z</time>
      </trkpt>
      <trkpt lat="46.50093" lon="5.59957">
        <ele>381.7</ele>
        <time>2019-09-03T07:14:39Z</time>
      </trkpt>
      <trkpt lat="46.50095" lon="5.59964">
        <ele>381.7</ele>
        <time>2019-09-03T07:14:44Z</time>
      </trkpt>
      <trkpt lat="46.50097" lon="5.59971">
        <ele>381.4</ele>
        <time>2019-09-03T07:14:50Z</time>
      </trkpt>
      <trkpt lat="46.50098" lon="5.59979">
        <ele>381.3</ele>
        <time>2019-09-03T07:14:53Z</time>
      </trkpt>
      <trkpt lat="46.50099" lon="5.59986">
        <ele>381.2</ele>
        <time>2019-09-03T07:14:56Z</time>
      </trkpt>
      <trkpt lat="46.50099" lon="5.59994">
        <ele>381.4</ele>
        <time>2019-09-03T07:15:00Z</time>
      </trkpt>
      <trkpt lat="46.50101" lon="5.60001">
        <ele>381.9</ele>
        <time>2019-09-03T07:15:05Z</time>
      </trkpt>
      <trkpt lat="46.50102" lon="5.60008">
        <ele>382.3</ele>
        <time>2019-09-03T07:15:09Z</time>
      </trkpt>
      <trkpt lat="46.50103" lon="5.60016">
        <ele>382.9</ele>
        <time>2019-09-03T07:15:13Z</time>
      </trkpt>
      <trkpt lat="46.50104" lon="5.60022">
        <ele>383.4</ele>
        <time>2019-09-03T07:15:17Z</time>
      </trkpt>
      <trkpt lat="46.50105" lon="5.6003">
        <ele>383.9</ele>
        <time>2019-09-03T07:15:22Z</time>
      </trkpt>
      <trkpt lat="46.50113" lon="5.60055">
        <ele>384.6</ele>
        <time>2019-09-03T07:15:38Z</time>
      </trkpt>
      <trkpt lat="46.50115" lon="5.60062">
        <ele>384.5</ele>
        <time>2019-09-03T07:15:43Z</time>
      </trkpt>
      <trkpt lat="46.50118" lon="5.60068">
        <ele>384.4</ele>
        <time>2019-09-03T07:15:47Z</time>
      </trkpt>
      <trkpt lat="46.5012" lon="5.60074">
        <ele>384.4</ele>
        <time>2019-09-03T07:15:52Z</time>
      </trkpt>
      <trkpt lat="46.50123" lon="5.6008">
        <ele>384.6</ele>
        <time>2019-09-03T07:15:56Z</time>
      </trkpt>
      <trkpt lat="46.50125" lon="5.60086">
        <ele>384.7</ele>
        <time>2019-09-03T07:16:00Z</time>
      </trkpt>
      <trkpt lat="46.5013" lon="5.60104">
        <ele>384.2</ele>
        <time>2019-09-03T07:16:15Z</time>
      </trkpt>
      <trkpt lat="46.50135" lon="5.60118">
        <ele>383.4</ele>
        <time>2019-09-03T07:16:26Z</time>
      </trkpt>
      <trkpt lat="46.50135" lon="5.60126">
        <ele>383.3</ele>
        <time>2019-09-03T07:16:29Z</time>
      </trkpt>
      <trkpt lat="46.50136" lon="5.60144">
        <ele>382.7</ele>
        <time>2019-09-03T07:16:41Z</time>
      </trkpt>
      <trkpt lat="46.50137" lon="5.60151">
        <ele>382.3</ele>
        <time>2019-09-03T07:16:46Z</time>
      </trkpt>
      <trkpt lat="46.50137" lon="5.60158">
        <ele>381.7</ele>
        <time>2019-09-03T07:16:52Z</time>
      </trkpt>
      <trkpt lat="46.50138" lon="5.60165">
        <ele>381.4</ele>
        <time>2019-09-03T07:16:55Z</time>
      </trkpt>
      <trkpt lat="46.50138" lon="5.60172">
        <ele>381.3</ele>
        <time>2019-09-03T07:16:57Z</time>
      </trkpt>
      <trkpt lat="46.50137" lon="5.60178">
        <ele>381.1</ele>
        <time>2019-09-03T07:17:00Z</time>
      </trkpt>
      <trkpt lat="46.50146" lon="5.60201">
        <ele>382.3</ele>
        <time>2019-09-03T07:17:18Z</time>
      </trkpt>
      <trkpt lat="46.5015" lon="5.60206">
        <ele>382.5</ele>
        <time>2019-09-03T07:17:23Z</time>
      </trkpt>
      <trkpt lat="46.50153" lon="5.60211">
        <ele>382.7</ele>
        <time>2019-09-03T07:17:28Z</time>
      </trkpt>
      <trkpt lat="46.50155" lon="5.60218">
        <ele>382.8</ele>
        <time>2019-09-03T07:17:33Z</time>
      </trkpt>
      <trkpt lat="46.50158" lon="5.60223">
        <ele>383</ele>
        <time>2019-09-03T07:17:38Z</time>
      </trkpt>
      <trkpt lat="46.5016" lon="5.60229">
        <ele>383.1</ele>
        <time>2019-09-03T07:17:43Z</time>
      </trkpt>
      <trkpt lat="46.50163" lon="5.60236">
        <ele>383.2</ele>
        <time>2019-09-03T07:17:48Z</time>
      </trkpt>
      <trkpt lat="46.50167" lon="5.60254">
        <ele>383.9</ele>
        <time>2019-09-03T07:18:02Z</time>
      </trkpt>
      <trkpt lat="46.5018" lon="5.60286">
        <ele>384.2</ele>
        <time>2019-09-03T07:18:20Z</time>
      </trkpt>
      <trkpt lat="46.50182" lon="5.60293">
        <ele>384.5</ele>
        <time>2019-09-03T07:18:25Z</time>
      </trkpt>
      <trkpt lat="46.50185" lon="5.603">
        <ele>384.7</ele>
        <time>2019-09-03T07:18:30Z</time>
      </trkpt>
      <trkpt lat="46.50186" lon="5.60307">
        <ele>384.7</ele>
        <time>2019-09-03T07:18:35Z</time>
      </trkpt>
      <trkpt lat="46.50188" lon="5.60314">
        <ele>384.7</ele>
        <time>2019-09-03T07:18:41Z</time>
      </trkpt>
      <trkpt lat="46.5019" lon="5.6032">
        <ele>384.6</ele>
        <time>2019-09-03T07:18:44Z</time>
      </trkpt>
      <trkpt lat="46.50193" lon="5.60326">
        <ele>384.7</ele>
        <time>2019-09-03T07:18:48Z</time>
      </trkpt>
      <trkpt lat="46.50195" lon="5.60333">
        <ele>384.9</ele>
        <time>2019-09-03T07:18:52Z</time>
      </trkpt>
      <trkpt lat="46.50196" lon="5.60339">
        <ele>385.1</ele>
        <time>2019-09-03T07:18:56Z</time>
      </trkpt>
      <trkpt lat="46.50198" lon="5.60346">
        <ele>385.5</ele>
        <time>2019-09-03T07:19:00Z</time>
      </trkpt>
      <trkpt lat="46.502" lon="5.60353">
        <ele>386</ele>
        <time>2019-09-03T07:19:05Z</time>
      </trkpt>
      <trkpt lat="46.50202" lon="5.6036">
        <ele>386.4</ele>
        <time>2019-09-03T07:19:10Z</time>
      </trkpt>
      <trkpt lat="46.50202" lon="5.60368">
        <ele>386.8</ele>
        <time>2019-09-03T07:19:15Z</time>
      </trkpt>
      <trkpt lat="46.50204" lon="5.60375">
        <ele>387.2</ele>
        <time>2019-09-03T07:19:20Z</time>
      </trkpt>
      <trkpt lat="46.50206" lon="5.60382">
        <ele>387.9</ele>
        <time>2019-09-03T07:19:26Z</time>
      </trkpt>
      <trkpt lat="46.50208" lon="5.60387">
        <ele>388.2</ele>
        <time>2019-09-03T07:19:30Z</time>
      </trkpt>
      <trkpt lat="46.50211" lon="5.60395">
        <ele>388.7</ele>
        <time>2019-09-03T07:19:35Z</time>
      </trkpt>
      <trkpt lat="46.50212" lon="5.60401">
        <ele>388.8</ele>
        <time>2019-09-03T07:19:38Z</time>
      </trkpt>
      <trkpt lat="46.50214" lon="5.60409">
        <ele>388.9</ele>
        <time>2019-09-03T07:19:44Z</time>
      </trkpt>
      <trkpt lat="46.50216" lon="5.60415">
        <ele>388.9</ele>
        <time>2019-09-03T07:19:50Z</time>
      </trkpt>
      <trkpt lat="46.50225" lon="5.60429">
        <ele>387.8</ele>
        <time>2019-09-03T07:20:05Z</time>
      </trkpt>
      <trkpt lat="46.50228" lon="5.60435">
        <ele>387.3</ele>
        <time>2019-09-03T07:20:09Z</time>
      </trkpt>
      <trkpt lat="46.50232" lon="5.60435">
        <ele>386</ele>
        <time>2019-09-03T07:20:16Z</time>
      </trkpt>
      <trkpt lat="46.50235" lon="5.60444">
        <ele>384.9</ele>
        <time>2019-09-03T07:20:23Z</time>
      </trkpt>
      <trkpt lat="46.50234" lon="5.60451">
        <ele>384.7</ele>
        <time>2019-09-03T07:20:25Z</time>
      </trkpt>
      <trkpt lat="46.50234" lon="5.60459">
        <ele>384.2</ele>
        <time>2019-09-03T07:20:29Z</time>
      </trkpt>
      <trkpt lat="46.50236" lon="5.60465">
        <ele>384.1</ele>
        <time>2019-09-03T07:20:31Z</time>
      </trkpt>
      <trkpt lat="46.50238" lon="5.60473">
        <ele>384.2</ele>
        <time>2019-09-03T07:20:35Z</time>
      </trkpt>
      <trkpt lat="46.5024" lon="5.60479">
        <ele>384.4</ele>
        <time>2019-09-03T07:20:40Z</time>
      </trkpt>
      <trkpt lat="46.50244" lon="5.60486">
        <ele>384.9</ele>
        <time>2019-09-03T07:20:46Z</time>
      </trkpt>
      <trkpt lat="46.50247" lon="5.60492">
        <ele>385.3</ele>
        <time>2019-09-03T07:20:51Z</time>
      </trkpt>
      <trkpt lat="46.50249" lon="5.60499">
        <ele>385.7</ele>
        <time>2019-09-03T07:20:55Z</time>
      </trkpt>
      <trkpt lat="46.50257" lon="5.60526">
        <ele>387.6</ele>
        <time>2019-09-03T07:21:14Z</time>
      </trkpt>
      <trkpt lat="46.50262" lon="5.60532">
        <ele>387.8</ele>
        <time>2019-09-03T07:21:19Z</time>
      </trkpt>
      <trkpt lat="46.50286" lon="5.60548">
        <ele>387.5</ele>
        <time>2019-09-03T07:21:41Z</time>
      </trkpt>
      <trkpt lat="46.5029" lon="5.60553">
        <ele>387.5</ele>
        <time>2019-09-03T07:21:45Z</time>
      </trkpt>
      <trkpt lat="46.50294" lon="5.60557">
        <ele>387.5</ele>
        <time>2019-09-03T07:21:52Z</time>
      </trkpt>
      <trkpt lat="46.50305" lon="5.60561">
        <ele>387.4</ele>
        <time>2019-09-03T07:22:03Z</time>
      </trkpt>
      <trkpt lat="46.50317" lon="5.60565">
        <ele>387.8</ele>
        <time>2019-09-03T07:22:13Z</time>
      </trkpt>
      <trkpt lat="46.50321" lon="5.60568">
        <ele>387.8</ele>
        <time>2019-09-03T07:22:17Z</time>
      </trkpt>
      <trkpt lat="46.50332" lon="5.60573">
        <ele>387.8</ele>
        <time>2019-09-03T07:22:28Z</time>
      </trkpt>
      <trkpt lat="46.50369" lon="5.60586">
        <ele>387.1</ele>
        <time>2019-09-03T07:23:02Z</time>
      </trkpt>
      <trkpt lat="46.50374" lon="5.60589">
        <ele>387.2</ele>
        <time>2019-09-03T07:23:06Z</time>
      </trkpt>
      <trkpt lat="46.50379" lon="5.60591">
        <ele>387.8</ele>
        <time>2019-09-03T07:23:12Z</time>
      </trkpt>
      <trkpt lat="46.50383" lon="5.60595">
        <ele>388.1</ele>
        <time>2019-09-03T07:23:18Z</time>
      </trkpt>
      <trkpt lat="46.50397" lon="5.60611">
        <ele>387.1</ele>
        <time>2019-09-03T07:23:35Z</time>
      </trkpt>
      <trkpt lat="46.50401" lon="5.60616">
        <ele>386.5</ele>
        <time>2019-09-03T07:23:40Z</time>
      </trkpt>
      <trkpt lat="46.50404" lon="5.60621">
        <ele>385.7</ele>
        <time>2019-09-03T07:23:46Z</time>
      </trkpt>
      <trkpt lat="46.50409" lon="5.60625">
        <ele>385.2</ele>
        <time>2019-09-03T07:23:50Z</time>
      </trkpt>
      <trkpt lat="46.50414" lon="5.6063">
        <ele>384.5</ele>
        <time>2019-09-03T07:23:55Z</time>
      </trkpt>
      <trkpt lat="46.50427" lon="5.6064">
        <ele>382.6</ele>
        <time>2019-09-03T07:24:09Z</time>
      </trkpt>
      <trkpt lat="46.50431" lon="5.60645">
        <ele>382.3</ele>
        <time>2019-09-03T07:24:14Z</time>
      </trkpt>
      <trkpt lat="46.50436" lon="5.6065">
        <ele>382.3</ele>
        <time>2019-09-03T07:24:16Z</time>
      </trkpt>
      <trkpt lat="46.50439" lon="5.60655">
        <ele>382.2</ele>
        <time>2019-09-03T07:24:19Z</time>
      </trkpt>
      <trkpt lat="46.50442" lon="5.60661">
        <ele>382.3</ele>
        <time>2019-09-03T07:24:25Z</time>
      </trkpt>
      <trkpt lat="46.50443" lon="5.60669">
        <ele>382.4</ele>
        <time>2019-09-03T07:24:29Z</time>
      </trkpt>
      <trkpt lat="46.50443" lon="5.60676">
        <ele>382.5</ele>
        <time>2019-09-03T07:24:34Z</time>
      </trkpt>
      <trkpt lat="46.50446" lon="5.60682">
        <ele>382.5</ele>
        <time>2019-09-03T07:24:39Z</time>
      </trkpt>
      <trkpt lat="46.50455" lon="5.60692">
        <ele>382</ele>
        <time>2019-09-03T07:24:49Z</time>
      </trkpt>
      <trkpt lat="46.50458" lon="5.60698">
        <ele>382.2</ele>
        <time>2019-09-03T07:24:52Z</time>
      </trkpt>
      <trkpt lat="46.50461" lon="5.60703">
        <ele>382.4</ele>
        <time>2019-09-03T07:24:56Z</time>
      </trkpt>
      <trkpt lat="46.50464" lon="5.60708">
        <ele>382.6</ele>
        <time>2019-09-03T07:25:00Z</time>
      </trkpt>
      <trkpt lat="46.50467" lon="5.60714">
        <ele>383.2</ele>
        <time>2019-09-03T07:25:05Z</time>
      </trkpt>
      <trkpt lat="46.5047" lon="5.6072">
        <ele>383.8</ele>
        <time>2019-09-03T07:25:10Z</time>
      </trkpt>
      <trkpt lat="46.50473" lon="5.60726">
        <ele>384.3</ele>
        <time>2019-09-03T07:25:14Z</time>
      </trkpt>
      <trkpt lat="46.50477" lon="5.60731">
        <ele>385</ele>
        <time>2019-09-03T07:25:20Z</time>
      </trkpt>
      <trkpt lat="46.50481" lon="5.60736">
        <ele>385.4</ele>
        <time>2019-09-03T07:25:25Z</time>
      </trkpt>
      <trkpt lat="46.50485" lon="5.60741">
        <ele>385.9</ele>
        <time>2019-09-03T07:25:30Z</time>
      </trkpt>
      <trkpt lat="46.5049" lon="5.60744">
        <ele>386.2</ele>
        <time>2019-09-03T07:25:33Z</time>
      </trkpt>
      <trkpt lat="46.50495" lon="5.60747">
        <ele>386.5</ele>
        <time>2019-09-03T07:25:36Z</time>
      </trkpt>
      <trkpt lat="46.50499" lon="5.60752">
        <ele>386.7</ele>
        <time>2019-09-03T07:25:41Z</time>
      </trkpt>
      <trkpt lat="46.50503" lon="5.60756">
        <ele>386.9</ele>
        <time>2019-09-03T07:25:46Z</time>
      </trkpt>
      <trkpt lat="46.50507" lon="5.60758">
        <ele>387</ele>
        <time>2019-09-03T07:25:50Z</time>
      </trkpt>
      <trkpt lat="46.50512" lon="5.60761">
        <ele>386.9</ele>
        <time>2019-09-03T07:25:55Z</time>
      </trkpt>
      <trkpt lat="46.50517" lon="5.60765">
        <ele>386.4</ele>
        <time>2019-09-03T07:26:01Z</time>
      </trkpt>
      <trkpt lat="46.50522" lon="5.60766">
        <ele>385.7</ele>
        <time>2019-09-03T07:26:06Z</time>
      </trkpt>
      <trkpt lat="46.50526" lon="5.60771">
        <ele>384.8</ele>
        <time>2019-09-03T07:26:12Z</time>
      </trkpt>
      <trkpt lat="46.50529" lon="5.60777">
        <ele>384.2</ele>
        <time>2019-09-03T07:26:17Z</time>
      </trkpt>
      <trkpt lat="46.50532" lon="5.60782">
        <ele>383.6</ele>
        <time>2019-09-03T07:26:22Z</time>
      </trkpt>
      <trkpt lat="46.50536" lon="5.60787">
        <ele>383.3</ele>
        <time>2019-09-03T07:26:26Z</time>
      </trkpt>
      <trkpt lat="46.50541" lon="5.6079">
        <ele>383.2</ele>
        <time>2019-09-03T07:26:29Z</time>
      </trkpt>
      <trkpt lat="46.50552" lon="5.60806">
        <ele>382.4</ele>
        <time>2019-09-03T07:26:43Z</time>
      </trkpt>
      <trkpt lat="46.50563" lon="5.6082">
        <ele>382.7</ele>
        <time>2019-09-03T07:26:55Z</time>
      </trkpt>
      <trkpt lat="46.50567" lon="5.60825">
        <ele>383.3</ele>
        <time>2019-09-03T07:27:01Z</time>
      </trkpt>
      <trkpt lat="46.50571" lon="5.60828">
        <ele>383.6</ele>
        <time>2019-09-03T07:27:05Z</time>
      </trkpt>
      <trkpt lat="46.50575" lon="5.60834">
        <ele>383.9</ele>
        <time>2019-09-03T07:27:10Z</time>
      </trkpt>
      <trkpt lat="46.50578" lon="5.60839">
        <ele>384.1</ele>
        <time>2019-09-03T07:27:12Z</time>
      </trkpt>
      <trkpt lat="46.50582" lon="5.60845">
        <ele>384.3</ele>
        <time>2019-09-03T07:27:15Z</time>
      </trkpt>
      <trkpt lat="46.50585" lon="5.60851">
        <ele>384.8</ele>
        <time>2019-09-03T07:27:21Z</time>
      </trkpt>
      <trkpt lat="46.50596" lon="5.60859">
        <ele>385.9</ele>
        <time>2019-09-03T07:27:33Z</time>
      </trkpt>
      <trkpt lat="46.50612" lon="5.60867">
        <ele>386.8</ele>
        <time>2019-09-03T07:27:48Z</time>
      </trkpt>
      <trkpt lat="46.50616" lon="5.6087">
        <ele>387</ele>
        <time>2019-09-03T07:27:53Z</time>
      </trkpt>
      <trkpt lat="46.50633" lon="5.60878">
        <ele>387.5</ele>
        <time>2019-09-03T07:28:12Z</time>
      </trkpt>
      <trkpt lat="46.50677" lon="5.609">
        <ele>387.8</ele>
        <time>2019-09-03T07:28:50Z</time>
      </trkpt>
      <trkpt lat="46.50683" lon="5.60903">
        <ele>387.9</ele>
        <time>2019-09-03T07:28:54Z</time>
      </trkpt>
      <trkpt lat="46.50686" lon="5.60909">
        <ele>388</ele>
        <time>2019-09-03T07:28:57Z</time>
      </trkpt>
      <trkpt lat="46.50716" lon="5.60944">
        <ele>391</ele>
        <time>2019-09-03T07:29:32Z</time>
      </trkpt>
      <trkpt lat="46.50731" lon="5.60958">
        <ele>392</ele>
        <time>2019-09-03T07:29:48Z</time>
      </trkpt>
      <trkpt lat="46.50736" lon="5.6096">
        <ele>392.2</ele>
        <time>2019-09-03T07:29:51Z</time>
      </trkpt>
      <trkpt lat="46.5074" lon="5.60962">
        <ele>392.4</ele>
        <time>2019-09-03T07:29:54Z</time>
      </trkpt>
      <trkpt lat="46.50745" lon="5.60964">
        <ele>392.9</ele>
        <time>2019-09-03T07:29:59Z</time>
      </trkpt>
      <trkpt lat="46.5075" lon="5.60966">
        <ele>393.3</ele>
        <time>2019-09-03T07:30:04Z</time>
      </trkpt>
      <trkpt lat="46.50755" lon="5.60968">
        <ele>393.6</ele>
        <time>2019-09-03T07:30:08Z</time>
      </trkpt>
      <trkpt lat="46.5076" lon="5.6097">
        <ele>393.9</ele>
        <time>2019-09-03T07:30:13Z</time>
      </trkpt>
      <trkpt lat="46.50764" lon="5.60972">
        <ele>394.1</ele>
        <time>2019-09-03T07:30:19Z</time>
      </trkpt>
      <trkpt lat="46.50768" lon="5.60978">
        <ele>394.2</ele>
        <time>2019-09-03T07:30:24Z</time>
      </trkpt>
      <trkpt lat="46.50771" lon="5.60982">
        <ele>394.3</ele>
        <time>2019-09-03T07:30:29Z</time>
      </trkpt>
      <trkpt lat="46.50775" lon="5.60985">
        <ele>394.6</ele>
        <time>2019-09-03T07:30:34Z</time>
      </trkpt>
      <trkpt lat="46.50779" lon="5.60989">
        <ele>395</ele>
        <time>2019-09-03T07:30:38Z</time>
      </trkpt>
      <trkpt lat="46.50784" lon="5.60991">
        <ele>395.4</ele>
        <time>2019-09-03T07:30:42Z</time>
      </trkpt>
      <trkpt lat="46.50789" lon="5.60992">
        <ele>396</ele>
        <time>2019-09-03T07:30:48Z</time>
      </trkpt>
      <trkpt lat="46.50802" lon="5.60996">
        <ele>397.3</ele>
        <time>2019-09-03T07:31:00Z</time>
      </trkpt>
      <trkpt lat="46.50807" lon="5.61">
        <ele>397.4</ele>
        <time>2019-09-03T07:31:05Z</time>
      </trkpt>
      <trkpt lat="46.50812" lon="5.61">
        <ele>397.6</ele>
        <time>2019-09-03T07:31:09Z</time>
      </trkpt>
      <trkpt lat="46.50816" lon="5.61003">
        <ele>398.1</ele>
        <time>2019-09-03T07:31:15Z</time>
      </trkpt>
      <trkpt lat="46.50822" lon="5.61005">
        <ele>398.9</ele>
        <time>2019-09-03T07:31:24Z</time>
      </trkpt>
      <trkpt lat="46.50826" lon="5.61009">
        <ele>399.5</ele>
        <time>2019-09-03T07:31:28Z</time>
      </trkpt>
      <trkpt lat="46.5083" lon="5.61013">
        <ele>400.3</ele>
        <time>2019-09-03T07:31:33Z</time>
      </trkpt>
      <trkpt lat="46.50835" lon="5.61019">
        <ele>401.8</ele>
        <time>2019-09-03T07:31:39Z</time>
      </trkpt>
      <trkpt lat="46.50838" lon="5.61025">
        <ele>403.7</ele>
        <time>2019-09-03T07:31:45Z</time>
      </trkpt>
      <trkpt lat="46.50842" lon="5.61026">
        <ele>405.3</ele>
        <time>2019-09-03T07:31:51Z</time>
      </trkpt>
      <trkpt lat="46.50847" lon="5.6103">
        <ele>406.8</ele>
        <time>2019-09-03T07:32:01Z</time>
      </trkpt>
      <trkpt lat="46.5085" lon="5.61035">
        <ele>407.2</ele>
        <time>2019-09-03T07:32:08Z</time>
      </trkpt>
      <trkpt lat="46.50873" lon="5.61051">
        <ele>408.6</ele>
        <time>2019-09-03T07:32:30Z</time>
      </trkpt>
      <trkpt lat="46.50878" lon="5.61053">
        <ele>408.5</ele>
        <time>2019-09-03T07:32:36Z</time>
      </trkpt>
      <trkpt lat="46.50882" lon="5.61059">
        <ele>408.2</ele>
        <time>2019-09-03T07:32:44Z</time>
      </trkpt>
      <trkpt lat="46.50887" lon="5.61063">
        <ele>408</ele>
        <time>2019-09-03T07:32:48Z</time>
      </trkpt>
      <trkpt lat="46.50891" lon="5.61065">
        <ele>408.1</ele>
        <time>2019-09-03T07:32:51Z</time>
      </trkpt>
      <trkpt lat="46.50903" lon="5.61079">
        <ele>409.9</ele>
        <time>2019-09-03T07:33:08Z</time>
      </trkpt>
      <trkpt lat="46.50913" lon="5.61096">
        <ele>411.5</ele>
        <time>2019-09-03T07:33:20Z</time>
      </trkpt>
      <trkpt lat="46.50918" lon="5.61094">
        <ele>411.8</ele>
        <time>2019-09-03T07:33:24Z</time>
      </trkpt>
      <trkpt lat="46.50929" lon="5.61102">
        <ele>413.5</ele>
        <time>2019-09-03T07:33:39Z</time>
      </trkpt>
      <trkpt lat="46.50934" lon="5.61105">
        <ele>414.3</ele>
        <time>2019-09-03T07:33:47Z</time>
      </trkpt>
      <trkpt lat="46.50939" lon="5.61105">
        <ele>414.8</ele>
        <time>2019-09-03T07:33:54Z</time>
      </trkpt>
      <trkpt lat="46.50961" lon="5.61104">
        <ele>417.7</ele>
        <time>2019-09-03T07:34:27Z</time>
      </trkpt>
      <trkpt lat="46.50966" lon="5.61101">
        <ele>418</ele>
        <time>2019-09-03T07:34:30Z</time>
      </trkpt>
      <trkpt lat="46.50977" lon="5.61095">
        <ele>420.5</ele>
        <time>2019-09-03T07:34:43Z</time>
      </trkpt>
      <trkpt lat="46.50982" lon="5.61093">
        <ele>420.7</ele>
        <time>2019-09-03T07:34:45Z</time>
      </trkpt>
      <trkpt lat="46.50996" lon="5.61078">
        <ele>422.4</ele>
        <time>2019-09-03T07:35:00Z</time>
      </trkpt>
      <trkpt lat="46.51" lon="5.61073">
        <ele>423.2</ele>
        <time>2019-09-03T07:35:05Z</time>
      </trkpt>
      <trkpt lat="46.5103" lon="5.61044">
        <ele>431</ele>
        <time>2019-09-03T07:35:59Z</time>
      </trkpt>
      <trkpt lat="46.51034" lon="5.61038">
        <ele>431.6</ele>
        <time>2019-09-03T07:36:04Z</time>
      </trkpt>
      <trkpt lat="46.51038" lon="5.61035">
        <ele>431.8</ele>
        <time>2019-09-03T07:36:06Z</time>
      </trkpt>
      <trkpt lat="46.51042" lon="5.6103">
        <ele>432.1</ele>
        <time>2019-09-03T07:36:09Z</time>
      </trkpt>
      <trkpt lat="46.51068" lon="5.61013">
        <ele>434.1</ele>
        <time>2019-09-03T07:36:32Z</time>
      </trkpt>
      <trkpt lat="46.51073" lon="5.61013">
        <ele>434.2</ele>
        <time>2019-09-03T07:36:34Z</time>
      </trkpt>
      <trkpt lat="46.51079" lon="5.61013">
        <ele>434.4</ele>
        <time>2019-09-03T07:36:38Z</time>
      </trkpt>
      <trkpt lat="46.51084" lon="5.61014">
        <ele>435.1</ele>
        <time>2019-09-03T07:36:44Z</time>
      </trkpt>
      <trkpt lat="46.51109" lon="5.61032">
        <ele>440.4</ele>
        <time>2019-09-03T07:37:11Z</time>
      </trkpt>
      <trkpt lat="46.51126" lon="5.61033">
        <ele>441.3</ele>
        <time>2019-09-03T07:37:34Z</time>
      </trkpt>
      <trkpt lat="46.5113" lon="5.61036">
        <ele>441.4</ele>
        <time>2019-09-03T07:37:38Z</time>
      </trkpt>
      <trkpt lat="46.51136" lon="5.61041">
        <ele>441.5</ele>
        <time>2019-09-03T07:37:44Z</time>
      </trkpt>
      <trkpt lat="46.51141" lon="5.61045">
        <ele>441.6</ele>
        <time>2019-09-03T07:37:49Z</time>
      </trkpt>
      <trkpt lat="46.51144" lon="5.61049">
        <ele>441.8</ele>
        <time>2019-09-03T07:37:55Z</time>
      </trkpt>
      <trkpt lat="46.51153" lon="5.61052">
        <ele>442.9</ele>
        <time>2019-09-03T07:38:01Z</time>
      </trkpt>
      <trkpt lat="46.51158" lon="5.61055">
        <ele>443.2</ele>
        <time>2019-09-03T07:38:04Z</time>
      </trkpt>
      <trkpt lat="46.51172" lon="5.61067">
        <ele>445.3</ele>
        <time>2019-09-03T07:38:21Z</time>
      </trkpt>
      <trkpt lat="46.51177" lon="5.61068">
        <ele>445.3</ele>
        <time>2019-09-03T07:38:27Z</time>
      </trkpt>
      <trkpt lat="46.51182" lon="5.61071">
        <ele>445.7</ele>
        <time>2019-09-03T07:38:35Z</time>
      </trkpt>
      <trkpt lat="46.5119" lon="5.61074">
        <ele>448.5</ele>
        <time>2019-09-03T07:38:53Z</time>
      </trkpt>
      <trkpt lat="46.51196" lon="5.6108">
        <ele>449</ele>
        <time>2019-09-03T07:39:01Z</time>
      </trkpt>
      <trkpt lat="46.512" lon="5.61081">
        <ele>449.5</ele>
        <time>2019-09-03T07:39:09Z</time>
      </trkpt>
      <trkpt lat="46.51205" lon="5.61078">
        <ele>453.7</ele>
        <time>2019-09-03T07:43:10Z</time>
      </trkpt>
      <trkpt lat="46.51211" lon="5.6108">
        <ele>454.3</ele>
        <time>2019-09-03T07:44:02Z</time>
      </trkpt>
      <trkpt lat="46.51216" lon="5.61082">
        <ele>454.6</ele>
        <time>2019-09-03T07:44:05Z</time>
      </trkpt>
      <trkpt lat="46.51221" lon="5.61083">
        <ele>455</ele>
        <time>2019-09-03T07:44:09Z</time>
      </trkpt>
      <trkpt lat="46.51225" lon="5.61086">
        <ele>455.4</ele>
        <time>2019-09-03T07:44:14Z</time>
      </trkpt>
      <trkpt lat="46.51229" lon="5.6109">
        <ele>455.7</ele>
        <time>2019-09-03T07:44:22Z</time>
      </trkpt>
      <trkpt lat="46.51236" lon="5.61104">
        <ele>455.8</ele>
        <time>2019-09-03T07:44:41Z</time>
      </trkpt>
      <trkpt lat="46.51239" lon="5.61109">
        <ele>455.9</ele>
        <time>2019-09-03T07:44:44Z</time>
      </trkpt>
      <trkpt lat="46.51243" lon="5.61115">
        <ele>456.2</ele>
        <time>2019-09-03T07:44:50Z</time>
      </trkpt>
      <trkpt lat="46.51246" lon="5.61121">
        <ele>456.4</ele>
        <time>2019-09-03T07:44:56Z</time>
      </trkpt>
      <trkpt lat="46.51249" lon="5.61126">
        <ele>456.7</ele>
        <time>2019-09-03T07:45:02Z</time>
      </trkpt>
      <trkpt lat="46.51253" lon="5.61131">
        <ele>456.8</ele>
        <time>2019-09-03T07:45:07Z</time>
      </trkpt>
      <trkpt lat="46.51255" lon="5.61137">
        <ele>456.8</ele>
        <time>2019-09-03T07:45:12Z</time>
      </trkpt>
      <trkpt lat="46.51266" lon="5.61149">
        <ele>456.4</ele>
        <time>2019-09-03T07:45:25Z</time>
      </trkpt>
      <trkpt lat="46.51269" lon="5.61154">
        <ele>456.2</ele>
        <time>2019-09-03T07:45:32Z</time>
      </trkpt>
      <trkpt lat="46.51273" lon="5.61159">
        <ele>456</ele>
        <time>2019-09-03T07:45:38Z</time>
      </trkpt>
      <trkpt lat="46.51277" lon="5.61161">
        <ele>455.9</ele>
        <time>2019-09-03T07:45:43Z</time>
      </trkpt>
      <trkpt lat="46.51282" lon="5.61164">
        <ele>455.7</ele>
        <time>2019-09-03T07:45:49Z</time>
      </trkpt>
      <trkpt lat="46.51299" lon="5.61165">
        <ele>456.8</ele>
        <time>2019-09-03T07:46:07Z</time>
      </trkpt>
      <trkpt lat="46.51305" lon="5.61164">
        <ele>458.5</ele>
        <time>2019-09-03T07:46:15Z</time>
      </trkpt>
      <trkpt lat="46.5131" lon="5.61164">
        <ele>460.1</ele>
        <time>2019-09-03T07:46:20Z</time>
      </trkpt>
      <trkpt lat="46.51314" lon="5.61165">
        <ele>461.2</ele>
        <time>2019-09-03T07:46:24Z</time>
      </trkpt>
      <trkpt lat="46.51324" lon="5.61169">
        <ele>464.5</ele>
        <time>2019-09-03T07:46:35Z</time>
      </trkpt>
      <trkpt lat="46.51328" lon="5.61172">
        <ele>465.4</ele>
        <time>2019-09-03T07:46:41Z</time>
      </trkpt>
      <trkpt lat="46.51333" lon="5.61175">
        <ele>466.2</ele>
        <time>2019-09-03T07:46:46Z</time>
      </trkpt>
      <trkpt lat="46.51338" lon="5.61177">
        <ele>467.1</ele>
        <time>2019-09-03T07:46:52Z</time>
      </trkpt>
      <trkpt lat="46.51343" lon="5.61179">
        <ele>467.8</ele>
        <time>2019-09-03T07:46:57Z</time>
      </trkpt>
      <trkpt lat="46.51346" lon="5.61183">
        <ele>468.7</ele>
        <time>2019-09-03T07:47:04Z</time>
      </trkpt>
      <trkpt lat="46.51349" lon="5.61178">
        <ele>469.7</ele>
        <time>2019-09-03T07:47:24Z</time>
      </trkpt>
      <trkpt lat="46.51357" lon="5.61179">
        <ele>471.3</ele>
        <time>2019-09-03T07:48:00Z</time>
      </trkpt>
      <trkpt lat="46.51362" lon="5.6118">
        <ele>474.4</ele>
        <time>2019-09-03T07:48:57Z</time>
      </trkpt>
      <trkpt lat="46.51366" lon="5.61183">
        <ele>475.8</ele>
        <time>2019-09-03T07:49:12Z</time>
      </trkpt>
      <trkpt lat="46.51371" lon="5.61181">
        <ele>476.6</ele>
        <time>2019-09-03T07:49:22Z</time>
      </trkpt>
      <trkpt lat="46.51375" lon="5.61179">
        <ele>477.4</ele>
        <time>2019-09-03T07:49:28Z</time>
      </trkpt>
      <trkpt lat="46.5138" lon="5.61179">
        <ele>478.1</ele>
        <time>2019-09-03T07:49:33Z</time>
      </trkpt>
      <trkpt lat="46.51384" lon="5.61176">
        <ele>478.9</ele>
        <time>2019-09-03T07:49:43Z</time>
      </trkpt>
      <trkpt lat="46.51388" lon="5.61171">
        <ele>479.2</ele>
        <time>2019-09-03T07:49:51Z</time>
      </trkpt>
      <trkpt lat="46.51392" lon="5.61166">
        <ele>479.3</ele>
        <time>2019-09-03T07:49:56Z</time>
      </trkpt>
      <trkpt lat="46.51395" lon="5.6116">
        <ele>479.3</ele>
        <time>2019-09-03T07:50:02Z</time>
      </trkpt>
      <trkpt lat="46.51398" lon="5.61155">
        <ele>479.2</ele>
        <time>2019-09-03T07:50:06Z</time>
      </trkpt>
      <trkpt lat="46.51401" lon="5.61148">
        <ele>479.3</ele>
        <time>2019-09-03T07:50:12Z</time>
      </trkpt>
      <trkpt lat="46.51403" lon="5.61142">
        <ele>479.5</ele>
        <time>2019-09-03T07:50:16Z</time>
      </trkpt>
      <trkpt lat="46.51404" lon="5.61135">
        <ele>480</ele>
        <time>2019-09-03T07:50:21Z</time>
      </trkpt>
      <trkpt lat="46.51407" lon="5.61129">
        <ele>480.5</ele>
        <time>2019-09-03T07:50:25Z</time>
      </trkpt>
      <trkpt lat="46.51409" lon="5.61123">
        <ele>481</ele>
        <time>2019-09-03T07:50:30Z</time>
      </trkpt>
      <trkpt lat="46.51411" lon="5.61117">
        <ele>481.4</ele>
        <time>2019-09-03T07:50:35Z</time>
      </trkpt>
      <trkpt lat="46.51413" lon="5.61111">
        <ele>481.7</ele>
        <time>2019-09-03T07:50:40Z</time>
      </trkpt>
      <trkpt lat="46.51416" lon="5.61105">
        <ele>481.9</ele>
        <time>2019-09-03T07:50:46Z</time>
      </trkpt>
      <trkpt lat="46.51418" lon="5.61099">
        <ele>482</ele>
        <time>2019-09-03T07:50:51Z</time>
      </trkpt>
      <trkpt lat="46.5142" lon="5.61093">
        <ele>482.2</ele>
        <time>2019-09-03T07:50:55Z</time>
      </trkpt>
      <trkpt lat="46.51422" lon="5.61086">
        <ele>482.5</ele>
        <time>2019-09-03T07:50:59Z</time>
      </trkpt>
      <trkpt lat="46.51424" lon="5.61079">
        <ele>482.9</ele>
        <time>2019-09-03T07:51:03Z</time>
      </trkpt>
      <trkpt lat="46.51425" lon="5.61073">
        <ele>483.3</ele>
        <time>2019-09-03T07:51:09Z</time>
      </trkpt>
      <trkpt lat="46.51427" lon="5.61065">
        <ele>483.9</ele>
        <time>2019-09-03T07:51:15Z</time>
      </trkpt>
      <trkpt lat="46.51428" lon="5.61058">
        <ele>484.4</ele>
        <time>2019-09-03T07:51:19Z</time>
      </trkpt>
      <trkpt lat="46.51428" lon="5.61052">
        <ele>484.7</ele>
        <time>2019-09-03T07:51:23Z</time>
      </trkpt>
      <trkpt lat="46.5143" lon="5.61045">
        <ele>485.1</ele>
        <time>2019-09-03T07:51:27Z</time>
      </trkpt>
      <trkpt lat="46.51431" lon="5.61038">
        <ele>485.3</ele>
        <time>2019-09-03T07:51:32Z</time>
      </trkpt>
      <trkpt lat="46.51432" lon="5.61032">
        <ele>485.5</ele>
        <time>2019-09-03T07:51:37Z</time>
      </trkpt>
      <trkpt lat="46.51433" lon="5.61024">
        <ele>485.7</ele>
        <time>2019-09-03T07:51:41Z</time>
      </trkpt>
      <trkpt lat="46.51433" lon="5.61016">
        <ele>485.9</ele>
        <time>2019-09-03T07:51:45Z</time>
      </trkpt>
      <trkpt lat="46.51431" lon="5.61009">
        <ele>486</ele>
        <time>2019-09-03T07:51:49Z</time>
      </trkpt>
      <trkpt lat="46.5143" lon="5.61001">
        <ele>486</ele>
        <time>2019-09-03T07:51:53Z</time>
      </trkpt>
      <trkpt lat="46.5143" lon="5.60993">
        <ele>486.1</ele>
        <time>2019-09-03T07:51:58Z</time>
      </trkpt>
      <trkpt lat="46.51429" lon="5.60986">
        <ele>486.3</ele>
        <time>2019-09-03T07:52:03Z</time>
      </trkpt>
      <trkpt lat="46.51429" lon="5.60979">
        <ele>486.6</ele>
        <time>2019-09-03T07:52:09Z</time>
      </trkpt>
      <trkpt lat="46.5143" lon="5.60972">
        <ele>486.7</ele>
        <time>2019-09-03T07:52:14Z</time>
      </trkpt>
      <trkpt lat="46.51429" lon="5.60965">
        <ele>486.8</ele>
        <time>2019-09-03T07:52:20Z</time>
      </trkpt>
      <trkpt lat="46.51429" lon="5.60958">
        <ele>486.7</ele>
        <time>2019-09-03T07:52:25Z</time>
      </trkpt>
      <trkpt lat="46.51428" lon="5.60951">
        <ele>486.7</ele>
        <time>2019-09-03T07:52:29Z</time>
      </trkpt>
      <trkpt lat="46.51427" lon="5.60944">
        <ele>486.7</ele>
        <time>2019-09-03T07:52:34Z</time>
      </trkpt>
      <trkpt lat="46.51425" lon="5.60938">
        <ele>486.8</ele>
        <time>2019-09-03T07:52:39Z</time>
      </trkpt>
      <trkpt lat="46.51423" lon="5.60931">
        <ele>486.9</ele>
        <time>2019-09-03T07:52:45Z</time>
      </trkpt>
      <trkpt lat="46.51422" lon="5.60924">
        <ele>486.7</ele>
        <time>2019-09-03T07:52:50Z</time>
      </trkpt>
      <trkpt lat="46.5142" lon="5.60917">
        <ele>486.6</ele>
        <time>2019-09-03T07:52:55Z</time>
      </trkpt>
      <trkpt lat="46.51419" lon="5.60909">
        <ele>486.9</ele>
        <time>2019-09-03T07:53:01Z</time>
      </trkpt>
      <trkpt lat="46.51418" lon="5.60902">
        <ele>487.5</ele>
        <time>2019-09-03T07:53:07Z</time>
      </trkpt>
      <trkpt lat="46.51419" lon="5.60896">
        <ele>488.4</ele>
        <time>2019-09-03T07:53:20Z</time>
      </trkpt>
      <trkpt lat="46.51419" lon="5.60889">
        <ele>488.7</ele>
        <time>2019-09-03T07:53:27Z</time>
      </trkpt>
      <trkpt lat="46.51419" lon="5.60882">
        <ele>488.9</ele>
        <time>2019-09-03T07:53:32Z</time>
      </trkpt>
      <trkpt lat="46.51421" lon="5.60875">
        <ele>489.2</ele>
        <time>2019-09-03T07:53:37Z</time>
      </trkpt>
      <trkpt lat="46.51423" lon="5.60867">
        <ele>489.6</ele>
        <time>2019-09-03T07:53:41Z</time>
      </trkpt>
      <trkpt lat="46.51425" lon="5.6086">
        <ele>490.1</ele>
        <time>2019-09-03T07:53:46Z</time>
      </trkpt>
      <trkpt lat="46.51428" lon="5.60855">
        <ele>490.5</ele>
        <time>2019-09-03T07:53:51Z</time>
      </trkpt>
      <trkpt lat="46.51432" lon="5.60849">
        <ele>490.8</ele>
        <time>2019-09-03T07:53:56Z</time>
      </trkpt>
      <trkpt lat="46.51434" lon="5.60843">
        <ele>490.9</ele>
        <time>2019-09-03T07:54:00Z</time>
      </trkpt>
      <trkpt lat="46.51437" lon="5.60837">
        <ele>490.8</ele>
        <time>2019-09-03T07:54:06Z</time>
      </trkpt>
      <trkpt lat="46.51441" lon="5.60832">
        <ele>490.8</ele>
        <time>2019-09-03T07:54:11Z</time>
      </trkpt>
      <trkpt lat="46.51445" lon="5.60827">
        <ele>490.8</ele>
        <time>2019-09-03T07:54:17Z</time>
      </trkpt>
      <trkpt lat="46.51449" lon="5.60823">
        <ele>490.8</ele>
        <time>2019-09-03T07:54:22Z</time>
      </trkpt>
      <trkpt lat="46.51453" lon="5.60818">
        <ele>490.6</ele>
        <time>2019-09-03T07:54:27Z</time>
      </trkpt>
      <trkpt lat="46.51456" lon="5.60813">
        <ele>490.6</ele>
        <time>2019-09-03T07:54:31Z</time>
      </trkpt>
      <trkpt lat="46.51461" lon="5.60809">
        <ele>490.5</ele>
        <time>2019-09-03T07:54:36Z</time>
      </trkpt>
      <trkpt lat="46.51464" lon="5.60804">
        <ele>490.4</ele>
        <time>2019-09-03T07:54:40Z</time>
      </trkpt>
      <trkpt lat="46.51469" lon="5.608">
        <ele>490.4</ele>
        <time>2019-09-03T07:54:45Z</time>
      </trkpt>
      <trkpt lat="46.51474" lon="5.60797">
        <ele>490.4</ele>
        <time>2019-09-03T07:54:51Z</time>
      </trkpt>
      <trkpt lat="46.51479" lon="5.60795">
        <ele>490.4</ele>
        <time>2019-09-03T07:54:57Z</time>
      </trkpt>
      <trkpt lat="46.51483" lon="5.60794">
        <ele>490.5</ele>
        <time>2019-09-03T07:55:02Z</time>
      </trkpt>
      <trkpt lat="46.51489" lon="5.60793">
        <ele>490.8</ele>
        <time>2019-09-03T07:55:07Z</time>
      </trkpt>
      <trkpt lat="46.51494" lon="5.60791">
        <ele>491.1</ele>
        <time>2019-09-03T07:55:12Z</time>
      </trkpt>
      <trkpt lat="46.51498" lon="5.60789">
        <ele>491.4</ele>
        <time>2019-09-03T07:55:17Z</time>
      </trkpt>
      <trkpt lat="46.51503" lon="5.60784">
        <ele>491.7</ele>
        <time>2019-09-03T07:55:22Z</time>
      </trkpt>
      <trkpt lat="46.51508" lon="5.60784">
        <ele>492</ele>
        <time>2019-09-03T07:55:27Z</time>
      </trkpt>
      <trkpt lat="46.51513" lon="5.60784">
        <ele>492.2</ele>
        <time>2019-09-03T07:55:32Z</time>
      </trkpt>
      <trkpt lat="46.51518" lon="5.60785">
        <ele>492.3</ele>
        <time>2019-09-03T07:55:37Z</time>
      </trkpt>
      <trkpt lat="46.51523" lon="5.60784">
        <ele>492</ele>
        <time>2019-09-03T07:55:43Z</time>
      </trkpt>
      <trkpt lat="46.51537" lon="5.60784">
        <ele>491.3</ele>
        <time>2019-09-03T07:55:57Z</time>
      </trkpt>
      <trkpt lat="46.51542" lon="5.60783">
        <ele>491.4</ele>
        <time>2019-09-03T07:56:02Z</time>
      </trkpt>
      <trkpt lat="46.51547" lon="5.60783">
        <ele>491.4</ele>
        <time>2019-09-03T07:56:06Z</time>
      </trkpt>
      <trkpt lat="46.51552" lon="5.60783">
        <ele>491.5</ele>
        <time>2019-09-03T07:56:11Z</time>
      </trkpt>
      <trkpt lat="46.51557" lon="5.60784">
        <ele>491.6</ele>
        <time>2019-09-03T07:56:16Z</time>
      </trkpt>
      <trkpt lat="46.51563" lon="5.60785">
        <ele>491.7</ele>
        <time>2019-09-03T07:56:21Z</time>
      </trkpt>
      <trkpt lat="46.51567" lon="5.60786">
        <ele>491.8</ele>
        <time>2019-09-03T07:56:25Z</time>
      </trkpt>
      <trkpt lat="46.51572" lon="5.60787">
        <ele>492</ele>
        <time>2019-09-03T07:56:29Z</time>
      </trkpt>
      <trkpt lat="46.51577" lon="5.60788">
        <ele>492.3</ele>
        <time>2019-09-03T07:56:34Z</time>
      </trkpt>
      <trkpt lat="46.51582" lon="5.60789">
        <ele>492.6</ele>
        <time>2019-09-03T07:56:38Z</time>
      </trkpt>
      <trkpt lat="46.51586" lon="5.60792">
        <ele>492.8</ele>
        <time>2019-09-03T07:56:42Z</time>
      </trkpt>
      <trkpt lat="46.51591" lon="5.60794">
        <ele>493.1</ele>
        <time>2019-09-03T07:56:47Z</time>
      </trkpt>
      <trkpt lat="46.51596" lon="5.60795">
        <ele>493.4</ele>
        <time>2019-09-03T07:56:52Z</time>
      </trkpt>
      <trkpt lat="46.51601" lon="5.60797">
        <ele>493.7</ele>
        <time>2019-09-03T07:56:57Z</time>
      </trkpt>
      <trkpt lat="46.51605" lon="5.608">
        <ele>493.9</ele>
        <time>2019-09-03T07:57:02Z</time>
      </trkpt>
      <trkpt lat="46.51611" lon="5.60802">
        <ele>494.3</ele>
        <time>2019-09-03T07:57:07Z</time>
      </trkpt>
      <trkpt lat="46.51615" lon="5.60805">
        <ele>494.7</ele>
        <time>2019-09-03T07:57:13Z</time>
      </trkpt>
      <trkpt lat="46.5162" lon="5.60808">
        <ele>495</ele>
        <time>2019-09-03T07:57:18Z</time>
      </trkpt>
      <trkpt lat="46.51624" lon="5.60811">
        <ele>495.1</ele>
        <time>2019-09-03T07:57:22Z</time>
      </trkpt>
      <trkpt lat="46.5163" lon="5.60814">
        <ele>495.1</ele>
        <time>2019-09-03T07:57:26Z</time>
      </trkpt>
      <trkpt lat="46.51635" lon="5.60817">
        <ele>495.3</ele>
        <time>2019-09-03T07:57:30Z</time>
      </trkpt>
      <trkpt lat="46.5164" lon="5.60819">
        <ele>495.4</ele>
        <time>2019-09-03T07:57:35Z</time>
      </trkpt>
      <trkpt lat="46.51644" lon="5.60823">
        <ele>495.4</ele>
        <time>2019-09-03T07:57:40Z</time>
      </trkpt>
      <trkpt lat="46.51666" lon="5.60835">
        <ele>494.2</ele>
        <time>2019-09-03T07:57:58Z</time>
      </trkpt>
      <trkpt lat="46.51671" lon="5.60839">
        <ele>494</ele>
        <time>2019-09-03T07:58:03Z</time>
      </trkpt>
      <trkpt lat="46.51676" lon="5.60843">
        <ele>493.9</ele>
        <time>2019-09-03T07:58:07Z</time>
      </trkpt>
      <trkpt lat="46.51681" lon="5.60847">
        <ele>494.2</ele>
        <time>2019-09-03T07:58:11Z</time>
      </trkpt>
      <trkpt lat="46.51686" lon="5.60848">
        <ele>494.6</ele>
        <time>2019-09-03T07:58:15Z</time>
      </trkpt>
      <trkpt lat="46.51691" lon="5.60848">
        <ele>495.1</ele>
        <time>2019-09-03T07:58:19Z</time>
      </trkpt>
      <trkpt lat="46.51696" lon="5.60848">
        <ele>495.7</ele>
        <time>2019-09-03T07:58:25Z</time>
      </trkpt>
      <trkpt lat="46.517" lon="5.60847">
        <ele>495.9</ele>
        <time>2019-09-03T07:58:30Z</time>
      </trkpt>
      <trkpt lat="46.51705" lon="5.60846">
        <ele>495.9</ele>
        <time>2019-09-03T07:58:35Z</time>
      </trkpt>
      <trkpt lat="46.5171" lon="5.60847">
        <ele>495.9</ele>
        <time>2019-09-03T07:58:39Z</time>
      </trkpt>
      <trkpt lat="46.51715" lon="5.60846">
        <ele>496</ele>
        <time>2019-09-03T07:58:44Z</time>
      </trkpt>
      <trkpt lat="46.5172" lon="5.60846">
        <ele>496.1</ele>
        <time>2019-09-03T07:58:49Z</time>
      </trkpt>
      <trkpt lat="46.51724" lon="5.60846">
        <ele>496.3</ele>
        <time>2019-09-03T07:58:56Z</time>
      </trkpt>
      <trkpt lat="46.51729" lon="5.60845">
        <ele>496.4</ele>
        <time>2019-09-03T07:59:00Z</time>
      </trkpt>
      <trkpt lat="46.51734" lon="5.60846">
        <ele>496.5</ele>
        <time>2019-09-03T07:59:05Z</time>
      </trkpt>
      <trkpt lat="46.51739" lon="5.60846">
        <ele>496.7</ele>
        <time>2019-09-03T07:59:11Z</time>
      </trkpt>
      <trkpt lat="46.51744" lon="5.60845">
        <ele>496.6</ele>
        <time>2019-09-03T07:59:18Z</time>
      </trkpt>
      <trkpt lat="46.51748" lon="5.60849">
        <ele>496.7</ele>
        <time>2019-09-03T07:59:22Z</time>
      </trkpt>
      <trkpt lat="46.51753" lon="5.60852">
        <ele>496.9</ele>
        <time>2019-09-03T07:59:26Z</time>
      </trkpt>
      <trkpt lat="46.51757" lon="5.60857">
        <ele>497.3</ele>
        <time>2019-09-03T07:59:32Z</time>
      </trkpt>
      <trkpt lat="46.51761" lon="5.60862">
        <ele>497.5</ele>
        <time>2019-09-03T07:59:36Z</time>
      </trkpt>
      <trkpt lat="46.51766" lon="5.60866">
        <ele>497.7</ele>
        <time>2019-09-03T07:59:40Z</time>
      </trkpt>
      <trkpt lat="46.51771" lon="5.60868">
        <ele>497.8</ele>
        <time>2019-09-03T07:59:44Z</time>
      </trkpt>
      <trkpt lat="46.51775" lon="5.6087">
        <ele>497.8</ele>
        <time>2019-09-03T07:59:50Z</time>
      </trkpt>
      <trkpt lat="46.5178" lon="5.60873">
        <ele>497.8</ele>
        <time>2019-09-03T07:59:55Z</time>
      </trkpt>
      <trkpt lat="46.51785" lon="5.60876">
        <ele>497.9</ele>
        <time>2019-09-03T08:00:00Z</time>
      </trkpt>
      <trkpt lat="46.51789" lon="5.60879">
        <ele>498.2</ele>
        <time>2019-09-03T08:00:04Z</time>
      </trkpt>
      <trkpt lat="46.51794" lon="5.6088">
        <ele>498.4</ele>
        <time>2019-09-03T08:00:08Z</time>
      </trkpt>
      <trkpt lat="46.51799" lon="5.60882">
        <ele>498.7</ele>
        <time>2019-09-03T08:00:12Z</time>
      </trkpt>
      <trkpt lat="46.51804" lon="5.60885">
        <ele>499.2</ele>
        <time>2019-09-03T08:00:17Z</time>
      </trkpt>
      <trkpt lat="46.51808" lon="5.60889">
        <ele>499.8</ele>
        <time>2019-09-03T08:00:22Z</time>
      </trkpt>
      <trkpt lat="46.51813" lon="5.60892">
        <ele>500.4</ele>
        <time>2019-09-03T08:00:27Z</time>
      </trkpt>
      <trkpt lat="46.51818" lon="5.60895">
        <ele>500.8</ele>
        <time>2019-09-03T08:00:31Z</time>
      </trkpt>
      <trkpt lat="46.51823" lon="5.60897">
        <ele>501.3</ele>
        <time>2019-09-03T08:00:35Z</time>
      </trkpt>
      <trkpt lat="46.51828" lon="5.609">
        <ele>501.8</ele>
        <time>2019-09-03T08:00:40Z</time>
      </trkpt>
      <trkpt lat="46.51832" lon="5.60903">
        <ele>502.1</ele>
        <time>2019-09-03T08:00:44Z</time>
      </trkpt>
      <trkpt lat="46.51836" lon="5.60906">
        <ele>502.5</ele>
        <time>2019-09-03T08:00:49Z</time>
      </trkpt>
      <trkpt lat="46.5184" lon="5.60908">
        <ele>503</ele>
        <time>2019-09-03T08:00:55Z</time>
      </trkpt>
      <trkpt lat="46.51845" lon="5.60911">
        <ele>503.6</ele>
        <time>2019-09-03T08:01:01Z</time>
      </trkpt>
      <trkpt lat="46.5185" lon="5.60914">
        <ele>504.2</ele>
        <time>2019-09-03T08:01:07Z</time>
      </trkpt>
      <trkpt lat="46.51855" lon="5.60917">
        <ele>504.7</ele>
        <time>2019-09-03T08:01:12Z</time>
      </trkpt>
      <trkpt lat="46.51859" lon="5.6092">
        <ele>505.2</ele>
        <time>2019-09-03T08:01:16Z</time>
      </trkpt>
      <trkpt lat="46.51863" lon="5.60923">
        <ele>505.6</ele>
        <time>2019-09-03T08:01:20Z</time>
      </trkpt>
      <trkpt lat="46.51868" lon="5.60926">
        <ele>506.1</ele>
        <time>2019-09-03T08:01:26Z</time>
      </trkpt>
      <trkpt lat="46.51872" lon="5.60931">
        <ele>506.4</ele>
        <time>2019-09-03T08:01:31Z</time>
      </trkpt>
      <trkpt lat="46.51876" lon="5.60933">
        <ele>506.6</ele>
        <time>2019-09-03T08:01:36Z</time>
      </trkpt>
      <trkpt lat="46.51881" lon="5.60935">
        <ele>506.7</ele>
        <time>2019-09-03T08:01:40Z</time>
      </trkpt>
      <trkpt lat="46.51886" lon="5.60939">
        <ele>506.7</ele>
        <time>2019-09-03T08:01:45Z</time>
      </trkpt>
      <trkpt lat="46.5189" lon="5.60941">
        <ele>506.7</ele>
        <time>2019-09-03T08:01:50Z</time>
      </trkpt>
      <trkpt lat="46.51895" lon="5.60944">
        <ele>506.6</ele>
        <time>2019-09-03T08:01:54Z</time>
      </trkpt>
      <trkpt lat="46.51899" lon="5.60948">
        <ele>506.4</ele>
        <time>2019-09-03T08:01:58Z</time>
      </trkpt>
      <trkpt lat="46.51903" lon="5.60952">
        <ele>506.4</ele>
        <time>2019-09-03T08:02:03Z</time>
      </trkpt>
      <trkpt lat="46.51908" lon="5.60955">
        <ele>506.4</ele>
        <time>2019-09-03T08:02:09Z</time>
      </trkpt>
      <trkpt lat="46.51913" lon="5.60957">
        <ele>506.5</ele>
        <time>2019-09-03T08:02:14Z</time>
      </trkpt>
      <trkpt lat="46.51917" lon="5.6096">
        <ele>506.8</ele>
        <time>2019-09-03T08:02:18Z</time>
      </trkpt>
      <trkpt lat="46.51923" lon="5.60962">
        <ele>507.1</ele>
        <time>2019-09-03T08:02:22Z</time>
      </trkpt>
      <trkpt lat="46.51927" lon="5.60964">
        <ele>507.3</ele>
        <time>2019-09-03T08:02:26Z</time>
      </trkpt>
      <trkpt lat="46.51932" lon="5.60966">
        <ele>507.5</ele>
        <time>2019-09-03T08:02:31Z</time>
      </trkpt>
      <trkpt lat="46.51937" lon="5.6097">
        <ele>507.8</ele>
        <time>2019-09-03T08:02:37Z</time>
      </trkpt>
      <trkpt lat="46.51942" lon="5.60974">
        <ele>508.1</ele>
        <time>2019-09-03T08:02:42Z</time>
      </trkpt>
      <trkpt lat="46.51946" lon="5.60976">
        <ele>508.2</ele>
        <time>2019-09-03T08:02:46Z</time>
      </trkpt>
      <trkpt lat="46.51951" lon="5.6098">
        <ele>508.3</ele>
        <time>2019-09-03T08:02:52Z</time>
      </trkpt>
      <trkpt lat="46.51955" lon="5.60985">
        <ele>508.1</ele>
        <time>2019-09-03T08:02:57Z</time>
      </trkpt>
      <trkpt lat="46.51959" lon="5.6099">
        <ele>508.1</ele>
        <time>2019-09-03T08:03:01Z</time>
      </trkpt>
      <trkpt lat="46.51962" lon="5.60994">
        <ele>508.1</ele>
        <time>2019-09-03T08:03:06Z</time>
      </trkpt>
      <trkpt lat="46.51967" lon="5.60997">
        <ele>508.3</ele>
        <time>2019-09-03T08:03:12Z</time>
      </trkpt>
      <trkpt lat="46.51972" lon="5.61">
        <ele>508.7</ele>
        <time>2019-09-03T08:03:18Z</time>
      </trkpt>
      <trkpt lat="46.51977" lon="5.61003">
        <ele>508.8</ele>
        <time>2019-09-03T08:03:23Z</time>
      </trkpt>
      <trkpt lat="46.51991" lon="5.61012">
        <ele>508.6</ele>
        <time>2019-09-03T08:03:35Z</time>
      </trkpt>
      <trkpt lat="46.51995" lon="5.61016">
        <ele>508.6</ele>
        <time>2019-09-03T08:03:39Z</time>
      </trkpt>
      <trkpt lat="46.52" lon="5.61019">
        <ele>508.8</ele>
        <time>2019-09-03T08:03:43Z</time>
      </trkpt>
      <trkpt lat="46.52005" lon="5.61023">
        <ele>509.3</ele>
        <time>2019-09-03T08:03:47Z</time>
      </trkpt>
      <trkpt lat="46.5201" lon="5.61026">
        <ele>509.9</ele>
        <time>2019-09-03T08:03:51Z</time>
      </trkpt>
      <trkpt lat="46.52015" lon="5.61029">
        <ele>510.9</ele>
        <time>2019-09-03T08:03:56Z</time>
      </trkpt>
      <trkpt lat="46.5202" lon="5.61031">
        <ele>512.4</ele>
        <time>2019-09-03T08:04:07Z</time>
      </trkpt>
      <trkpt lat="46.52025" lon="5.61033">
        <ele>513</ele>
        <time>2019-09-03T08:04:12Z</time>
      </trkpt>
      <trkpt lat="46.52029" lon="5.61035">
        <ele>513.4</ele>
        <time>2019-09-03T08:04:16Z</time>
      </trkpt>
      <trkpt lat="46.52034" lon="5.61038">
        <ele>513.7</ele>
        <time>2019-09-03T08:04:23Z</time>
      </trkpt>
      <trkpt lat="46.52039" lon="5.61039">
        <ele>513.8</ele>
        <time>2019-09-03T08:04:30Z</time>
      </trkpt>
      <trkpt lat="46.52044" lon="5.61043">
        <ele>513.9</ele>
        <time>2019-09-03T08:04:36Z</time>
      </trkpt>
      <trkpt lat="46.52047" lon="5.61046">
        <ele>513.9</ele>
        <time>2019-09-03T08:04:40Z</time>
      </trkpt>
      <trkpt lat="46.52052" lon="5.61049">
        <ele>513.9</ele>
        <time>2019-09-03T08:04:44Z</time>
      </trkpt>
      <trkpt lat="46.52056" lon="5.61054">
        <ele>513.9</ele>
        <time>2019-09-03T08:04:49Z</time>
      </trkpt>
      <trkpt lat="46.5206" lon="5.6106">
        <ele>513.8</ele>
        <time>2019-09-03T08:04:53Z</time>
      </trkpt>
      <trkpt lat="46.52063" lon="5.61066">
        <ele>513.6</ele>
        <time>2019-09-03T08:04:58Z</time>
      </trkpt>
      <trkpt lat="46.52066" lon="5.6107">
        <ele>513.6</ele>
        <time>2019-09-03T08:05:02Z</time>
      </trkpt>
      <trkpt lat="46.5207" lon="5.61074">
        <ele>513.7</ele>
        <time>2019-09-03T08:05:06Z</time>
      </trkpt>
      <trkpt lat="46.52075" lon="5.61078">
        <ele>513.9</ele>
        <time>2019-09-03T08:05:11Z</time>
      </trkpt>
      <trkpt lat="46.52079" lon="5.61081">
        <ele>514.2</ele>
        <time>2019-09-03T08:05:15Z</time>
      </trkpt>
      <trkpt lat="46.52083" lon="5.61086">
        <ele>514.4</ele>
        <time>2019-09-03T08:05:19Z</time>
      </trkpt>
      <trkpt lat="46.52087" lon="5.6109">
        <ele>514.4</ele>
        <time>2019-09-03T08:05:23Z</time>
      </trkpt>
      <trkpt lat="46.52091" lon="5.61093">
        <ele>514.1</ele>
        <time>2019-09-03T08:05:30Z</time>
      </trkpt>
      <trkpt lat="46.52096" lon="5.61096">
        <ele>513.9</ele>
        <time>2019-09-03T08:05:41Z</time>
      </trkpt>
      <trkpt lat="46.521" lon="5.61097">
        <ele>513.7</ele>
        <time>2019-09-03T08:05:45Z</time>
      </trkpt>
      <trkpt lat="46.52104" lon="5.61093">
        <ele>513.1</ele>
        <time>2019-09-03T08:05:51Z</time>
      </trkpt>
      <trkpt lat="46.52109" lon="5.6109">
        <ele>512.6</ele>
        <time>2019-09-03T08:05:58Z</time>
      </trkpt>
      <trkpt lat="46.5212" lon="5.61086">
        <ele>511.4</ele>
        <time>2019-09-03T08:06:12Z</time>
      </trkpt>
      <trkpt lat="46.52124" lon="5.61081">
        <ele>511</ele>
        <time>2019-09-03T08:06:18Z</time>
      </trkpt>
      <trkpt lat="46.52127" lon="5.61075">
        <ele>510.4</ele>
        <time>2019-09-03T08:06:24Z</time>
      </trkpt>
      <trkpt lat="46.52131" lon="5.61071">
        <ele>509.9</ele>
        <time>2019-09-03T08:06:28Z</time>
      </trkpt>
      <trkpt lat="46.52136" lon="5.6107">
        <ele>509.6</ele>
        <time>2019-09-03T08:06:32Z</time>
      </trkpt>
      <trkpt lat="46.5214" lon="5.61072">
        <ele>509.3</ele>
        <time>2019-09-03T08:06:36Z</time>
      </trkpt>
      <trkpt lat="46.52145" lon="5.61075">
        <ele>509.3</ele>
        <time>2019-09-03T08:06:42Z</time>
      </trkpt>
      <trkpt lat="46.52147" lon="5.61081">
        <ele>509.5</ele>
        <time>2019-09-03T08:06:46Z</time>
      </trkpt>
      <trkpt lat="46.5215" lon="5.61087">
        <ele>510.1</ele>
        <time>2019-09-03T08:06:53Z</time>
      </trkpt>
      <trkpt lat="46.52153" lon="5.61093">
        <ele>510.7</ele>
        <time>2019-09-03T08:06:59Z</time>
      </trkpt>
      <trkpt lat="46.52156" lon="5.61099">
        <ele>511.3</ele>
        <time>2019-09-03T08:07:04Z</time>
      </trkpt>
      <trkpt lat="46.52174" lon="5.61112">
        <ele>514.2</ele>
        <time>2019-09-03T08:07:35Z</time>
      </trkpt>
      <trkpt lat="46.52179" lon="5.6111">
        <ele>515</ele>
        <time>2019-09-03T08:07:41Z</time>
      </trkpt>
      <trkpt lat="46.52183" lon="5.61108">
        <ele>515.5</ele>
        <time>2019-09-03T08:07:46Z</time>
      </trkpt>
      <trkpt lat="46.52188" lon="5.6111">
        <ele>516</ele>
        <time>2019-09-03T08:07:51Z</time>
      </trkpt>
      <trkpt lat="46.52193" lon="5.61113">
        <ele>516.9</ele>
        <time>2019-09-03T08:07:57Z</time>
      </trkpt>
      <trkpt lat="46.52198" lon="5.61115">
        <ele>517.8</ele>
        <time>2019-09-03T08:08:02Z</time>
      </trkpt>
      <trkpt lat="46.52219" lon="5.61126">
        <ele>523.5</ele>
        <time>2019-09-03T08:08:22Z</time>
      </trkpt>
      <trkpt lat="46.52217" lon="5.61134">
        <ele>523.7</ele>
        <time>2019-09-03T08:08:25Z</time>
      </trkpt>
      <trkpt lat="46.52216" lon="5.61141">
        <ele>523.9</ele>
        <time>2019-09-03T08:08:27Z</time>
      </trkpt>
      <trkpt lat="46.52214" lon="5.61148">
        <ele>524.1</ele>
        <time>2019-09-03T08:08:31Z</time>
      </trkpt>
      <trkpt lat="46.52208" lon="5.61159">
        <ele>520.6</ele>
        <time>2019-09-03T08:09:24Z</time>
      </trkpt>
      <trkpt lat="46.52208" lon="5.61167">
        <ele>520.2</ele>
        <time>2019-09-03T08:09:29Z</time>
      </trkpt>
      <trkpt lat="46.52206" lon="5.61185">
        <ele>519</ele>
        <time>2019-09-03T08:09:48Z</time>
      </trkpt>
      <trkpt lat="46.52206" lon="5.61193">
        <ele>519.5</ele>
        <time>2019-09-03T08:09:53Z</time>
      </trkpt>
      <trkpt lat="46.52207" lon="5.61199">
        <ele>520</ele>
        <time>2019-09-03T08:09:58Z</time>
      </trkpt>
      <trkpt lat="46.52209" lon="5.61206">
        <ele>520.7</ele>
        <time>2019-09-03T08:10:03Z</time>
      </trkpt>
      <trkpt lat="46.52207" lon="5.61245">
        <ele>528</ele>
        <time>2019-09-03T08:10:49Z</time>
      </trkpt>
      <trkpt lat="46.52208" lon="5.61252">
        <ele>527.5</ele>
        <time>2019-09-03T08:10:53Z</time>
      </trkpt>
      <trkpt lat="46.52211" lon="5.61259">
        <ele>526.8</ele>
        <time>2019-09-03T08:10:58Z</time>
      </trkpt>
      <trkpt lat="46.52212" lon="5.61265">
        <ele>526.2</ele>
        <time>2019-09-03T08:11:02Z</time>
      </trkpt>
      <trkpt lat="46.52213" lon="5.61272">
        <ele>525.3</ele>
        <time>2019-09-03T08:11:08Z</time>
      </trkpt>
      <trkpt lat="46.52214" lon="5.61279">
        <ele>524.7</ele>
        <time>2019-09-03T08:11:14Z</time>
      </trkpt>
      <trkpt lat="46.52217" lon="5.61285">
        <ele>524.4</ele>
        <time>2019-09-03T08:11:19Z</time>
      </trkpt>
      <trkpt lat="46.52221" lon="5.61301">
        <ele>523.3</ele>
        <time>2019-09-03T08:11:31Z</time>
      </trkpt>
      <trkpt lat="46.52223" lon="5.61307">
        <ele>523.1</ele>
        <time>2019-09-03T08:11:35Z</time>
      </trkpt>
      <trkpt lat="46.52224" lon="5.61313">
        <ele>523</ele>
        <time>2019-09-03T08:11:39Z</time>
      </trkpt>
      <trkpt lat="46.5223" lon="5.61328">
        <ele>522.3</ele>
        <time>2019-09-03T08:11:51Z</time>
      </trkpt>
      <trkpt lat="46.52239" lon="5.61346">
        <ele>522.4</ele>
        <time>2019-09-03T08:12:04Z</time>
      </trkpt>
      <trkpt lat="46.52241" lon="5.61353">
        <ele>522.5</ele>
        <time>2019-09-03T08:12:10Z</time>
      </trkpt>
      <trkpt lat="46.52242" lon="5.61359">
        <ele>522.4</ele>
        <time>2019-09-03T08:12:18Z</time>
      </trkpt>
      <trkpt lat="46.52243" lon="5.61366">
        <ele>521.6</ele>
        <time>2019-09-03T08:12:25Z</time>
      </trkpt>
      <trkpt lat="46.52249" lon="5.61377">
        <ele>520.6</ele>
        <time>2019-09-03T08:13:21Z</time>
      </trkpt>
      <trkpt lat="46.5225" lon="5.61383">
        <ele>520.1</ele>
        <time>2019-09-03T08:13:30Z</time>
      </trkpt>
      <trkpt lat="46.52251" lon="5.6139">
        <ele>519.6</ele>
        <time>2019-09-03T08:13:36Z</time>
      </trkpt>
      <trkpt lat="46.52254" lon="5.61396">
        <ele>519</ele>
        <time>2019-09-03T08:13:43Z</time>
      </trkpt>
      <trkpt lat="46.52257" lon="5.61401">
        <ele>518.4</ele>
        <time>2019-09-03T08:13:49Z</time>
      </trkpt>
      <trkpt lat="46.5226" lon="5.61408">
        <ele>517.5</ele>
        <time>2019-09-03T08:13:55Z</time>
      </trkpt>
      <trkpt lat="46.52263" lon="5.61413">
        <ele>515.9</ele>
        <time>2019-09-03T08:14:05Z</time>
      </trkpt>
      <trkpt lat="46.52264" lon="5.61423">
        <ele>513.4</ele>
        <time>2019-09-03T08:14:21Z</time>
      </trkpt>
      <trkpt lat="46.52266" lon="5.6143">
        <ele>512.8</ele>
        <time>2019-09-03T08:14:25Z</time>
      </trkpt>
      <trkpt lat="46.5227" lon="5.61446">
        <ele>511.4</ele>
        <time>2019-09-03T08:14:44Z</time>
      </trkpt>
      <trkpt lat="46.52274" lon="5.61451">
        <ele>511.5</ele>
        <time>2019-09-03T08:15:03Z</time>
      </trkpt>
      <trkpt lat="46.52276" lon="5.61458">
        <ele>511.6</ele>
        <time>2019-09-03T08:15:06Z</time>
      </trkpt>
      <trkpt lat="46.5228" lon="5.61463">
        <ele>511.7</ele>
        <time>2019-09-03T08:15:09Z</time>
      </trkpt>
      <trkpt lat="46.5229" lon="5.61479">
        <ele>510.7</ele>
        <time>2019-09-03T08:15:25Z</time>
      </trkpt>
      <trkpt lat="46.52293" lon="5.61484">
        <ele>510.4</ele>
        <time>2019-09-03T08:15:29Z</time>
      </trkpt>
      <trkpt lat="46.52296" lon="5.61489">
        <ele>510.1</ele>
        <time>2019-09-03T08:15:33Z</time>
      </trkpt>
      <trkpt lat="46.52299" lon="5.61495">
        <ele>509.7</ele>
        <time>2019-09-03T08:15:39Z</time>
      </trkpt>
      <trkpt lat="46.52302" lon="5.61499">
        <ele>509.5</ele>
        <time>2019-09-03T08:15:43Z</time>
      </trkpt>
      <trkpt lat="46.52307" lon="5.61504">
        <ele>509.1</ele>
        <time>2019-09-03T08:15:47Z</time>
      </trkpt>
      <trkpt lat="46.5231" lon="5.61508">
        <ele>508.7</ele>
        <time>2019-09-03T08:15:50Z</time>
      </trkpt>
      <trkpt lat="46.52313" lon="5.61514">
        <ele>508.1</ele>
        <time>2019-09-03T08:15:54Z</time>
      </trkpt>
      <trkpt lat="46.52316" lon="5.61519">
        <ele>506.7</ele>
        <time>2019-09-03T08:16:05Z</time>
      </trkpt>
      <trkpt lat="46.52319" lon="5.61524">
        <ele>506.3</ele>
        <time>2019-09-03T08:16:11Z</time>
      </trkpt>
      <trkpt lat="46.52323" lon="5.61529">
        <ele>506.2</ele>
        <time>2019-09-03T08:16:15Z</time>
      </trkpt>
      <trkpt lat="46.52327" lon="5.61532">
        <ele>506.1</ele>
        <time>2019-09-03T08:16:19Z</time>
      </trkpt>
      <trkpt lat="46.52331" lon="5.61537">
        <ele>506</ele>
        <time>2019-09-03T08:16:22Z</time>
      </trkpt>
      <trkpt lat="46.52336" lon="5.61542">
        <ele>505.8</ele>
        <time>2019-09-03T08:16:26Z</time>
      </trkpt>
      <trkpt lat="46.52339" lon="5.61548">
        <ele>505.6</ele>
        <time>2019-09-03T08:16:30Z</time>
      </trkpt>
      <trkpt lat="46.52341" lon="5.61555">
        <ele>505.4</ele>
        <time>2019-09-03T08:16:33Z</time>
      </trkpt>
      <trkpt lat="46.52342" lon="5.61562">
        <ele>505</ele>
        <time>2019-09-03T08:16:38Z</time>
      </trkpt>
      <trkpt lat="46.52345" lon="5.61568">
        <ele>504.5</ele>
        <time>2019-09-03T08:16:44Z</time>
      </trkpt>
      <trkpt lat="46.52346" lon="5.61575">
        <ele>504.3</ele>
        <time>2019-09-03T08:16:49Z</time>
      </trkpt>
      <trkpt lat="46.52347" lon="5.61581">
        <ele>504.1</ele>
        <time>2019-09-03T08:16:54Z</time>
      </trkpt>
      <trkpt lat="46.52347" lon="5.61588">
        <ele>503.9</ele>
        <time>2019-09-03T08:16:59Z</time>
      </trkpt>
      <trkpt lat="46.5235" lon="5.61594">
        <ele>503.6</ele>
        <time>2019-09-03T08:17:05Z</time>
      </trkpt>
      <trkpt lat="46.52353" lon="5.616">
        <ele>503.2</ele>
        <time>2019-09-03T08:17:10Z</time>
      </trkpt>
      <trkpt lat="46.52353" lon="5.61608">
        <ele>502.3</ele>
        <time>2019-09-03T08:17:16Z</time>
      </trkpt>
      <trkpt lat="46.52353" lon="5.61618">
        <ele>501.7</ele>
        <time>2019-09-03T08:17:20Z</time>
      </trkpt>
      <trkpt lat="46.52355" lon="5.61625">
        <ele>501.4</ele>
        <time>2019-09-03T08:17:24Z</time>
      </trkpt>
      <trkpt lat="46.5236" lon="5.6163">
        <ele>501.4</ele>
        <time>2019-09-03T08:17:28Z</time>
      </trkpt>
      <trkpt lat="46.52364" lon="5.61634">
        <ele>501.6</ele>
        <time>2019-09-03T08:17:32Z</time>
      </trkpt>
      <trkpt lat="46.52369" lon="5.61636">
        <ele>502.5</ele>
        <time>2019-09-03T08:17:39Z</time>
      </trkpt>
      <trkpt lat="46.52373" lon="5.61638">
        <ele>503.3</ele>
        <time>2019-09-03T08:17:45Z</time>
      </trkpt>
      <trkpt lat="46.52379" lon="5.61642">
        <ele>503.8</ele>
        <time>2019-09-03T08:17:49Z</time>
      </trkpt>
      <trkpt lat="46.52383" lon="5.61646">
        <ele>504.1</ele>
        <time>2019-09-03T08:17:52Z</time>
      </trkpt>
      <trkpt lat="46.52388" lon="5.61652">
        <ele>504.6</ele>
        <time>2019-09-03T08:17:56Z</time>
      </trkpt>
      <trkpt lat="46.5239" lon="5.61658">
        <ele>505</ele>
        <time>2019-09-03T08:18:00Z</time>
      </trkpt>
      <trkpt lat="46.52394" lon="5.61662">
        <ele>505.5</ele>
        <time>2019-09-03T08:18:07Z</time>
      </trkpt>
      <trkpt lat="46.52398" lon="5.61666">
        <ele>505.6</ele>
        <time>2019-09-03T08:18:12Z</time>
      </trkpt>
      <trkpt lat="46.52402" lon="5.61672">
        <ele>505.7</ele>
        <time>2019-09-03T08:18:17Z</time>
      </trkpt>
      <trkpt lat="46.52406" lon="5.61676">
        <ele>505.8</ele>
        <time>2019-09-03T08:18:20Z</time>
      </trkpt>
      <trkpt lat="46.52413" lon="5.61684">
        <ele>505.9</ele>
        <time>2019-09-03T08:18:30Z</time>
      </trkpt>
      <trkpt lat="46.52417" lon="5.61689">
        <ele>505.8</ele>
        <time>2019-09-03T08:18:38Z</time>
      </trkpt>
      <trkpt lat="46.5242" lon="5.61693">
        <ele>505.7</ele>
        <time>2019-09-03T08:18:41Z</time>
      </trkpt>
      <trkpt lat="46.52424" lon="5.61698">
        <ele>505.6</ele>
        <time>2019-09-03T08:18:47Z</time>
      </trkpt>
      <trkpt lat="46.52429" lon="5.61703">
        <ele>505.6</ele>
        <time>2019-09-03T08:18:51Z</time>
      </trkpt>
      <trkpt lat="46.52432" lon="5.61708">
        <ele>505.5</ele>
        <time>2019-09-03T08:18:55Z</time>
      </trkpt>
      <trkpt lat="46.52436" lon="5.61712">
        <ele>505.5</ele>
        <time>2019-09-03T08:19:00Z</time>
      </trkpt>
      <trkpt lat="46.5244" lon="5.61716">
        <ele>505.4</ele>
        <time>2019-09-03T08:19:04Z</time>
      </trkpt>
      <trkpt lat="46.52444" lon="5.61721">
        <ele>505.3</ele>
        <time>2019-09-03T08:19:09Z</time>
      </trkpt>
      <trkpt lat="46.52447" lon="5.61726">
        <ele>505.3</ele>
        <time>2019-09-03T08:19:16Z</time>
      </trkpt>
      <trkpt lat="46.52451" lon="5.61732">
        <ele>505.1</ele>
        <time>2019-09-03T08:19:20Z</time>
      </trkpt>
      <trkpt lat="46.52455" lon="5.61736">
        <ele>504.8</ele>
        <time>2019-09-03T08:19:23Z</time>
      </trkpt>
      <trkpt lat="46.52457" lon="5.61742">
        <ele>504.2</ele>
        <time>2019-09-03T08:19:28Z</time>
      </trkpt>
      <trkpt lat="46.52459" lon="5.61748">
        <ele>503.7</ele>
        <time>2019-09-03T08:19:33Z</time>
      </trkpt>
      <trkpt lat="46.52459" lon="5.61755">
        <ele>503.1</ele>
        <time>2019-09-03T08:19:39Z</time>
      </trkpt>
      <trkpt lat="46.52461" lon="5.61762">
        <ele>502.7</ele>
        <time>2019-09-03T08:19:43Z</time>
      </trkpt>
      <trkpt lat="46.52463" lon="5.61768">
        <ele>502</ele>
        <time>2019-09-03T08:19:48Z</time>
      </trkpt>
      <trkpt lat="46.52464" lon="5.61775">
        <ele>501.4</ele>
        <time>2019-09-03T08:19:53Z</time>
      </trkpt>
      <trkpt lat="46.52465" lon="5.61782">
        <ele>500.9</ele>
        <time>2019-09-03T08:19:57Z</time>
      </trkpt>
      <trkpt lat="46.52463" lon="5.61789">
        <ele>500.5</ele>
        <time>2019-09-03T08:20:02Z</time>
      </trkpt>
      <trkpt lat="46.52461" lon="5.61797">
        <ele>500.1</ele>
        <time>2019-09-03T08:20:07Z</time>
      </trkpt>
      <trkpt lat="46.52459" lon="5.61803">
        <ele>500</ele>
        <time>2019-09-03T08:20:14Z</time>
      </trkpt>
      <trkpt lat="46.52457" lon="5.6181">
        <ele>499.8</ele>
        <time>2019-09-03T08:20:20Z</time>
      </trkpt>
      <trkpt lat="46.52454" lon="5.61817">
        <ele>499.6</ele>
        <time>2019-09-03T08:20:24Z</time>
      </trkpt>
      <trkpt lat="46.52451" lon="5.61822">
        <ele>499.3</ele>
        <time>2019-09-03T08:20:29Z</time>
      </trkpt>
      <trkpt lat="46.52448" lon="5.61827">
        <ele>498.8</ele>
        <time>2019-09-03T08:20:33Z</time>
      </trkpt>
      <trkpt lat="46.52444" lon="5.61832">
        <ele>497.9</ele>
        <time>2019-09-03T08:20:38Z</time>
      </trkpt>
      <trkpt lat="46.52442" lon="5.61838">
        <ele>496.9</ele>
        <time>2019-09-03T08:20:44Z</time>
      </trkpt>
      <trkpt lat="46.52439" lon="5.61845">
        <ele>496.1</ele>
        <time>2019-09-03T08:20:50Z</time>
      </trkpt>
      <trkpt lat="46.52437" lon="5.61851">
        <ele>495.5</ele>
        <time>2019-09-03T08:20:56Z</time>
      </trkpt>
      <trkpt lat="46.52435" lon="5.61858">
        <ele>495</ele>
        <time>2019-09-03T08:21:01Z</time>
      </trkpt>
      <trkpt lat="46.52432" lon="5.61866">
        <ele>494.6</ele>
        <time>2019-09-03T08:21:05Z</time>
      </trkpt>
      <trkpt lat="46.52429" lon="5.61872">
        <ele>494.3</ele>
        <time>2019-09-03T08:21:09Z</time>
      </trkpt>
      <trkpt lat="46.52426" lon="5.61878">
        <ele>494</ele>
        <time>2019-09-03T08:21:13Z</time>
      </trkpt>
      <trkpt lat="46.52423" lon="5.61884">
        <ele>493.4</ele>
        <time>2019-09-03T08:21:18Z</time>
      </trkpt>
      <trkpt lat="46.52421" lon="5.6189">
        <ele>493</ele>
        <time>2019-09-03T08:21:22Z</time>
      </trkpt>
      <trkpt lat="46.52418" lon="5.61897">
        <ele>492.6</ele>
        <time>2019-09-03T08:21:27Z</time>
      </trkpt>
      <trkpt lat="46.52416" lon="5.61903">
        <ele>492.2</ele>
        <time>2019-09-03T08:21:31Z</time>
      </trkpt>
      <trkpt lat="46.52414" lon="5.6191">
        <ele>491.9</ele>
        <time>2019-09-03T08:21:36Z</time>
      </trkpt>
      <trkpt lat="46.52411" lon="5.61917">
        <ele>491.8</ele>
        <time>2019-09-03T08:21:41Z</time>
      </trkpt>
      <trkpt lat="46.52408" lon="5.61923">
        <ele>491.6</ele>
        <time>2019-09-03T08:21:46Z</time>
      </trkpt>
      <trkpt lat="46.52406" lon="5.61929">
        <ele>491.2</ele>
        <time>2019-09-03T08:21:52Z</time>
      </trkpt>
      <trkpt lat="46.52403" lon="5.61935">
        <ele>490.6</ele>
        <time>2019-09-03T08:21:57Z</time>
      </trkpt>
      <trkpt lat="46.52398" lon="5.6194">
        <ele>489.7</ele>
        <time>2019-09-03T08:22:03Z</time>
      </trkpt>
      <trkpt lat="46.52394" lon="5.61941">
        <ele>488.2</ele>
        <time>2019-09-03T08:22:11Z</time>
      </trkpt>
      <trkpt lat="46.52389" lon="5.61943">
        <ele>487</ele>
        <time>2019-09-03T08:22:19Z</time>
      </trkpt>
      <trkpt lat="46.52385" lon="5.61947">
        <ele>486.8</ele>
        <time>2019-09-03T08:22:23Z</time>
      </trkpt>
      <trkpt lat="46.52381" lon="5.61951">
        <ele>486.6</ele>
        <time>2019-09-03T08:22:27Z</time>
      </trkpt>
      <trkpt lat="46.52377" lon="5.61955">
        <ele>486.5</ele>
        <time>2019-09-03T08:22:31Z</time>
      </trkpt>
      <trkpt lat="46.52373" lon="5.6196">
        <ele>486.4</ele>
        <time>2019-09-03T08:22:38Z</time>
      </trkpt>
      <trkpt lat="46.52369" lon="5.61965">
        <ele>486.3</ele>
        <time>2019-09-03T08:22:44Z</time>
      </trkpt>
      <trkpt lat="46.52369" lon="5.61972">
        <ele>486.5</ele>
        <time>2019-09-03T08:22:48Z</time>
      </trkpt>
      <trkpt lat="46.52369" lon="5.61979">
        <ele>486.8</ele>
        <time>2019-09-03T08:22:52Z</time>
      </trkpt>
      <trkpt lat="46.52368" lon="5.61986">
        <ele>487</ele>
        <time>2019-09-03T08:22:56Z</time>
      </trkpt>
      <trkpt lat="46.52367" lon="5.61994">
        <ele>487</ele>
        <time>2019-09-03T08:23:01Z</time>
      </trkpt>
      <trkpt lat="46.52366" lon="5.62">
        <ele>486.7</ele>
        <time>2019-09-03T08:23:06Z</time>
      </trkpt>
      <trkpt lat="46.52364" lon="5.62007">
        <ele>486.5</ele>
        <time>2019-09-03T08:23:11Z</time>
      </trkpt>
      <trkpt lat="46.52362" lon="5.62013">
        <ele>486.3</ele>
        <time>2019-09-03T08:23:16Z</time>
      </trkpt>
      <trkpt lat="46.52359" lon="5.62019">
        <ele>486</ele>
        <time>2019-09-03T08:23:21Z</time>
      </trkpt>
      <trkpt lat="46.52355" lon="5.62023">
        <ele>485.6</ele>
        <time>2019-09-03T08:23:25Z</time>
      </trkpt>
      <trkpt lat="46.5235" lon="5.62023">
        <ele>484.8</ele>
        <time>2019-09-03T08:23:31Z</time>
      </trkpt>
      <trkpt lat="46.52346" lon="5.62018">
        <ele>484</ele>
        <time>2019-09-03T08:23:36Z</time>
      </trkpt>
      <trkpt lat="46.52342" lon="5.62014">
        <ele>481.7</ele>
        <time>2019-09-03T08:23:53Z</time>
      </trkpt>
      <trkpt lat="46.52338" lon="5.62015">
        <ele>481</ele>
        <time>2019-09-03T08:23:58Z</time>
      </trkpt>
      <trkpt lat="46.52333" lon="5.62017">
        <ele>480.5</ele>
        <time>2019-09-03T08:24:02Z</time>
      </trkpt>
      <trkpt lat="46.52317" lon="5.62022">
        <ele>479.2</ele>
        <time>2019-09-03T08:24:16Z</time>
      </trkpt>
      <trkpt lat="46.52313" lon="5.62025">
        <ele>478.9</ele>
        <time>2019-09-03T08:24:20Z</time>
      </trkpt>
      <trkpt lat="46.5231" lon="5.6203">
        <ele>478.6</ele>
        <time>2019-09-03T08:24:26Z</time>
      </trkpt>
      <trkpt lat="46.52308" lon="5.62037">
        <ele>478.5</ele>
        <time>2019-09-03T08:24:31Z</time>
      </trkpt>
      <trkpt lat="46.52307" lon="5.62045">
        <ele>478.6</ele>
        <time>2019-09-03T08:24:36Z</time>
      </trkpt>
      <trkpt lat="46.52305" lon="5.62051">
        <ele>478.8</ele>
        <time>2019-09-03T08:24:40Z</time>
      </trkpt>
      <trkpt lat="46.52303" lon="5.62058">
        <ele>478.8</ele>
        <time>2019-09-03T08:24:44Z</time>
      </trkpt>
      <trkpt lat="46.523" lon="5.62065">
        <ele>478.8</ele>
        <time>2019-09-03T08:24:48Z</time>
      </trkpt>
      <trkpt lat="46.52298" lon="5.62072">
        <ele>478.7</ele>
        <time>2019-09-03T08:24:53Z</time>
      </trkpt>
      <trkpt lat="46.52291" lon="5.62087">
        <ele>479.6</ele>
        <time>2019-09-03T08:25:07Z</time>
      </trkpt>
      <trkpt lat="46.52287" lon="5.62089">
        <ele>479.6</ele>
        <time>2019-09-03T08:25:11Z</time>
      </trkpt>
      <trkpt lat="46.52282" lon="5.62091">
        <ele>479.4</ele>
        <time>2019-09-03T08:25:16Z</time>
      </trkpt>
      <trkpt lat="46.52277" lon="5.62091">
        <ele>478.9</ele>
        <time>2019-09-03T08:25:21Z</time>
      </trkpt>
      <trkpt lat="46.52272" lon="5.62092">
        <ele>478.1</ele>
        <time>2019-09-03T08:25:27Z</time>
      </trkpt>
      <trkpt lat="46.52267" lon="5.62095">
        <ele>477.7</ele>
        <time>2019-09-03T08:25:31Z</time>
      </trkpt>
      <trkpt lat="46.52262" lon="5.62098">
        <ele>477.2</ele>
        <time>2019-09-03T08:25:36Z</time>
      </trkpt>
      <trkpt lat="46.52257" lon="5.62099">
        <ele>476.6</ele>
        <time>2019-09-03T08:25:43Z</time>
      </trkpt>
      <trkpt lat="46.52253" lon="5.62101">
        <ele>476.1</ele>
        <time>2019-09-03T08:25:48Z</time>
      </trkpt>
      <trkpt lat="46.52248" lon="5.62104">
        <ele>475.6</ele>
        <time>2019-09-03T08:25:54Z</time>
      </trkpt>
      <trkpt lat="46.52244" lon="5.62108">
        <ele>475.2</ele>
        <time>2019-09-03T08:25:59Z</time>
      </trkpt>
      <trkpt lat="46.5224" lon="5.62113">
        <ele>474.9</ele>
        <time>2019-09-03T08:26:04Z</time>
      </trkpt>
      <trkpt lat="46.52236" lon="5.62118">
        <ele>474.7</ele>
        <time>2019-09-03T08:26:09Z</time>
      </trkpt>
      <trkpt lat="46.52232" lon="5.62125">
        <ele>474.7</ele>
        <time>2019-09-03T08:26:12Z</time>
      </trkpt>
      <trkpt lat="46.52229" lon="5.62129">
        <ele>474.5</ele>
        <time>2019-09-03T08:26:15Z</time>
      </trkpt>
      <trkpt lat="46.52225" lon="5.62134">
        <ele>474.2</ele>
        <time>2019-09-03T08:26:20Z</time>
      </trkpt>
      <trkpt lat="46.52222" lon="5.6214">
        <ele>473.8</ele>
        <time>2019-09-03T08:26:25Z</time>
      </trkpt>
      <trkpt lat="46.52219" lon="5.62144">
        <ele>473.6</ele>
        <time>2019-09-03T08:26:39Z</time>
      </trkpt>
      <trkpt lat="46.52216" lon="5.6215">
        <ele>474</ele>
        <time>2019-09-03T08:26:46Z</time>
      </trkpt>
      <trkpt lat="46.52214" lon="5.62156">
        <ele>473.9</ele>
        <time>2019-09-03T08:26:51Z</time>
      </trkpt>
      <trkpt lat="46.52211" lon="5.62162">
        <ele>473.6</ele>
        <time>2019-09-03T08:26:57Z</time>
      </trkpt>
      <trkpt lat="46.52203" lon="5.62174">
        <ele>472.7</ele>
        <time>2019-09-03T08:27:11Z</time>
      </trkpt>
      <trkpt lat="46.52198" lon="5.6218">
        <ele>472.4</ele>
        <time>2019-09-03T08:27:15Z</time>
      </trkpt>
      <trkpt lat="46.52195" lon="5.62186">
        <ele>472</ele>
        <time>2019-09-03T08:27:20Z</time>
      </trkpt>
      <trkpt lat="46.52192" lon="5.62191">
        <ele>471.8</ele>
        <time>2019-09-03T08:27:26Z</time>
      </trkpt>
      <trkpt lat="46.52189" lon="5.62196">
        <ele>471.7</ele>
        <time>2019-09-03T08:27:31Z</time>
      </trkpt>
      <trkpt lat="46.52185" lon="5.62202">
        <ele>471.8</ele>
        <time>2019-09-03T08:27:36Z</time>
      </trkpt>
      <trkpt lat="46.52183" lon="5.62208">
        <ele>472</ele>
        <time>2019-09-03T08:27:40Z</time>
      </trkpt>
      <trkpt lat="46.5218" lon="5.62214">
        <ele>472.2</ele>
        <time>2019-09-03T08:27:44Z</time>
      </trkpt>
      <trkpt lat="46.52177" lon="5.6222">
        <ele>472.3</ele>
        <time>2019-09-03T08:27:49Z</time>
      </trkpt>
      <trkpt lat="46.52173" lon="5.62225">
        <ele>472.5</ele>
        <time>2019-09-03T08:27:55Z</time>
      </trkpt>
      <trkpt lat="46.52169" lon="5.62229">
        <ele>472.7</ele>
        <time>2019-09-03T08:28:00Z</time>
      </trkpt>
      <trkpt lat="46.52164" lon="5.62231">
        <ele>473.2</ele>
        <time>2019-09-03T08:28:06Z</time>
      </trkpt>
      <trkpt lat="46.5216" lon="5.62234">
        <ele>473.6</ele>
        <time>2019-09-03T08:28:11Z</time>
      </trkpt>
      <trkpt lat="46.52156" lon="5.62239">
        <ele>473.8</ele>
        <time>2019-09-03T08:28:16Z</time>
      </trkpt>
      <trkpt lat="46.52152" lon="5.62242">
        <ele>474.1</ele>
        <time>2019-09-03T08:28:20Z</time>
      </trkpt>
      <trkpt lat="46.52147" lon="5.62245">
        <ele>474.2</ele>
        <time>2019-09-03T08:28:24Z</time>
      </trkpt>
      <trkpt lat="46.52141" lon="5.62247">
        <ele>474.3</ele>
        <time>2019-09-03T08:28:29Z</time>
      </trkpt>
      <trkpt lat="46.52137" lon="5.62249">
        <ele>474.2</ele>
        <time>2019-09-03T08:28:34Z</time>
      </trkpt>
      <trkpt lat="46.52132" lon="5.62251">
        <ele>473.7</ele>
        <time>2019-09-03T08:28:40Z</time>
      </trkpt>
      <trkpt lat="46.52128" lon="5.62254">
        <ele>473.3</ele>
        <time>2019-09-03T08:28:45Z</time>
      </trkpt>
      <trkpt lat="46.52123" lon="5.62257">
        <ele>472.8</ele>
        <time>2019-09-03T08:28:49Z</time>
      </trkpt>
      <trkpt lat="46.52121" lon="5.62263">
        <ele>471.2</ele>
        <time>2019-09-03T08:29:01Z</time>
      </trkpt>
      <trkpt lat="46.52116" lon="5.62265">
        <ele>472</ele>
        <time>2019-09-03T08:29:45Z</time>
      </trkpt>
      <trkpt lat="46.52111" lon="5.62262">
        <ele>472.2</ele>
        <time>2019-09-03T08:29:50Z</time>
      </trkpt>
      <trkpt lat="46.52106" lon="5.62259">
        <ele>472.3</ele>
        <time>2019-09-03T08:29:52Z</time>
      </trkpt>
      <trkpt lat="46.52102" lon="5.62256">
        <ele>472.3</ele>
        <time>2019-09-03T08:29:55Z</time>
      </trkpt>
      <trkpt lat="46.52097" lon="5.62255">
        <ele>472.4</ele>
        <time>2019-09-03T08:29:59Z</time>
      </trkpt>
      <trkpt lat="46.52085" lon="5.62249">
        <ele>472.9</ele>
        <time>2019-09-03T08:30:11Z</time>
      </trkpt>
      <trkpt lat="46.5208" lon="5.62245">
        <ele>473</ele>
        <time>2019-09-03T08:30:15Z</time>
      </trkpt>
      <trkpt lat="46.52075" lon="5.62241">
        <ele>473</ele>
        <time>2019-09-03T08:30:19Z</time>
      </trkpt>
      <trkpt lat="46.52071" lon="5.62237">
        <ele>473.2</ele>
        <time>2019-09-03T08:30:22Z</time>
      </trkpt>
      <trkpt lat="46.52067" lon="5.62233">
        <ele>473.6</ele>
        <time>2019-09-03T08:30:27Z</time>
      </trkpt>
      <trkpt lat="46.52063" lon="5.62229">
        <ele>474.1</ele>
        <time>2019-09-03T08:30:31Z</time>
      </trkpt>
      <trkpt lat="46.52058" lon="5.62225">
        <ele>474.4</ele>
        <time>2019-09-03T08:30:34Z</time>
      </trkpt>
      <trkpt lat="46.52055" lon="5.6222">
        <ele>474.7</ele>
        <time>2019-09-03T08:30:37Z</time>
      </trkpt>
      <trkpt lat="46.52052" lon="5.62215">
        <ele>475.1</ele>
        <time>2019-09-03T08:30:41Z</time>
      </trkpt>
      <trkpt lat="46.52048" lon="5.6221">
        <ele>475.4</ele>
        <time>2019-09-03T08:30:44Z</time>
      </trkpt>
      <trkpt lat="46.52043" lon="5.62208">
        <ele>475.8</ele>
        <time>2019-09-03T08:30:48Z</time>
      </trkpt>
      <trkpt lat="46.52032" lon="5.62214">
        <ele>476.7</ele>
        <time>2019-09-03T08:30:56Z</time>
      </trkpt>
      <trkpt lat="46.52028" lon="5.62217">
        <ele>476.8</ele>
        <time>2019-09-03T08:30:59Z</time>
      </trkpt>
      <trkpt lat="46.52025" lon="5.62221">
        <ele>476.7</ele>
        <time>2019-09-03T08:31:02Z</time>
      </trkpt>
      <trkpt lat="46.5202" lon="5.62227">
        <ele>476.6</ele>
        <time>2019-09-03T08:31:05Z</time>
      </trkpt>
      <trkpt lat="46.52012" lon="5.62244">
        <ele>475.3</ele>
        <time>2019-09-03T08:31:15Z</time>
      </trkpt>
      <trkpt lat="46.52008" lon="5.6225">
        <ele>475</ele>
        <time>2019-09-03T08:31:21Z</time>
      </trkpt>
      <trkpt lat="46.52004" lon="5.62254">
        <ele>474.9</ele>
        <time>2019-09-03T08:31:25Z</time>
      </trkpt>
      <trkpt lat="46.52" lon="5.62258">
        <ele>474.8</ele>
        <time>2019-09-03T08:31:28Z</time>
      </trkpt>
      <trkpt lat="46.51997" lon="5.62264">
        <ele>474.7</ele>
        <time>2019-09-03T08:31:31Z</time>
      </trkpt>
      <trkpt lat="46.51994" lon="5.62269">
        <ele>474.5</ele>
        <time>2019-09-03T08:31:35Z</time>
      </trkpt>
      <trkpt lat="46.5199" lon="5.62275">
        <ele>474.4</ele>
        <time>2019-09-03T08:31:40Z</time>
      </trkpt>
      <trkpt lat="46.51987" lon="5.6228">
        <ele>474.3</ele>
        <time>2019-09-03T08:31:44Z</time>
      </trkpt>
      <trkpt lat="46.51984" lon="5.62286">
        <ele>474.4</ele>
        <time>2019-09-03T08:31:46Z</time>
      </trkpt>
      <trkpt lat="46.51981" lon="5.62291">
        <ele>474.5</ele>
        <time>2019-09-03T08:31:49Z</time>
      </trkpt>
      <trkpt lat="46.51977" lon="5.62297">
        <ele>474.7</ele>
        <time>2019-09-03T08:31:54Z</time>
      </trkpt>
      <trkpt lat="46.51974" lon="5.62301">
        <ele>475</ele>
        <time>2019-09-03T08:31:59Z</time>
      </trkpt>
      <trkpt lat="46.5197" lon="5.62306">
        <ele>475.3</ele>
        <time>2019-09-03T08:32:04Z</time>
      </trkpt>
      <trkpt lat="46.51966" lon="5.6231">
        <ele>475.7</ele>
        <time>2019-09-03T08:32:09Z</time>
      </trkpt>
      <trkpt lat="46.51962" lon="5.62315">
        <ele>475.9</ele>
        <time>2019-09-03T08:32:15Z</time>
      </trkpt>
      <trkpt lat="46.51957" lon="5.6232">
        <ele>476</ele>
        <time>2019-09-03T08:32:19Z</time>
      </trkpt>
      <trkpt lat="46.51953" lon="5.62322">
        <ele>476.2</ele>
        <time>2019-09-03T08:32:27Z</time>
      </trkpt>
      <trkpt lat="46.51948" lon="5.62325">
        <ele>476.6</ele>
        <time>2019-09-03T08:32:35Z</time>
      </trkpt>
      <trkpt lat="46.51944" lon="5.62328">
        <ele>476.9</ele>
        <time>2019-09-03T08:32:46Z</time>
      </trkpt>
      <trkpt lat="46.51935" lon="5.62338">
        <ele>474.4</ele>
        <time>2019-09-03T08:33:02Z</time>
      </trkpt>
      <trkpt lat="46.51931" lon="5.62343">
        <ele>472.8</ele>
        <time>2019-09-03T08:33:08Z</time>
      </trkpt>
      <trkpt lat="46.51925" lon="5.62345">
        <ele>472</ele>
        <time>2019-09-03T08:33:11Z</time>
      </trkpt>
      <trkpt lat="46.51921" lon="5.62348">
        <ele>471.4</ele>
        <time>2019-09-03T08:33:13Z</time>
      </trkpt>
      <trkpt lat="46.51917" lon="5.62352">
        <ele>469.2</ele>
        <time>2019-09-03T08:33:21Z</time>
      </trkpt>
      <trkpt lat="46.51915" lon="5.62358">
        <ele>467.4</ele>
        <time>2019-09-03T08:33:28Z</time>
      </trkpt>
      <trkpt lat="46.51915" lon="5.62364">
        <ele>466</ele>
        <time>2019-09-03T08:33:35Z</time>
      </trkpt>
      <trkpt lat="46.51914" lon="5.62371">
        <ele>463.5</ele>
        <time>2019-09-03T08:33:43Z</time>
      </trkpt>
      <trkpt lat="46.51908" lon="5.62386">
        <ele>455.7</ele>
        <time>2019-09-03T08:33:56Z</time>
      </trkpt>
      <trkpt lat="46.51905" lon="5.62393">
        <ele>454.8</ele>
        <time>2019-09-03T08:33:59Z</time>
      </trkpt>
      <trkpt lat="46.51902" lon="5.62402">
        <ele>453.7</ele>
        <time>2019-09-03T08:34:02Z</time>
      </trkpt>
      <trkpt lat="46.519" lon="5.62408">
        <ele>452.1</ele>
        <time>2019-09-03T08:34:07Z</time>
      </trkpt>
      <trkpt lat="46.51896" lon="5.62413">
        <ele>451</ele>
        <time>2019-09-03T08:34:11Z</time>
      </trkpt>
      <trkpt lat="46.51892" lon="5.62418">
        <ele>450.5</ele>
        <time>2019-09-03T08:34:13Z</time>
      </trkpt>
      <trkpt lat="46.51889" lon="5.62424">
        <ele>449.5</ele>
        <time>2019-09-03T08:34:18Z</time>
      </trkpt>
      <trkpt lat="46.51886" lon="5.6243">
        <ele>449</ele>
        <time>2019-09-03T08:34:23Z</time>
      </trkpt>
      <trkpt lat="46.51881" lon="5.62436">
        <ele>449.4</ele>
        <time>2019-09-03T08:34:30Z</time>
      </trkpt>
      <trkpt lat="46.51876" lon="5.62442">
        <ele>449.8</ele>
        <time>2019-09-03T08:34:33Z</time>
      </trkpt>
      <trkpt lat="46.51873" lon="5.62447">
        <ele>450.3</ele>
        <time>2019-09-03T08:34:38Z</time>
      </trkpt>
      <trkpt lat="46.51867" lon="5.6245">
        <ele>450.9</ele>
        <time>2019-09-03T08:34:43Z</time>
      </trkpt>
      <trkpt lat="46.51863" lon="5.62452">
        <ele>451.3</ele>
        <time>2019-09-03T08:34:47Z</time>
      </trkpt>
      <trkpt lat="46.51857" lon="5.62454">
        <ele>451.9</ele>
        <time>2019-09-03T08:34:56Z</time>
      </trkpt>
      <trkpt lat="46.51839" lon="5.62453">
        <ele>453.6</ele>
        <time>2019-09-03T08:35:08Z</time>
      </trkpt>
      <trkpt lat="46.51835" lon="5.62452">
        <ele>454</ele>
        <time>2019-09-03T08:35:11Z</time>
      </trkpt>
      <trkpt lat="46.51829" lon="5.62451">
        <ele>455.3</ele>
        <time>2019-09-03T08:35:18Z</time>
      </trkpt>
      <trkpt lat="46.51823" lon="5.62449">
        <ele>456</ele>
        <time>2019-09-03T08:35:22Z</time>
      </trkpt>
      <trkpt lat="46.51812" lon="5.62448">
        <ele>458.2</ele>
        <time>2019-09-03T08:35:39Z</time>
      </trkpt>
      <trkpt lat="46.51807" lon="5.62448">
        <ele>458.1</ele>
        <time>2019-09-03T08:35:45Z</time>
      </trkpt>
      <trkpt lat="46.51803" lon="5.62449">
        <ele>457.9</ele>
        <time>2019-09-03T08:35:50Z</time>
      </trkpt>
      <trkpt lat="46.51798" lon="5.62448">
        <ele>457.6</ele>
        <time>2019-09-03T08:35:57Z</time>
      </trkpt>
      <trkpt lat="46.51793" lon="5.62447">
        <ele>457.3</ele>
        <time>2019-09-03T08:36:04Z</time>
      </trkpt>
      <trkpt lat="46.51788" lon="5.62446">
        <ele>457.2</ele>
        <time>2019-09-03T08:36:07Z</time>
      </trkpt>
      <trkpt lat="46.51778" lon="5.62448">
        <ele>455.3</ele>
        <time>2019-09-03T08:36:22Z</time>
      </trkpt>
      <trkpt lat="46.51763" lon="5.62447">
        <ele>454.2</ele>
        <time>2019-09-03T08:36:40Z</time>
      </trkpt>
      <trkpt lat="46.51759" lon="5.62447">
        <ele>454.4</ele>
        <time>2019-09-03T08:36:45Z</time>
      </trkpt>
      <trkpt lat="46.51753" lon="5.62448">
        <ele>454.8</ele>
        <time>2019-09-03T08:36:52Z</time>
      </trkpt>
      <trkpt lat="46.51748" lon="5.62451">
        <ele>455.2</ele>
        <time>2019-09-03T08:36:57Z</time>
      </trkpt>
      <trkpt lat="46.51744" lon="5.62454">
        <ele>455.7</ele>
        <time>2019-09-03T08:37:02Z</time>
      </trkpt>
      <trkpt lat="46.51739" lon="5.62457">
        <ele>455.7</ele>
        <time>2019-09-03T08:37:06Z</time>
      </trkpt>
      <trkpt lat="46.51734" lon="5.62458">
        <ele>455.6</ele>
        <time>2019-09-03T08:37:12Z</time>
      </trkpt>
      <trkpt lat="46.51729" lon="5.62459">
        <ele>455.6</ele>
        <time>2019-09-03T08:37:17Z</time>
      </trkpt>
      <trkpt lat="46.51725" lon="5.62461">
        <ele>455.5</ele>
        <time>2019-09-03T08:37:22Z</time>
      </trkpt>
      <trkpt lat="46.51719" lon="5.62464">
        <ele>455.5</ele>
        <time>2019-09-03T08:37:26Z</time>
      </trkpt>
      <trkpt lat="46.51715" lon="5.62468">
        <ele>455.4</ele>
        <time>2019-09-03T08:37:29Z</time>
      </trkpt>
      <trkpt lat="46.5171" lon="5.62468">
        <ele>455.3</ele>
        <time>2019-09-03T08:37:35Z</time>
      </trkpt>
      <trkpt lat="46.51706" lon="5.62468">
        <ele>455.3</ele>
        <time>2019-09-03T08:37:42Z</time>
      </trkpt>
      <trkpt lat="46.51689" lon="5.62465">
        <ele>456.7</ele>
        <time>2019-09-03T08:37:57Z</time>
      </trkpt>
      <trkpt lat="46.51683" lon="5.62465">
        <ele>457.1</ele>
        <time>2019-09-03T08:38:02Z</time>
      </trkpt>
      <trkpt lat="46.51678" lon="5.62465">
        <ele>457.4</ele>
        <time>2019-09-03T08:38:06Z</time>
      </trkpt>
      <trkpt lat="46.51673" lon="5.62465">
        <ele>457.9</ele>
        <time>2019-09-03T08:38:12Z</time>
      </trkpt>
      <trkpt lat="46.51658" lon="5.62462">
        <ele>459.4</ele>
        <time>2019-09-03T08:38:30Z</time>
      </trkpt>
      <trkpt lat="46.51653" lon="5.62461">
        <ele>459.5</ele>
        <time>2019-09-03T08:38:35Z</time>
      </trkpt>
      <trkpt lat="46.51648" lon="5.62463">
        <ele>459.5</ele>
        <time>2019-09-03T08:38:40Z</time>
      </trkpt>
      <trkpt lat="46.51643" lon="5.62464">
        <ele>459.5</ele>
        <time>2019-09-03T08:38:46Z</time>
      </trkpt>
      <trkpt lat="46.51639" lon="5.62464">
        <ele>459.5</ele>
        <time>2019-09-03T08:38:51Z</time>
      </trkpt>
      <trkpt lat="46.51629" lon="5.62461">
        <ele>459.2</ele>
        <time>2019-09-03T08:39:02Z</time>
      </trkpt>
      <trkpt lat="46.51624" lon="5.62461">
        <ele>459</ele>
        <time>2019-09-03T08:39:08Z</time>
      </trkpt>
      <trkpt lat="46.51619" lon="5.62463">
        <ele>458.6</ele>
        <time>2019-09-03T08:39:16Z</time>
      </trkpt>
      <trkpt lat="46.51616" lon="5.62467">
        <ele>458.5</ele>
        <time>2019-09-03T08:39:23Z</time>
      </trkpt>
      <trkpt lat="46.51612" lon="5.62472">
        <ele>458.5</ele>
        <time>2019-09-03T08:39:27Z</time>
      </trkpt>
      <trkpt lat="46.51608" lon="5.62478">
        <ele>458.7</ele>
        <time>2019-09-03T08:39:31Z</time>
      </trkpt>
      <trkpt lat="46.51604" lon="5.62484">
        <ele>459.2</ele>
        <time>2019-09-03T08:39:35Z</time>
      </trkpt>
      <trkpt lat="46.516" lon="5.62489">
        <ele>459.8</ele>
        <time>2019-09-03T08:39:41Z</time>
      </trkpt>
      <trkpt lat="46.51595" lon="5.62493">
        <ele>459.9</ele>
        <time>2019-09-03T08:39:44Z</time>
      </trkpt>
      <trkpt lat="46.51591" lon="5.62498">
        <ele>460.1</ele>
        <time>2019-09-03T08:39:48Z</time>
      </trkpt>
      <trkpt lat="46.51587" lon="5.62503">
        <ele>460.1</ele>
        <time>2019-09-03T08:39:53Z</time>
      </trkpt>
      <trkpt lat="46.51583" lon="5.62507">
        <ele>460.3</ele>
        <time>2019-09-03T08:39:57Z</time>
      </trkpt>
      <trkpt lat="46.5158" lon="5.62512">
        <ele>460.7</ele>
        <time>2019-09-03T08:40:02Z</time>
      </trkpt>
      <trkpt lat="46.51576" lon="5.62517">
        <ele>461.2</ele>
        <time>2019-09-03T08:40:07Z</time>
      </trkpt>
      <trkpt lat="46.51573" lon="5.62521">
        <ele>461.7</ele>
        <time>2019-09-03T08:40:12Z</time>
      </trkpt>
      <trkpt lat="46.51569" lon="5.62525">
        <ele>462.1</ele>
        <time>2019-09-03T08:40:16Z</time>
      </trkpt>
      <trkpt lat="46.51565" lon="5.62529">
        <ele>462.6</ele>
        <time>2019-09-03T08:40:21Z</time>
      </trkpt>
      <trkpt lat="46.5156" lon="5.6253">
        <ele>463.1</ele>
        <time>2019-09-03T08:40:26Z</time>
      </trkpt>
      <trkpt lat="46.51555" lon="5.62532">
        <ele>463.5</ele>
        <time>2019-09-03T08:40:34Z</time>
      </trkpt>
      <trkpt lat="46.5155" lon="5.62533">
        <ele>463.7</ele>
        <time>2019-09-03T08:40:41Z</time>
      </trkpt>
      <trkpt lat="46.51542" lon="5.62539">
        <ele>462.5</ele>
        <time>2019-09-03T08:40:52Z</time>
      </trkpt>
      <trkpt lat="46.51534" lon="5.62541">
        <ele>461.4</ele>
        <time>2019-09-03T08:41:17Z</time>
      </trkpt>
      <trkpt lat="46.5153" lon="5.62543">
        <ele>460.7</ele>
        <time>2019-09-03T08:41:26Z</time>
      </trkpt>
      <trkpt lat="46.51525" lon="5.62544">
        <ele>460.4</ele>
        <time>2019-09-03T08:41:34Z</time>
      </trkpt>
      <trkpt lat="46.5152" lon="5.62546">
        <ele>460</ele>
        <time>2019-09-03T08:41:39Z</time>
      </trkpt>
      <trkpt lat="46.51516" lon="5.62548">
        <ele>459.2</ele>
        <time>2019-09-03T08:41:46Z</time>
      </trkpt>
      <trkpt lat="46.5151" lon="5.62548">
        <ele>458.8</ele>
        <time>2019-09-03T08:41:49Z</time>
      </trkpt>
      <trkpt lat="46.51505" lon="5.62549">
        <ele>458.2</ele>
        <time>2019-09-03T08:41:58Z</time>
      </trkpt>
      <trkpt lat="46.51501" lon="5.62552">
        <ele>457.7</ele>
        <time>2019-09-03T08:42:08Z</time>
      </trkpt>
      <trkpt lat="46.51497" lon="5.62555">
        <ele>457.7</ele>
        <time>2019-09-03T08:42:12Z</time>
      </trkpt>
      <trkpt lat="46.51492" lon="5.6256">
        <ele>457.7</ele>
        <time>2019-09-03T08:42:19Z</time>
      </trkpt>
      <trkpt lat="46.51488" lon="5.62563">
        <ele>457.9</ele>
        <time>2019-09-03T08:42:24Z</time>
      </trkpt>
      <trkpt lat="46.51484" lon="5.62567">
        <ele>458</ele>
        <time>2019-09-03T08:42:29Z</time>
      </trkpt>
      <trkpt lat="46.5148" lon="5.62571">
        <ele>457.7</ele>
        <time>2019-09-03T08:42:34Z</time>
      </trkpt>
      <trkpt lat="46.51476" lon="5.62575">
        <ele>457.5</ele>
        <time>2019-09-03T08:42:37Z</time>
      </trkpt>
      <trkpt lat="46.51472" lon="5.62578">
        <ele>457.3</ele>
        <time>2019-09-03T08:42:40Z</time>
      </trkpt>
      <trkpt lat="46.51467" lon="5.62584">
        <ele>456.9</ele>
        <time>2019-09-03T08:42:45Z</time>
      </trkpt>
      <trkpt lat="46.51462" lon="5.62589">
        <ele>456.6</ele>
        <time>2019-09-03T08:42:49Z</time>
      </trkpt>
      <trkpt lat="46.51458" lon="5.62594">
        <ele>456.2</ele>
        <time>2019-09-03T08:42:53Z</time>
      </trkpt>
      <trkpt lat="46.51455" lon="5.62599">
        <ele>455.6</ele>
        <time>2019-09-03T08:42:58Z</time>
      </trkpt>
      <trkpt lat="46.51452" lon="5.62605">
        <ele>454.9</ele>
        <time>2019-09-03T08:43:04Z</time>
      </trkpt>
      <trkpt lat="46.51447" lon="5.62608">
        <ele>454.1</ele>
        <time>2019-09-03T08:43:11Z</time>
      </trkpt>
      <trkpt lat="46.51442" lon="5.6261">
        <ele>453.2</ele>
        <time>2019-09-03T08:43:18Z</time>
      </trkpt>
      <trkpt lat="46.51433" lon="5.62616">
        <ele>451.9</ele>
        <time>2019-09-03T08:43:34Z</time>
      </trkpt>
      <trkpt lat="46.51428" lon="5.62615">
        <ele>451.7</ele>
        <time>2019-09-03T08:43:42Z</time>
      </trkpt>
      <trkpt lat="46.51423" lon="5.62617">
        <ele>451.4</ele>
        <time>2019-09-03T08:43:49Z</time>
      </trkpt>
      <trkpt lat="46.51414" lon="5.62624">
        <ele>449.4</ele>
        <time>2019-09-03T08:44:02Z</time>
      </trkpt>
      <trkpt lat="46.51409" lon="5.62627">
        <ele>449.2</ele>
        <time>2019-09-03T08:44:05Z</time>
      </trkpt>
      <trkpt lat="46.51404" lon="5.62631">
        <ele>449</ele>
        <time>2019-09-03T08:44:09Z</time>
      </trkpt>
      <trkpt lat="46.51399" lon="5.62633">
        <ele>448.7</ele>
        <time>2019-09-03T08:44:15Z</time>
      </trkpt>
      <trkpt lat="46.51392" lon="5.62638">
        <ele>448.6</ele>
        <time>2019-09-03T08:44:17Z</time>
      </trkpt>
      <trkpt lat="46.51387" lon="5.62641">
        <ele>448.6</ele>
        <time>2019-09-03T08:44:19Z</time>
      </trkpt>
      <trkpt lat="46.51383" lon="5.62644">
        <ele>448.5</ele>
        <time>2019-09-03T08:44:24Z</time>
      </trkpt>
      <trkpt lat="46.51378" lon="5.62646">
        <ele>448.3</ele>
        <time>2019-09-03T08:44:31Z</time>
      </trkpt>
      <trkpt lat="46.51373" lon="5.62645">
        <ele>447.1</ele>
        <time>2019-09-03T08:44:39Z</time>
      </trkpt>
      <trkpt lat="46.51369" lon="5.62642">
        <ele>444.2</ele>
        <time>2019-09-03T08:44:59Z</time>
      </trkpt>
      <trkpt lat="46.51364" lon="5.6264">
        <ele>444.4</ele>
        <time>2019-09-03T08:45:08Z</time>
      </trkpt>
      <trkpt lat="46.51361" lon="5.62635">
        <ele>444.4</ele>
        <time>2019-09-03T08:45:13Z</time>
      </trkpt>
      <trkpt lat="46.51357" lon="5.62629">
        <ele>445</ele>
        <time>2019-09-03T08:45:24Z</time>
      </trkpt>
      <trkpt lat="46.51352" lon="5.62625">
        <ele>445.2</ele>
        <time>2019-09-03T08:45:26Z</time>
      </trkpt>
      <trkpt lat="46.51346" lon="5.62621">
        <ele>445.4</ele>
        <time>2019-09-03T08:45:29Z</time>
      </trkpt>
      <trkpt lat="46.51342" lon="5.62618">
        <ele>445.7</ele>
        <time>2019-09-03T08:45:34Z</time>
      </trkpt>
      <trkpt lat="46.51337" lon="5.62615">
        <ele>446</ele>
        <time>2019-09-03T08:45:41Z</time>
      </trkpt>
      <trkpt lat="46.51334" lon="5.6261">
        <ele>446.1</ele>
        <time>2019-09-03T08:45:46Z</time>
      </trkpt>
      <trkpt lat="46.51331" lon="5.62604">
        <ele>446.1</ele>
        <time>2019-09-03T08:45:50Z</time>
      </trkpt>
      <trkpt lat="46.51329" lon="5.62597">
        <ele>445.8</ele>
        <time>2019-09-03T08:45:55Z</time>
      </trkpt>
      <trkpt lat="46.51329" lon="5.6259">
        <ele>445.5</ele>
        <time>2019-09-03T08:45:59Z</time>
      </trkpt>
      <trkpt lat="46.51327" lon="5.62583">
        <ele>445.1</ele>
        <time>2019-09-03T08:46:03Z</time>
      </trkpt>
      <trkpt lat="46.51316" lon="5.62573">
        <ele>442.6</ele>
        <time>2019-09-03T08:46:16Z</time>
      </trkpt>
      <trkpt lat="46.51313" lon="5.62568">
        <ele>441.1</ele>
        <time>2019-09-03T08:46:25Z</time>
      </trkpt>
      <trkpt lat="46.5131" lon="5.62562">
        <ele>440.4</ele>
        <time>2019-09-03T08:46:34Z</time>
      </trkpt>
      <trkpt lat="46.51308" lon="5.62556">
        <ele>440.8</ele>
        <time>2019-09-03T08:46:40Z</time>
      </trkpt>
      <trkpt lat="46.51305" lon="5.6255">
        <ele>441.2</ele>
        <time>2019-09-03T08:46:45Z</time>
      </trkpt>
      <trkpt lat="46.51302" lon="5.62545">
        <ele>441.6</ele>
        <time>2019-09-03T08:46:51Z</time>
      </trkpt>
      <trkpt lat="46.51297" lon="5.62544">
        <ele>441.9</ele>
        <time>2019-09-03T08:46:59Z</time>
      </trkpt>
      <trkpt lat="46.51292" lon="5.6254">
        <ele>441.9</ele>
        <time>2019-09-03T08:47:05Z</time>
      </trkpt>
      <trkpt lat="46.51288" lon="5.62534">
        <ele>441.6</ele>
        <time>2019-09-03T08:47:10Z</time>
      </trkpt>
      <trkpt lat="46.51285" lon="5.62529">
        <ele>441.5</ele>
        <time>2019-09-03T08:47:15Z</time>
      </trkpt>
      <trkpt lat="46.51282" lon="5.62524">
        <ele>441.7</ele>
        <time>2019-09-03T08:47:21Z</time>
      </trkpt>
      <trkpt lat="46.51278" lon="5.62521">
        <ele>442</ele>
        <time>2019-09-03T08:47:27Z</time>
      </trkpt>
      <trkpt lat="46.51273" lon="5.62519">
        <ele>442.4</ele>
        <time>2019-09-03T08:47:32Z</time>
      </trkpt>
      <trkpt lat="46.51269" lon="5.62515">
        <ele>442.6</ele>
        <time>2019-09-03T08:47:36Z</time>
      </trkpt>
      <trkpt lat="46.51265" lon="5.62511">
        <ele>443</ele>
        <time>2019-09-03T08:47:42Z</time>
      </trkpt>
      <trkpt lat="46.5126" lon="5.62509">
        <ele>443.2</ele>
        <time>2019-09-03T08:47:48Z</time>
      </trkpt>
      <trkpt lat="46.51257" lon="5.62504">
        <ele>443.1</ele>
        <time>2019-09-03T08:47:53Z</time>
      </trkpt>
      <trkpt lat="46.51253" lon="5.62499">
        <ele>442.7</ele>
        <time>2019-09-03T08:48:00Z</time>
      </trkpt>
      <trkpt lat="46.51249" lon="5.62496">
        <ele>442.3</ele>
        <time>2019-09-03T08:48:05Z</time>
      </trkpt>
      <trkpt lat="46.51245" lon="5.62494">
        <ele>442</ele>
        <time>2019-09-03T08:48:09Z</time>
      </trkpt>
      <trkpt lat="46.5124" lon="5.62493">
        <ele>441.8</ele>
        <time>2019-09-03T08:48:16Z</time>
      </trkpt>
      <trkpt lat="46.51236" lon="5.62489">
        <ele>441.8</ele>
        <time>2019-09-03T08:48:21Z</time>
      </trkpt>
      <trkpt lat="46.51232" lon="5.62484">
        <ele>441.9</ele>
        <time>2019-09-03T08:48:28Z</time>
      </trkpt>
      <trkpt lat="46.51228" lon="5.6248">
        <ele>441.7</ele>
        <time>2019-09-03T08:48:34Z</time>
      </trkpt>
      <trkpt lat="46.51223" lon="5.62477">
        <ele>441.3</ele>
        <time>2019-09-03T08:48:40Z</time>
      </trkpt>
      <trkpt lat="46.51219" lon="5.62474">
        <ele>441.2</ele>
        <time>2019-09-03T08:48:45Z</time>
      </trkpt>
      <trkpt lat="46.51216" lon="5.62468">
        <ele>441.2</ele>
        <time>2019-09-03T08:48:54Z</time>
      </trkpt>
      <trkpt lat="46.51213" lon="5.62463">
        <ele>441.2</ele>
        <time>2019-09-03T08:48:59Z</time>
      </trkpt>
      <trkpt lat="46.51211" lon="5.62456">
        <ele>441</ele>
        <time>2019-09-03T08:49:03Z</time>
      </trkpt>
      <trkpt lat="46.51207" lon="5.62452">
        <ele>440.7</ele>
        <time>2019-09-03T08:49:16Z</time>
      </trkpt>
      <trkpt lat="46.51202" lon="5.6245">
        <ele>440.5</ele>
        <time>2019-09-03T08:49:23Z</time>
      </trkpt>
      <trkpt lat="46.51198" lon="5.62447">
        <ele>440.4</ele>
        <time>2019-09-03T08:49:27Z</time>
      </trkpt>
      <trkpt lat="46.51193" lon="5.62444">
        <ele>440.3</ele>
        <time>2019-09-03T08:49:30Z</time>
      </trkpt>
      <trkpt lat="46.51189" lon="5.62443">
        <ele>440.4</ele>
        <time>2019-09-03T08:49:35Z</time>
      </trkpt>
      <trkpt lat="46.51184" lon="5.62442">
        <ele>440.8</ele>
        <time>2019-09-03T08:49:42Z</time>
      </trkpt>
      <trkpt lat="46.51179" lon="5.6244">
        <ele>441.1</ele>
        <time>2019-09-03T08:49:46Z</time>
      </trkpt>
      <trkpt lat="46.51174" lon="5.62441">
        <ele>441.4</ele>
        <time>2019-09-03T08:49:49Z</time>
      </trkpt>
      <trkpt lat="46.51169" lon="5.6244">
        <ele>441.8</ele>
        <time>2019-09-03T08:49:54Z</time>
      </trkpt>
      <trkpt lat="46.51164" lon="5.62438">
        <ele>442.1</ele>
        <time>2019-09-03T08:50:00Z</time>
      </trkpt>
      <trkpt lat="46.51159" lon="5.62434">
        <ele>442.3</ele>
        <time>2019-09-03T08:50:05Z</time>
      </trkpt>
      <trkpt lat="46.51155" lon="5.62431">
        <ele>442.3</ele>
        <time>2019-09-03T08:50:09Z</time>
      </trkpt>
      <trkpt lat="46.5115" lon="5.62427">
        <ele>442.1</ele>
        <time>2019-09-03T08:50:13Z</time>
      </trkpt>
      <trkpt lat="46.51146" lon="5.62424">
        <ele>442</ele>
        <time>2019-09-03T08:50:19Z</time>
      </trkpt>
      <trkpt lat="46.51141" lon="5.62421">
        <ele>441.8</ele>
        <time>2019-09-03T08:50:25Z</time>
      </trkpt>
      <trkpt lat="46.51137" lon="5.62419">
        <ele>441.8</ele>
        <time>2019-09-03T08:50:32Z</time>
      </trkpt>
      <trkpt lat="46.51133" lon="5.62415">
        <ele>441.6</ele>
        <time>2019-09-03T08:50:38Z</time>
      </trkpt>
      <trkpt lat="46.51128" lon="5.62413">
        <ele>441.4</ele>
        <time>2019-09-03T08:50:44Z</time>
      </trkpt>
      <trkpt lat="46.51124" lon="5.62411">
        <ele>441</ele>
        <time>2019-09-03T08:50:50Z</time>
      </trkpt>
      <trkpt lat="46.51119" lon="5.62409">
        <ele>440.8</ele>
        <time>2019-09-03T08:50:55Z</time>
      </trkpt>
      <trkpt lat="46.51115" lon="5.62407">
        <ele>440.5</ele>
        <time>2019-09-03T08:51:01Z</time>
      </trkpt>
      <trkpt lat="46.51109" lon="5.62405">
        <ele>440</ele>
        <time>2019-09-03T08:51:08Z</time>
      </trkpt>
      <trkpt lat="46.51104" lon="5.62402">
        <ele>439.5</ele>
        <time>2019-09-03T08:51:16Z</time>
      </trkpt>
      <trkpt lat="46.51099" lon="5.62403">
        <ele>439.4</ele>
        <time>2019-09-03T08:51:21Z</time>
      </trkpt>
      <trkpt lat="46.51094" lon="5.62403">
        <ele>439.7</ele>
        <time>2019-09-03T08:51:28Z</time>
      </trkpt>
      <trkpt lat="46.5109" lon="5.62406">
        <ele>440</ele>
        <time>2019-09-03T08:51:33Z</time>
      </trkpt>
      <trkpt lat="46.51086" lon="5.6241">
        <ele>441.6</ele>
        <time>2019-09-03T08:51:49Z</time>
      </trkpt>
      <trkpt lat="46.51081" lon="5.62413">
        <ele>442.9</ele>
        <time>2019-09-03T08:51:54Z</time>
      </trkpt>
      <trkpt lat="46.51075" lon="5.62415">
        <ele>444.1</ele>
        <time>2019-09-03T08:51:59Z</time>
      </trkpt>
      <trkpt lat="46.51069" lon="5.62415">
        <ele>444.9</ele>
        <time>2019-09-03T08:52:03Z</time>
      </trkpt>
      <trkpt lat="46.51064" lon="5.62413">
        <ele>445.4</ele>
        <time>2019-09-03T08:52:08Z</time>
      </trkpt>
      <trkpt lat="46.51059" lon="5.62411">
        <ele>445.4</ele>
        <time>2019-09-03T08:52:14Z</time>
      </trkpt>
      <trkpt lat="46.51055" lon="5.62409">
        <ele>445.4</ele>
        <time>2019-09-03T08:52:19Z</time>
      </trkpt>
      <trkpt lat="46.51051" lon="5.62404">
        <ele>445.5</ele>
        <time>2019-09-03T08:52:21Z</time>
      </trkpt>
      <trkpt lat="46.51046" lon="5.62401">
        <ele>445.7</ele>
        <time>2019-09-03T08:52:24Z</time>
      </trkpt>
      <trkpt lat="46.51041" lon="5.62398">
        <ele>445.9</ele>
        <time>2019-09-03T08:52:28Z</time>
      </trkpt>
      <trkpt lat="46.51036" lon="5.62398">
        <ele>446.2</ele>
        <time>2019-09-03T08:52:33Z</time>
      </trkpt>
      <trkpt lat="46.51032" lon="5.62397">
        <ele>446.4</ele>
        <time>2019-09-03T08:52:38Z</time>
      </trkpt>
      <trkpt lat="46.51026" lon="5.62395">
        <ele>446.5</ele>
        <time>2019-09-03T08:52:44Z</time>
      </trkpt>
      <trkpt lat="46.51022" lon="5.62392">
        <ele>446.5</ele>
        <time>2019-09-03T08:52:49Z</time>
      </trkpt>
      <trkpt lat="46.51021" lon="5.62385">
        <ele>445.8</ele>
        <time>2019-09-03T08:52:56Z</time>
      </trkpt>
      <trkpt lat="46.51016" lon="5.62379">
        <ele>445</ele>
        <time>2019-09-03T08:53:03Z</time>
      </trkpt>
      <trkpt lat="46.51013" lon="5.62374">
        <ele>444.9</ele>
        <time>2019-09-03T08:53:06Z</time>
      </trkpt>
      <trkpt lat="46.51008" lon="5.62372">
        <ele>444.9</ele>
        <time>2019-09-03T08:53:09Z</time>
      </trkpt>
      <trkpt lat="46.51004" lon="5.62369">
        <ele>444.8</ele>
        <time>2019-09-03T08:53:13Z</time>
      </trkpt>
      <trkpt lat="46.50998" lon="5.62368">
        <ele>444.6</ele>
        <time>2019-09-03T08:53:19Z</time>
      </trkpt>
      <trkpt lat="46.50994" lon="5.62364">
        <ele>444.6</ele>
        <time>2019-09-03T08:53:24Z</time>
      </trkpt>
      <trkpt lat="46.50989" lon="5.62362">
        <ele>444.3</ele>
        <time>2019-09-03T08:53:29Z</time>
      </trkpt>
      <trkpt lat="46.50984" lon="5.6236">
        <ele>443.9</ele>
        <time>2019-09-03T08:53:36Z</time>
      </trkpt>
      <trkpt lat="46.50979" lon="5.62358">
        <ele>443.7</ele>
        <time>2019-09-03T08:53:42Z</time>
      </trkpt>
      <trkpt lat="46.50974" lon="5.62358">
        <ele>443.6</ele>
        <time>2019-09-03T08:53:48Z</time>
      </trkpt>
      <trkpt lat="46.5097" lon="5.62358">
        <ele>443.6</ele>
        <time>2019-09-03T08:53:52Z</time>
      </trkpt>
      <trkpt lat="46.50965" lon="5.62357">
        <ele>443.4</ele>
        <time>2019-09-03T08:53:58Z</time>
      </trkpt>
      <trkpt lat="46.5096" lon="5.62358">
        <ele>443.2</ele>
        <time>2019-09-03T08:54:02Z</time>
      </trkpt>
      <trkpt lat="46.50955" lon="5.62358">
        <ele>442.6</ele>
        <time>2019-09-03T08:54:08Z</time>
      </trkpt>
      <trkpt lat="46.5095" lon="5.62359">
        <ele>441.7</ele>
        <time>2019-09-03T08:54:14Z</time>
      </trkpt>
      <trkpt lat="46.50943" lon="5.6236">
        <ele>441.4</ele>
        <time>2019-09-03T08:54:17Z</time>
      </trkpt>
      <trkpt lat="46.50938" lon="5.62362">
        <ele>441.2</ele>
        <time>2019-09-03T08:54:20Z</time>
      </trkpt>
      <trkpt lat="46.50933" lon="5.62364">
        <ele>441.1</ele>
        <time>2019-09-03T08:54:25Z</time>
      </trkpt>
      <trkpt lat="46.50929" lon="5.62368">
        <ele>441.3</ele>
        <time>2019-09-03T08:54:28Z</time>
      </trkpt>
      <trkpt lat="46.50925" lon="5.6237">
        <ele>441.7</ele>
        <time>2019-09-03T08:54:32Z</time>
      </trkpt>
      <trkpt lat="46.50921" lon="5.62374">
        <ele>442.5</ele>
        <time>2019-09-03T08:54:38Z</time>
      </trkpt>
      <trkpt lat="46.50917" lon="5.62377">
        <ele>443</ele>
        <time>2019-09-03T08:54:43Z</time>
      </trkpt>
      <trkpt lat="46.50913" lon="5.62381">
        <ele>443.6</ele>
        <time>2019-09-03T08:54:49Z</time>
      </trkpt>
      <trkpt lat="46.50907" lon="5.62381">
        <ele>444.2</ele>
        <time>2019-09-03T08:54:56Z</time>
      </trkpt>
      <trkpt lat="46.50902" lon="5.62381">
        <ele>444.6</ele>
        <time>2019-09-03T08:55:02Z</time>
      </trkpt>
      <trkpt lat="46.50898" lon="5.62381">
        <ele>444.6</ele>
        <time>2019-09-03T08:55:07Z</time>
      </trkpt>
      <trkpt lat="46.50893" lon="5.62379">
        <ele>444.3</ele>
        <time>2019-09-03T08:55:12Z</time>
      </trkpt>
      <trkpt lat="46.50889" lon="5.62378">
        <ele>443.9</ele>
        <time>2019-09-03T08:55:17Z</time>
      </trkpt>
      <trkpt lat="46.50884" lon="5.62379">
        <ele>443.5</ele>
        <time>2019-09-03T08:55:21Z</time>
      </trkpt>
      <trkpt lat="46.50879" lon="5.62379">
        <ele>443.2</ele>
        <time>2019-09-03T08:55:24Z</time>
      </trkpt>
      <trkpt lat="46.50874" lon="5.62381">
        <ele>442.8</ele>
        <time>2019-09-03T08:55:28Z</time>
      </trkpt>
      <trkpt lat="46.50869" lon="5.62382">
        <ele>442.3</ele>
        <time>2019-09-03T08:55:35Z</time>
      </trkpt>
      <trkpt lat="46.50864" lon="5.62382">
        <ele>442.3</ele>
        <time>2019-09-03T08:55:38Z</time>
      </trkpt>
      <trkpt lat="46.50859" lon="5.6238">
        <ele>442.4</ele>
        <time>2019-09-03T08:55:42Z</time>
      </trkpt>
      <trkpt lat="46.50853" lon="5.6238">
        <ele>443.2</ele>
        <time>2019-09-03T08:55:59Z</time>
      </trkpt>
      <trkpt lat="46.5085" lon="5.62385">
        <ele>443.3</ele>
        <time>2019-09-03T08:56:03Z</time>
      </trkpt>
      <trkpt lat="46.50846" lon="5.6239">
        <ele>442.5</ele>
        <time>2019-09-03T08:56:37Z</time>
      </trkpt>
      <trkpt lat="46.50842" lon="5.62395">
        <ele>442</ele>
        <time>2019-09-03T08:56:42Z</time>
      </trkpt>
      <trkpt lat="46.50839" lon="5.624">
        <ele>441.6</ele>
        <time>2019-09-03T08:56:49Z</time>
      </trkpt>
      <trkpt lat="46.50835" lon="5.62403">
        <ele>442.5</ele>
        <time>2019-09-03T08:57:06Z</time>
      </trkpt>
      <trkpt lat="46.5083" lon="5.62404">
        <ele>443.8</ele>
        <time>2019-09-03T08:57:16Z</time>
      </trkpt>
      <trkpt lat="46.50825" lon="5.62404">
        <ele>444</ele>
        <time>2019-09-03T08:57:28Z</time>
      </trkpt>
      <trkpt lat="46.5082" lon="5.62405">
        <ele>443.7</ele>
        <time>2019-09-03T08:57:34Z</time>
      </trkpt>
      <trkpt lat="46.50816" lon="5.62408">
        <ele>443.5</ele>
        <time>2019-09-03T08:57:39Z</time>
      </trkpt>
      <trkpt lat="46.50811" lon="5.62412">
        <ele>443</ele>
        <time>2019-09-03T08:57:45Z</time>
      </trkpt>
      <trkpt lat="46.50808" lon="5.62417">
        <ele>442.5</ele>
        <time>2019-09-03T08:57:51Z</time>
      </trkpt>
      <trkpt lat="46.50803" lon="5.62419">
        <ele>441.9</ele>
        <time>2019-09-03T08:57:57Z</time>
      </trkpt>
      <trkpt lat="46.50799" lon="5.62422">
        <ele>441.2</ele>
        <time>2019-09-03T08:58:02Z</time>
      </trkpt>
      <trkpt lat="46.50795" lon="5.62425">
        <ele>440.4</ele>
        <time>2019-09-03T08:58:08Z</time>
      </trkpt>
      <trkpt lat="46.5079" lon="5.62428">
        <ele>439.5</ele>
        <time>2019-09-03T08:58:14Z</time>
      </trkpt>
      <trkpt lat="46.50786" lon="5.62431">
        <ele>439</ele>
        <time>2019-09-03T08:58:18Z</time>
      </trkpt>
      <trkpt lat="46.50781" lon="5.62433">
        <ele>438.1</ele>
        <time>2019-09-03T08:58:24Z</time>
      </trkpt>
      <trkpt lat="46.50777" lon="5.62436">
        <ele>437.3</ele>
        <time>2019-09-03T08:58:31Z</time>
      </trkpt>
      <trkpt lat="46.50772" lon="5.62439">
        <ele>436.7</ele>
        <time>2019-09-03T08:58:36Z</time>
      </trkpt>
      <trkpt lat="46.50768" lon="5.62443">
        <ele>436.1</ele>
        <time>2019-09-03T08:58:43Z</time>
      </trkpt>
      <trkpt lat="46.50765" lon="5.62449">
        <ele>435.8</ele>
        <time>2019-09-03T08:58:49Z</time>
      </trkpt>
      <trkpt lat="46.50761" lon="5.62456">
        <ele>435.4</ele>
        <time>2019-09-03T08:58:53Z</time>
      </trkpt>
      <trkpt lat="46.50758" lon="5.62462">
        <ele>435.1</ele>
        <time>2019-09-03T08:58:56Z</time>
      </trkpt>
      <trkpt lat="46.50755" lon="5.62466">
        <ele>434.7</ele>
        <time>2019-09-03T08:59:01Z</time>
      </trkpt>
      <trkpt lat="46.5075" lon="5.6247">
        <ele>434.5</ele>
        <time>2019-09-03T08:59:06Z</time>
      </trkpt>
      <trkpt lat="46.50745" lon="5.62471">
        <ele>434.4</ele>
        <time>2019-09-03T08:59:11Z</time>
      </trkpt>
      <trkpt lat="46.5074" lon="5.62471">
        <ele>434.3</ele>
        <time>2019-09-03T08:59:17Z</time>
      </trkpt>
      <trkpt lat="46.50735" lon="5.62469">
        <ele>433.6</ele>
        <time>2019-09-03T08:59:23Z</time>
      </trkpt>
      <trkpt lat="46.5073" lon="5.6247">
        <ele>432.9</ele>
        <time>2019-09-03T08:59:27Z</time>
      </trkpt>
      <trkpt lat="46.50725" lon="5.62469">
        <ele>432.1</ele>
        <time>2019-09-03T08:59:31Z</time>
      </trkpt>
      <trkpt lat="46.5072" lon="5.62469">
        <ele>430.9</ele>
        <time>2019-09-03T08:59:36Z</time>
      </trkpt>
      <trkpt lat="46.50715" lon="5.62468">
        <ele>429.8</ele>
        <time>2019-09-03T08:59:42Z</time>
      </trkpt>
      <trkpt lat="46.50711" lon="5.62468">
        <ele>429</ele>
        <time>2019-09-03T08:59:49Z</time>
      </trkpt>
      <trkpt lat="46.50707" lon="5.62472">
        <ele>428.4</ele>
        <time>2019-09-03T08:59:57Z</time>
      </trkpt>
      <trkpt lat="46.50703" lon="5.62477">
        <ele>428.1</ele>
        <time>2019-09-03T09:00:01Z</time>
      </trkpt>
      <trkpt lat="46.50698" lon="5.62482">
        <ele>427.6</ele>
        <time>2019-09-03T09:00:05Z</time>
      </trkpt>
      <trkpt lat="46.50695" lon="5.62487">
        <ele>427.2</ele>
        <time>2019-09-03T09:00:08Z</time>
      </trkpt>
      <trkpt lat="46.50691" lon="5.62492">
        <ele>426.5</ele>
        <time>2019-09-03T09:00:14Z</time>
      </trkpt>
      <trkpt lat="46.50687" lon="5.62496">
        <ele>426</ele>
        <time>2019-09-03T09:00:18Z</time>
      </trkpt>
      <trkpt lat="46.50682" lon="5.62499">
        <ele>425.3</ele>
        <time>2019-09-03T09:00:24Z</time>
      </trkpt>
      <trkpt lat="46.50678" lon="5.62505">
        <ele>424.9</ele>
        <time>2019-09-03T09:00:28Z</time>
      </trkpt>
      <trkpt lat="46.50675" lon="5.6251">
        <ele>424.6</ele>
        <time>2019-09-03T09:00:31Z</time>
      </trkpt>
      <trkpt lat="46.50671" lon="5.62513">
        <ele>424.3</ele>
        <time>2019-09-03T09:00:35Z</time>
      </trkpt>
      <trkpt lat="46.50666" lon="5.62517">
        <ele>424.2</ele>
        <time>2019-09-03T09:00:39Z</time>
      </trkpt>
      <trkpt lat="46.50662" lon="5.6252">
        <ele>424.2</ele>
        <time>2019-09-03T09:00:44Z</time>
      </trkpt>
      <trkpt lat="46.50659" lon="5.62525">
        <ele>424.4</ele>
        <time>2019-09-03T09:00:49Z</time>
      </trkpt>
      <trkpt lat="46.50655" lon="5.6253">
        <ele>424.5</ele>
        <time>2019-09-03T09:00:56Z</time>
      </trkpt>
      <trkpt lat="46.50651" lon="5.62534">
        <ele>424.5</ele>
        <time>2019-09-03T09:01:01Z</time>
      </trkpt>
      <trkpt lat="46.50648" lon="5.6254">
        <ele>424.4</ele>
        <time>2019-09-03T09:01:05Z</time>
      </trkpt>
      <trkpt lat="46.50645" lon="5.62545">
        <ele>424.2</ele>
        <time>2019-09-03T09:01:08Z</time>
      </trkpt>
      <trkpt lat="46.50642" lon="5.62552">
        <ele>423.8</ele>
        <time>2019-09-03T09:01:12Z</time>
      </trkpt>
      <trkpt lat="46.50639" lon="5.62557">
        <ele>423.4</ele>
        <time>2019-09-03T09:01:17Z</time>
      </trkpt>
      <trkpt lat="46.50636" lon="5.62563">
        <ele>423</ele>
        <time>2019-09-03T09:01:22Z</time>
      </trkpt>
      <trkpt lat="46.50634" lon="5.62569">
        <ele>422.8</ele>
        <time>2019-09-03T09:01:27Z</time>
      </trkpt>
      <trkpt lat="46.50632" lon="5.62576">
        <ele>422.8</ele>
        <time>2019-09-03T09:01:31Z</time>
      </trkpt>
      <trkpt lat="46.50631" lon="5.62584">
        <ele>422.5</ele>
        <time>2019-09-03T09:01:39Z</time>
      </trkpt>
      <trkpt lat="46.5063" lon="5.62591">
        <ele>422.4</ele>
        <time>2019-09-03T09:01:43Z</time>
      </trkpt>
      <trkpt lat="46.50628" lon="5.62598">
        <ele>422.2</ele>
        <time>2019-09-03T09:01:48Z</time>
      </trkpt>
      <trkpt lat="46.50625" lon="5.62604">
        <ele>422.3</ele>
        <time>2019-09-03T09:01:53Z</time>
      </trkpt>
      <trkpt lat="46.50623" lon="5.62611">
        <ele>422.5</ele>
        <time>2019-09-03T09:01:58Z</time>
      </trkpt>
      <trkpt lat="46.50623" lon="5.62617">
        <ele>422.7</ele>
        <time>2019-09-03T09:02:02Z</time>
      </trkpt>
      <trkpt lat="46.50622" lon="5.62624">
        <ele>422.8</ele>
        <time>2019-09-03T09:02:07Z</time>
      </trkpt>
      <trkpt lat="46.5062" lon="5.62631">
        <ele>422.6</ele>
        <time>2019-09-03T09:02:13Z</time>
      </trkpt>
      <trkpt lat="46.50619" lon="5.62638">
        <ele>422.4</ele>
        <time>2019-09-03T09:02:21Z</time>
      </trkpt>
      <trkpt lat="46.50618" lon="5.62645">
        <ele>422.2</ele>
        <time>2019-09-03T09:02:32Z</time>
      </trkpt>
      <trkpt lat="46.50618" lon="5.62652">
        <ele>422.6</ele>
        <time>2019-09-03T09:02:48Z</time>
      </trkpt>
      <trkpt lat="46.50617" lon="5.62659">
        <ele>423.8</ele>
        <time>2019-09-03T09:02:55Z</time>
      </trkpt>
      <trkpt lat="46.50616" lon="5.62666">
        <ele>424.3</ele>
        <time>2019-09-03T09:03:00Z</time>
      </trkpt>
      <trkpt lat="46.50617" lon="5.62673">
        <ele>424.6</ele>
        <time>2019-09-03T09:03:04Z</time>
      </trkpt>
      <trkpt lat="46.50618" lon="5.6268">
        <ele>424.4</ele>
        <time>2019-09-03T09:03:11Z</time>
      </trkpt>
      <trkpt lat="46.50621" lon="5.62687">
        <ele>424</ele>
        <time>2019-09-03T09:03:15Z</time>
      </trkpt>
      <trkpt lat="46.50623" lon="5.62693">
        <ele>423.5</ele>
        <time>2019-09-03T09:03:19Z</time>
      </trkpt>
      <trkpt lat="46.50625" lon="5.62699">
        <ele>422.9</ele>
        <time>2019-09-03T09:03:24Z</time>
      </trkpt>
      <trkpt lat="46.50629" lon="5.62704">
        <ele>422.4</ele>
        <time>2019-09-03T09:03:29Z</time>
      </trkpt>
      <trkpt lat="46.50632" lon="5.62709">
        <ele>422.3</ele>
        <time>2019-09-03T09:03:35Z</time>
      </trkpt>
      <trkpt lat="46.50635" lon="5.62713">
        <ele>422.4</ele>
        <time>2019-09-03T09:03:46Z</time>
      </trkpt>
      <trkpt lat="46.50639" lon="5.62719">
        <ele>422.4</ele>
        <time>2019-09-03T09:04:07Z</time>
      </trkpt>
      <trkpt lat="46.50643" lon="5.62722">
        <ele>422.3</ele>
        <time>2019-09-03T09:04:11Z</time>
      </trkpt>
      <trkpt lat="46.50648" lon="5.62725">
        <ele>422.4</ele>
        <time>2019-09-03T09:04:16Z</time>
      </trkpt>
      <trkpt lat="46.50652" lon="5.62728">
        <ele>422.8</ele>
        <time>2019-09-03T09:04:25Z</time>
      </trkpt>
      <trkpt lat="46.50657" lon="5.62731">
        <ele>422.8</ele>
        <time>2019-09-03T09:04:30Z</time>
      </trkpt>
      <trkpt lat="46.50661" lon="5.62735">
        <ele>422.6</ele>
        <time>2019-09-03T09:04:35Z</time>
      </trkpt>
      <trkpt lat="46.50665" lon="5.62738">
        <ele>422.3</ele>
        <time>2019-09-03T09:04:39Z</time>
      </trkpt>
      <trkpt lat="46.5067" lon="5.62741">
        <ele>421.9</ele>
        <time>2019-09-03T09:04:45Z</time>
      </trkpt>
      <trkpt lat="46.50674" lon="5.62745">
        <ele>421.5</ele>
        <time>2019-09-03T09:04:50Z</time>
      </trkpt>
      <trkpt lat="46.50677" lon="5.62749">
        <ele>421</ele>
        <time>2019-09-03T09:04:55Z</time>
      </trkpt>
      <trkpt lat="46.50681" lon="5.62753">
        <ele>420.6</ele>
        <time>2019-09-03T09:04:59Z</time>
      </trkpt>
      <trkpt lat="46.50686" lon="5.62755">
        <ele>420.2</ele>
        <time>2019-09-03T09:05:03Z</time>
      </trkpt>
      <trkpt lat="46.5069" lon="5.62758">
        <ele>419.7</ele>
        <time>2019-09-03T09:05:07Z</time>
      </trkpt>
      <trkpt lat="46.50695" lon="5.62761">
        <ele>419.3</ele>
        <time>2019-09-03T09:05:11Z</time>
      </trkpt>
      <trkpt lat="46.50699" lon="5.62767">
        <ele>418.8</ele>
        <time>2019-09-03T09:05:17Z</time>
      </trkpt>
      <trkpt lat="46.50702" lon="5.62772">
        <ele>418.5</ele>
        <time>2019-09-03T09:05:22Z</time>
      </trkpt>
      <trkpt lat="46.50706" lon="5.62777">
        <ele>418.4</ele>
        <time>2019-09-03T09:05:26Z</time>
      </trkpt>
      <trkpt lat="46.50708" lon="5.62783">
        <ele>418.2</ele>
        <time>2019-09-03T09:05:32Z</time>
      </trkpt>
      <trkpt lat="46.50709" lon="5.6279">
        <ele>417.9</ele>
        <time>2019-09-03T09:05:38Z</time>
      </trkpt>
      <trkpt lat="46.50712" lon="5.62796">
        <ele>417.5</ele>
        <time>2019-09-03T09:05:43Z</time>
      </trkpt>
      <trkpt lat="46.50714" lon="5.62802">
        <ele>416.7</ele>
        <time>2019-09-03T09:05:48Z</time>
      </trkpt>
      <trkpt lat="46.50717" lon="5.62808">
        <ele>415.6</ele>
        <time>2019-09-03T09:05:53Z</time>
      </trkpt>
      <trkpt lat="46.50719" lon="5.62814">
        <ele>413.2</ele>
        <time>2019-09-03T09:06:04Z</time>
      </trkpt>
      <trkpt lat="46.50719" lon="5.62821">
        <ele>410.4</ele>
        <time>2019-09-03T09:06:15Z</time>
      </trkpt>
      <trkpt lat="46.50719" lon="5.62827">
        <ele>406.7</ele>
        <time>2019-09-03T09:06:32Z</time>
      </trkpt>
      <trkpt lat="46.5072" lon="5.62834">
        <ele>406.2</ele>
        <time>2019-09-03T09:06:40Z</time>
      </trkpt>
      <trkpt lat="46.50719" lon="5.62841">
        <ele>406</ele>
        <time>2019-09-03T09:06:46Z</time>
      </trkpt>
      <trkpt lat="46.50716" lon="5.62836">
        <ele>406.8</ele>
        <time>2019-09-03T09:07:19Z</time>
      </trkpt>
      <trkpt lat="46.50716" lon="5.62842">
        <ele>406.3</ele>
        <time>2019-09-03T09:07:43Z</time>
      </trkpt>
      <trkpt lat="46.50717" lon="5.62849">
        <ele>406.2</ele>
        <time>2019-09-03T09:07:49Z</time>
      </trkpt>
      <trkpt lat="46.50718" lon="5.62856">
        <ele>406.1</ele>
        <time>2019-09-03T09:07:55Z</time>
      </trkpt>
      <trkpt lat="46.50721" lon="5.62873">
        <ele>403.7</ele>
        <time>2019-09-03T09:08:13Z</time>
      </trkpt>
      <trkpt lat="46.50721" lon="5.62882">
        <ele>402.9</ele>
        <time>2019-09-03T09:08:20Z</time>
      </trkpt>
      <trkpt lat="46.50721" lon="5.6289">
        <ele>402.7</ele>
        <time>2019-09-03T09:08:22Z</time>
      </trkpt>
      <trkpt lat="46.50722" lon="5.62897">
        <ele>402.3</ele>
        <time>2019-09-03T09:08:26Z</time>
      </trkpt>
      <trkpt lat="46.50723" lon="5.62915">
        <ele>401.3</ele>
        <time>2019-09-03T09:08:38Z</time>
      </trkpt>
      <trkpt lat="46.50721" lon="5.62922">
        <ele>400.4</ele>
        <time>2019-09-03T09:08:45Z</time>
      </trkpt>
      <trkpt lat="46.5072" lon="5.6293">
        <ele>399.1</ele>
        <time>2019-09-03T09:08:52Z</time>
      </trkpt>
      <trkpt lat="46.50717" lon="5.62939">
        <ele>398.4</ele>
        <time>2019-09-03T09:08:57Z</time>
      </trkpt>
      <trkpt lat="46.50716" lon="5.62948">
        <ele>398.2</ele>
        <time>2019-09-03T09:08:59Z</time>
      </trkpt>
      <trkpt lat="46.50715" lon="5.62956">
        <ele>398.1</ele>
        <time>2019-09-03T09:09:02Z</time>
      </trkpt>
      <trkpt lat="46.50713" lon="5.62963">
        <ele>397.9</ele>
        <time>2019-09-03T09:09:08Z</time>
      </trkpt>
      <trkpt lat="46.50711" lon="5.6297">
        <ele>397.9</ele>
        <time>2019-09-03T09:09:11Z</time>
      </trkpt>
      <trkpt lat="46.50709" lon="5.62977">
        <ele>397.8</ele>
        <time>2019-09-03T09:09:14Z</time>
      </trkpt>
      <trkpt lat="46.50707" lon="5.62984">
        <ele>397.9</ele>
        <time>2019-09-03T09:09:19Z</time>
      </trkpt>
      <trkpt lat="46.50707" lon="5.6299">
        <ele>398</ele>
        <time>2019-09-03T09:09:25Z</time>
      </trkpt>
      <trkpt lat="46.50706" lon="5.62997">
        <ele>398.2</ele>
        <time>2019-09-03T09:09:30Z</time>
      </trkpt>
      <trkpt lat="46.50704" lon="5.63004">
        <ele>398.4</ele>
        <time>2019-09-03T09:09:35Z</time>
      </trkpt>
      <trkpt lat="46.50704" lon="5.63011">
        <ele>398.4</ele>
        <time>2019-09-03T09:09:40Z</time>
      </trkpt>
      <trkpt lat="46.50703" lon="5.63018">
        <ele>398.3</ele>
        <time>2019-09-03T09:09:44Z</time>
      </trkpt>
      <trkpt lat="46.50702" lon="5.63025">
        <ele>398.3</ele>
        <time>2019-09-03T09:09:51Z</time>
      </trkpt>
      <trkpt lat="46.507" lon="5.63031">
        <ele>398.2</ele>
        <time>2019-09-03T09:09:57Z</time>
      </trkpt>
      <trkpt lat="46.50696" lon="5.63036">
        <ele>398</ele>
        <time>2019-09-03T09:10:02Z</time>
      </trkpt>
      <trkpt lat="46.50693" lon="5.63043">
        <ele>397.7</ele>
        <time>2019-09-03T09:10:06Z</time>
      </trkpt>
      <trkpt lat="46.50689" lon="5.63047">
        <ele>397.4</ele>
        <time>2019-09-03T09:10:11Z</time>
      </trkpt>
      <trkpt lat="46.50684" lon="5.6305">
        <ele>396.1</ele>
        <time>2019-09-03T09:10:21Z</time>
      </trkpt>
      <trkpt lat="46.5068" lon="5.63054">
        <ele>395.5</ele>
        <time>2019-09-03T09:10:25Z</time>
      </trkpt>
      <trkpt lat="46.50676" lon="5.63058">
        <ele>394.8</ele>
        <time>2019-09-03T09:10:30Z</time>
      </trkpt>
      <trkpt lat="46.50673" lon="5.63064">
        <ele>394.5</ele>
        <time>2019-09-03T09:10:36Z</time>
      </trkpt>
      <trkpt lat="46.50671" lon="5.63071">
        <ele>394.5</ele>
        <time>2019-09-03T09:10:39Z</time>
      </trkpt>
      <trkpt lat="46.50669" lon="5.63078">
        <ele>394.6</ele>
        <time>2019-09-03T09:10:43Z</time>
      </trkpt>
      <trkpt lat="46.50668" lon="5.63085">
        <ele>394.8</ele>
        <time>2019-09-03T09:10:48Z</time>
      </trkpt>
      <trkpt lat="46.50665" lon="5.63091">
        <ele>395.3</ele>
        <time>2019-09-03T09:10:54Z</time>
      </trkpt>
      <trkpt lat="46.50663" lon="5.63097">
        <ele>395.7</ele>
        <time>2019-09-03T09:10:58Z</time>
      </trkpt>
      <trkpt lat="46.50661" lon="5.63103">
        <ele>395.9</ele>
        <time>2019-09-03T09:11:02Z</time>
      </trkpt>
      <trkpt lat="46.50657" lon="5.63108">
        <ele>395.8</ele>
        <time>2019-09-03T09:11:07Z</time>
      </trkpt>
      <trkpt lat="46.50655" lon="5.63115">
        <ele>395.5</ele>
        <time>2019-09-03T09:11:14Z</time>
      </trkpt>
      <trkpt lat="46.50653" lon="5.63122">
        <ele>395.4</ele>
        <time>2019-09-03T09:11:19Z</time>
      </trkpt>
      <trkpt lat="46.50651" lon="5.6313">
        <ele>395.6</ele>
        <time>2019-09-03T09:11:24Z</time>
      </trkpt>
      <trkpt lat="46.50651" lon="5.63136">
        <ele>395.8</ele>
        <time>2019-09-03T09:11:28Z</time>
      </trkpt>
      <trkpt lat="46.50646" lon="5.63137">
        <ele>396.1</ele>
        <time>2019-09-03T09:11:34Z</time>
      </trkpt>
      <trkpt lat="46.50641" lon="5.63136">
        <ele>396</ele>
        <time>2019-09-03T09:11:39Z</time>
      </trkpt>
      <trkpt lat="46.50636" lon="5.63136">
        <ele>395.3</ele>
        <time>2019-09-03T09:11:44Z</time>
      </trkpt>
      <trkpt lat="46.50632" lon="5.63135">
        <ele>394.6</ele>
        <time>2019-09-03T09:11:48Z</time>
      </trkpt>
      <trkpt lat="46.50627" lon="5.63134">
        <ele>393.9</ele>
        <time>2019-09-03T09:11:52Z</time>
      </trkpt>
      <trkpt lat="46.50622" lon="5.63137">
        <ele>393.5</ele>
        <time>2019-09-03T09:11:56Z</time>
      </trkpt>
      <trkpt lat="46.50617" lon="5.63137">
        <ele>393</ele>
        <time>2019-09-03T09:12:00Z</time>
      </trkpt>
      <trkpt lat="46.50612" lon="5.63139">
        <ele>392.6</ele>
        <time>2019-09-03T09:12:05Z</time>
      </trkpt>
      <trkpt lat="46.50607" lon="5.63142">
        <ele>392.3</ele>
        <time>2019-09-03T09:12:09Z</time>
      </trkpt>
      <trkpt lat="46.50603" lon="5.63144">
        <ele>391.9</ele>
        <time>2019-09-03T09:12:13Z</time>
      </trkpt>
      <trkpt lat="46.50598" lon="5.63146">
        <ele>391.5</ele>
        <time>2019-09-03T09:12:17Z</time>
      </trkpt>
      <trkpt lat="46.50593" lon="5.63147">
        <ele>391.4</ele>
        <time>2019-09-03T09:12:23Z</time>
      </trkpt>
      <trkpt lat="46.50588" lon="5.63149">
        <ele>391.5</ele>
        <time>2019-09-03T09:12:27Z</time>
      </trkpt>
      <trkpt lat="46.50583" lon="5.6315">
        <ele>391.4</ele>
        <time>2019-09-03T09:12:31Z</time>
      </trkpt>
      <trkpt lat="46.50578" lon="5.63149">
        <ele>391.4</ele>
        <time>2019-09-03T09:12:38Z</time>
      </trkpt>
      <trkpt lat="46.50573" lon="5.63151">
        <ele>391</ele>
        <time>2019-09-03T09:12:45Z</time>
      </trkpt>
      <trkpt lat="46.50569" lon="5.63151">
        <ele>390.6</ele>
        <time>2019-09-03T09:12:50Z</time>
      </trkpt>
      <trkpt lat="46.50564" lon="5.63152">
        <ele>390.2</ele>
        <time>2019-09-03T09:12:54Z</time>
      </trkpt>
      <trkpt lat="46.50559" lon="5.63154">
        <ele>389.9</ele>
        <time>2019-09-03T09:12:57Z</time>
      </trkpt>
      <trkpt lat="46.50554" lon="5.63156">
        <ele>389.7</ele>
        <time>2019-09-03T09:13:01Z</time>
      </trkpt>
      <trkpt lat="46.5055" lon="5.63157">
        <ele>389.5</ele>
        <time>2019-09-03T09:13:07Z</time>
      </trkpt>
      <trkpt lat="46.50544" lon="5.63158">
        <ele>389.6</ele>
        <time>2019-09-03T09:13:13Z</time>
      </trkpt>
      <trkpt lat="46.5054" lon="5.63158">
        <ele>389.7</ele>
        <time>2019-09-03T09:13:19Z</time>
      </trkpt>
      <trkpt lat="46.50535" lon="5.6316">
        <ele>389.7</ele>
        <time>2019-09-03T09:13:27Z</time>
      </trkpt>
      <trkpt lat="46.50533" lon="5.63169">
        <ele>389.7</ele>
        <time>2019-09-03T09:13:44Z</time>
      </trkpt>
      <trkpt lat="46.50532" lon="5.63175">
        <ele>390.5</ele>
        <time>2019-09-03T09:13:50Z</time>
      </trkpt>
      <trkpt lat="46.50532" lon="5.63182">
        <ele>391</ele>
        <time>2019-09-03T09:13:56Z</time>
      </trkpt>
      <trkpt lat="46.50533" lon="5.63188">
        <ele>391.4</ele>
        <time>2019-09-03T09:14:00Z</time>
      </trkpt>
      <trkpt lat="46.50531" lon="5.63196">
        <ele>392.2</ele>
        <time>2019-09-03T09:14:06Z</time>
      </trkpt>
      <trkpt lat="46.5053" lon="5.63202">
        <ele>393.1</ele>
        <time>2019-09-03T09:14:11Z</time>
      </trkpt>
      <trkpt lat="46.5053" lon="5.6321">
        <ele>394.2</ele>
        <time>2019-09-03T09:14:17Z</time>
      </trkpt>
      <trkpt lat="46.50527" lon="5.63216">
        <ele>395.6</ele>
        <time>2019-09-03T09:14:24Z</time>
      </trkpt>
      <trkpt lat="46.50524" lon="5.63221">
        <ele>396.7</ele>
        <time>2019-09-03T09:14:29Z</time>
      </trkpt>
      <trkpt lat="46.50519" lon="5.63227">
        <ele>397.4</ele>
        <time>2019-09-03T09:14:33Z</time>
      </trkpt>
      <trkpt lat="46.50517" lon="5.63233">
        <ele>398.3</ele>
        <time>2019-09-03T09:14:39Z</time>
      </trkpt>
      <trkpt lat="46.50516" lon="5.63241">
        <ele>398.7</ele>
        <time>2019-09-03T09:14:45Z</time>
      </trkpt>
      <trkpt lat="46.50509" lon="5.63257">
        <ele>402</ele>
        <time>2019-09-03T09:15:04Z</time>
      </trkpt>
      <trkpt lat="46.50509" lon="5.63265">
        <ele>402.9</ele>
        <time>2019-09-03T09:15:09Z</time>
      </trkpt>
      <trkpt lat="46.5051" lon="5.63272">
        <ele>403.6</ele>
        <time>2019-09-03T09:15:14Z</time>
      </trkpt>
      <trkpt lat="46.50511" lon="5.63278">
        <ele>404.1</ele>
        <time>2019-09-03T09:15:20Z</time>
      </trkpt>
      <trkpt lat="46.50513" lon="5.63285">
        <ele>404.5</ele>
        <time>2019-09-03T09:15:26Z</time>
      </trkpt>
      <trkpt lat="46.50514" lon="5.63293">
        <ele>405.1</ele>
        <time>2019-09-03T09:15:32Z</time>
      </trkpt>
      <trkpt lat="46.50513" lon="5.63307">
        <ele>406.4</ele>
        <time>2019-09-03T09:15:43Z</time>
      </trkpt>
      <trkpt lat="46.50514" lon="5.63314">
        <ele>407.2</ele>
        <time>2019-09-03T09:15:49Z</time>
      </trkpt>
      <trkpt lat="46.50514" lon="5.63322">
        <ele>407.7</ele>
        <time>2019-09-03T09:15:53Z</time>
      </trkpt>
      <trkpt lat="46.50514" lon="5.6333">
        <ele>408.3</ele>
        <time>2019-09-03T09:15:58Z</time>
      </trkpt>
      <trkpt lat="46.50514" lon="5.63338">
        <ele>408.9</ele>
        <time>2019-09-03T09:16:03Z</time>
      </trkpt>
      <trkpt lat="46.50515" lon="5.63345">
        <ele>409.4</ele>
        <time>2019-09-03T09:16:08Z</time>
      </trkpt>
      <trkpt lat="46.50515" lon="5.63351">
        <ele>409.7</ele>
        <time>2019-09-03T09:16:13Z</time>
      </trkpt>
      <trkpt lat="46.50514" lon="5.63359">
        <ele>409.7</ele>
        <time>2019-09-03T09:16:19Z</time>
      </trkpt>
      <trkpt lat="46.50513" lon="5.63365">
        <ele>409.6</ele>
        <time>2019-09-03T09:16:24Z</time>
      </trkpt>
      <trkpt lat="46.50512" lon="5.63373">
        <ele>409.4</ele>
        <time>2019-09-03T09:16:33Z</time>
      </trkpt>
      <trkpt lat="46.50512" lon="5.63383">
        <ele>409.7</ele>
        <time>2019-09-03T09:16:37Z</time>
      </trkpt>
      <trkpt lat="46.50511" lon="5.63389">
        <ele>409.8</ele>
        <time>2019-09-03T09:16:40Z</time>
      </trkpt>
      <trkpt lat="46.50508" lon="5.63396">
        <ele>410.1</ele>
        <time>2019-09-03T09:16:45Z</time>
      </trkpt>
      <trkpt lat="46.50505" lon="5.63401">
        <ele>410.1</ele>
        <time>2019-09-03T09:16:50Z</time>
      </trkpt>
      <trkpt lat="46.505" lon="5.63403">
        <ele>409.8</ele>
        <time>2019-09-03T09:17:05Z</time>
      </trkpt>
      <trkpt lat="46.50496" lon="5.63405">
        <ele>409.5</ele>
        <time>2019-09-03T09:17:10Z</time>
      </trkpt>
      <trkpt lat="46.50488" lon="5.63404">
        <ele>409.1</ele>
        <time>2019-09-03T09:17:14Z</time>
      </trkpt>
      <trkpt lat="46.50482" lon="5.63405">
        <ele>408.6</ele>
        <time>2019-09-03T09:17:17Z</time>
      </trkpt>
      <trkpt lat="46.50477" lon="5.63405">
        <ele>408</ele>
        <time>2019-09-03T09:17:21Z</time>
      </trkpt>
      <trkpt lat="46.50473" lon="5.63403">
        <ele>405.3</ele>
        <time>2019-09-03T09:17:51Z</time>
      </trkpt>
      <trkpt lat="46.50468" lon="5.63404">
        <ele>405.1</ele>
        <time>2019-09-03T09:17:56Z</time>
      </trkpt>
      <trkpt lat="46.5045" lon="5.63402">
        <ele>404.3</ele>
        <time>2019-09-03T09:18:05Z</time>
      </trkpt>
      <trkpt lat="46.50445" lon="5.634">
        <ele>404</ele>
        <time>2019-09-03T09:18:09Z</time>
      </trkpt>
      <trkpt lat="46.50441" lon="5.63397">
        <ele>403.2</ele>
        <time>2019-09-03T09:18:14Z</time>
      </trkpt>
      <trkpt lat="46.50436" lon="5.63395">
        <ele>402.4</ele>
        <time>2019-09-03T09:18:18Z</time>
      </trkpt>
      <trkpt lat="46.5043" lon="5.63395">
        <ele>401.4</ele>
        <time>2019-09-03T09:18:23Z</time>
      </trkpt>
      <trkpt lat="46.50425" lon="5.63393">
        <ele>400.5</ele>
        <time>2019-09-03T09:18:28Z</time>
      </trkpt>
      <trkpt lat="46.50421" lon="5.6339">
        <ele>400</ele>
        <time>2019-09-03T09:18:32Z</time>
      </trkpt>
      <trkpt lat="46.50416" lon="5.63387">
        <ele>399.3</ele>
        <time>2019-09-03T09:18:36Z</time>
      </trkpt>
      <trkpt lat="46.50411" lon="5.63386">
        <ele>398.6</ele>
        <time>2019-09-03T09:18:40Z</time>
      </trkpt>
      <trkpt lat="46.50406" lon="5.63383">
        <ele>397.7</ele>
        <time>2019-09-03T09:18:45Z</time>
      </trkpt>
      <trkpt lat="46.50401" lon="5.63381">
        <ele>397</ele>
        <time>2019-09-03T09:18:49Z</time>
      </trkpt>
      <trkpt lat="46.50397" lon="5.63383">
        <ele>396.6</ele>
        <time>2019-09-03T09:18:52Z</time>
      </trkpt>
      <trkpt lat="46.50391" lon="5.63384">
        <ele>396.1</ele>
        <time>2019-09-03T09:18:56Z</time>
      </trkpt>
      <trkpt lat="46.50386" lon="5.63384">
        <ele>395.7</ele>
        <time>2019-09-03T09:19:00Z</time>
      </trkpt>
      <trkpt lat="46.5038" lon="5.63385">
        <ele>395.4</ele>
        <time>2019-09-03T09:19:04Z</time>
      </trkpt>
      <trkpt lat="46.50375" lon="5.63386">
        <ele>395.2</ele>
        <time>2019-09-03T09:19:07Z</time>
      </trkpt>
      <trkpt lat="46.5037" lon="5.63384">
        <ele>395</ele>
        <time>2019-09-03T09:19:12Z</time>
      </trkpt>
      <trkpt lat="46.50365" lon="5.63386">
        <ele>394.8</ele>
        <time>2019-09-03T09:19:16Z</time>
      </trkpt>
      <trkpt lat="46.5036" lon="5.63389">
        <ele>394.5</ele>
        <time>2019-09-03T09:19:20Z</time>
      </trkpt>
      <trkpt lat="46.50356" lon="5.63391">
        <ele>394.3</ele>
        <time>2019-09-03T09:19:24Z</time>
      </trkpt>
      <trkpt lat="46.5035" lon="5.63393">
        <ele>394.2</ele>
        <time>2019-09-03T09:19:29Z</time>
      </trkpt>
      <trkpt lat="46.50347" lon="5.63397">
        <ele>394.2</ele>
        <time>2019-09-03T09:19:33Z</time>
      </trkpt>
      <trkpt lat="46.50343" lon="5.63402">
        <ele>394.4</ele>
        <time>2019-09-03T09:19:42Z</time>
      </trkpt>
      <trkpt lat="46.50339" lon="5.63405">
        <ele>394.8</ele>
        <time>2019-09-03T09:19:55Z</time>
      </trkpt>
      <trkpt lat="46.50335" lon="5.63409">
        <ele>394.8</ele>
        <time>2019-09-03T09:19:59Z</time>
      </trkpt>
      <trkpt lat="46.5033" lon="5.63413">
        <ele>394.8</ele>
        <time>2019-09-03T09:20:03Z</time>
      </trkpt>
      <trkpt lat="46.50326" lon="5.63417">
        <ele>394.7</ele>
        <time>2019-09-03T09:20:08Z</time>
      </trkpt>
      <trkpt lat="46.50322" lon="5.63421">
        <ele>394.7</ele>
        <time>2019-09-03T09:20:12Z</time>
      </trkpt>
      <trkpt lat="46.50316" lon="5.63425">
        <ele>394.7</ele>
        <time>2019-09-03T09:20:17Z</time>
      </trkpt>
      <trkpt lat="46.50312" lon="5.63429">
        <ele>394.7</ele>
        <time>2019-09-03T09:20:21Z</time>
      </trkpt>
      <trkpt lat="46.50308" lon="5.63434">
        <ele>394.7</ele>
        <time>2019-09-03T09:20:26Z</time>
      </trkpt>
      <trkpt lat="46.50303" lon="5.63438">
        <ele>394.3</ele>
        <time>2019-09-03T09:20:33Z</time>
      </trkpt>
      <trkpt lat="46.50298" lon="5.63443">
        <ele>394.1</ele>
        <time>2019-09-03T09:20:36Z</time>
      </trkpt>
      <trkpt lat="46.50293" lon="5.63447">
        <ele>394</ele>
        <time>2019-09-03T09:20:39Z</time>
      </trkpt>
      <trkpt lat="46.5029" lon="5.63454">
        <ele>393.8</ele>
        <time>2019-09-03T09:20:44Z</time>
      </trkpt>
      <trkpt lat="46.50286" lon="5.6346">
        <ele>394</ele>
        <time>2019-09-03T09:20:48Z</time>
      </trkpt>
      <trkpt lat="46.50285" lon="5.63467">
        <ele>394.4</ele>
        <time>2019-09-03T09:20:54Z</time>
      </trkpt>
      <trkpt lat="46.50284" lon="5.63473">
        <ele>394.9</ele>
        <time>2019-09-03T09:20:58Z</time>
      </trkpt>
      <trkpt lat="46.50282" lon="5.6348">
        <ele>395.4</ele>
        <time>2019-09-03T09:21:02Z</time>
      </trkpt>
      <trkpt lat="46.50281" lon="5.63486">
        <ele>395.9</ele>
        <time>2019-09-03T09:21:06Z</time>
      </trkpt>
      <trkpt lat="46.50279" lon="5.63493">
        <ele>396.5</ele>
        <time>2019-09-03T09:21:10Z</time>
      </trkpt>
      <trkpt lat="46.50277" lon="5.635">
        <ele>397.1</ele>
        <time>2019-09-03T09:21:14Z</time>
      </trkpt>
      <trkpt lat="46.50274" lon="5.63505">
        <ele>397.4</ele>
        <time>2019-09-03T09:21:19Z</time>
      </trkpt>
      <trkpt lat="46.5027" lon="5.63511">
        <ele>398</ele>
        <time>2019-09-03T09:21:26Z</time>
      </trkpt>
      <trkpt lat="46.50268" lon="5.63519">
        <ele>398.8</ele>
        <time>2019-09-03T09:21:35Z</time>
      </trkpt>
      <trkpt lat="46.50265" lon="5.63526">
        <ele>399.2</ele>
        <time>2019-09-03T09:21:39Z</time>
      </trkpt>
      <trkpt lat="46.50262" lon="5.63532">
        <ele>399.7</ele>
        <time>2019-09-03T09:21:43Z</time>
      </trkpt>
      <trkpt lat="46.50259" lon="5.63539">
        <ele>400</ele>
        <time>2019-09-03T09:21:47Z</time>
      </trkpt>
      <trkpt lat="46.50257" lon="5.63547">
        <ele>400.2</ele>
        <time>2019-09-03T09:21:51Z</time>
      </trkpt>
      <trkpt lat="46.50254" lon="5.63553">
        <ele>400.3</ele>
        <time>2019-09-03T09:21:55Z</time>
      </trkpt>
      <trkpt lat="46.50252" lon="5.63559">
        <ele>400.3</ele>
        <time>2019-09-03T09:22:00Z</time>
      </trkpt>
      <trkpt lat="46.5025" lon="5.63566">
        <ele>400.4</ele>
        <time>2019-09-03T09:22:05Z</time>
      </trkpt>
      <trkpt lat="46.50248" lon="5.63572">
        <ele>400.5</ele>
        <time>2019-09-03T09:22:09Z</time>
      </trkpt>
      <trkpt lat="46.50246" lon="5.63579">
        <ele>400.6</ele>
        <time>2019-09-03T09:22:13Z</time>
      </trkpt>
      <trkpt lat="46.50246" lon="5.63585">
        <ele>400.7</ele>
        <time>2019-09-03T09:22:18Z</time>
      </trkpt>
      <trkpt lat="46.50245" lon="5.63592">
        <ele>400.8</ele>
        <time>2019-09-03T09:22:23Z</time>
      </trkpt>
      <trkpt lat="46.50241" lon="5.63597">
        <ele>400.7</ele>
        <time>2019-09-03T09:22:33Z</time>
      </trkpt>
      <trkpt lat="46.50238" lon="5.63603">
        <ele>399.9</ele>
        <time>2019-09-03T09:22:48Z</time>
      </trkpt>
      <trkpt lat="46.50236" lon="5.63609">
        <ele>400</ele>
        <time>2019-09-03T09:22:55Z</time>
      </trkpt>
      <trkpt lat="46.50232" lon="5.63606">
        <ele>401.1</ele>
        <time>2019-09-03T09:23:23Z</time>
      </trkpt>
      <trkpt lat="46.50227" lon="5.63605">
        <ele>401.2</ele>
        <time>2019-09-03T09:23:26Z</time>
      </trkpt>
      <trkpt lat="46.50222" lon="5.63601">
        <ele>401</ele>
        <time>2019-09-03T09:23:31Z</time>
      </trkpt>
      <trkpt lat="46.50217" lon="5.636">
        <ele>400.3</ele>
        <time>2019-09-03T09:23:41Z</time>
      </trkpt>
      <trkpt lat="46.50212" lon="5.63601">
        <ele>400.2</ele>
        <time>2019-09-03T09:23:48Z</time>
      </trkpt>
      <trkpt lat="46.50208" lon="5.63603">
        <ele>400.4</ele>
        <time>2019-09-03T09:23:53Z</time>
      </trkpt>
      <trkpt lat="46.50202" lon="5.63606">
        <ele>400.5</ele>
        <time>2019-09-03T09:23:57Z</time>
      </trkpt>
      <trkpt lat="46.50198" lon="5.63608">
        <ele>400.5</ele>
        <time>2019-09-03T09:24:01Z</time>
      </trkpt>
      <trkpt lat="46.50193" lon="5.6361">
        <ele>400.5</ele>
        <time>2019-09-03T09:24:05Z</time>
      </trkpt>
      <trkpt lat="46.50188" lon="5.63609">
        <ele>400.7</ele>
        <time>2019-09-03T09:24:10Z</time>
      </trkpt>
      <trkpt lat="46.50183" lon="5.6361">
        <ele>400.9</ele>
        <time>2019-09-03T09:24:16Z</time>
      </trkpt>
      <trkpt lat="46.50177" lon="5.63608">
        <ele>401.1</ele>
        <time>2019-09-03T09:24:23Z</time>
      </trkpt>
      <trkpt lat="46.50172" lon="5.63608">
        <ele>401.3</ele>
        <time>2019-09-03T09:24:29Z</time>
      </trkpt>
      <trkpt lat="46.50167" lon="5.63608">
        <ele>401.6</ele>
        <time>2019-09-03T09:24:34Z</time>
      </trkpt>
      <trkpt lat="46.50162" lon="5.63607">
        <ele>402</ele>
        <time>2019-09-03T09:24:39Z</time>
      </trkpt>
      <trkpt lat="46.50158" lon="5.63607">
        <ele>402.5</ele>
        <time>2019-09-03T09:24:47Z</time>
      </trkpt>
      <trkpt lat="46.50152" lon="5.63607">
        <ele>402.8</ele>
        <time>2019-09-03T09:24:54Z</time>
      </trkpt>
      <trkpt lat="46.50147" lon="5.63607">
        <ele>403.2</ele>
        <time>2019-09-03T09:24:59Z</time>
      </trkpt>
      <trkpt lat="46.50142" lon="5.63607">
        <ele>403.5</ele>
        <time>2019-09-03T09:25:04Z</time>
      </trkpt>
      <trkpt lat="46.50137" lon="5.63607">
        <ele>403.7</ele>
        <time>2019-09-03T09:25:11Z</time>
      </trkpt>
      <trkpt lat="46.50132" lon="5.63606">
        <ele>403.9</ele>
        <time>2019-09-03T09:25:16Z</time>
      </trkpt>
      <trkpt lat="46.50128" lon="5.63604">
        <ele>404.2</ele>
        <time>2019-09-03T09:25:22Z</time>
      </trkpt>
      <trkpt lat="46.50123" lon="5.63601">
        <ele>404.3</ele>
        <time>2019-09-03T09:25:28Z</time>
      </trkpt>
      <trkpt lat="46.50119" lon="5.63599">
        <ele>404.4</ele>
        <time>2019-09-03T09:25:35Z</time>
      </trkpt>
      <trkpt lat="46.50114" lon="5.63598">
        <ele>404.7</ele>
        <time>2019-09-03T09:25:42Z</time>
      </trkpt>
      <trkpt lat="46.50109" lon="5.63597">
        <ele>405.1</ele>
        <time>2019-09-03T09:25:48Z</time>
      </trkpt>
      <trkpt lat="46.50104" lon="5.63598">
        <ele>405.4</ele>
        <time>2019-09-03T09:25:52Z</time>
      </trkpt>
      <trkpt lat="46.50099" lon="5.63597">
        <ele>405.7</ele>
        <time>2019-09-03T09:25:57Z</time>
      </trkpt>
      <trkpt lat="46.50095" lon="5.63595">
        <ele>406.1</ele>
        <time>2019-09-03T09:26:03Z</time>
      </trkpt>
      <trkpt lat="46.5009" lon="5.63593">
        <ele>406.7</ele>
        <time>2019-09-03T09:26:09Z</time>
      </trkpt>
      <trkpt lat="46.50085" lon="5.63593">
        <ele>407.8</ele>
        <time>2019-09-03T09:26:16Z</time>
      </trkpt>
      <trkpt lat="46.50081" lon="5.63591">
        <ele>408.8</ele>
        <time>2019-09-03T09:26:22Z</time>
      </trkpt>
      <trkpt lat="46.50076" lon="5.63589">
        <ele>409.5</ele>
        <time>2019-09-03T09:26:27Z</time>
      </trkpt>
      <trkpt lat="46.50072" lon="5.63588">
        <ele>410.2</ele>
        <time>2019-09-03T09:26:34Z</time>
      </trkpt>
      <trkpt lat="46.50067" lon="5.63588">
        <ele>410.7</ele>
        <time>2019-09-03T09:26:40Z</time>
      </trkpt>
      <trkpt lat="46.50062" lon="5.63587">
        <ele>411.6</ele>
        <time>2019-09-03T09:26:46Z</time>
      </trkpt>
      <trkpt lat="46.50057" lon="5.63585">
        <ele>412.4</ele>
        <time>2019-09-03T09:26:52Z</time>
      </trkpt>
      <trkpt lat="46.50052" lon="5.63583">
        <ele>413.3</ele>
        <time>2019-09-03T09:26:59Z</time>
      </trkpt>
      <trkpt lat="46.50048" lon="5.6358">
        <ele>413.8</ele>
        <time>2019-09-03T09:27:06Z</time>
      </trkpt>
      <trkpt lat="46.50044" lon="5.63579">
        <ele>414.4</ele>
        <time>2019-09-03T09:27:13Z</time>
      </trkpt>
      <trkpt lat="46.50039" lon="5.63577">
        <ele>415.1</ele>
        <time>2019-09-03T09:27:18Z</time>
      </trkpt>
      <trkpt lat="46.50034" lon="5.63576">
        <ele>415.8</ele>
        <time>2019-09-03T09:27:23Z</time>
      </trkpt>
      <trkpt lat="46.5003" lon="5.63575">
        <ele>416.2</ele>
        <time>2019-09-03T09:27:27Z</time>
      </trkpt>
      <trkpt lat="46.50025" lon="5.63575">
        <ele>416.7</ele>
        <time>2019-09-03T09:27:32Z</time>
      </trkpt>
      <trkpt lat="46.5002" lon="5.63575">
        <ele>417.3</ele>
        <time>2019-09-03T09:27:38Z</time>
      </trkpt>
      <trkpt lat="46.50015" lon="5.63573">
        <ele>417.9</ele>
        <time>2019-09-03T09:27:44Z</time>
      </trkpt>
      <trkpt lat="46.5001" lon="5.63572">
        <ele>418.8</ele>
        <time>2019-09-03T09:27:50Z</time>
      </trkpt>
      <trkpt lat="46.50005" lon="5.63572">
        <ele>419.3</ele>
        <time>2019-09-03T09:27:56Z</time>
      </trkpt>
      <trkpt lat="46.5" lon="5.63571">
        <ele>419.9</ele>
        <time>2019-09-03T09:28:01Z</time>
      </trkpt>
      <trkpt lat="46.49995" lon="5.63571">
        <ele>420.5</ele>
        <time>2019-09-03T09:28:06Z</time>
      </trkpt>
      <trkpt lat="46.49991" lon="5.63572">
        <ele>421.3</ele>
        <time>2019-09-03T09:28:11Z</time>
      </trkpt>
      <trkpt lat="46.49986" lon="5.63572">
        <ele>422</ele>
        <time>2019-09-03T09:28:16Z</time>
      </trkpt>
      <trkpt lat="46.49982" lon="5.63573">
        <ele>423.6</ele>
        <time>2019-09-03T09:28:27Z</time>
      </trkpt>
      <trkpt lat="46.49977" lon="5.63576">
        <ele>424.9</ele>
        <time>2019-09-03T09:28:35Z</time>
      </trkpt>
      <trkpt lat="46.49973" lon="5.63579">
        <ele>425.7</ele>
        <time>2019-09-03T09:28:40Z</time>
      </trkpt>
      <trkpt lat="46.49969" lon="5.63583">
        <ele>426.3</ele>
        <time>2019-09-03T09:28:45Z</time>
      </trkpt>
      <trkpt lat="46.49965" lon="5.63586">
        <ele>426.6</ele>
        <time>2019-09-03T09:28:49Z</time>
      </trkpt>
      <trkpt lat="46.4996" lon="5.63588">
        <ele>427.3</ele>
        <time>2019-09-03T09:28:56Z</time>
      </trkpt>
      <trkpt lat="46.49955" lon="5.63588">
        <ele>429.7</ele>
        <time>2019-09-03T09:29:30Z</time>
      </trkpt>
      <trkpt lat="46.49945" lon="5.63592">
        <ele>429.8</ele>
        <time>2019-09-03T09:29:45Z</time>
      </trkpt>
      <trkpt lat="46.4994" lon="5.63594">
        <ele>429.2</ele>
        <time>2019-09-03T09:29:53Z</time>
      </trkpt>
      <trkpt lat="46.49936" lon="5.63596">
        <ele>428.6</ele>
        <time>2019-09-03T09:30:01Z</time>
      </trkpt>
      <trkpt lat="46.49931" lon="5.63597">
        <ele>428.2</ele>
        <time>2019-09-03T09:30:08Z</time>
      </trkpt>
      <trkpt lat="46.49925" lon="5.63597">
        <ele>428.7</ele>
        <time>2019-09-03T09:30:17Z</time>
      </trkpt>
      <trkpt lat="46.4992" lon="5.63599">
        <ele>429</ele>
        <time>2019-09-03T09:30:19Z</time>
      </trkpt>
      <trkpt lat="46.49911" lon="5.63608">
        <ele>431.6</ele>
        <time>2019-09-03T09:30:33Z</time>
      </trkpt>
      <trkpt lat="46.49907" lon="5.63609">
        <ele>432.9</ele>
        <time>2019-09-03T09:30:43Z</time>
      </trkpt>
      <trkpt lat="46.49902" lon="5.63611">
        <ele>433.5</ele>
        <time>2019-09-03T09:30:49Z</time>
      </trkpt>
      <trkpt lat="46.49897" lon="5.63613">
        <ele>433.9</ele>
        <time>2019-09-03T09:30:55Z</time>
      </trkpt>
      <trkpt lat="46.49893" lon="5.63615">
        <ele>434.1</ele>
        <time>2019-09-03T09:31:01Z</time>
      </trkpt>
      <trkpt lat="46.49888" lon="5.63616">
        <ele>434.1</ele>
        <time>2019-09-03T09:31:08Z</time>
      </trkpt>
      <trkpt lat="46.49883" lon="5.63614">
        <ele>433.9</ele>
        <time>2019-09-03T09:31:12Z</time>
      </trkpt>
      <trkpt lat="46.49877" lon="5.63617">
        <ele>434.4</ele>
        <time>2019-09-03T09:31:22Z</time>
      </trkpt>
      <trkpt lat="46.49873" lon="5.6362">
        <ele>435.4</ele>
        <time>2019-09-03T09:31:28Z</time>
      </trkpt>
      <trkpt lat="46.49866" lon="5.63623">
        <ele>438.2</ele>
        <time>2019-09-03T09:31:40Z</time>
      </trkpt>
      <trkpt lat="46.49861" lon="5.63623">
        <ele>439.1</ele>
        <time>2019-09-03T09:31:45Z</time>
      </trkpt>
      <trkpt lat="46.49849" lon="5.63628">
        <ele>444.1</ele>
        <time>2019-09-03T09:32:06Z</time>
      </trkpt>
      <trkpt lat="46.49832" lon="5.63638">
        <ele>446.2</ele>
        <time>2019-09-03T09:32:21Z</time>
      </trkpt>
      <trkpt lat="46.49827" lon="5.6364">
        <ele>446.1</ele>
        <time>2019-09-03T09:32:27Z</time>
      </trkpt>
      <trkpt lat="46.49822" lon="5.63639">
        <ele>445.6</ele>
        <time>2019-09-03T09:32:36Z</time>
      </trkpt>
      <trkpt lat="46.49817" lon="5.63639">
        <ele>445.6</ele>
        <time>2019-09-03T09:32:42Z</time>
      </trkpt>
      <trkpt lat="46.49812" lon="5.6364">
        <ele>445.7</ele>
        <time>2019-09-03T09:32:47Z</time>
      </trkpt>
      <trkpt lat="46.49807" lon="5.63641">
        <ele>445.8</ele>
        <time>2019-09-03T09:32:51Z</time>
      </trkpt>
      <trkpt lat="46.49802" lon="5.63642">
        <ele>446</ele>
        <time>2019-09-03T09:32:55Z</time>
      </trkpt>
      <trkpt lat="46.49798" lon="5.63642">
        <ele>446.2</ele>
        <time>2019-09-03T09:33:00Z</time>
      </trkpt>
      <trkpt lat="46.49793" lon="5.6364">
        <ele>446.3</ele>
        <time>2019-09-03T09:33:05Z</time>
      </trkpt>
      <trkpt lat="46.49787" lon="5.63641">
        <ele>446</ele>
        <time>2019-09-03T09:33:12Z</time>
      </trkpt>
      <trkpt lat="46.49783" lon="5.63643">
        <ele>446</ele>
        <time>2019-09-03T09:33:16Z</time>
      </trkpt>
      <trkpt lat="46.49778" lon="5.63644">
        <ele>445.9</ele>
        <time>2019-09-03T09:33:21Z</time>
      </trkpt>
      <trkpt lat="46.49772" lon="5.63643">
        <ele>445.9</ele>
        <time>2019-09-03T09:33:25Z</time>
      </trkpt>
      <trkpt lat="46.49767" lon="5.63643">
        <ele>446.2</ele>
        <time>2019-09-03T09:33:31Z</time>
      </trkpt>
      <trkpt lat="46.49763" lon="5.63646">
        <ele>446.5</ele>
        <time>2019-09-03T09:33:39Z</time>
      </trkpt>
      <trkpt lat="46.4975" lon="5.63648">
        <ele>447.7</ele>
        <time>2019-09-03T09:33:57Z</time>
      </trkpt>
      <trkpt lat="46.49724" lon="5.63661">
        <ele>454.9</ele>
        <time>2019-09-03T09:34:35Z</time>
      </trkpt>
      <trkpt lat="46.49719" lon="5.63661">
        <ele>457.7</ele>
        <time>2019-09-03T09:34:52Z</time>
      </trkpt>
      <trkpt lat="46.49714" lon="5.63664">
        <ele>460.6</ele>
        <time>2019-09-03T09:35:08Z</time>
      </trkpt>
      <trkpt lat="46.49706" lon="5.63671">
        <ele>463.7</ele>
        <time>2019-09-03T09:35:28Z</time>
      </trkpt>
      <trkpt lat="46.49703" lon="5.63675">
        <ele>464</ele>
        <time>2019-09-03T09:35:30Z</time>
      </trkpt>
      <trkpt lat="46.49682" lon="5.63685">
        <ele>466.7</ele>
        <time>2019-09-03T09:35:53Z</time>
      </trkpt>
      <trkpt lat="46.49663" lon="5.63688">
        <ele>467.1</ele>
        <time>2019-09-03T09:36:08Z</time>
      </trkpt>
      <trkpt lat="46.49658" lon="5.63688">
        <ele>466.5</ele>
        <time>2019-09-03T09:36:14Z</time>
      </trkpt>
      <trkpt lat="46.49653" lon="5.63687">
        <ele>466.2</ele>
        <time>2019-09-03T09:36:18Z</time>
      </trkpt>
      <trkpt lat="46.49632" lon="5.63694">
        <ele>469.1</ele>
        <time>2019-09-03T09:37:01Z</time>
      </trkpt>
      <trkpt lat="46.49626" lon="5.63695">
        <ele>469.2</ele>
        <time>2019-09-03T09:37:04Z</time>
      </trkpt>
      <trkpt lat="46.49621" lon="5.63696">
        <ele>469.5</ele>
        <time>2019-09-03T09:37:09Z</time>
      </trkpt>
      <trkpt lat="46.49616" lon="5.63696">
        <ele>469.8</ele>
        <time>2019-09-03T09:37:12Z</time>
      </trkpt>
      <trkpt lat="46.4961" lon="5.63696">
        <ele>470.5</ele>
        <time>2019-09-03T09:37:17Z</time>
      </trkpt>
      <trkpt lat="46.49606" lon="5.63697">
        <ele>471.6</ele>
        <time>2019-09-03T09:37:26Z</time>
      </trkpt>
      <trkpt lat="46.49601" lon="5.63699">
        <ele>471.8</ele>
        <time>2019-09-03T09:37:28Z</time>
      </trkpt>
      <trkpt lat="46.49597" lon="5.63702">
        <ele>472.4</ele>
        <time>2019-09-03T09:37:32Z</time>
      </trkpt>
      <trkpt lat="46.49593" lon="5.63706">
        <ele>472.5</ele>
        <time>2019-09-03T09:37:34Z</time>
      </trkpt>
      <trkpt lat="46.49589" lon="5.6371">
        <ele>472.6</ele>
        <time>2019-09-03T09:37:40Z</time>
      </trkpt>
      <trkpt lat="46.49585" lon="5.63712">
        <ele>471.9</ele>
        <time>2019-09-03T09:37:51Z</time>
      </trkpt>
      <trkpt lat="46.49579" lon="5.63714">
        <ele>471.2</ele>
        <time>2019-09-03T09:38:02Z</time>
      </trkpt>
      <trkpt lat="46.49575" lon="5.63719">
        <ele>471.2</ele>
        <time>2019-09-03T09:38:05Z</time>
      </trkpt>
      <trkpt lat="46.4957" lon="5.63721">
        <ele>471.5</ele>
        <time>2019-09-03T09:38:15Z</time>
      </trkpt>
      <trkpt lat="46.49532" lon="5.63731">
        <ele>474.1</ele>
        <time>2019-09-03T09:39:07Z</time>
      </trkpt>
      <trkpt lat="46.49525" lon="5.63739">
        <ele>474.2</ele>
        <time>2019-09-03T09:39:17Z</time>
      </trkpt>
      <trkpt lat="46.49523" lon="5.63745">
        <ele>475.1</ele>
        <time>2019-09-03T09:39:26Z</time>
      </trkpt>
      <trkpt lat="46.49519" lon="5.6375">
        <ele>476</ele>
        <time>2019-09-03T09:39:32Z</time>
      </trkpt>
      <trkpt lat="46.49512" lon="5.63754">
        <ele>476.7</ele>
        <time>2019-09-03T09:39:45Z</time>
      </trkpt>
      <trkpt lat="46.49501" lon="5.63762">
        <ele>476.1</ele>
        <time>2019-09-03T09:39:54Z</time>
      </trkpt>
      <trkpt lat="46.49483" lon="5.63745">
        <ele>482</ele>
        <time>2019-09-03T09:40:35Z</time>
      </trkpt>
      <trkpt lat="46.49458" lon="5.63721">
        <ele>492.5</ele>
        <time>2019-09-03T09:42:12Z</time>
      </trkpt>
      <trkpt lat="46.49426" lon="5.6372">
        <ele>493.2</ele>
        <time>2019-09-03T09:43:24Z</time>
      </trkpt>
      <trkpt lat="46.49423" lon="5.63725">
        <ele>493.7</ele>
        <time>2019-09-03T09:43:33Z</time>
      </trkpt>
      <trkpt lat="46.49409" lon="5.63721">
        <ele>497.2</ele>
        <time>2019-09-03T09:44:09Z</time>
      </trkpt>
      <trkpt lat="46.49403" lon="5.63721">
        <ele>497.3</ele>
        <time>2019-09-03T09:44:14Z</time>
      </trkpt>
      <trkpt lat="46.49399" lon="5.63719">
        <ele>497.4</ele>
        <time>2019-09-03T09:44:19Z</time>
      </trkpt>
      <trkpt lat="46.49393" lon="5.63718">
        <ele>497.3</ele>
        <time>2019-09-03T09:44:23Z</time>
      </trkpt>
      <trkpt lat="46.49388" lon="5.63717">
        <ele>497.2</ele>
        <time>2019-09-03T09:44:26Z</time>
      </trkpt>
      <trkpt lat="46.49381" lon="5.63716">
        <ele>497.2</ele>
        <time>2019-09-03T09:44:48Z</time>
      </trkpt>
      <trkpt lat="46.49376" lon="5.63715">
        <ele>497.7</ele>
        <time>2019-09-03T09:44:53Z</time>
      </trkpt>
      <trkpt lat="46.49372" lon="5.63719">
        <ele>498.9</ele>
        <time>2019-09-03T09:45:01Z</time>
      </trkpt>
      <trkpt lat="46.49367" lon="5.63718">
        <ele>502.6</ele>
        <time>2019-09-03T09:45:50Z</time>
      </trkpt>
      <trkpt lat="46.49364" lon="5.63712">
        <ele>503.4</ele>
        <time>2019-09-03T09:45:59Z</time>
      </trkpt>
      <trkpt lat="46.49351" lon="5.63701">
        <ele>503.9</ele>
        <time>2019-09-03T09:46:10Z</time>
      </trkpt>
      <trkpt lat="46.49349" lon="5.63695">
        <ele>503.8</ele>
        <time>2019-09-03T09:46:17Z</time>
      </trkpt>
      <trkpt lat="46.49344" lon="5.63692">
        <ele>503.8</ele>
        <time>2019-09-03T09:46:23Z</time>
      </trkpt>
      <trkpt lat="46.4934" lon="5.63689">
        <ele>504.2</ele>
        <time>2019-09-03T09:46:34Z</time>
      </trkpt>
      <trkpt lat="46.49336" lon="5.63685">
        <ele>504.2</ele>
        <time>2019-09-03T09:46:41Z</time>
      </trkpt>
      <trkpt lat="46.49331" lon="5.63685">
        <ele>503.6</ele>
        <time>2019-09-03T09:46:48Z</time>
      </trkpt>
      <trkpt lat="46.49327" lon="5.63682">
        <ele>503.1</ele>
        <time>2019-09-03T09:46:58Z</time>
      </trkpt>
      <trkpt lat="46.49323" lon="5.63678">
        <ele>503.1</ele>
        <time>2019-09-03T09:47:01Z</time>
      </trkpt>
      <trkpt lat="46.49318" lon="5.63675">
        <ele>502.9</ele>
        <time>2019-09-03T09:47:07Z</time>
      </trkpt>
      <trkpt lat="46.49313" lon="5.63675">
        <ele>502.9</ele>
        <time>2019-09-03T09:47:13Z</time>
      </trkpt>
      <trkpt lat="46.49308" lon="5.63674">
        <ele>502.8</ele>
        <time>2019-09-03T09:47:17Z</time>
      </trkpt>
      <trkpt lat="46.49303" lon="5.63675">
        <ele>502.5</ele>
        <time>2019-09-03T09:47:23Z</time>
      </trkpt>
      <trkpt lat="46.49298" lon="5.63674">
        <ele>502.5</ele>
        <time>2019-09-03T09:47:32Z</time>
      </trkpt>
      <trkpt lat="46.49281" lon="5.63674">
        <ele>503</ele>
        <time>2019-09-03T09:47:47Z</time>
      </trkpt>
      <trkpt lat="46.49276" lon="5.63672">
        <ele>503.1</ele>
        <time>2019-09-03T09:47:49Z</time>
      </trkpt>
      <trkpt lat="46.49271" lon="5.63671">
        <ele>503.2</ele>
        <time>2019-09-03T09:47:53Z</time>
      </trkpt>
      <trkpt lat="46.49266" lon="5.6367">
        <ele>503.3</ele>
        <time>2019-09-03T09:47:57Z</time>
      </trkpt>
      <trkpt lat="46.49261" lon="5.63667">
        <ele>503.1</ele>
        <time>2019-09-03T09:48:02Z</time>
      </trkpt>
      <trkpt lat="46.49256" lon="5.63664">
        <ele>502.9</ele>
        <time>2019-09-03T09:48:07Z</time>
      </trkpt>
      <trkpt lat="46.49252" lon="5.6366">
        <ele>502.7</ele>
        <time>2019-09-03T09:48:12Z</time>
      </trkpt>
      <trkpt lat="46.49248" lon="5.63657">
        <ele>502.3</ele>
        <time>2019-09-03T09:48:17Z</time>
      </trkpt>
      <trkpt lat="46.49243" lon="5.63655">
        <ele>501.8</ele>
        <time>2019-09-03T09:48:22Z</time>
      </trkpt>
      <trkpt lat="46.49239" lon="5.63654">
        <ele>501.2</ele>
        <time>2019-09-03T09:48:28Z</time>
      </trkpt>
      <trkpt lat="46.49234" lon="5.63653">
        <ele>500.8</ele>
        <time>2019-09-03T09:48:32Z</time>
      </trkpt>
      <trkpt lat="46.49222" lon="5.63649">
        <ele>499.9</ele>
        <time>2019-09-03T09:48:42Z</time>
      </trkpt>
      <trkpt lat="46.49217" lon="5.63648">
        <ele>499.7</ele>
        <time>2019-09-03T09:48:46Z</time>
      </trkpt>
      <trkpt lat="46.49206" lon="5.63647">
        <ele>498.7</ele>
        <time>2019-09-03T09:49:05Z</time>
      </trkpt>
      <trkpt lat="46.49202" lon="5.63651">
        <ele>498.6</ele>
        <time>2019-09-03T09:49:07Z</time>
      </trkpt>
      <trkpt lat="46.49192" lon="5.63656">
        <ele>498.4</ele>
        <time>2019-09-03T09:49:21Z</time>
      </trkpt>
      <trkpt lat="46.49186" lon="5.63656">
        <ele>499.2</ele>
        <time>2019-09-03T09:49:36Z</time>
      </trkpt>
      <trkpt lat="46.4918" lon="5.63656">
        <ele>499.5</ele>
        <time>2019-09-03T09:49:40Z</time>
      </trkpt>
      <trkpt lat="46.49175" lon="5.63656">
        <ele>499.4</ele>
        <time>2019-09-03T09:49:45Z</time>
      </trkpt>
      <trkpt lat="46.49153" lon="5.6366">
        <ele>496.9</ele>
        <time>2019-09-03T09:50:22Z</time>
      </trkpt>
      <trkpt lat="46.49149" lon="5.63663">
        <ele>496.6</ele>
        <time>2019-09-03T09:50:28Z</time>
      </trkpt>
      <trkpt lat="46.49145" lon="5.63667">
        <ele>496.6</ele>
        <time>2019-09-03T09:50:34Z</time>
      </trkpt>
      <trkpt lat="46.49128" lon="5.6368">
        <ele>496.4</ele>
        <time>2019-09-03T09:50:54Z</time>
      </trkpt>
      <trkpt lat="46.49117" lon="5.63689">
        <ele>496.7</ele>
        <time>2019-09-03T09:51:14Z</time>
      </trkpt>
      <trkpt lat="46.49112" lon="5.63692">
        <ele>496.8</ele>
        <time>2019-09-03T09:51:18Z</time>
      </trkpt>
      <trkpt lat="46.49108" lon="5.63694">
        <ele>496.8</ele>
        <time>2019-09-03T09:51:21Z</time>
      </trkpt>
      <trkpt lat="46.49103" lon="5.63696">
        <ele>496.9</ele>
        <time>2019-09-03T09:51:27Z</time>
      </trkpt>
      <trkpt lat="46.49098" lon="5.63696">
        <ele>496.9</ele>
        <time>2019-09-03T09:51:33Z</time>
      </trkpt>
      <trkpt lat="46.4909" lon="5.637">
        <ele>497.1</ele>
        <time>2019-09-03T09:51:47Z</time>
      </trkpt>
      <trkpt lat="46.49083" lon="5.63708">
        <ele>496.9</ele>
        <time>2019-09-03T09:51:58Z</time>
      </trkpt>
      <trkpt lat="46.49079" lon="5.63713">
        <ele>496.8</ele>
        <time>2019-09-03T09:52:03Z</time>
      </trkpt>
      <trkpt lat="46.49073" lon="5.63714">
        <ele>496.6</ele>
        <time>2019-09-03T09:52:08Z</time>
      </trkpt>
      <trkpt lat="46.49051" lon="5.6372">
        <ele>501.5</ele>
        <time>2019-09-03T09:53:00Z</time>
      </trkpt>
      <trkpt lat="46.49046" lon="5.63722">
        <ele>501.9</ele>
        <time>2019-09-03T09:53:05Z</time>
      </trkpt>
      <trkpt lat="46.49042" lon="5.63723">
        <ele>502.3</ele>
        <time>2019-09-03T09:53:13Z</time>
      </trkpt>
      <trkpt lat="46.49039" lon="5.63729">
        <ele>503.1</ele>
        <time>2019-09-03T09:53:23Z</time>
      </trkpt>
      <trkpt lat="46.49034" lon="5.63734">
        <ele>503.3</ele>
        <time>2019-09-03T09:53:29Z</time>
      </trkpt>
      <trkpt lat="46.4903" lon="5.63738">
        <ele>503.4</ele>
        <time>2019-09-03T09:53:34Z</time>
      </trkpt>
      <trkpt lat="46.49025" lon="5.63737">
        <ele>506.4</ele>
        <time>2019-09-03T09:54:19Z</time>
      </trkpt>
      <trkpt lat="46.49021" lon="5.63737">
        <ele>506.2</ele>
        <time>2019-09-03T09:54:28Z</time>
      </trkpt>
      <trkpt lat="46.49011" lon="5.63742">
        <ele>507.5</ele>
        <time>2019-09-03T09:54:54Z</time>
      </trkpt>
      <trkpt lat="46.49006" lon="5.63741">
        <ele>508.3</ele>
        <time>2019-09-03T09:54:58Z</time>
      </trkpt>
      <trkpt lat="46.48992" lon="5.63745">
        <ele>514.2</ele>
        <time>2019-09-03T09:55:36Z</time>
      </trkpt>
      <trkpt lat="46.48988" lon="5.63748">
        <ele>515.3</ele>
        <time>2019-09-03T09:55:45Z</time>
      </trkpt>
      <trkpt lat="46.48984" lon="5.63751">
        <ele>515.7</ele>
        <time>2019-09-03T09:55:50Z</time>
      </trkpt>
      <trkpt lat="46.48976" lon="5.63759">
        <ele>519.2</ele>
        <time>2019-09-03T09:56:40Z</time>
      </trkpt>
      <trkpt lat="46.48971" lon="5.63764">
        <ele>520</ele>
        <time>2019-09-03T09:56:44Z</time>
      </trkpt>
      <trkpt lat="46.48966" lon="5.63769">
        <ele>520.7</ele>
        <time>2019-09-03T09:56:47Z</time>
      </trkpt>
      <trkpt lat="46.4896" lon="5.63777">
        <ele>523.2</ele>
        <time>2019-09-03T09:56:56Z</time>
      </trkpt>
      <trkpt lat="46.48952" lon="5.63795">
        <ele>535.6</ele>
        <time>2019-09-03T09:57:38Z</time>
      </trkpt>
      <trkpt lat="46.48946" lon="5.63799">
        <ele>536</ele>
        <time>2019-09-03T09:57:41Z</time>
      </trkpt>
      <trkpt lat="46.48942" lon="5.63802">
        <ele>536.6</ele>
        <time>2019-09-03T09:57:45Z</time>
      </trkpt>
      <trkpt lat="46.48928" lon="5.6381">
        <ele>542.7</ele>
        <time>2019-09-03T09:58:55Z</time>
      </trkpt>
      <trkpt lat="46.48926" lon="5.63816">
        <ele>542.1</ele>
        <time>2019-09-03T09:59:41Z</time>
      </trkpt>
      <trkpt lat="46.48924" lon="5.63822">
        <ele>542.2</ele>
        <time>2019-09-03T09:59:54Z</time>
      </trkpt>
      <trkpt lat="46.48923" lon="5.63829">
        <ele>542.7</ele>
        <time>2019-09-03T10:00:02Z</time>
      </trkpt>
      <trkpt lat="46.48922" lon="5.63836">
        <ele>543.2</ele>
        <time>2019-09-03T10:00:08Z</time>
      </trkpt>
      <trkpt lat="46.48921" lon="5.63843">
        <ele>543.4</ele>
        <time>2019-09-03T10:00:16Z</time>
      </trkpt>
      <trkpt lat="46.48921" lon="5.6385">
        <ele>543.5</ele>
        <time>2019-09-03T10:00:21Z</time>
      </trkpt>
      <trkpt lat="46.48918" lon="5.63855">
        <ele>543.4</ele>
        <time>2019-09-03T10:00:28Z</time>
      </trkpt>
      <trkpt lat="46.48914" lon="5.63856">
        <ele>542.9</ele>
        <time>2019-09-03T10:00:37Z</time>
      </trkpt>
      <trkpt lat="46.4891" lon="5.63859">
        <ele>542.6</ele>
        <time>2019-09-03T10:00:47Z</time>
      </trkpt>
      <trkpt lat="46.4891" lon="5.6386">
        <ele>544.7</ele>
        <time>2019-09-03T10:03:04Z</time>
      </trkpt>
      <trkpt lat="46.48905" lon="5.63855">
        <ele>542.5</ele>
        <time>2019-09-03T10:04:29Z</time>
      </trkpt>
      <trkpt lat="46.48902" lon="5.6385">
        <ele>542.3</ele>
        <time>2019-09-03T10:04:33Z</time>
      </trkpt>
      <trkpt lat="46.48899" lon="5.63844">
        <ele>542.5</ele>
        <time>2019-09-03T10:04:40Z</time>
      </trkpt>
      <trkpt lat="46.48896" lon="5.63839">
        <ele>542.8</ele>
        <time>2019-09-03T10:04:49Z</time>
      </trkpt>
      <trkpt lat="46.48893" lon="5.63833">
        <ele>542.9</ele>
        <time>2019-09-03T10:04:52Z</time>
      </trkpt>
      <trkpt lat="46.48892" lon="5.63826">
        <ele>542.8</ele>
        <time>2019-09-03T10:04:57Z</time>
      </trkpt>
      <trkpt lat="46.48892" lon="5.63819">
        <ele>542.9</ele>
        <time>2019-09-03T10:05:01Z</time>
      </trkpt>
      <trkpt lat="46.48893" lon="5.63812">
        <ele>543.2</ele>
        <time>2019-09-03T10:05:06Z</time>
      </trkpt>
      <trkpt lat="46.48892" lon="5.63804">
        <ele>543.5</ele>
        <time>2019-09-03T10:05:10Z</time>
      </trkpt>
      <trkpt lat="46.4889" lon="5.63796">
        <ele>543.9</ele>
        <time>2019-09-03T10:05:16Z</time>
      </trkpt>
      <trkpt lat="46.48889" lon="5.63789">
        <ele>544.3</ele>
        <time>2019-09-03T10:05:20Z</time>
      </trkpt>
      <trkpt lat="46.48888" lon="5.63782">
        <ele>545.1</ele>
        <time>2019-09-03T10:05:27Z</time>
      </trkpt>
      <trkpt lat="46.48888" lon="5.63775">
        <ele>545.4</ele>
        <time>2019-09-03T10:05:32Z</time>
      </trkpt>
      <trkpt lat="46.48885" lon="5.63768">
        <ele>545.2</ele>
        <time>2019-09-03T10:05:37Z</time>
      </trkpt>
      <trkpt lat="46.48882" lon="5.63764">
        <ele>544.6</ele>
        <time>2019-09-03T10:05:44Z</time>
      </trkpt>
      <trkpt lat="46.48879" lon="5.63758">
        <ele>543.9</ele>
        <time>2019-09-03T10:05:49Z</time>
      </trkpt>
      <trkpt lat="46.48878" lon="5.63751">
        <ele>542.7</ele>
        <time>2019-09-03T10:05:56Z</time>
      </trkpt>
      <trkpt lat="46.48879" lon="5.63744">
        <ele>542</ele>
        <time>2019-09-03T10:06:02Z</time>
      </trkpt>
      <trkpt lat="46.48877" lon="5.63738">
        <ele>541.8</ele>
        <time>2019-09-03T10:06:07Z</time>
      </trkpt>
      <trkpt lat="46.48875" lon="5.63717">
        <ele>540.9</ele>
        <time>2019-09-03T10:06:21Z</time>
      </trkpt>
      <trkpt lat="46.48872" lon="5.63711">
        <ele>540.3</ele>
        <time>2019-09-03T10:06:25Z</time>
      </trkpt>
      <trkpt lat="46.48873" lon="5.63703">
        <ele>539.5</ele>
        <time>2019-09-03T10:06:30Z</time>
      </trkpt>
      <trkpt lat="46.48873" lon="5.63696">
        <ele>538.8</ele>
        <time>2019-09-03T10:06:34Z</time>
      </trkpt>
      <trkpt lat="46.48871" lon="5.63689">
        <ele>538.4</ele>
        <time>2019-09-03T10:06:38Z</time>
      </trkpt>
      <trkpt lat="46.48865" lon="5.63673">
        <ele>537</ele>
        <time>2019-09-03T10:06:50Z</time>
      </trkpt>
      <trkpt lat="46.48864" lon="5.63666">
        <ele>536.6</ele>
        <time>2019-09-03T10:06:55Z</time>
      </trkpt>
      <trkpt lat="46.48858" lon="5.63665">
        <ele>536.3</ele>
        <time>2019-09-03T10:06:57Z</time>
      </trkpt>
      <trkpt lat="46.48854" lon="5.63661">
        <ele>535.9</ele>
        <time>2019-09-03T10:07:00Z</time>
      </trkpt>
      <trkpt lat="46.48853" lon="5.63655">
        <ele>535.2</ele>
        <time>2019-09-03T10:07:05Z</time>
      </trkpt>
      <trkpt lat="46.48854" lon="5.63648">
        <ele>534.4</ele>
        <time>2019-09-03T10:07:10Z</time>
      </trkpt>
      <trkpt lat="46.48853" lon="5.63641">
        <ele>534.2</ele>
        <time>2019-09-03T10:07:14Z</time>
      </trkpt>
      <trkpt lat="46.48854" lon="5.63634">
        <ele>534.1</ele>
        <time>2019-09-03T10:07:19Z</time>
      </trkpt>
      <trkpt lat="46.48856" lon="5.63628">
        <ele>534.2</ele>
        <time>2019-09-03T10:07:24Z</time>
      </trkpt>
      <trkpt lat="46.48856" lon="5.63621">
        <ele>534.1</ele>
        <time>2019-09-03T10:07:29Z</time>
      </trkpt>
      <trkpt lat="46.48855" lon="5.63614">
        <ele>533.9</ele>
        <time>2019-09-03T10:07:33Z</time>
      </trkpt>
      <trkpt lat="46.48854" lon="5.63607">
        <ele>533.2</ele>
        <time>2019-09-03T10:07:38Z</time>
      </trkpt>
      <trkpt lat="46.4885" lon="5.63603">
        <ele>532.4</ele>
        <time>2019-09-03T10:07:42Z</time>
      </trkpt>
      <trkpt lat="46.48847" lon="5.63597">
        <ele>531.2</ele>
        <time>2019-09-03T10:07:48Z</time>
      </trkpt>
      <trkpt lat="46.48845" lon="5.63591">
        <ele>530.1</ele>
        <time>2019-09-03T10:07:53Z</time>
      </trkpt>
      <trkpt lat="46.48846" lon="5.63584">
        <ele>528.7</ele>
        <time>2019-09-03T10:07:59Z</time>
      </trkpt>
      <trkpt lat="46.48825" lon="5.6353">
        <ele>536.2</ele>
        <time>2019-09-03T10:11:20Z</time>
      </trkpt>
      <trkpt lat="46.48823" lon="5.63509">
        <ele>538.2</ele>
        <time>2019-09-03T10:11:44Z</time>
      </trkpt>
      <trkpt lat="46.48828" lon="5.63503">
        <ele>551</ele>
        <time>2019-09-03T10:17:26Z</time>
      </trkpt>
      <trkpt lat="46.48835" lon="5.63521">
        <ele>548.1</ele>
        <time>2019-09-03T10:17:49Z</time>
      </trkpt>
      <trkpt lat="46.48839" lon="5.63525">
        <ele>547.8</ele>
        <time>2019-09-03T10:17:51Z</time>
      </trkpt>
      <trkpt lat="46.48851" lon="5.63551">
        <ele>533</ele>
        <time>2019-09-03T10:19:56Z</time>
      </trkpt>
      <trkpt lat="46.48849" lon="5.63544">
        <ele>532.6</ele>
        <time>2019-09-03T10:20:01Z</time>
      </trkpt>
      <trkpt lat="46.48847" lon="5.63519">
        <ele>530.2</ele>
        <time>2019-09-03T10:20:16Z</time>
      </trkpt>
      <trkpt lat="46.48846" lon="5.63512">
        <ele>529.8</ele>
        <time>2019-09-03T10:20:20Z</time>
      </trkpt>
      <trkpt lat="46.48844" lon="5.63506">
        <ele>529.3</ele>
        <time>2019-09-03T10:20:24Z</time>
      </trkpt>
      <trkpt lat="46.48844" lon="5.63499">
        <ele>529</ele>
        <time>2019-09-03T10:20:30Z</time>
      </trkpt>
      <trkpt lat="46.48846" lon="5.63492">
        <ele>529</ele>
        <time>2019-09-03T10:20:33Z</time>
      </trkpt>
      <trkpt lat="46.48852" lon="5.6348">
        <ele>525.4</ele>
        <time>2019-09-03T10:21:18Z</time>
      </trkpt>
      <trkpt lat="46.48855" lon="5.63474">
        <ele>525.1</ele>
        <time>2019-09-03T10:21:23Z</time>
      </trkpt>
      <trkpt lat="46.48857" lon="5.63469">
        <ele>524.4</ele>
        <time>2019-09-03T10:21:29Z</time>
      </trkpt>
      <trkpt lat="46.48861" lon="5.63476">
        <ele>525.5</ele>
        <time>2019-09-03T10:23:45Z</time>
      </trkpt>
      <trkpt lat="46.48849" lon="5.63482">
        <ele>522.4</ele>
        <time>2019-09-03T10:24:28Z</time>
      </trkpt>
      <trkpt lat="46.48846" lon="5.63487">
        <ele>521.6</ele>
        <time>2019-09-03T10:24:38Z</time>
      </trkpt>
      <trkpt lat="46.48846" lon="5.63494">
        <ele>521.4</ele>
        <time>2019-09-03T10:24:43Z</time>
      </trkpt>
      <trkpt lat="46.48848" lon="5.63512">
        <ele>522.9</ele>
        <time>2019-09-03T10:25:16Z</time>
      </trkpt>
      <trkpt lat="46.48848" lon="5.63519">
        <ele>523</ele>
        <time>2019-09-03T10:25:21Z</time>
      </trkpt>
      <trkpt lat="46.48851" lon="5.63526">
        <ele>522.8</ele>
        <time>2019-09-03T10:25:27Z</time>
      </trkpt>
      <trkpt lat="46.48851" lon="5.63533">
        <ele>522.5</ele>
        <time>2019-09-03T10:25:30Z</time>
      </trkpt>
      <trkpt lat="46.4885" lon="5.6354">
        <ele>522.3</ele>
        <time>2019-09-03T10:25:34Z</time>
      </trkpt>
      <trkpt lat="46.4885" lon="5.63548">
        <ele>522</ele>
        <time>2019-09-03T10:25:39Z</time>
      </trkpt>
      <trkpt lat="46.48852" lon="5.63555">
        <ele>521.8</ele>
        <time>2019-09-03T10:25:46Z</time>
      </trkpt>
      <trkpt lat="46.48853" lon="5.63561">
        <ele>521.5</ele>
        <time>2019-09-03T10:25:57Z</time>
      </trkpt>
      <trkpt lat="46.48854" lon="5.63567">
        <ele>521.3</ele>
        <time>2019-09-03T10:26:02Z</time>
      </trkpt>
      <trkpt lat="46.48856" lon="5.63573">
        <ele>521.2</ele>
        <time>2019-09-03T10:26:08Z</time>
      </trkpt>
      <trkpt lat="46.48862" lon="5.63576">
        <ele>521.9</ele>
        <time>2019-09-03T10:26:33Z</time>
      </trkpt>
      <trkpt lat="46.48864" lon="5.63582">
        <ele>522.2</ele>
        <time>2019-09-03T10:26:37Z</time>
      </trkpt>
      <trkpt lat="46.48864" lon="5.6359">
        <ele>522.6</ele>
        <time>2019-09-03T10:26:41Z</time>
      </trkpt>
      <trkpt lat="46.48866" lon="5.63597">
        <ele>523</ele>
        <time>2019-09-03T10:26:45Z</time>
      </trkpt>
      <trkpt lat="46.48868" lon="5.63604">
        <ele>523.5</ele>
        <time>2019-09-03T10:26:50Z</time>
      </trkpt>
      <trkpt lat="46.48871" lon="5.6361">
        <ele>524</ele>
        <time>2019-09-03T10:26:54Z</time>
      </trkpt>
      <trkpt lat="46.48874" lon="5.63619">
        <ele>524.6</ele>
        <time>2019-09-03T10:26:59Z</time>
      </trkpt>
      <trkpt lat="46.48876" lon="5.63625">
        <ele>525.2</ele>
        <time>2019-09-03T10:27:03Z</time>
      </trkpt>
      <trkpt lat="46.48874" lon="5.63633">
        <ele>525.6</ele>
        <time>2019-09-03T10:27:07Z</time>
      </trkpt>
      <trkpt lat="46.48874" lon="5.63639">
        <ele>526.2</ele>
        <time>2019-09-03T10:27:15Z</time>
      </trkpt>
      <trkpt lat="46.48876" lon="5.63647">
        <ele>526.2</ele>
        <time>2019-09-03T10:27:20Z</time>
      </trkpt>
      <trkpt lat="46.48878" lon="5.63653">
        <ele>526.1</ele>
        <time>2019-09-03T10:27:27Z</time>
      </trkpt>
      <trkpt lat="46.4888" lon="5.6366">
        <ele>525.9</ele>
        <time>2019-09-03T10:27:33Z</time>
      </trkpt>
      <trkpt lat="46.48881" lon="5.63675">
        <ele>525.2</ele>
        <time>2019-09-03T10:27:45Z</time>
      </trkpt>
      <trkpt lat="46.4888" lon="5.63683">
        <ele>525.1</ele>
        <time>2019-09-03T10:27:48Z</time>
      </trkpt>
      <trkpt lat="46.4888" lon="5.6369">
        <ele>525.1</ele>
        <time>2019-09-03T10:27:52Z</time>
      </trkpt>
      <trkpt lat="46.4888" lon="5.63697">
        <ele>525.6</ele>
        <time>2019-09-03T10:27:58Z</time>
      </trkpt>
      <trkpt lat="46.48884" lon="5.6371">
        <ele>528.8</ele>
        <time>2019-09-03T10:28:15Z</time>
      </trkpt>
      <trkpt lat="46.48884" lon="5.6372">
        <ele>529.7</ele>
        <time>2019-09-03T10:28:19Z</time>
      </trkpt>
      <trkpt lat="46.48885" lon="5.63727">
        <ele>530.7</ele>
        <time>2019-09-03T10:28:23Z</time>
      </trkpt>
      <trkpt lat="46.48887" lon="5.63733">
        <ele>531.9</ele>
        <time>2019-09-03T10:28:28Z</time>
      </trkpt>
      <trkpt lat="46.48889" lon="5.6374">
        <ele>533.2</ele>
        <time>2019-09-03T10:28:34Z</time>
      </trkpt>
      <trkpt lat="46.48891" lon="5.63746">
        <ele>534.2</ele>
        <time>2019-09-03T10:28:40Z</time>
      </trkpt>
      <trkpt lat="46.48893" lon="5.63752">
        <ele>535.1</ele>
        <time>2019-09-03T10:28:45Z</time>
      </trkpt>
      <trkpt lat="46.48895" lon="5.63758">
        <ele>536.3</ele>
        <time>2019-09-03T10:28:51Z</time>
      </trkpt>
      <trkpt lat="46.48897" lon="5.63765">
        <ele>537.4</ele>
        <time>2019-09-03T10:28:56Z</time>
      </trkpt>
      <trkpt lat="46.48899" lon="5.63771">
        <ele>538.4</ele>
        <time>2019-09-03T10:29:01Z</time>
      </trkpt>
      <trkpt lat="46.48901" lon="5.63778">
        <ele>539.2</ele>
        <time>2019-09-03T10:29:07Z</time>
      </trkpt>
      <trkpt lat="46.48899" lon="5.63785">
        <ele>539.7</ele>
        <time>2019-09-03T10:29:11Z</time>
      </trkpt>
      <trkpt lat="46.48898" lon="5.63793">
        <ele>540</ele>
        <time>2019-09-03T10:29:14Z</time>
      </trkpt>
      <trkpt lat="46.489" lon="5.638">
        <ele>540.7</ele>
        <time>2019-09-03T10:29:20Z</time>
      </trkpt>
      <trkpt lat="46.489" lon="5.63806">
        <ele>541.5</ele>
        <time>2019-09-03T10:29:27Z</time>
      </trkpt>
      <trkpt lat="46.48899" lon="5.63813">
        <ele>542</ele>
        <time>2019-09-03T10:29:33Z</time>
      </trkpt>
      <trkpt lat="46.48897" lon="5.6382">
        <ele>542.3</ele>
        <time>2019-09-03T10:29:38Z</time>
      </trkpt>
      <trkpt lat="46.48896" lon="5.63827">
        <ele>542.6</ele>
        <time>2019-09-03T10:29:45Z</time>
      </trkpt>
      <trkpt lat="46.48894" lon="5.63833">
        <ele>542.9</ele>
        <time>2019-09-03T10:29:54Z</time>
      </trkpt>
      <trkpt lat="46.4889" lon="5.63838">
        <ele>543.9</ele>
        <time>2019-09-03T10:30:01Z</time>
      </trkpt>
      <trkpt lat="46.48875" lon="5.63845">
        <ele>552</ele>
        <time>2019-09-03T10:32:16Z</time>
      </trkpt>
      <trkpt lat="46.4887" lon="5.63845">
        <ele>553.6</ele>
        <time>2019-09-03T10:32:23Z</time>
      </trkpt>
      <trkpt lat="46.48865" lon="5.6384">
        <ele>555.9</ele>
        <time>2019-09-03T10:32:31Z</time>
      </trkpt>
      <trkpt lat="46.48848" lon="5.63835">
        <ele>560.5</ele>
        <time>2019-09-03T10:32:50Z</time>
      </trkpt>
      <trkpt lat="46.48845" lon="5.6384">
        <ele>561.9</ele>
        <time>2019-09-03T10:32:57Z</time>
      </trkpt>
      <trkpt lat="46.48833" lon="5.6384">
        <ele>566.1</ele>
        <time>2019-09-03T10:33:12Z</time>
      </trkpt>
      <trkpt lat="46.48821" lon="5.63844">
        <ele>570.7</ele>
        <time>2019-09-03T10:33:35Z</time>
      </trkpt>
      <trkpt lat="46.48792" lon="5.63845">
        <ele>574.4</ele>
        <time>2019-09-03T10:34:07Z</time>
      </trkpt>
      <trkpt lat="46.4878" lon="5.63847">
        <ele>575.2</ele>
        <time>2019-09-03T10:34:26Z</time>
      </trkpt>
      <trkpt lat="46.48745" lon="5.63855">
        <ele>579.6</ele>
        <time>2019-09-03T10:35:13Z</time>
      </trkpt>
      <trkpt lat="46.4874" lon="5.63857">
        <ele>580.8</ele>
        <time>2019-09-03T10:35:20Z</time>
      </trkpt>
      <trkpt lat="46.48735" lon="5.6386">
        <ele>581.5</ele>
        <time>2019-09-03T10:35:24Z</time>
      </trkpt>
      <trkpt lat="46.48728" lon="5.6386">
        <ele>582.2</ele>
        <time>2019-09-03T10:35:30Z</time>
      </trkpt>
      <trkpt lat="46.48723" lon="5.63862">
        <ele>582.6</ele>
        <time>2019-09-03T10:35:33Z</time>
      </trkpt>
      <trkpt lat="46.48711" lon="5.63863">
        <ele>584.5</ele>
        <time>2019-09-03T10:35:50Z</time>
      </trkpt>
      <trkpt lat="46.48707" lon="5.63862">
        <ele>584.3</ele>
        <time>2019-09-03T10:35:57Z</time>
      </trkpt>
      <trkpt lat="46.48702" lon="5.6386">
        <ele>584.1</ele>
        <time>2019-09-03T10:36:02Z</time>
      </trkpt>
      <trkpt lat="46.48698" lon="5.63857">
        <ele>584</ele>
        <time>2019-09-03T10:36:06Z</time>
      </trkpt>
      <trkpt lat="46.48693" lon="5.63857">
        <ele>584.1</ele>
        <time>2019-09-03T10:36:09Z</time>
      </trkpt>
      <trkpt lat="46.48688" lon="5.63857">
        <ele>584.6</ele>
        <time>2019-09-03T10:36:15Z</time>
      </trkpt>
      <trkpt lat="46.48677" lon="5.63853">
        <ele>586.4</ele>
        <time>2019-09-03T10:36:33Z</time>
      </trkpt>
      <trkpt lat="46.48664" lon="5.63837">
        <ele>591.7</ele>
        <time>2019-09-03T10:37:16Z</time>
      </trkpt>
      <trkpt lat="46.48662" lon="5.63831">
        <ele>592.1</ele>
        <time>2019-09-03T10:37:22Z</time>
      </trkpt>
      <trkpt lat="46.48659" lon="5.63825">
        <ele>592.1</ele>
        <time>2019-09-03T10:37:28Z</time>
      </trkpt>
      <trkpt lat="46.48656" lon="5.63819">
        <ele>592</ele>
        <time>2019-09-03T10:37:35Z</time>
      </trkpt>
      <trkpt lat="46.48654" lon="5.63813">
        <ele>591.9</ele>
        <time>2019-09-03T10:37:41Z</time>
      </trkpt>
      <trkpt lat="46.4865" lon="5.63807">
        <ele>592.1</ele>
        <time>2019-09-03T10:37:46Z</time>
      </trkpt>
      <trkpt lat="46.48647" lon="5.63801">
        <ele>592.2</ele>
        <time>2019-09-03T10:37:52Z</time>
      </trkpt>
      <trkpt lat="46.48645" lon="5.63795">
        <ele>592.2</ele>
        <time>2019-09-03T10:37:58Z</time>
      </trkpt>
      <trkpt lat="46.48638" lon="5.63783">
        <ele>588.4</ele>
        <time>2019-09-03T10:38:38Z</time>
      </trkpt>
      <trkpt lat="46.48636" lon="5.63777">
        <ele>587</ele>
        <time>2019-09-03T10:38:46Z</time>
      </trkpt>
      <trkpt lat="46.48631" lon="5.63772">
        <ele>586</ele>
        <time>2019-09-03T10:38:50Z</time>
      </trkpt>
      <trkpt lat="46.48627" lon="5.63767">
        <ele>585.2</ele>
        <time>2019-09-03T10:38:54Z</time>
      </trkpt>
      <trkpt lat="46.48623" lon="5.63763">
        <ele>584.9</ele>
        <time>2019-09-03T10:39:01Z</time>
      </trkpt>
      <trkpt lat="46.48619" lon="5.63762">
        <ele>584.9</ele>
        <time>2019-09-03T10:39:05Z</time>
      </trkpt>
      <trkpt lat="46.48614" lon="5.63759">
        <ele>585</ele>
        <time>2019-09-03T10:39:10Z</time>
      </trkpt>
      <trkpt lat="46.48611" lon="5.63754">
        <ele>585.2</ele>
        <time>2019-09-03T10:39:14Z</time>
      </trkpt>
      <trkpt lat="46.48579" lon="5.63748">
        <ele>587.7</ele>
        <time>2019-09-03T10:39:47Z</time>
      </trkpt>
      <trkpt lat="46.48574" lon="5.63747">
        <ele>588</ele>
        <time>2019-09-03T10:39:52Z</time>
      </trkpt>
      <trkpt lat="46.48569" lon="5.63752">
        <ele>588.2</ele>
        <time>2019-09-03T10:39:55Z</time>
      </trkpt>
      <trkpt lat="46.48542" lon="5.63759">
        <ele>592.3</ele>
        <time>2019-09-03T10:40:37Z</time>
      </trkpt>
      <trkpt lat="46.48529" lon="5.63744">
        <ele>594.3</ele>
        <time>2019-09-03T10:40:55Z</time>
      </trkpt>
      <trkpt lat="46.48525" lon="5.6374">
        <ele>594.6</ele>
        <time>2019-09-03T10:41:01Z</time>
      </trkpt>
      <trkpt lat="46.48522" lon="5.63734">
        <ele>595.2</ele>
        <time>2019-09-03T10:41:09Z</time>
      </trkpt>
      <trkpt lat="46.48518" lon="5.6373">
        <ele>595.2</ele>
        <time>2019-09-03T10:41:22Z</time>
      </trkpt>
      <trkpt lat="46.48514" lon="5.6373">
        <ele>594.4</ele>
        <time>2019-09-03T10:41:29Z</time>
      </trkpt>
      <trkpt lat="46.48508" lon="5.63727">
        <ele>592.9</ele>
        <time>2019-09-03T10:41:38Z</time>
      </trkpt>
      <trkpt lat="46.48503" lon="5.63727">
        <ele>592.3</ele>
        <time>2019-09-03T10:41:46Z</time>
      </trkpt>
      <trkpt lat="46.48493" lon="5.63716">
        <ele>587.1</ele>
        <time>2019-09-03T11:23:36Z</time>
      </trkpt>
      <trkpt lat="46.48499" lon="5.63717">
        <ele>589.5</ele>
        <time>2019-09-03T11:24:27Z</time>
      </trkpt>
      <trkpt lat="46.48497" lon="5.63709">
        <ele>595.4</ele>
        <time>2019-09-03T11:27:48Z</time>
      </trkpt>
      <trkpt lat="46.48492" lon="5.63705">
        <ele>596.3</ele>
        <time>2019-09-03T11:27:54Z</time>
      </trkpt>
      <trkpt lat="46.48485" lon="5.63701">
        <ele>598.8</ele>
        <time>2019-09-03T11:28:11Z</time>
      </trkpt>
      <trkpt lat="46.4848" lon="5.63698">
        <ele>599.9</ele>
        <time>2019-09-03T11:28:17Z</time>
      </trkpt>
      <trkpt lat="46.48475" lon="5.63695">
        <ele>600.5</ele>
        <time>2019-09-03T11:28:20Z</time>
      </trkpt>
      <trkpt lat="46.48471" lon="5.63691">
        <ele>601.3</ele>
        <time>2019-09-03T11:28:24Z</time>
      </trkpt>
      <trkpt lat="46.48467" lon="5.63687">
        <ele>601.6</ele>
        <time>2019-09-03T11:28:27Z</time>
      </trkpt>
      <trkpt lat="46.48462" lon="5.63684">
        <ele>602.2</ele>
        <time>2019-09-03T11:28:35Z</time>
      </trkpt>
      <trkpt lat="46.48458" lon="5.63681">
        <ele>602.5</ele>
        <time>2019-09-03T11:28:42Z</time>
      </trkpt>
      <trkpt lat="46.48453" lon="5.63677">
        <ele>602.6</ele>
        <time>2019-09-03T11:28:48Z</time>
      </trkpt>
      <trkpt lat="46.4845" lon="5.63673">
        <ele>602.8</ele>
        <time>2019-09-03T11:28:56Z</time>
      </trkpt>
      <trkpt lat="46.48446" lon="5.63666">
        <ele>602.8</ele>
        <time>2019-09-03T11:29:00Z</time>
      </trkpt>
      <trkpt lat="46.48442" lon="5.63661">
        <ele>602.8</ele>
        <time>2019-09-03T11:29:05Z</time>
      </trkpt>
      <trkpt lat="46.48438" lon="5.63657">
        <ele>602.8</ele>
        <time>2019-09-03T11:29:07Z</time>
      </trkpt>
      <trkpt lat="46.48434" lon="5.63653">
        <ele>602.6</ele>
        <time>2019-09-03T11:29:12Z</time>
      </trkpt>
      <trkpt lat="46.48431" lon="5.63648">
        <ele>602.5</ele>
        <time>2019-09-03T11:29:16Z</time>
      </trkpt>
      <trkpt lat="46.4842" lon="5.63634">
        <ele>603</ele>
        <time>2019-09-03T11:29:28Z</time>
      </trkpt>
      <trkpt lat="46.48412" lon="5.63626">
        <ele>603.3</ele>
        <time>2019-09-03T11:29:54Z</time>
      </trkpt>
      <trkpt lat="46.48408" lon="5.63621">
        <ele>603.3</ele>
        <time>2019-09-03T11:29:57Z</time>
      </trkpt>
      <trkpt lat="46.48405" lon="5.63616">
        <ele>603.3</ele>
        <time>2019-09-03T11:30:02Z</time>
      </trkpt>
      <trkpt lat="46.484" lon="5.63612">
        <ele>603.4</ele>
        <time>2019-09-03T11:30:08Z</time>
      </trkpt>
      <trkpt lat="46.48397" lon="5.63609">
        <ele>603.6</ele>
        <time>2019-09-03T11:30:13Z</time>
      </trkpt>
      <trkpt lat="46.48392" lon="5.63606">
        <ele>603.8</ele>
        <time>2019-09-03T11:30:18Z</time>
      </trkpt>
      <trkpt lat="46.48387" lon="5.63604">
        <ele>604.2</ele>
        <time>2019-09-03T11:30:26Z</time>
      </trkpt>
      <trkpt lat="46.48382" lon="5.63603">
        <ele>604.6</ele>
        <time>2019-09-03T11:30:30Z</time>
      </trkpt>
      <trkpt lat="46.48376" lon="5.63601">
        <ele>605.1</ele>
        <time>2019-09-03T11:30:34Z</time>
      </trkpt>
      <trkpt lat="46.48371" lon="5.636">
        <ele>606</ele>
        <time>2019-09-03T11:30:41Z</time>
      </trkpt>
      <trkpt lat="46.48365" lon="5.63602">
        <ele>606.7</ele>
        <time>2019-09-03T11:30:45Z</time>
      </trkpt>
      <trkpt lat="46.48359" lon="5.63601">
        <ele>607.4</ele>
        <time>2019-09-03T11:30:51Z</time>
      </trkpt>
      <trkpt lat="46.48354" lon="5.636">
        <ele>608.2</ele>
        <time>2019-09-03T11:30:57Z</time>
      </trkpt>
      <trkpt lat="46.48348" lon="5.636">
        <ele>608.5</ele>
        <time>2019-09-03T11:30:59Z</time>
      </trkpt>
      <trkpt lat="46.48343" lon="5.636">
        <ele>608.9</ele>
        <time>2019-09-03T11:31:01Z</time>
      </trkpt>
      <trkpt lat="46.48339" lon="5.63598">
        <ele>609.4</ele>
        <time>2019-09-03T11:31:06Z</time>
      </trkpt>
      <trkpt lat="46.48335" lon="5.63594">
        <ele>608.2</ele>
        <time>2019-09-03T11:31:22Z</time>
      </trkpt>
      <trkpt lat="46.4833" lon="5.63593">
        <ele>606.5</ele>
        <time>2019-09-03T11:31:32Z</time>
      </trkpt>
      <trkpt lat="46.48326" lon="5.63594">
        <ele>605.9</ele>
        <time>2019-09-03T11:31:44Z</time>
      </trkpt>
      <trkpt lat="46.48321" lon="5.63593">
        <ele>605.4</ele>
        <time>2019-09-03T11:31:54Z</time>
      </trkpt>
      <trkpt lat="46.48317" lon="5.63589">
        <ele>605</ele>
        <time>2019-09-03T11:31:57Z</time>
      </trkpt>
      <trkpt lat="46.48313" lon="5.63584">
        <ele>604.2</ele>
        <time>2019-09-03T11:32:01Z</time>
      </trkpt>
      <trkpt lat="46.48308" lon="5.63582">
        <ele>602.9</ele>
        <time>2019-09-03T11:32:07Z</time>
      </trkpt>
      <trkpt lat="46.48303" lon="5.6358">
        <ele>602</ele>
        <time>2019-09-03T11:32:12Z</time>
      </trkpt>
      <trkpt lat="46.48298" lon="5.63578">
        <ele>601.7</ele>
        <time>2019-09-03T11:32:15Z</time>
      </trkpt>
      <trkpt lat="46.48294" lon="5.63574">
        <ele>601.5</ele>
        <time>2019-09-03T11:32:20Z</time>
      </trkpt>
      <trkpt lat="46.48288" lon="5.63572">
        <ele>601.8</ele>
        <time>2019-09-03T11:32:26Z</time>
      </trkpt>
      <trkpt lat="46.48284" lon="5.63569">
        <ele>602.2</ele>
        <time>2019-09-03T11:32:30Z</time>
      </trkpt>
      <trkpt lat="46.4828" lon="5.63566">
        <ele>602.6</ele>
        <time>2019-09-03T11:32:36Z</time>
      </trkpt>
      <trkpt lat="46.48276" lon="5.63561">
        <ele>602.7</ele>
        <time>2019-09-03T11:32:41Z</time>
      </trkpt>
      <trkpt lat="46.48272" lon="5.63557">
        <ele>602.4</ele>
        <time>2019-09-03T11:32:48Z</time>
      </trkpt>
      <trkpt lat="46.48267" lon="5.63555">
        <ele>602.3</ele>
        <time>2019-09-03T11:32:52Z</time>
      </trkpt>
      <trkpt lat="46.48262" lon="5.63553">
        <ele>602.2</ele>
        <time>2019-09-03T11:32:55Z</time>
      </trkpt>
      <trkpt lat="46.48257" lon="5.63551">
        <ele>602.2</ele>
        <time>2019-09-03T11:32:59Z</time>
      </trkpt>
      <trkpt lat="46.48253" lon="5.6355">
        <ele>602</ele>
        <time>2019-09-03T11:33:03Z</time>
      </trkpt>
      <trkpt lat="46.48247" lon="5.6355">
        <ele>601.7</ele>
        <time>2019-09-03T11:33:07Z</time>
      </trkpt>
      <trkpt lat="46.48242" lon="5.63548">
        <ele>601.4</ele>
        <time>2019-09-03T11:33:12Z</time>
      </trkpt>
      <trkpt lat="46.48238" lon="5.63545">
        <ele>601.2</ele>
        <time>2019-09-03T11:33:17Z</time>
      </trkpt>
      <trkpt lat="46.48233" lon="5.63544">
        <ele>600.8</ele>
        <time>2019-09-03T11:33:24Z</time>
      </trkpt>
      <trkpt lat="46.48228" lon="5.63542">
        <ele>599.7</ele>
        <time>2019-09-03T11:33:32Z</time>
      </trkpt>
      <trkpt lat="46.48223" lon="5.63539">
        <ele>599</ele>
        <time>2019-09-03T11:33:39Z</time>
      </trkpt>
      <trkpt lat="46.4822" lon="5.63535">
        <ele>598.7</ele>
        <time>2019-09-03T11:33:43Z</time>
      </trkpt>
      <trkpt lat="46.48215" lon="5.63531">
        <ele>598.5</ele>
        <time>2019-09-03T11:33:46Z</time>
      </trkpt>
      <trkpt lat="46.48211" lon="5.63529">
        <ele>598.4</ele>
        <time>2019-09-03T11:33:51Z</time>
      </trkpt>
      <trkpt lat="46.48206" lon="5.63527">
        <ele>598.7</ele>
        <time>2019-09-03T11:33:57Z</time>
      </trkpt>
      <trkpt lat="46.48202" lon="5.63523">
        <ele>599.5</ele>
        <time>2019-09-03T11:34:03Z</time>
      </trkpt>
      <trkpt lat="46.48197" lon="5.63521">
        <ele>600.2</ele>
        <time>2019-09-03T11:34:08Z</time>
      </trkpt>
      <trkpt lat="46.48193" lon="5.63519">
        <ele>600.8</ele>
        <time>2019-09-03T11:34:14Z</time>
      </trkpt>
      <trkpt lat="46.48188" lon="5.63516">
        <ele>601.7</ele>
        <time>2019-09-03T11:34:24Z</time>
      </trkpt>
      <trkpt lat="46.48184" lon="5.63514">
        <ele>601.7</ele>
        <time>2019-09-03T11:34:30Z</time>
      </trkpt>
      <trkpt lat="46.48179" lon="5.63514">
        <ele>601.8</ele>
        <time>2019-09-03T11:34:36Z</time>
      </trkpt>
      <trkpt lat="46.48174" lon="5.63515">
        <ele>601.9</ele>
        <time>2019-09-03T11:34:42Z</time>
      </trkpt>
      <trkpt lat="46.48169" lon="5.63515">
        <ele>601.9</ele>
        <time>2019-09-03T11:34:50Z</time>
      </trkpt>
      <trkpt lat="46.48165" lon="5.63516">
        <ele>602</ele>
        <time>2019-09-03T11:34:56Z</time>
      </trkpt>
      <trkpt lat="46.48152" lon="5.63514">
        <ele>602.2</ele>
        <time>2019-09-03T11:35:09Z</time>
      </trkpt>
      <trkpt lat="46.48144" lon="5.63516">
        <ele>599.6</ele>
        <time>2019-09-03T11:35:32Z</time>
      </trkpt>
      <trkpt lat="46.4814" lon="5.6352">
        <ele>599.1</ele>
        <time>2019-09-03T11:35:37Z</time>
      </trkpt>
      <trkpt lat="46.48136" lon="5.63523">
        <ele>598.5</ele>
        <time>2019-09-03T11:35:42Z</time>
      </trkpt>
      <trkpt lat="46.48131" lon="5.63526">
        <ele>597.3</ele>
        <time>2019-09-03T11:35:48Z</time>
      </trkpt>
      <trkpt lat="46.48126" lon="5.63526">
        <ele>596.5</ele>
        <time>2019-09-03T11:35:53Z</time>
      </trkpt>
      <trkpt lat="46.48121" lon="5.63526">
        <ele>596.1</ele>
        <time>2019-09-03T11:35:58Z</time>
      </trkpt>
      <trkpt lat="46.48115" lon="5.63528">
        <ele>595.9</ele>
        <time>2019-09-03T11:36:03Z</time>
      </trkpt>
      <trkpt lat="46.48111" lon="5.63528">
        <ele>596.2</ele>
        <time>2019-09-03T11:36:08Z</time>
      </trkpt>
      <trkpt lat="46.48106" lon="5.6353">
        <ele>597.2</ele>
        <time>2019-09-03T11:36:18Z</time>
      </trkpt>
      <trkpt lat="46.48102" lon="5.63531">
        <ele>598.1</ele>
        <time>2019-09-03T11:36:27Z</time>
      </trkpt>
      <trkpt lat="46.48097" lon="5.63532">
        <ele>598.4</ele>
        <time>2019-09-03T11:36:32Z</time>
      </trkpt>
      <trkpt lat="46.48092" lon="5.63533">
        <ele>598.6</ele>
        <time>2019-09-03T11:36:38Z</time>
      </trkpt>
      <trkpt lat="46.48088" lon="5.63535">
        <ele>598.6</ele>
        <time>2019-09-03T11:36:43Z</time>
      </trkpt>
      <trkpt lat="46.48082" lon="5.63535">
        <ele>598.5</ele>
        <time>2019-09-03T11:36:49Z</time>
      </trkpt>
      <trkpt lat="46.48078" lon="5.63533">
        <ele>598.4</ele>
        <time>2019-09-03T11:36:53Z</time>
      </trkpt>
      <trkpt lat="46.48073" lon="5.63531">
        <ele>598.2</ele>
        <time>2019-09-03T11:36:59Z</time>
      </trkpt>
      <trkpt lat="46.48069" lon="5.63527">
        <ele>598</ele>
        <time>2019-09-03T11:37:04Z</time>
      </trkpt>
      <trkpt lat="46.48065" lon="5.63523">
        <ele>597.9</ele>
        <time>2019-09-03T11:37:08Z</time>
      </trkpt>
      <trkpt lat="46.48061" lon="5.63521">
        <ele>598</ele>
        <time>2019-09-03T11:37:13Z</time>
      </trkpt>
      <trkpt lat="46.48056" lon="5.63518">
        <ele>598.2</ele>
        <time>2019-09-03T11:37:17Z</time>
      </trkpt>
      <trkpt lat="46.48051" lon="5.63517">
        <ele>598.4</ele>
        <time>2019-09-03T11:37:21Z</time>
      </trkpt>
      <trkpt lat="46.48047" lon="5.63513">
        <ele>598.8</ele>
        <time>2019-09-03T11:37:25Z</time>
      </trkpt>
      <trkpt lat="46.48043" lon="5.63508">
        <ele>598.9</ele>
        <time>2019-09-03T11:37:28Z</time>
      </trkpt>
      <trkpt lat="46.48039" lon="5.63504">
        <ele>598.6</ele>
        <time>2019-09-03T11:37:35Z</time>
      </trkpt>
      <trkpt lat="46.48034" lon="5.635">
        <ele>598.2</ele>
        <time>2019-09-03T11:37:41Z</time>
      </trkpt>
      <trkpt lat="46.48029" lon="5.63501">
        <ele>598.3</ele>
        <time>2019-09-03T11:37:48Z</time>
      </trkpt>
      <trkpt lat="46.48025" lon="5.63504">
        <ele>598.6</ele>
        <time>2019-09-03T11:37:53Z</time>
      </trkpt>
      <trkpt lat="46.48018" lon="5.63504">
        <ele>598.6</ele>
        <time>2019-09-03T11:37:57Z</time>
      </trkpt>
      <trkpt lat="46.48014" lon="5.63503">
        <ele>598.7</ele>
        <time>2019-09-03T11:38:01Z</time>
      </trkpt>
      <trkpt lat="46.48009" lon="5.63503">
        <ele>598.6</ele>
        <time>2019-09-03T11:38:06Z</time>
      </trkpt>
      <trkpt lat="46.48004" lon="5.63502">
        <ele>598.1</ele>
        <time>2019-09-03T11:38:13Z</time>
      </trkpt>
      <trkpt lat="46.48" lon="5.63501">
        <ele>597.9</ele>
        <time>2019-09-03T11:38:18Z</time>
      </trkpt>
      <trkpt lat="46.47995" lon="5.63498">
        <ele>597.8</ele>
        <time>2019-09-03T11:38:22Z</time>
      </trkpt>
      <trkpt lat="46.4799" lon="5.63495">
        <ele>597.7</ele>
        <time>2019-09-03T11:38:26Z</time>
      </trkpt>
      <trkpt lat="46.47984" lon="5.63494">
        <ele>597.7</ele>
        <time>2019-09-03T11:38:30Z</time>
      </trkpt>
      <trkpt lat="46.4798" lon="5.63491">
        <ele>597.7</ele>
        <time>2019-09-03T11:38:34Z</time>
      </trkpt>
      <trkpt lat="46.47976" lon="5.63488">
        <ele>597.8</ele>
        <time>2019-09-03T11:38:38Z</time>
      </trkpt>
      <trkpt lat="46.47971" lon="5.63486">
        <ele>597.8</ele>
        <time>2019-09-03T11:38:43Z</time>
      </trkpt>
      <trkpt lat="46.47966" lon="5.63483">
        <ele>597.7</ele>
        <time>2019-09-03T11:38:48Z</time>
      </trkpt>
      <trkpt lat="46.47962" lon="5.63479">
        <ele>597.3</ele>
        <time>2019-09-03T11:38:54Z</time>
      </trkpt>
      <trkpt lat="46.47959" lon="5.63474">
        <ele>597</ele>
        <time>2019-09-03T11:38:59Z</time>
      </trkpt>
      <trkpt lat="46.47957" lon="5.63467">
        <ele>596.8</ele>
        <time>2019-09-03T11:39:07Z</time>
      </trkpt>
      <trkpt lat="46.47954" lon="5.63462">
        <ele>596.5</ele>
        <time>2019-09-03T11:39:13Z</time>
      </trkpt>
      <trkpt lat="46.4795" lon="5.63458">
        <ele>595.9</ele>
        <time>2019-09-03T11:39:19Z</time>
      </trkpt>
      <trkpt lat="46.47946" lon="5.63456">
        <ele>594.8</ele>
        <time>2019-09-03T11:39:25Z</time>
      </trkpt>
      <trkpt lat="46.47941" lon="5.63454">
        <ele>592.8</ele>
        <time>2019-09-03T11:39:35Z</time>
      </trkpt>
      <trkpt lat="46.47937" lon="5.63451">
        <ele>591.8</ele>
        <time>2019-09-03T11:39:42Z</time>
      </trkpt>
      <trkpt lat="46.47932" lon="5.63448">
        <ele>591</ele>
        <time>2019-09-03T11:39:58Z</time>
      </trkpt>
      <trkpt lat="46.4793" lon="5.63441">
        <ele>590.6</ele>
        <time>2019-09-03T11:40:10Z</time>
      </trkpt>
      <trkpt lat="46.47925" lon="5.63438">
        <ele>590.4</ele>
        <time>2019-09-03T11:40:16Z</time>
      </trkpt>
      <trkpt lat="46.47921" lon="5.63436">
        <ele>590.3</ele>
        <time>2019-09-03T11:40:20Z</time>
      </trkpt>
      <trkpt lat="46.47915" lon="5.63435">
        <ele>590.5</ele>
        <time>2019-09-03T11:40:25Z</time>
      </trkpt>
      <trkpt lat="46.4791" lon="5.63434">
        <ele>590.7</ele>
        <time>2019-09-03T11:40:28Z</time>
      </trkpt>
      <trkpt lat="46.47906" lon="5.63432">
        <ele>590.9</ele>
        <time>2019-09-03T11:40:31Z</time>
      </trkpt>
      <trkpt lat="46.47901" lon="5.63431">
        <ele>591.7</ele>
        <time>2019-09-03T11:40:37Z</time>
      </trkpt>
      <trkpt lat="46.47895" lon="5.63432">
        <ele>592.3</ele>
        <time>2019-09-03T11:40:43Z</time>
      </trkpt>
      <trkpt lat="46.4789" lon="5.63432">
        <ele>592.7</ele>
        <time>2019-09-03T11:40:48Z</time>
      </trkpt>
      <trkpt lat="46.47885" lon="5.63434">
        <ele>592.6</ele>
        <time>2019-09-03T11:40:53Z</time>
      </trkpt>
      <trkpt lat="46.47881" lon="5.63438">
        <ele>592.3</ele>
        <time>2019-09-03T11:40:57Z</time>
      </trkpt>
      <trkpt lat="46.47878" lon="5.63443">
        <ele>592.1</ele>
        <time>2019-09-03T11:41:01Z</time>
      </trkpt>
      <trkpt lat="46.47874" lon="5.63446">
        <ele>591.5</ele>
        <time>2019-09-03T11:41:06Z</time>
      </trkpt>
      <trkpt lat="46.47869" lon="5.63449">
        <ele>590.9</ele>
        <time>2019-09-03T11:41:11Z</time>
      </trkpt>
      <trkpt lat="46.47865" lon="5.63451">
        <ele>590.5</ele>
        <time>2019-09-03T11:41:16Z</time>
      </trkpt>
      <trkpt lat="46.47861" lon="5.63453">
        <ele>590</ele>
        <time>2019-09-03T11:41:23Z</time>
      </trkpt>
      <trkpt lat="46.47856" lon="5.63453">
        <ele>590.2</ele>
        <time>2019-09-03T11:41:31Z</time>
      </trkpt>
      <trkpt lat="46.47851" lon="5.63457">
        <ele>590.2</ele>
        <time>2019-09-03T11:41:36Z</time>
      </trkpt>
      <trkpt lat="46.47846" lon="5.63461">
        <ele>590.1</ele>
        <time>2019-09-03T11:41:40Z</time>
      </trkpt>
      <trkpt lat="46.47841" lon="5.63462">
        <ele>590</ele>
        <time>2019-09-03T11:41:43Z</time>
      </trkpt>
      <trkpt lat="46.47837" lon="5.63463">
        <ele>589.9</ele>
        <time>2019-09-03T11:41:47Z</time>
      </trkpt>
      <trkpt lat="46.47832" lon="5.63464">
        <ele>589.5</ele>
        <time>2019-09-03T11:41:53Z</time>
      </trkpt>
      <trkpt lat="46.47828" lon="5.63464">
        <ele>588.9</ele>
        <time>2019-09-03T11:41:59Z</time>
      </trkpt>
      <trkpt lat="46.47823" lon="5.63467">
        <ele>588.4</ele>
        <time>2019-09-03T11:42:04Z</time>
      </trkpt>
      <trkpt lat="46.47819" lon="5.63469">
        <ele>588</ele>
        <time>2019-09-03T11:42:10Z</time>
      </trkpt>
      <trkpt lat="46.47816" lon="5.63475">
        <ele>587.2</ele>
        <time>2019-09-03T11:42:17Z</time>
      </trkpt>
      <trkpt lat="46.47813" lon="5.6348">
        <ele>586.3</ele>
        <time>2019-09-03T11:42:22Z</time>
      </trkpt>
      <trkpt lat="46.47811" lon="5.63486">
        <ele>585.1</ele>
        <time>2019-09-03T11:42:26Z</time>
      </trkpt>
      <trkpt lat="46.47808" lon="5.63492">
        <ele>583.7</ele>
        <time>2019-09-03T11:42:31Z</time>
      </trkpt>
      <trkpt lat="46.47804" lon="5.63497">
        <ele>582.1</ele>
        <time>2019-09-03T11:42:37Z</time>
      </trkpt>
      <trkpt lat="46.478" lon="5.63501">
        <ele>582</ele>
        <time>2019-09-03T11:42:42Z</time>
      </trkpt>
      <trkpt lat="46.47795" lon="5.63504">
        <ele>582.6</ele>
        <time>2019-09-03T11:42:46Z</time>
      </trkpt>
      <trkpt lat="46.4779" lon="5.63506">
        <ele>583.7</ele>
        <time>2019-09-03T11:42:50Z</time>
      </trkpt>
      <trkpt lat="46.47786" lon="5.6351">
        <ele>585.9</ele>
        <time>2019-09-03T11:42:57Z</time>
      </trkpt>
      <trkpt lat="46.47779" lon="5.63504">
        <ele>589.3</ele>
        <time>2019-09-03T11:43:22Z</time>
      </trkpt>
      <trkpt lat="46.47775" lon="5.63498">
        <ele>588.9</ele>
        <time>2019-09-03T11:43:28Z</time>
      </trkpt>
      <trkpt lat="46.47772" lon="5.63492">
        <ele>588.4</ele>
        <time>2019-09-03T11:43:33Z</time>
      </trkpt>
      <trkpt lat="46.47768" lon="5.63489">
        <ele>587.9</ele>
        <time>2019-09-03T11:43:39Z</time>
      </trkpt>
      <trkpt lat="46.47764" lon="5.63484">
        <ele>588</ele>
        <time>2019-09-03T11:43:46Z</time>
      </trkpt>
      <trkpt lat="46.47763" lon="5.63477">
        <ele>588.5</ele>
        <time>2019-09-03T11:43:52Z</time>
      </trkpt>
      <trkpt lat="46.47759" lon="5.63473">
        <ele>589.5</ele>
        <time>2019-09-03T11:43:58Z</time>
      </trkpt>
      <trkpt lat="46.47754" lon="5.63469">
        <ele>590.2</ele>
        <time>2019-09-03T11:44:02Z</time>
      </trkpt>
      <trkpt lat="46.47752" lon="5.63464">
        <ele>590.8</ele>
        <time>2019-09-03T11:44:05Z</time>
      </trkpt>
      <trkpt lat="46.47749" lon="5.63458">
        <ele>591.7</ele>
        <time>2019-09-03T11:44:09Z</time>
      </trkpt>
      <trkpt lat="46.47746" lon="5.63452">
        <ele>592.9</ele>
        <time>2019-09-03T11:44:14Z</time>
      </trkpt>
      <trkpt lat="46.47744" lon="5.63446">
        <ele>594.4</ele>
        <time>2019-09-03T11:44:20Z</time>
      </trkpt>
      <trkpt lat="46.47741" lon="5.63441">
        <ele>595.3</ele>
        <time>2019-09-03T11:44:25Z</time>
      </trkpt>
      <trkpt lat="46.47739" lon="5.63435">
        <ele>595.6</ele>
        <time>2019-09-03T11:44:28Z</time>
      </trkpt>
      <trkpt lat="46.47737" lon="5.63429">
        <ele>596</ele>
        <time>2019-09-03T11:44:35Z</time>
      </trkpt>
      <trkpt lat="46.47734" lon="5.63424">
        <ele>595.4</ele>
        <time>2019-09-03T11:44:46Z</time>
      </trkpt>
      <trkpt lat="46.47733" lon="5.63429">
        <ele>593.7</ele>
        <time>2019-09-03T11:45:13Z</time>
      </trkpt>
      <trkpt lat="46.47729" lon="5.63433">
        <ele>591.9</ele>
        <time>2019-09-03T11:45:33Z</time>
      </trkpt>
      <trkpt lat="46.47725" lon="5.63437">
        <ele>591.9</ele>
        <time>2019-09-03T11:45:41Z</time>
      </trkpt>
      <trkpt lat="46.47721" lon="5.6344">
        <ele>592.5</ele>
        <time>2019-09-03T11:45:48Z</time>
      </trkpt>
      <trkpt lat="46.47717" lon="5.63443">
        <ele>593.4</ele>
        <time>2019-09-03T11:45:56Z</time>
      </trkpt>
      <trkpt lat="46.47712" lon="5.63447">
        <ele>594.5</ele>
        <time>2019-09-03T11:46:02Z</time>
      </trkpt>
      <trkpt lat="46.47709" lon="5.63452">
        <ele>595.5</ele>
        <time>2019-09-03T11:46:07Z</time>
      </trkpt>
      <trkpt lat="46.47705" lon="5.63455">
        <ele>596.3</ele>
        <time>2019-09-03T11:46:15Z</time>
      </trkpt>
      <trkpt lat="46.477" lon="5.63457">
        <ele>596.7</ele>
        <time>2019-09-03T11:46:23Z</time>
      </trkpt>
      <trkpt lat="46.47695" lon="5.63458">
        <ele>597</ele>
        <time>2019-09-03T11:46:27Z</time>
      </trkpt>
      <trkpt lat="46.47691" lon="5.63459">
        <ele>597.8</ele>
        <time>2019-09-03T11:46:34Z</time>
      </trkpt>
      <trkpt lat="46.47685" lon="5.63458">
        <ele>598.8</ele>
        <time>2019-09-03T11:46:41Z</time>
      </trkpt>
      <trkpt lat="46.4768" lon="5.63457">
        <ele>599.2</ele>
        <time>2019-09-03T11:46:46Z</time>
      </trkpt>
      <trkpt lat="46.47675" lon="5.63455">
        <ele>599.3</ele>
        <time>2019-09-03T11:46:50Z</time>
      </trkpt>
      <trkpt lat="46.4767" lon="5.63455">
        <ele>599</ele>
        <time>2019-09-03T11:46:55Z</time>
      </trkpt>
      <trkpt lat="46.47665" lon="5.63456">
        <ele>598.6</ele>
        <time>2019-09-03T11:47:00Z</time>
      </trkpt>
      <trkpt lat="46.4766" lon="5.63458">
        <ele>598.1</ele>
        <time>2019-09-03T11:47:06Z</time>
      </trkpt>
      <trkpt lat="46.47655" lon="5.63459">
        <ele>598.1</ele>
        <time>2019-09-03T11:47:10Z</time>
      </trkpt>
      <trkpt lat="46.47651" lon="5.6346">
        <ele>598.3</ele>
        <time>2019-09-03T11:47:15Z</time>
      </trkpt>
      <trkpt lat="46.47646" lon="5.63461">
        <ele>598.5</ele>
        <time>2019-09-03T11:47:18Z</time>
      </trkpt>
      <trkpt lat="46.47641" lon="5.63461">
        <ele>599.1</ele>
        <time>2019-09-03T11:47:24Z</time>
      </trkpt>
      <trkpt lat="46.47637" lon="5.63459">
        <ele>599.3</ele>
        <time>2019-09-03T11:47:28Z</time>
      </trkpt>
      <trkpt lat="46.47632" lon="5.63458">
        <ele>599.5</ele>
        <time>2019-09-03T11:47:33Z</time>
      </trkpt>
      <trkpt lat="46.47627" lon="5.6346">
        <ele>599.9</ele>
        <time>2019-09-03T11:47:37Z</time>
      </trkpt>
      <trkpt lat="46.47622" lon="5.63462">
        <ele>600.4</ele>
        <time>2019-09-03T11:47:41Z</time>
      </trkpt>
      <trkpt lat="46.47617" lon="5.63464">
        <ele>602</ele>
        <time>2019-09-03T11:47:50Z</time>
      </trkpt>
      <trkpt lat="46.47612" lon="5.63465">
        <ele>603</ele>
        <time>2019-09-03T11:47:55Z</time>
      </trkpt>
      <trkpt lat="46.47607" lon="5.63465">
        <ele>603.9</ele>
        <time>2019-09-03T11:48:00Z</time>
      </trkpt>
      <trkpt lat="46.47601" lon="5.63467">
        <ele>604.4</ele>
        <time>2019-09-03T11:48:06Z</time>
      </trkpt>
      <trkpt lat="46.47597" lon="5.63468">
        <ele>604.3</ele>
        <time>2019-09-03T11:48:09Z</time>
      </trkpt>
      <trkpt lat="46.47592" lon="5.63469">
        <ele>604.1</ele>
        <time>2019-09-03T11:48:13Z</time>
      </trkpt>
      <trkpt lat="46.47586" lon="5.6347">
        <ele>603.6</ele>
        <time>2019-09-03T11:48:18Z</time>
      </trkpt>
      <trkpt lat="46.47581" lon="5.63472">
        <ele>603.1</ele>
        <time>2019-09-03T11:48:25Z</time>
      </trkpt>
      <trkpt lat="46.47577" lon="5.63475">
        <ele>602.8</ele>
        <time>2019-09-03T11:48:29Z</time>
      </trkpt>
      <trkpt lat="46.47572" lon="5.63476">
        <ele>602.3</ele>
        <time>2019-09-03T11:48:33Z</time>
      </trkpt>
      <trkpt lat="46.47566" lon="5.63475">
        <ele>601.6</ele>
        <time>2019-09-03T11:48:37Z</time>
      </trkpt>
      <trkpt lat="46.47561" lon="5.63474">
        <ele>600.7</ele>
        <time>2019-09-03T11:48:41Z</time>
      </trkpt>
      <trkpt lat="46.47556" lon="5.63473">
        <ele>599.9</ele>
        <time>2019-09-03T11:48:45Z</time>
      </trkpt>
      <trkpt lat="46.47551" lon="5.63474">
        <ele>598.7</ele>
        <time>2019-09-03T11:48:50Z</time>
      </trkpt>
      <trkpt lat="46.47546" lon="5.63475">
        <ele>597.3</ele>
        <time>2019-09-03T11:48:56Z</time>
      </trkpt>
      <trkpt lat="46.47541" lon="5.63473">
        <ele>596</ele>
        <time>2019-09-03T11:49:01Z</time>
      </trkpt>
      <trkpt lat="46.47536" lon="5.63473">
        <ele>594.5</ele>
        <time>2019-09-03T11:49:07Z</time>
      </trkpt>
      <trkpt lat="46.47525" lon="5.63472">
        <ele>592.4</ele>
        <time>2019-09-03T11:49:19Z</time>
      </trkpt>
      <trkpt lat="46.4752" lon="5.63474">
        <ele>593.4</ele>
        <time>2019-09-03T11:49:27Z</time>
      </trkpt>
      <trkpt lat="46.47515" lon="5.63476">
        <ele>593.9</ele>
        <time>2019-09-03T11:49:29Z</time>
      </trkpt>
      <trkpt lat="46.47497" lon="5.63484">
        <ele>598.6</ele>
        <time>2019-09-03T11:49:40Z</time>
      </trkpt>
      <trkpt lat="46.47491" lon="5.63492">
        <ele>602.9</ele>
        <time>2019-09-03T11:49:56Z</time>
      </trkpt>
      <trkpt lat="46.47486" lon="5.63491">
        <ele>603.8</ele>
        <time>2019-09-03T11:50:03Z</time>
      </trkpt>
      <trkpt lat="46.47481" lon="5.6349">
        <ele>604.3</ele>
        <time>2019-09-03T11:50:06Z</time>
      </trkpt>
      <trkpt lat="46.47476" lon="5.63489">
        <ele>605</ele>
        <time>2019-09-03T11:50:10Z</time>
      </trkpt>
      <trkpt lat="46.47471" lon="5.63486">
        <ele>605.4</ele>
        <time>2019-09-03T11:50:13Z</time>
      </trkpt>
      <trkpt lat="46.47466" lon="5.63488">
        <ele>606.5</ele>
        <time>2019-09-03T11:50:21Z</time>
      </trkpt>
      <trkpt lat="46.47461" lon="5.63485">
        <ele>606.9</ele>
        <time>2019-09-03T11:50:24Z</time>
      </trkpt>
      <trkpt lat="46.47456" lon="5.63484">
        <ele>607.4</ele>
        <time>2019-09-03T11:50:29Z</time>
      </trkpt>
      <trkpt lat="46.47451" lon="5.63485">
        <ele>607.7</ele>
        <time>2019-09-03T11:50:35Z</time>
      </trkpt>
      <trkpt lat="46.47446" lon="5.63485">
        <ele>607.9</ele>
        <time>2019-09-03T11:50:40Z</time>
      </trkpt>
      <trkpt lat="46.47441" lon="5.63484">
        <ele>608.1</ele>
        <time>2019-09-03T11:50:45Z</time>
      </trkpt>
      <trkpt lat="46.47436" lon="5.63484">
        <ele>608.5</ele>
        <time>2019-09-03T11:50:50Z</time>
      </trkpt>
      <trkpt lat="46.47431" lon="5.63483">
        <ele>608.6</ele>
        <time>2019-09-03T11:50:54Z</time>
      </trkpt>
      <trkpt lat="46.47426" lon="5.6348">
        <ele>608.8</ele>
        <time>2019-09-03T11:50:58Z</time>
      </trkpt>
      <trkpt lat="46.47421" lon="5.63478">
        <ele>608.7</ele>
        <time>2019-09-03T11:51:03Z</time>
      </trkpt>
      <trkpt lat="46.47416" lon="5.63477">
        <ele>608.4</ele>
        <time>2019-09-03T11:51:10Z</time>
      </trkpt>
      <trkpt lat="46.47412" lon="5.63473">
        <ele>608.2</ele>
        <time>2019-09-03T11:51:15Z</time>
      </trkpt>
      <trkpt lat="46.47406" lon="5.63471">
        <ele>608</ele>
        <time>2019-09-03T11:51:20Z</time>
      </trkpt>
      <trkpt lat="46.47394" lon="5.63475">
        <ele>607.8</ele>
        <time>2019-09-03T11:51:36Z</time>
      </trkpt>
      <trkpt lat="46.47388" lon="5.63476">
        <ele>608</ele>
        <time>2019-09-03T11:51:40Z</time>
      </trkpt>
      <trkpt lat="46.47383" lon="5.63476">
        <ele>608.5</ele>
        <time>2019-09-03T11:51:46Z</time>
      </trkpt>
      <trkpt lat="46.47379" lon="5.63476">
        <ele>608.9</ele>
        <time>2019-09-03T11:51:49Z</time>
      </trkpt>
      <trkpt lat="46.47374" lon="5.63476">
        <ele>609.5</ele>
        <time>2019-09-03T11:51:53Z</time>
      </trkpt>
      <trkpt lat="46.47369" lon="5.63477">
        <ele>610.2</ele>
        <time>2019-09-03T11:51:58Z</time>
      </trkpt>
      <trkpt lat="46.47354" lon="5.63477">
        <ele>611.5</ele>
        <time>2019-09-03T11:52:11Z</time>
      </trkpt>
      <trkpt lat="46.47349" lon="5.63478">
        <ele>612.4</ele>
        <time>2019-09-03T11:52:17Z</time>
      </trkpt>
      <trkpt lat="46.47344" lon="5.6348">
        <ele>613</ele>
        <time>2019-09-03T11:52:21Z</time>
      </trkpt>
      <trkpt lat="46.47341" lon="5.63485">
        <ele>614</ele>
        <time>2019-09-03T11:52:27Z</time>
      </trkpt>
      <trkpt lat="46.47337" lon="5.63488">
        <ele>615.1</ele>
        <time>2019-09-03T11:52:34Z</time>
      </trkpt>
      <trkpt lat="46.47332" lon="5.63489">
        <ele>615.7</ele>
        <time>2019-09-03T11:52:38Z</time>
      </trkpt>
      <trkpt lat="46.47327" lon="5.63489">
        <ele>616.7</ele>
        <time>2019-09-03T11:52:43Z</time>
      </trkpt>
      <trkpt lat="46.47323" lon="5.63487">
        <ele>617.8</ele>
        <time>2019-09-03T11:52:50Z</time>
      </trkpt>
      <trkpt lat="46.47318" lon="5.63486">
        <ele>618.9</ele>
        <time>2019-09-03T11:52:56Z</time>
      </trkpt>
      <trkpt lat="46.47313" lon="5.63487">
        <ele>620.2</ele>
        <time>2019-09-03T11:53:03Z</time>
      </trkpt>
      <trkpt lat="46.47309" lon="5.63491">
        <ele>621.5</ele>
        <time>2019-09-03T11:53:11Z</time>
      </trkpt>
      <trkpt lat="46.47305" lon="5.63494">
        <ele>622.1</ele>
        <time>2019-09-03T11:53:18Z</time>
      </trkpt>
      <trkpt lat="46.47301" lon="5.63497">
        <ele>622.2</ele>
        <time>2019-09-03T11:53:21Z</time>
      </trkpt>
      <trkpt lat="46.47296" lon="5.63501">
        <ele>622.3</ele>
        <time>2019-09-03T11:53:26Z</time>
      </trkpt>
      <trkpt lat="46.47292" lon="5.63505">
        <ele>622</ele>
        <time>2019-09-03T11:53:32Z</time>
      </trkpt>
      <trkpt lat="46.47288" lon="5.63507">
        <ele>621.6</ele>
        <time>2019-09-03T11:53:39Z</time>
      </trkpt>
      <trkpt lat="46.47284" lon="5.6351">
        <ele>620.8</ele>
        <time>2019-09-03T11:53:47Z</time>
      </trkpt>
      <trkpt lat="46.4728" lon="5.63515">
        <ele>619.1</ele>
        <time>2019-09-03T11:53:57Z</time>
      </trkpt>
      <trkpt lat="46.47277" lon="5.6352">
        <ele>617.5</ele>
        <time>2019-09-03T11:54:04Z</time>
      </trkpt>
      <trkpt lat="46.47272" lon="5.63522">
        <ele>615.9</ele>
        <time>2019-09-03T11:54:11Z</time>
      </trkpt>
      <trkpt lat="46.47268" lon="5.63523">
        <ele>614.9</ele>
        <time>2019-09-03T11:54:17Z</time>
      </trkpt>
      <trkpt lat="46.47264" lon="5.63527">
        <ele>614.3</ele>
        <time>2019-09-03T11:54:26Z</time>
      </trkpt>
      <trkpt lat="46.47259" lon="5.63529">
        <ele>614.8</ele>
        <time>2019-09-03T11:54:33Z</time>
      </trkpt>
      <trkpt lat="46.47256" lon="5.63533">
        <ele>615.9</ele>
        <time>2019-09-03T11:54:39Z</time>
      </trkpt>
      <trkpt lat="46.47252" lon="5.63536">
        <ele>617.1</ele>
        <time>2019-09-03T11:54:46Z</time>
      </trkpt>
      <trkpt lat="46.47247" lon="5.63535">
        <ele>617.6</ele>
        <time>2019-09-03T11:54:56Z</time>
      </trkpt>
      <trkpt lat="46.47242" lon="5.63531">
        <ele>618</ele>
        <time>2019-09-03T11:55:02Z</time>
      </trkpt>
      <trkpt lat="46.47238" lon="5.63527">
        <ele>618.2</ele>
        <time>2019-09-03T11:55:07Z</time>
      </trkpt>
      <trkpt lat="46.47234" lon="5.63524">
        <ele>618.3</ele>
        <time>2019-09-03T11:55:09Z</time>
      </trkpt>
      <trkpt lat="46.47229" lon="5.63522">
        <ele>618.4</ele>
        <time>2019-09-03T11:55:11Z</time>
      </trkpt>
      <trkpt lat="46.47225" lon="5.63521">
        <ele>618.7</ele>
        <time>2019-09-03T11:55:14Z</time>
      </trkpt>
      <trkpt lat="46.4722" lon="5.6352">
        <ele>619</ele>
        <time>2019-09-03T11:55:17Z</time>
      </trkpt>
      <trkpt lat="46.47216" lon="5.63518">
        <ele>619.3</ele>
        <time>2019-09-03T11:55:23Z</time>
      </trkpt>
      <trkpt lat="46.47211" lon="5.63514">
        <ele>619.8</ele>
        <time>2019-09-03T11:55:28Z</time>
      </trkpt>
      <trkpt lat="46.47205" lon="5.63512">
        <ele>620.6</ele>
        <time>2019-09-03T11:55:34Z</time>
      </trkpt>
      <trkpt lat="46.472" lon="5.6351">
        <ele>621.9</ele>
        <time>2019-09-03T11:55:47Z</time>
      </trkpt>
      <trkpt lat="46.47196" lon="5.63511">
        <ele>622.1</ele>
        <time>2019-09-03T11:55:54Z</time>
      </trkpt>
      <trkpt lat="46.4719" lon="5.63512">
        <ele>622.4</ele>
        <time>2019-09-03T11:55:58Z</time>
      </trkpt>
      <trkpt lat="46.47185" lon="5.63513">
        <ele>622.5</ele>
        <time>2019-09-03T11:56:00Z</time>
      </trkpt>
      <trkpt lat="46.4718" lon="5.63514">
        <ele>622.8</ele>
        <time>2019-09-03T11:56:03Z</time>
      </trkpt>
      <trkpt lat="46.47175" lon="5.63514">
        <ele>623.2</ele>
        <time>2019-09-03T11:56:09Z</time>
      </trkpt>
      <trkpt lat="46.4717" lon="5.63514">
        <ele>623.5</ele>
        <time>2019-09-03T11:56:13Z</time>
      </trkpt>
      <trkpt lat="46.47165" lon="5.63513">
        <ele>623.7</ele>
        <time>2019-09-03T11:56:17Z</time>
      </trkpt>
      <trkpt lat="46.47161" lon="5.63514">
        <ele>624</ele>
        <time>2019-09-03T11:56:25Z</time>
      </trkpt>
      <trkpt lat="46.47156" lon="5.63515">
        <ele>623.8</ele>
        <time>2019-09-03T11:56:35Z</time>
      </trkpt>
      <trkpt lat="46.47151" lon="5.63514">
        <ele>623.8</ele>
        <time>2019-09-03T11:56:41Z</time>
      </trkpt>
      <trkpt lat="46.47146" lon="5.63513">
        <ele>623.8</ele>
        <time>2019-09-03T11:56:46Z</time>
      </trkpt>
      <trkpt lat="46.47142" lon="5.63517">
        <ele>624</ele>
        <time>2019-09-03T11:56:50Z</time>
      </trkpt>
      <trkpt lat="46.47137" lon="5.63518">
        <ele>624.1</ele>
        <time>2019-09-03T11:56:53Z</time>
      </trkpt>
      <trkpt lat="46.47132" lon="5.63516">
        <ele>624.1</ele>
        <time>2019-09-03T11:57:03Z</time>
      </trkpt>
      <trkpt lat="46.47128" lon="5.63516">
        <ele>624.1</ele>
        <time>2019-09-03T11:57:08Z</time>
      </trkpt>
      <trkpt lat="46.47122" lon="5.63516">
        <ele>624.3</ele>
        <time>2019-09-03T11:57:13Z</time>
      </trkpt>
      <trkpt lat="46.47117" lon="5.63516">
        <ele>624.7</ele>
        <time>2019-09-03T11:57:18Z</time>
      </trkpt>
      <trkpt lat="46.47113" lon="5.63513">
        <ele>625.7</ele>
        <time>2019-09-03T11:57:26Z</time>
      </trkpt>
      <trkpt lat="46.47108" lon="5.6351">
        <ele>627.4</ele>
        <time>2019-09-03T11:57:35Z</time>
      </trkpt>
      <trkpt lat="46.47102" lon="5.6351">
        <ele>628.3</ele>
        <time>2019-09-03T11:57:39Z</time>
      </trkpt>
      <trkpt lat="46.47098" lon="5.63509">
        <ele>629.2</ele>
        <time>2019-09-03T11:57:43Z</time>
      </trkpt>
      <trkpt lat="46.47093" lon="5.63508">
        <ele>629.8</ele>
        <time>2019-09-03T11:57:49Z</time>
      </trkpt>
      <trkpt lat="46.47088" lon="5.63506">
        <ele>630.3</ele>
        <time>2019-09-03T11:57:55Z</time>
      </trkpt>
      <trkpt lat="46.47083" lon="5.63503">
        <ele>630.6</ele>
        <time>2019-09-03T11:58:02Z</time>
      </trkpt>
      <trkpt lat="46.47079" lon="5.63503">
        <ele>630.9</ele>
        <time>2019-09-03T11:58:09Z</time>
      </trkpt>
      <trkpt lat="46.47074" lon="5.63505">
        <ele>631.2</ele>
        <time>2019-09-03T11:58:15Z</time>
      </trkpt>
      <trkpt lat="46.47069" lon="5.63504">
        <ele>631.6</ele>
        <time>2019-09-03T11:58:19Z</time>
      </trkpt>
      <trkpt lat="46.47064" lon="5.63503">
        <ele>632.7</ele>
        <time>2019-09-03T11:58:25Z</time>
      </trkpt>
      <trkpt lat="46.47059" lon="5.63503">
        <ele>633.3</ele>
        <time>2019-09-03T11:58:28Z</time>
      </trkpt>
      <trkpt lat="46.47053" lon="5.63503">
        <ele>633.8</ele>
        <time>2019-09-03T11:58:31Z</time>
      </trkpt>
      <trkpt lat="46.47048" lon="5.63503">
        <ele>634.3</ele>
        <time>2019-09-03T11:58:34Z</time>
      </trkpt>
      <trkpt lat="46.47043" lon="5.63502">
        <ele>634.9</ele>
        <time>2019-09-03T11:58:39Z</time>
      </trkpt>
      <trkpt lat="46.47038" lon="5.635">
        <ele>636</ele>
        <time>2019-09-03T11:58:46Z</time>
      </trkpt>
      <trkpt lat="46.47033" lon="5.63497">
        <ele>636.6</ele>
        <time>2019-09-03T11:58:50Z</time>
      </trkpt>
      <trkpt lat="46.47028" lon="5.63494">
        <ele>637</ele>
        <time>2019-09-03T11:58:54Z</time>
      </trkpt>
      <trkpt lat="46.47024" lon="5.6349">
        <ele>637.4</ele>
        <time>2019-09-03T11:58:59Z</time>
      </trkpt>
      <trkpt lat="46.47028" lon="5.63485">
        <ele>638</ele>
        <time>2019-09-03T11:59:20Z</time>
      </trkpt>
      <trkpt lat="46.47033" lon="5.63483">
        <ele>637.9</ele>
        <time>2019-09-03T11:59:27Z</time>
      </trkpt>
      <trkpt lat="46.47029" lon="5.63478">
        <ele>637.2</ele>
        <time>2019-09-03T11:59:37Z</time>
      </trkpt>
      <trkpt lat="46.47023" lon="5.6348">
        <ele>636.8</ele>
        <time>2019-09-03T11:59:44Z</time>
      </trkpt>
      <trkpt lat="46.47018" lon="5.63484">
        <ele>636.5</ele>
        <time>2019-09-03T11:59:48Z</time>
      </trkpt>
      <trkpt lat="46.47014" lon="5.63488">
        <ele>636</ele>
        <time>2019-09-03T11:59:53Z</time>
      </trkpt>
      <trkpt lat="46.4701" lon="5.63492">
        <ele>635.7</ele>
        <time>2019-09-03T12:00:01Z</time>
      </trkpt>
      <trkpt lat="46.47005" lon="5.63491">
        <ele>635.9</ele>
        <time>2019-09-03T12:00:07Z</time>
      </trkpt>
      <trkpt lat="46.47001" lon="5.63489">
        <ele>636.4</ele>
        <time>2019-09-03T12:00:13Z</time>
      </trkpt>
      <trkpt lat="46.46996" lon="5.63489">
        <ele>636.3</ele>
        <time>2019-09-03T12:00:18Z</time>
      </trkpt>
      <trkpt lat="46.46991" lon="5.63489">
        <ele>635.6</ele>
        <time>2019-09-03T12:00:23Z</time>
      </trkpt>
      <trkpt lat="46.46985" lon="5.6349">
        <ele>634.8</ele>
        <time>2019-09-03T12:00:27Z</time>
      </trkpt>
      <trkpt lat="46.46981" lon="5.63489">
        <ele>633.5</ele>
        <time>2019-09-03T12:00:35Z</time>
      </trkpt>
      <trkpt lat="46.46976" lon="5.63486">
        <ele>632.5</ele>
        <time>2019-09-03T12:00:44Z</time>
      </trkpt>
      <trkpt lat="46.46971" lon="5.63485">
        <ele>632.1</ele>
        <time>2019-09-03T12:00:50Z</time>
      </trkpt>
      <trkpt lat="46.46966" lon="5.63486">
        <ele>631.9</ele>
        <time>2019-09-03T12:00:56Z</time>
      </trkpt>
      <trkpt lat="46.46962" lon="5.63488">
        <ele>631.9</ele>
        <time>2019-09-03T12:01:03Z</time>
      </trkpt>
      <trkpt lat="46.46957" lon="5.63489">
        <ele>631.9</ele>
        <time>2019-09-03T12:01:10Z</time>
      </trkpt>
      <trkpt lat="46.46952" lon="5.63488">
        <ele>632</ele>
        <time>2019-09-03T12:01:13Z</time>
      </trkpt>
      <trkpt lat="46.46947" lon="5.63489">
        <ele>632.1</ele>
        <time>2019-09-03T12:01:17Z</time>
      </trkpt>
      <trkpt lat="46.46942" lon="5.63489">
        <ele>632.2</ele>
        <time>2019-09-03T12:01:23Z</time>
      </trkpt>
      <trkpt lat="46.46936" lon="5.63489">
        <ele>632.1</ele>
        <time>2019-09-03T12:01:27Z</time>
      </trkpt>
      <trkpt lat="46.46932" lon="5.6349">
        <ele>632</ele>
        <time>2019-09-03T12:01:33Z</time>
      </trkpt>
      <trkpt lat="46.46927" lon="5.6349">
        <ele>631.7</ele>
        <time>2019-09-03T12:01:39Z</time>
      </trkpt>
      <trkpt lat="46.46922" lon="5.63491">
        <ele>631.5</ele>
        <time>2019-09-03T12:01:43Z</time>
      </trkpt>
      <trkpt lat="46.46914" lon="5.63494">
        <ele>631.5</ele>
        <time>2019-09-03T12:01:54Z</time>
      </trkpt>
      <trkpt lat="46.46909" lon="5.63491">
        <ele>631.4</ele>
        <time>2019-09-03T12:02:01Z</time>
      </trkpt>
      <trkpt lat="46.46904" lon="5.63488">
        <ele>631.4</ele>
        <time>2019-09-03T12:02:07Z</time>
      </trkpt>
      <trkpt lat="46.469" lon="5.63487">
        <ele>631.7</ele>
        <time>2019-09-03T12:02:11Z</time>
      </trkpt>
      <trkpt lat="46.46895" lon="5.63484">
        <ele>631.9</ele>
        <time>2019-09-03T12:02:17Z</time>
      </trkpt>
      <trkpt lat="46.4689" lon="5.6348">
        <ele>631.9</ele>
        <time>2019-09-03T12:02:22Z</time>
      </trkpt>
      <trkpt lat="46.46886" lon="5.63475">
        <ele>631.7</ele>
        <time>2019-09-03T12:02:28Z</time>
      </trkpt>
      <trkpt lat="46.46882" lon="5.63471">
        <ele>631.2</ele>
        <time>2019-09-03T12:02:36Z</time>
      </trkpt>
      <trkpt lat="46.46877" lon="5.63471">
        <ele>630.9</ele>
        <time>2019-09-03T12:02:44Z</time>
      </trkpt>
      <trkpt lat="46.46872" lon="5.6347">
        <ele>630.5</ele>
        <time>2019-09-03T12:02:49Z</time>
      </trkpt>
      <trkpt lat="46.46868" lon="5.6347">
        <ele>629.9</ele>
        <time>2019-09-03T12:02:55Z</time>
      </trkpt>
      <trkpt lat="46.46857" lon="5.6346">
        <ele>631.3</ele>
        <time>2019-09-03T12:03:22Z</time>
      </trkpt>
      <trkpt lat="46.4685" lon="5.6346">
        <ele>631.6</ele>
        <time>2019-09-03T12:03:24Z</time>
      </trkpt>
      <trkpt lat="46.46845" lon="5.63459">
        <ele>632.1</ele>
        <time>2019-09-03T12:03:27Z</time>
      </trkpt>
      <trkpt lat="46.4684" lon="5.63458">
        <ele>632.9</ele>
        <time>2019-09-03T12:03:31Z</time>
      </trkpt>
      <trkpt lat="46.46836" lon="5.63452">
        <ele>633.6</ele>
        <time>2019-09-03T12:03:35Z</time>
      </trkpt>
      <trkpt lat="46.46833" lon="5.63446">
        <ele>634.2</ele>
        <time>2019-09-03T12:03:38Z</time>
      </trkpt>
      <trkpt lat="46.46832" lon="5.63439">
        <ele>635.3</ele>
        <time>2019-09-03T12:03:43Z</time>
      </trkpt>
      <trkpt lat="46.46834" lon="5.63432">
        <ele>636.8</ele>
        <time>2019-09-03T12:03:55Z</time>
      </trkpt>
      <trkpt lat="46.46837" lon="5.63427">
        <ele>636.8</ele>
        <time>2019-09-03T12:04:03Z</time>
      </trkpt>
      <trkpt lat="46.4684" lon="5.63421">
        <ele>636.7</ele>
        <time>2019-09-03T12:04:07Z</time>
      </trkpt>
      <trkpt lat="46.46843" lon="5.63415">
        <ele>636.2</ele>
        <time>2019-09-03T12:04:11Z</time>
      </trkpt>
      <trkpt lat="46.46846" lon="5.63409">
        <ele>635.5</ele>
        <time>2019-09-03T12:04:15Z</time>
      </trkpt>
      <trkpt lat="46.46849" lon="5.63403">
        <ele>634.9</ele>
        <time>2019-09-03T12:04:19Z</time>
      </trkpt>
      <trkpt lat="46.46853" lon="5.63398">
        <ele>634</ele>
        <time>2019-09-03T12:04:24Z</time>
      </trkpt>
      <trkpt lat="46.46857" lon="5.63394">
        <ele>633.1</ele>
        <time>2019-09-03T12:04:28Z</time>
      </trkpt>
      <trkpt lat="46.46859" lon="5.63388">
        <ele>632.3</ele>
        <time>2019-09-03T12:04:32Z</time>
      </trkpt>
      <trkpt lat="46.4686" lon="5.63381">
        <ele>631.4</ele>
        <time>2019-09-03T12:04:37Z</time>
      </trkpt>
      <trkpt lat="46.46861" lon="5.63373">
        <ele>630.6</ele>
        <time>2019-09-03T12:04:42Z</time>
      </trkpt>
      <trkpt lat="46.46863" lon="5.63367">
        <ele>629.7</ele>
        <time>2019-09-03T12:04:47Z</time>
      </trkpt>
      <trkpt lat="46.46863" lon="5.6336">
        <ele>628.5</ele>
        <time>2019-09-03T12:04:55Z</time>
      </trkpt>
      <trkpt lat="46.4686" lon="5.63355">
        <ele>628</ele>
        <time>2019-09-03T12:05:01Z</time>
      </trkpt>
      <trkpt lat="46.46855" lon="5.63352">
        <ele>628.1</ele>
        <time>2019-09-03T12:05:05Z</time>
      </trkpt>
      <trkpt lat="46.4685" lon="5.63349">
        <ele>628.4</ele>
        <time>2019-09-03T12:05:09Z</time>
      </trkpt>
      <trkpt lat="46.46845" lon="5.63347">
        <ele>628.6</ele>
        <time>2019-09-03T12:05:11Z</time>
      </trkpt>
      <trkpt lat="46.46841" lon="5.63344">
        <ele>628.8</ele>
        <time>2019-09-03T12:05:14Z</time>
      </trkpt>
      <trkpt lat="46.46836" lon="5.63342">
        <ele>629</ele>
        <time>2019-09-03T12:05:17Z</time>
      </trkpt>
      <trkpt lat="46.46832" lon="5.63339">
        <ele>629.2</ele>
        <time>2019-09-03T12:05:20Z</time>
      </trkpt>
      <trkpt lat="46.46827" lon="5.63339">
        <ele>629.6</ele>
        <time>2019-09-03T12:05:24Z</time>
      </trkpt>
      <trkpt lat="46.46823" lon="5.6334">
        <ele>630.2</ele>
        <time>2019-09-03T12:05:29Z</time>
      </trkpt>
      <trkpt lat="46.46817" lon="5.63342">
        <ele>630.7</ele>
        <time>2019-09-03T12:05:34Z</time>
      </trkpt>
      <trkpt lat="46.46813" lon="5.63344">
        <ele>631.1</ele>
        <time>2019-09-03T12:05:38Z</time>
      </trkpt>
      <trkpt lat="46.46808" lon="5.63342">
        <ele>631.4</ele>
        <time>2019-09-03T12:05:43Z</time>
      </trkpt>
      <trkpt lat="46.46803" lon="5.63339">
        <ele>631.7</ele>
        <time>2019-09-03T12:05:48Z</time>
      </trkpt>
      <trkpt lat="46.46798" lon="5.63337">
        <ele>631.9</ele>
        <time>2019-09-03T12:05:52Z</time>
      </trkpt>
      <trkpt lat="46.46793" lon="5.63334">
        <ele>632.2</ele>
        <time>2019-09-03T12:05:55Z</time>
      </trkpt>
      <trkpt lat="46.46789" lon="5.6333">
        <ele>632.5</ele>
        <time>2019-09-03T12:06:02Z</time>
      </trkpt>
      <trkpt lat="46.46786" lon="5.63326">
        <ele>632.6</ele>
        <time>2019-09-03T12:06:08Z</time>
      </trkpt>
      <trkpt lat="46.46783" lon="5.6332">
        <ele>632.7</ele>
        <time>2019-09-03T12:06:14Z</time>
      </trkpt>
      <trkpt lat="46.46781" lon="5.63314">
        <ele>632.6</ele>
        <time>2019-09-03T12:06:18Z</time>
      </trkpt>
      <trkpt lat="46.46778" lon="5.63307">
        <ele>632.7</ele>
        <time>2019-09-03T12:06:22Z</time>
      </trkpt>
      <trkpt lat="46.46774" lon="5.63302">
        <ele>632.9</ele>
        <time>2019-09-03T12:06:26Z</time>
      </trkpt>
      <trkpt lat="46.46771" lon="5.63296">
        <ele>633.3</ele>
        <time>2019-09-03T12:06:31Z</time>
      </trkpt>
      <trkpt lat="46.46768" lon="5.63292">
        <ele>633.9</ele>
        <time>2019-09-03T12:06:36Z</time>
      </trkpt>
      <trkpt lat="46.46764" lon="5.63289">
        <ele>634.5</ele>
        <time>2019-09-03T12:06:40Z</time>
      </trkpt>
      <trkpt lat="46.46759" lon="5.6329">
        <ele>635.2</ele>
        <time>2019-09-03T12:06:45Z</time>
      </trkpt>
      <trkpt lat="46.46754" lon="5.6329">
        <ele>635.4</ele>
        <time>2019-09-03T12:06:49Z</time>
      </trkpt>
      <trkpt lat="46.46749" lon="5.63291">
        <ele>635.4</ele>
        <time>2019-09-03T12:06:54Z</time>
      </trkpt>
      <trkpt lat="46.46744" lon="5.63292">
        <ele>635.4</ele>
        <time>2019-09-03T12:06:57Z</time>
      </trkpt>
      <trkpt lat="46.46739" lon="5.63291">
        <ele>635.2</ele>
        <time>2019-09-03T12:07:01Z</time>
      </trkpt>
      <trkpt lat="46.46734" lon="5.63292">
        <ele>634.8</ele>
        <time>2019-09-03T12:07:07Z</time>
      </trkpt>
      <trkpt lat="46.46728" lon="5.63293">
        <ele>634.4</ele>
        <time>2019-09-03T12:07:11Z</time>
      </trkpt>
      <trkpt lat="46.46723" lon="5.63291">
        <ele>633.9</ele>
        <time>2019-09-03T12:07:15Z</time>
      </trkpt>
      <trkpt lat="46.46718" lon="5.6329">
        <ele>633.4</ele>
        <time>2019-09-03T12:07:19Z</time>
      </trkpt>
      <trkpt lat="46.46713" lon="5.6329">
        <ele>632.7</ele>
        <time>2019-09-03T12:07:24Z</time>
      </trkpt>
      <trkpt lat="46.46709" lon="5.6329">
        <ele>632.2</ele>
        <time>2019-09-03T12:07:28Z</time>
      </trkpt>
      <trkpt lat="46.46704" lon="5.6329">
        <ele>631.4</ele>
        <time>2019-09-03T12:07:33Z</time>
      </trkpt>
      <trkpt lat="46.46699" lon="5.63293">
        <ele>630.4</ele>
        <time>2019-09-03T12:07:38Z</time>
      </trkpt>
      <trkpt lat="46.46694" lon="5.63295">
        <ele>629.4</ele>
        <time>2019-09-03T12:07:43Z</time>
      </trkpt>
      <trkpt lat="46.46689" lon="5.63295">
        <ele>628.6</ele>
        <time>2019-09-03T12:07:47Z</time>
      </trkpt>
      <trkpt lat="46.46685" lon="5.63297">
        <ele>627.8</ele>
        <time>2019-09-03T12:07:51Z</time>
      </trkpt>
      <trkpt lat="46.4668" lon="5.63299">
        <ele>626.5</ele>
        <time>2019-09-03T12:07:57Z</time>
      </trkpt>
      <trkpt lat="46.46675" lon="5.63302">
        <ele>625.7</ele>
        <time>2019-09-03T12:08:01Z</time>
      </trkpt>
      <trkpt lat="46.46671" lon="5.63305">
        <ele>624.7</ele>
        <time>2019-09-03T12:08:07Z</time>
      </trkpt>
      <trkpt lat="46.46666" lon="5.63307">
        <ele>623.9</ele>
        <time>2019-09-03T12:08:12Z</time>
      </trkpt>
      <trkpt lat="46.46662" lon="5.63307">
        <ele>623</ele>
        <time>2019-09-03T12:08:18Z</time>
      </trkpt>
      <trkpt lat="46.46651" lon="5.63312">
        <ele>620.6</ele>
        <time>2019-09-03T12:08:29Z</time>
      </trkpt>
      <trkpt lat="46.46647" lon="5.63314">
        <ele>620.1</ele>
        <time>2019-09-03T12:08:32Z</time>
      </trkpt>
      <trkpt lat="46.46633" lon="5.63318">
        <ele>615.9</ele>
        <time>2019-09-03T12:08:45Z</time>
      </trkpt>
      <trkpt lat="46.46628" lon="5.63318">
        <ele>615</ele>
        <time>2019-09-03T12:08:49Z</time>
      </trkpt>
      <trkpt lat="46.46624" lon="5.63318">
        <ele>613.8</ele>
        <time>2019-09-03T12:08:54Z</time>
      </trkpt>
      <trkpt lat="46.46619" lon="5.63319">
        <ele>612.2</ele>
        <time>2019-09-03T12:09:00Z</time>
      </trkpt>
      <trkpt lat="46.46606" lon="5.63321">
        <ele>608.4</ele>
        <time>2019-09-03T12:09:10Z</time>
      </trkpt>
      <trkpt lat="46.46602" lon="5.63325">
        <ele>607.9</ele>
        <time>2019-09-03T12:09:13Z</time>
      </trkpt>
      <trkpt lat="46.46597" lon="5.63326">
        <ele>607.1</ele>
        <time>2019-09-03T12:09:17Z</time>
      </trkpt>
      <trkpt lat="46.46591" lon="5.63328">
        <ele>606.3</ele>
        <time>2019-09-03T12:09:21Z</time>
      </trkpt>
      <trkpt lat="46.46586" lon="5.63331">
        <ele>605.4</ele>
        <time>2019-09-03T12:09:25Z</time>
      </trkpt>
      <trkpt lat="46.46582" lon="5.63333">
        <ele>604.5</ele>
        <time>2019-09-03T12:09:29Z</time>
      </trkpt>
      <trkpt lat="46.46577" lon="5.63334">
        <ele>603.4</ele>
        <time>2019-09-03T12:09:34Z</time>
      </trkpt>
      <trkpt lat="46.46572" lon="5.63333">
        <ele>602.7</ele>
        <time>2019-09-03T12:09:37Z</time>
      </trkpt>
      <trkpt lat="46.46568" lon="5.63335">
        <ele>601.7</ele>
        <time>2019-09-03T12:09:41Z</time>
      </trkpt>
      <trkpt lat="46.46563" lon="5.63333">
        <ele>600.2</ele>
        <time>2019-09-03T12:09:47Z</time>
      </trkpt>
      <trkpt lat="46.46559" lon="5.63329">
        <ele>599</ele>
        <time>2019-09-03T12:09:53Z</time>
      </trkpt>
      <trkpt lat="46.46555" lon="5.63327">
        <ele>598.4</ele>
        <time>2019-09-03T12:09:57Z</time>
      </trkpt>
      <trkpt lat="46.46547" lon="5.63319">
        <ele>608.4</ele>
        <time>2019-09-03T12:11:21Z</time>
      </trkpt>
      <trkpt lat="46.46543" lon="5.63316">
        <ele>609.5</ele>
        <time>2019-09-03T12:11:24Z</time>
      </trkpt>
      <trkpt lat="46.46538" lon="5.63313">
        <ele>610.3</ele>
        <time>2019-09-03T12:11:26Z</time>
      </trkpt>
      <trkpt lat="46.46524" lon="5.63307">
        <ele>616</ele>
        <time>2019-09-03T12:11:37Z</time>
      </trkpt>
      <trkpt lat="46.46518" lon="5.63305">
        <ele>616.5</ele>
        <time>2019-09-03T12:11:39Z</time>
      </trkpt>
      <trkpt lat="46.46513" lon="5.63303">
        <ele>617.1</ele>
        <time>2019-09-03T12:11:42Z</time>
      </trkpt>
      <trkpt lat="46.46506" lon="5.63299">
        <ele>617.8</ele>
        <time>2019-09-03T12:11:45Z</time>
      </trkpt>
      <trkpt lat="46.46502" lon="5.63295">
        <ele>618.4</ele>
        <time>2019-09-03T12:11:48Z</time>
      </trkpt>
      <trkpt lat="46.46496" lon="5.63294">
        <ele>618.9</ele>
        <time>2019-09-03T12:11:51Z</time>
      </trkpt>
      <trkpt lat="46.46492" lon="5.6329">
        <ele>620</ele>
        <time>2019-09-03T12:11:56Z</time>
      </trkpt>
      <trkpt lat="46.46488" lon="5.63287">
        <ele>620.7</ele>
        <time>2019-09-03T12:12:00Z</time>
      </trkpt>
      <trkpt lat="46.46483" lon="5.63284">
        <ele>621.5</ele>
        <time>2019-09-03T12:12:04Z</time>
      </trkpt>
      <trkpt lat="46.4648" lon="5.63274">
        <ele>621.9</ele>
        <time>2019-09-03T12:12:17Z</time>
      </trkpt>
      <trkpt lat="46.4648" lon="5.63267">
        <ele>620.9</ele>
        <time>2019-09-03T12:12:33Z</time>
      </trkpt>
      <trkpt lat="46.46486" lon="5.63256">
        <ele>618</ele>
        <time>2019-09-03T12:13:39Z</time>
      </trkpt>
      <trkpt lat="46.46492" lon="5.63252">
        <ele>617.2</ele>
        <time>2019-09-03T12:13:43Z</time>
      </trkpt>
      <trkpt lat="46.46495" lon="5.63248">
        <ele>616.4</ele>
        <time>2019-09-03T12:13:47Z</time>
      </trkpt>
      <trkpt lat="46.465" lon="5.63247">
        <ele>615.5</ele>
        <time>2019-09-03T12:13:51Z</time>
      </trkpt>
      <trkpt lat="46.46505" lon="5.63246">
        <ele>613.3</ele>
        <time>2019-09-03T12:14:00Z</time>
      </trkpt>
      <trkpt lat="46.4651" lon="5.63246">
        <ele>610.4</ele>
        <time>2019-09-03T12:14:25Z</time>
      </trkpt>
      <trkpt lat="46.46514" lon="5.63245">
        <ele>609.5</ele>
        <time>2019-09-03T12:14:45Z</time>
      </trkpt>
      <trkpt lat="46.46519" lon="5.63241">
        <ele>608.1</ele>
        <time>2019-09-03T12:14:51Z</time>
      </trkpt>
      <trkpt lat="46.46523" lon="5.63239">
        <ele>606.6</ele>
        <time>2019-09-03T12:14:57Z</time>
      </trkpt>
      <trkpt lat="46.46527" lon="5.63235">
        <ele>605.5</ele>
        <time>2019-09-03T12:15:05Z</time>
      </trkpt>
      <trkpt lat="46.4653" lon="5.6323">
        <ele>605.3</ele>
        <time>2019-09-03T12:15:10Z</time>
      </trkpt>
      <trkpt lat="46.46534" lon="5.63227">
        <ele>604.6</ele>
        <time>2019-09-03T12:15:19Z</time>
      </trkpt>
      <trkpt lat="46.46532" lon="5.63221">
        <ele>603.5</ele>
        <time>2019-09-03T12:15:37Z</time>
      </trkpt>
      <trkpt lat="46.46527" lon="5.6322">
        <ele>603.9</ele>
        <time>2019-09-03T12:15:43Z</time>
      </trkpt>
      <trkpt lat="46.46523" lon="5.63222">
        <ele>604.7</ele>
        <time>2019-09-03T12:15:48Z</time>
      </trkpt>
      <trkpt lat="46.46517" lon="5.63221">
        <ele>605.5</ele>
        <time>2019-09-03T12:15:54Z</time>
      </trkpt>
      <trkpt lat="46.46514" lon="5.63217">
        <ele>605.6</ele>
        <time>2019-09-03T12:16:02Z</time>
      </trkpt>
      <trkpt lat="46.46514" lon="5.6321">
        <ele>601.1</ele>
        <time>2019-09-03T12:16:34Z</time>
      </trkpt>
      <trkpt lat="46.46519" lon="5.63208">
        <ele>600.8</ele>
        <time>2019-09-03T12:16:39Z</time>
      </trkpt>
      <trkpt lat="46.46524" lon="5.63206">
        <ele>600.2</ele>
        <time>2019-09-03T12:16:43Z</time>
      </trkpt>
      <trkpt lat="46.46528" lon="5.63202">
        <ele>599.5</ele>
        <time>2019-09-03T12:16:46Z</time>
      </trkpt>
      <trkpt lat="46.46532" lon="5.63198">
        <ele>598.1</ele>
        <time>2019-09-03T12:16:51Z</time>
      </trkpt>
      <trkpt lat="46.46536" lon="5.63196">
        <ele>595</ele>
        <time>2019-09-03T12:17:04Z</time>
      </trkpt>
      <trkpt lat="46.46542" lon="5.63195">
        <ele>593.4</ele>
        <time>2019-09-03T12:17:08Z</time>
      </trkpt>
      <trkpt lat="46.46545" lon="5.63191">
        <ele>588.6</ele>
        <time>2019-09-03T12:17:33Z</time>
      </trkpt>
      <trkpt lat="46.46548" lon="5.63184">
        <ele>588.5</ele>
        <time>2019-09-03T12:19:12Z</time>
      </trkpt>
      <trkpt lat="46.46545" lon="5.63174">
        <ele>596.1</ele>
        <time>2019-09-03T12:22:58Z</time>
      </trkpt>
      <trkpt lat="46.46541" lon="5.63169">
        <ele>596.1</ele>
        <time>2019-09-03T12:23:02Z</time>
      </trkpt>
      <trkpt lat="46.46536" lon="5.63167">
        <ele>596</ele>
        <time>2019-09-03T12:23:06Z</time>
      </trkpt>
      <trkpt lat="46.46532" lon="5.63163">
        <ele>595.5</ele>
        <time>2019-09-03T12:23:11Z</time>
      </trkpt>
      <trkpt lat="46.46529" lon="5.63157">
        <ele>594</ele>
        <time>2019-09-03T12:23:17Z</time>
      </trkpt>
      <trkpt lat="46.46528" lon="5.6315">
        <ele>592.7</ele>
        <time>2019-09-03T12:23:26Z</time>
      </trkpt>
      <trkpt lat="46.46525" lon="5.63145">
        <ele>592.9</ele>
        <time>2019-09-03T12:23:31Z</time>
      </trkpt>
      <trkpt lat="46.46522" lon="5.6314">
        <ele>593.6</ele>
        <time>2019-09-03T12:23:37Z</time>
      </trkpt>
      <trkpt lat="46.46517" lon="5.63138">
        <ele>594.5</ele>
        <time>2019-09-03T12:23:43Z</time>
      </trkpt>
      <trkpt lat="46.46512" lon="5.63136">
        <ele>595</ele>
        <time>2019-09-03T12:23:47Z</time>
      </trkpt>
      <trkpt lat="46.46508" lon="5.63133">
        <ele>595.5</ele>
        <time>2019-09-03T12:23:51Z</time>
      </trkpt>
      <trkpt lat="46.46504" lon="5.63128">
        <ele>596.3</ele>
        <time>2019-09-03T12:23:56Z</time>
      </trkpt>
      <trkpt lat="46.465" lon="5.63123">
        <ele>596.8</ele>
        <time>2019-09-03T12:24:01Z</time>
      </trkpt>
      <trkpt lat="46.46495" lon="5.6312">
        <ele>597.2</ele>
        <time>2019-09-03T12:24:06Z</time>
      </trkpt>
      <trkpt lat="46.46494" lon="5.63113">
        <ele>597.3</ele>
        <time>2019-09-03T12:24:23Z</time>
      </trkpt>
      <trkpt lat="46.46494" lon="5.63107">
        <ele>596.6</ele>
        <time>2019-09-03T12:24:30Z</time>
      </trkpt>
      <trkpt lat="46.4649" lon="5.63105">
        <ele>593.5</ele>
        <time>2019-09-03T12:24:47Z</time>
      </trkpt>
      <trkpt lat="46.46485" lon="5.631">
        <ele>591.9</ele>
        <time>2019-09-03T12:25:39Z</time>
      </trkpt>
      <trkpt lat="46.4648" lon="5.63097">
        <ele>592.5</ele>
        <time>2019-09-03T12:25:44Z</time>
      </trkpt>
      <trkpt lat="46.46475" lon="5.63094">
        <ele>592.9</ele>
        <time>2019-09-03T12:25:48Z</time>
      </trkpt>
      <trkpt lat="46.4647" lon="5.63091">
        <ele>593.4</ele>
        <time>2019-09-03T12:25:52Z</time>
      </trkpt>
      <trkpt lat="46.46466" lon="5.63087">
        <ele>594</ele>
        <time>2019-09-03T12:25:59Z</time>
      </trkpt>
      <trkpt lat="46.46462" lon="5.63084">
        <ele>594.5</ele>
        <time>2019-09-03T12:26:05Z</time>
      </trkpt>
      <trkpt lat="46.46459" lon="5.63078">
        <ele>594.8</ele>
        <time>2019-09-03T12:26:11Z</time>
      </trkpt>
      <trkpt lat="46.46455" lon="5.63073">
        <ele>594.9</ele>
        <time>2019-09-03T12:26:16Z</time>
      </trkpt>
      <trkpt lat="46.46453" lon="5.63068">
        <ele>595.1</ele>
        <time>2019-09-03T12:26:21Z</time>
      </trkpt>
      <trkpt lat="46.4645" lon="5.63062">
        <ele>595.6</ele>
        <time>2019-09-03T12:26:25Z</time>
      </trkpt>
      <trkpt lat="46.46447" lon="5.63056">
        <ele>596.2</ele>
        <time>2019-09-03T12:26:29Z</time>
      </trkpt>
      <trkpt lat="46.46444" lon="5.6305">
        <ele>597.2</ele>
        <time>2019-09-03T12:26:35Z</time>
      </trkpt>
      <trkpt lat="46.46442" lon="5.63043">
        <ele>598.7</ele>
        <time>2019-09-03T12:26:44Z</time>
      </trkpt>
      <trkpt lat="46.46443" lon="5.63036">
        <ele>599.7</ele>
        <time>2019-09-03T12:26:50Z</time>
      </trkpt>
      <trkpt lat="46.46446" lon="5.63029">
        <ele>600.2</ele>
        <time>2019-09-03T12:26:54Z</time>
      </trkpt>
      <trkpt lat="46.46449" lon="5.63024">
        <ele>600.3</ele>
        <time>2019-09-03T12:26:57Z</time>
      </trkpt>
      <trkpt lat="46.46452" lon="5.63019">
        <ele>600.4</ele>
        <time>2019-09-03T12:27:01Z</time>
      </trkpt>
      <trkpt lat="46.46455" lon="5.63013">
        <ele>599.9</ele>
        <time>2019-09-03T12:27:07Z</time>
      </trkpt>
      <trkpt lat="46.46456" lon="5.63006">
        <ele>599.4</ele>
        <time>2019-09-03T12:27:11Z</time>
      </trkpt>
      <trkpt lat="46.46459" lon="5.63001">
        <ele>598.1</ele>
        <time>2019-09-03T12:27:21Z</time>
      </trkpt>
      <trkpt lat="46.46461" lon="5.62993">
        <ele>597.2</ele>
        <time>2019-09-03T12:27:27Z</time>
      </trkpt>
      <trkpt lat="46.46463" lon="5.62987">
        <ele>596.6</ele>
        <time>2019-09-03T12:27:31Z</time>
      </trkpt>
      <trkpt lat="46.46465" lon="5.6298">
        <ele>595.8</ele>
        <time>2019-09-03T12:27:37Z</time>
      </trkpt>
      <trkpt lat="46.46466" lon="5.62974">
        <ele>595.1</ele>
        <time>2019-09-03T12:27:42Z</time>
      </trkpt>
      <trkpt lat="46.46469" lon="5.62969">
        <ele>594.4</ele>
        <time>2019-09-03T12:27:46Z</time>
      </trkpt>
      <trkpt lat="46.46473" lon="5.62966">
        <ele>593.9</ele>
        <time>2019-09-03T12:27:50Z</time>
      </trkpt>
      <trkpt lat="46.46476" lon="5.6296">
        <ele>593.2</ele>
        <time>2019-09-03T12:27:55Z</time>
      </trkpt>
      <trkpt lat="46.46484" lon="5.62942">
        <ele>594.2</ele>
        <time>2019-09-03T12:28:09Z</time>
      </trkpt>
      <trkpt lat="46.46486" lon="5.62936">
        <ele>594.7</ele>
        <time>2019-09-03T12:28:13Z</time>
      </trkpt>
      <trkpt lat="46.4649" lon="5.62932">
        <ele>595.8</ele>
        <time>2019-09-03T12:28:21Z</time>
      </trkpt>
      <trkpt lat="46.46494" lon="5.62926">
        <ele>596.2</ele>
        <time>2019-09-03T12:28:29Z</time>
      </trkpt>
      <trkpt lat="46.46496" lon="5.6292">
        <ele>596.1</ele>
        <time>2019-09-03T12:28:34Z</time>
      </trkpt>
      <trkpt lat="46.465" lon="5.62915">
        <ele>596.2</ele>
        <time>2019-09-03T12:28:40Z</time>
      </trkpt>
      <trkpt lat="46.46503" lon="5.62909">
        <ele>596.7</ele>
        <time>2019-09-03T12:28:47Z</time>
      </trkpt>
      <trkpt lat="46.46506" lon="5.62905">
        <ele>597.2</ele>
        <time>2019-09-03T12:28:53Z</time>
      </trkpt>
      <trkpt lat="46.4651" lon="5.62901">
        <ele>597.2</ele>
        <time>2019-09-03T12:28:58Z</time>
      </trkpt>
      <trkpt lat="46.46514" lon="5.62894">
        <ele>596.9</ele>
        <time>2019-09-03T12:29:01Z</time>
      </trkpt>
      <trkpt lat="46.46518" lon="5.62889">
        <ele>596.2</ele>
        <time>2019-09-03T12:29:05Z</time>
      </trkpt>
      <trkpt lat="46.46522" lon="5.62884">
        <ele>595.3</ele>
        <time>2019-09-03T12:29:10Z</time>
      </trkpt>
      <trkpt lat="46.46525" lon="5.62879">
        <ele>594.3</ele>
        <time>2019-09-03T12:29:16Z</time>
      </trkpt>
      <trkpt lat="46.46528" lon="5.62873">
        <ele>592.8</ele>
        <time>2019-09-03T12:29:24Z</time>
      </trkpt>
      <trkpt lat="46.46528" lon="5.62866">
        <ele>590.8</ele>
        <time>2019-09-03T12:29:34Z</time>
      </trkpt>
      <trkpt lat="46.46528" lon="5.62858">
        <ele>589.7</ele>
        <time>2019-09-03T12:29:39Z</time>
      </trkpt>
      <trkpt lat="46.46526" lon="5.62849">
        <ele>589.5</ele>
        <time>2019-09-03T12:29:42Z</time>
      </trkpt>
      <trkpt lat="46.46524" lon="5.62843">
        <ele>589.7</ele>
        <time>2019-09-03T12:29:44Z</time>
      </trkpt>
      <trkpt lat="46.46523" lon="5.62835">
        <ele>590.4</ele>
        <time>2019-09-03T12:29:47Z</time>
      </trkpt>
      <trkpt lat="46.46521" lon="5.62828">
        <ele>591.6</ele>
        <time>2019-09-03T12:29:50Z</time>
      </trkpt>
      <trkpt lat="46.46517" lon="5.62821">
        <ele>593.6</ele>
        <time>2019-09-03T12:29:54Z</time>
      </trkpt>
      <trkpt lat="46.46516" lon="5.62813">
        <ele>595</ele>
        <time>2019-09-03T12:29:57Z</time>
      </trkpt>
      <trkpt lat="46.46517" lon="5.62806">
        <ele>596.4</ele>
        <time>2019-09-03T12:30:01Z</time>
      </trkpt>
      <trkpt lat="46.4652" lon="5.628">
        <ele>597.9</ele>
        <time>2019-09-03T12:30:09Z</time>
      </trkpt>
      <trkpt lat="46.46522" lon="5.62794">
        <ele>598</ele>
        <time>2019-09-03T12:30:15Z</time>
      </trkpt>
      <trkpt lat="46.46526" lon="5.6279">
        <ele>597</ele>
        <time>2019-09-03T12:30:25Z</time>
      </trkpt>
      <trkpt lat="46.4653" lon="5.62784">
        <ele>595.8</ele>
        <time>2019-09-03T12:30:31Z</time>
      </trkpt>
      <trkpt lat="46.46533" lon="5.62779">
        <ele>594.4</ele>
        <time>2019-09-03T12:30:37Z</time>
      </trkpt>
      <trkpt lat="46.46537" lon="5.62774">
        <ele>593</ele>
        <time>2019-09-03T12:30:44Z</time>
      </trkpt>
      <trkpt lat="46.46541" lon="5.6277">
        <ele>592</ele>
        <time>2019-09-03T12:30:49Z</time>
      </trkpt>
      <trkpt lat="46.46544" lon="5.62764">
        <ele>591.2</ele>
        <time>2019-09-03T12:30:55Z</time>
      </trkpt>
      <trkpt lat="46.46546" lon="5.62757">
        <ele>590.6</ele>
        <time>2019-09-03T12:30:59Z</time>
      </trkpt>
      <trkpt lat="46.46549" lon="5.62749">
        <ele>590</ele>
        <time>2019-09-03T12:31:03Z</time>
      </trkpt>
      <trkpt lat="46.46551" lon="5.62743">
        <ele>589.5</ele>
        <time>2019-09-03T12:31:06Z</time>
      </trkpt>
      <trkpt lat="46.46552" lon="5.62735">
        <ele>588.6</ele>
        <time>2019-09-03T12:31:10Z</time>
      </trkpt>
      <trkpt lat="46.46555" lon="5.62729">
        <ele>587.2</ele>
        <time>2019-09-03T12:31:17Z</time>
      </trkpt>
      <trkpt lat="46.46556" lon="5.62722">
        <ele>586.8</ele>
        <time>2019-09-03T12:31:20Z</time>
      </trkpt>
      <trkpt lat="46.46557" lon="5.62716">
        <ele>586.4</ele>
        <time>2019-09-03T12:31:28Z</time>
      </trkpt>
      <trkpt lat="46.46558" lon="5.62707">
        <ele>586.6</ele>
        <time>2019-09-03T12:31:32Z</time>
      </trkpt>
      <trkpt lat="46.46558" lon="5.62699">
        <ele>586.9</ele>
        <time>2019-09-03T12:31:35Z</time>
      </trkpt>
      <trkpt lat="46.46559" lon="5.62689">
        <ele>587.3</ele>
        <time>2019-09-03T12:31:39Z</time>
      </trkpt>
      <trkpt lat="46.4656" lon="5.62681">
        <ele>587.6</ele>
        <time>2019-09-03T12:31:42Z</time>
      </trkpt>
      <trkpt lat="46.46561" lon="5.62674">
        <ele>588.2</ele>
        <time>2019-09-03T12:31:47Z</time>
      </trkpt>
      <trkpt lat="46.46562" lon="5.62666">
        <ele>588.8</ele>
        <time>2019-09-03T12:31:52Z</time>
      </trkpt>
      <trkpt lat="46.46565" lon="5.6266">
        <ele>589.2</ele>
        <time>2019-09-03T12:31:57Z</time>
      </trkpt>
      <trkpt lat="46.46565" lon="5.62654">
        <ele>587.2</ele>
        <time>2019-09-03T12:32:22Z</time>
      </trkpt>
      <trkpt lat="46.46561" lon="5.62649">
        <ele>585.9</ele>
        <time>2019-09-03T12:32:28Z</time>
      </trkpt>
      <trkpt lat="46.46557" lon="5.62643">
        <ele>584.8</ele>
        <time>2019-09-03T12:32:33Z</time>
      </trkpt>
      <trkpt lat="46.46553" lon="5.62638">
        <ele>584.6</ele>
        <time>2019-09-03T12:32:35Z</time>
      </trkpt>
      <trkpt lat="46.46549" lon="5.62632">
        <ele>584.5</ele>
        <time>2019-09-03T12:32:37Z</time>
      </trkpt>
      <trkpt lat="46.46546" lon="5.62626">
        <ele>584.6</ele>
        <time>2019-09-03T12:32:39Z</time>
      </trkpt>
      <trkpt lat="46.46543" lon="5.62619">
        <ele>585</ele>
        <time>2019-09-03T12:32:42Z</time>
      </trkpt>
      <trkpt lat="46.46541" lon="5.6261">
        <ele>585.5</ele>
        <time>2019-09-03T12:32:45Z</time>
      </trkpt>
      <trkpt lat="46.4654" lon="5.62603">
        <ele>586</ele>
        <time>2019-09-03T12:32:48Z</time>
      </trkpt>
      <trkpt lat="46.46536" lon="5.62596">
        <ele>587</ele>
        <time>2019-09-03T12:32:54Z</time>
      </trkpt>
      <trkpt lat="46.46532" lon="5.62592">
        <ele>587.4</ele>
        <time>2019-09-03T12:32:58Z</time>
      </trkpt>
      <trkpt lat="46.46536" lon="5.62588">
        <ele>588.2</ele>
        <time>2019-09-03T12:33:10Z</time>
      </trkpt>
      <trkpt lat="46.4654" lon="5.62584">
        <ele>588.8</ele>
        <time>2019-09-03T12:33:16Z</time>
      </trkpt>
      <trkpt lat="46.46544" lon="5.6258">
        <ele>589.5</ele>
        <time>2019-09-03T12:33:23Z</time>
      </trkpt>
      <trkpt lat="46.46549" lon="5.62578">
        <ele>589.9</ele>
        <time>2019-09-03T12:33:30Z</time>
      </trkpt>
      <trkpt lat="46.46553" lon="5.62582">
        <ele>587.6</ele>
        <time>2019-09-03T12:33:46Z</time>
      </trkpt>
      <trkpt lat="46.46556" lon="5.62576">
        <ele>585</ele>
        <time>2019-09-03T12:33:56Z</time>
      </trkpt>
      <trkpt lat="46.46558" lon="5.6257">
        <ele>583.5</ele>
        <time>2019-09-03T12:34:03Z</time>
      </trkpt>
      <trkpt lat="46.4656" lon="5.62564">
        <ele>582.3</ele>
        <time>2019-09-03T12:34:10Z</time>
      </trkpt>
      <trkpt lat="46.46561" lon="5.62556">
        <ele>581.6</ele>
        <time>2019-09-03T12:34:15Z</time>
      </trkpt>
      <trkpt lat="46.46559" lon="5.62549">
        <ele>581.3</ele>
        <time>2019-09-03T12:34:18Z</time>
      </trkpt>
      <trkpt lat="46.46558" lon="5.62541">
        <ele>581.3</ele>
        <time>2019-09-03T12:34:21Z</time>
      </trkpt>
      <trkpt lat="46.46558" lon="5.62533">
        <ele>581.5</ele>
        <time>2019-09-03T12:34:24Z</time>
      </trkpt>
      <trkpt lat="46.46558" lon="5.62526">
        <ele>581.7</ele>
        <time>2019-09-03T12:34:26Z</time>
      </trkpt>
      <trkpt lat="46.46558" lon="5.62519">
        <ele>582.1</ele>
        <time>2019-09-03T12:34:29Z</time>
      </trkpt>
      <trkpt lat="46.46561" lon="5.62513">
        <ele>583.4</ele>
        <time>2019-09-03T12:34:39Z</time>
      </trkpt>
      <trkpt lat="46.46564" lon="5.62508">
        <ele>583.8</ele>
        <time>2019-09-03T12:34:49Z</time>
      </trkpt>
      <trkpt lat="46.46568" lon="5.62505">
        <ele>584.2</ele>
        <time>2019-09-03T12:34:55Z</time>
      </trkpt>
      <trkpt lat="46.46571" lon="5.62498">
        <ele>584.8</ele>
        <time>2019-09-03T12:35:01Z</time>
      </trkpt>
      <trkpt lat="46.46576" lon="5.62485">
        <ele>586.1</ele>
        <time>2019-09-03T12:35:13Z</time>
      </trkpt>
      <trkpt lat="46.46578" lon="5.62478">
        <ele>586.8</ele>
        <time>2019-09-03T12:35:19Z</time>
      </trkpt>
      <trkpt lat="46.4658" lon="5.62471">
        <ele>587.5</ele>
        <time>2019-09-03T12:35:24Z</time>
      </trkpt>
      <trkpt lat="46.46584" lon="5.62468">
        <ele>587.8</ele>
        <time>2019-09-03T12:35:29Z</time>
      </trkpt>
      <trkpt lat="46.4659" lon="5.62466">
        <ele>587.7</ele>
        <time>2019-09-03T12:35:32Z</time>
      </trkpt>
      <trkpt lat="46.46595" lon="5.62463">
        <ele>587.4</ele>
        <time>2019-09-03T12:35:36Z</time>
      </trkpt>
      <trkpt lat="46.466" lon="5.6246">
        <ele>586.9</ele>
        <time>2019-09-03T12:35:40Z</time>
      </trkpt>
      <trkpt lat="46.46605" lon="5.62459">
        <ele>586.2</ele>
        <time>2019-09-03T12:35:44Z</time>
      </trkpt>
      <trkpt lat="46.46611" lon="5.6246">
        <ele>585.2</ele>
        <time>2019-09-03T12:35:50Z</time>
      </trkpt>
      <trkpt lat="46.46615" lon="5.62462">
        <ele>584</ele>
        <time>2019-09-03T12:35:56Z</time>
      </trkpt>
      <trkpt lat="46.4662" lon="5.62464">
        <ele>582.9</ele>
        <time>2019-09-03T12:36:01Z</time>
      </trkpt>
      <trkpt lat="46.46625" lon="5.62468">
        <ele>581.9</ele>
        <time>2019-09-03T12:36:06Z</time>
      </trkpt>
      <trkpt lat="46.4663" lon="5.6247">
        <ele>581.3</ele>
        <time>2019-09-03T12:36:10Z</time>
      </trkpt>
      <trkpt lat="46.46634" lon="5.62473">
        <ele>580.9</ele>
        <time>2019-09-03T12:36:16Z</time>
      </trkpt>
      <trkpt lat="46.4664" lon="5.62473">
        <ele>580.9</ele>
        <time>2019-09-03T12:36:22Z</time>
      </trkpt>
      <trkpt lat="46.46645" lon="5.62473">
        <ele>581.4</ele>
        <time>2019-09-03T12:36:28Z</time>
      </trkpt>
      <trkpt lat="46.46649" lon="5.62474">
        <ele>582.3</ele>
        <time>2019-09-03T12:36:34Z</time>
      </trkpt>
      <trkpt lat="46.46654" lon="5.62475">
        <ele>583.7</ele>
        <time>2019-09-03T12:36:42Z</time>
      </trkpt>
      <trkpt lat="46.46659" lon="5.62476">
        <ele>584.9</ele>
        <time>2019-09-03T12:36:47Z</time>
      </trkpt>
      <trkpt lat="46.46663" lon="5.62473">
        <ele>585.6</ele>
        <time>2019-09-03T12:36:51Z</time>
      </trkpt>
      <trkpt lat="46.46668" lon="5.62471">
        <ele>586.1</ele>
        <time>2019-09-03T12:36:55Z</time>
      </trkpt>
      <trkpt lat="46.46673" lon="5.62471">
        <ele>586.3</ele>
        <time>2019-09-03T12:36:58Z</time>
      </trkpt>
      <trkpt lat="46.46678" lon="5.62472">
        <ele>586.2</ele>
        <time>2019-09-03T12:37:02Z</time>
      </trkpt>
      <trkpt lat="46.46683" lon="5.62472">
        <ele>586.2</ele>
        <time>2019-09-03T12:37:05Z</time>
      </trkpt>
      <trkpt lat="46.46688" lon="5.62473">
        <ele>586.2</ele>
        <time>2019-09-03T12:37:08Z</time>
      </trkpt>
      <trkpt lat="46.46693" lon="5.62474">
        <ele>586.3</ele>
        <time>2019-09-03T12:37:12Z</time>
      </trkpt>
      <trkpt lat="46.46698" lon="5.62475">
        <ele>586.6</ele>
        <time>2019-09-03T12:37:18Z</time>
      </trkpt>
      <trkpt lat="46.46703" lon="5.62476">
        <ele>586.8</ele>
        <time>2019-09-03T12:37:24Z</time>
      </trkpt>
      <trkpt lat="46.46708" lon="5.62477">
        <ele>586.6</ele>
        <time>2019-09-03T12:37:29Z</time>
      </trkpt>
      <trkpt lat="46.46712" lon="5.62478">
        <ele>586.4</ele>
        <time>2019-09-03T12:37:33Z</time>
      </trkpt>
      <trkpt lat="46.46717" lon="5.62479">
        <ele>585.9</ele>
        <time>2019-09-03T12:37:39Z</time>
      </trkpt>
      <trkpt lat="46.46722" lon="5.6248">
        <ele>585.5</ele>
        <time>2019-09-03T12:37:43Z</time>
      </trkpt>
      <trkpt lat="46.46728" lon="5.62482">
        <ele>585.2</ele>
        <time>2019-09-03T12:37:47Z</time>
      </trkpt>
      <trkpt lat="46.46733" lon="5.62483">
        <ele>584.8</ele>
        <time>2019-09-03T12:37:52Z</time>
      </trkpt>
      <trkpt lat="46.46738" lon="5.62484">
        <ele>584.5</ele>
        <time>2019-09-03T12:37:56Z</time>
      </trkpt>
      <trkpt lat="46.46743" lon="5.62484">
        <ele>584.2</ele>
        <time>2019-09-03T12:38:00Z</time>
      </trkpt>
      <trkpt lat="46.46748" lon="5.62484">
        <ele>584.3</ele>
        <time>2019-09-03T12:38:05Z</time>
      </trkpt>
      <trkpt lat="46.46748" lon="5.62491">
        <ele>585.2</ele>
        <time>2019-09-03T12:38:20Z</time>
      </trkpt>
      <trkpt lat="46.46753" lon="5.62492">
        <ele>585.5</ele>
        <time>2019-09-03T12:38:27Z</time>
      </trkpt>
      <trkpt lat="46.46753" lon="5.6249">
        <ele>584.7</ele>
        <time>2019-09-03T12:38:50Z</time>
      </trkpt>
      <trkpt lat="46.46758" lon="5.62492">
        <ele>583.6</ele>
        <time>2019-09-03T12:38:55Z</time>
      </trkpt>
      <trkpt lat="46.46757" lon="5.62485">
        <ele>582.7</ele>
        <time>2019-09-03T12:39:06Z</time>
      </trkpt>
      <trkpt lat="46.46762" lon="5.62484">
        <ele>583.1</ele>
        <time>2019-09-03T12:39:14Z</time>
      </trkpt>
      <trkpt lat="46.46767" lon="5.62485">
        <ele>583.4</ele>
        <time>2019-09-03T12:39:18Z</time>
      </trkpt>
      <trkpt lat="46.46771" lon="5.62487">
        <ele>583.2</ele>
        <time>2019-09-03T12:39:27Z</time>
      </trkpt>
      <trkpt lat="46.46776" lon="5.62488">
        <ele>581.4</ele>
        <time>2019-09-03T12:39:37Z</time>
      </trkpt>
      <trkpt lat="46.46781" lon="5.62486">
        <ele>580.6</ele>
        <time>2019-09-03T12:39:42Z</time>
      </trkpt>
      <trkpt lat="46.46786" lon="5.62484">
        <ele>580.2</ele>
        <time>2019-09-03T12:39:47Z</time>
      </trkpt>
      <trkpt lat="46.46792" lon="5.62483">
        <ele>580.3</ele>
        <time>2019-09-03T12:39:52Z</time>
      </trkpt>
      <trkpt lat="46.46797" lon="5.62483">
        <ele>580.3</ele>
        <time>2019-09-03T12:39:56Z</time>
      </trkpt>
      <trkpt lat="46.46803" lon="5.62483">
        <ele>580.3</ele>
        <time>2019-09-03T12:40:00Z</time>
      </trkpt>
      <trkpt lat="46.46808" lon="5.62484">
        <ele>580.4</ele>
        <time>2019-09-03T12:40:03Z</time>
      </trkpt>
      <trkpt lat="46.46813" lon="5.62484">
        <ele>580.4</ele>
        <time>2019-09-03T12:40:07Z</time>
      </trkpt>
      <trkpt lat="46.46818" lon="5.62485">
        <ele>580.4</ele>
        <time>2019-09-03T12:40:12Z</time>
      </trkpt>
      <trkpt lat="46.46823" lon="5.62486">
        <ele>580.3</ele>
        <time>2019-09-03T12:40:15Z</time>
      </trkpt>
      <trkpt lat="46.46828" lon="5.62488">
        <ele>580.2</ele>
        <time>2019-09-03T12:40:18Z</time>
      </trkpt>
      <trkpt lat="46.46833" lon="5.62489">
        <ele>580</ele>
        <time>2019-09-03T12:40:22Z</time>
      </trkpt>
      <trkpt lat="46.46839" lon="5.62491">
        <ele>579.5</ele>
        <time>2019-09-03T12:40:27Z</time>
      </trkpt>
      <trkpt lat="46.46844" lon="5.62493">
        <ele>579.1</ele>
        <time>2019-09-03T12:40:32Z</time>
      </trkpt>
      <trkpt lat="46.46849" lon="5.62493">
        <ele>578.5</ele>
        <time>2019-09-03T12:40:38Z</time>
      </trkpt>
      <trkpt lat="46.46854" lon="5.62493">
        <ele>577.8</ele>
        <time>2019-09-03T12:40:43Z</time>
      </trkpt>
      <trkpt lat="46.46858" lon="5.62494">
        <ele>577.4</ele>
        <time>2019-09-03T12:40:47Z</time>
      </trkpt>
      <trkpt lat="46.46863" lon="5.62496">
        <ele>576.6</ele>
        <time>2019-09-03T12:40:52Z</time>
      </trkpt>
      <trkpt lat="46.46868" lon="5.62498">
        <ele>575.8</ele>
        <time>2019-09-03T12:40:57Z</time>
      </trkpt>
      <trkpt lat="46.46874" lon="5.62498">
        <ele>574.7</ele>
        <time>2019-09-03T12:41:03Z</time>
      </trkpt>
      <trkpt lat="46.46879" lon="5.62499">
        <ele>574.1</ele>
        <time>2019-09-03T12:41:07Z</time>
      </trkpt>
      <trkpt lat="46.46884" lon="5.62501">
        <ele>573.3</ele>
        <time>2019-09-03T12:41:13Z</time>
      </trkpt>
      <trkpt lat="46.46889" lon="5.625">
        <ele>573.1</ele>
        <time>2019-09-03T12:41:21Z</time>
      </trkpt>
      <trkpt lat="46.46894" lon="5.62501">
        <ele>573.1</ele>
        <time>2019-09-03T12:41:25Z</time>
      </trkpt>
      <trkpt lat="46.46899" lon="5.62499">
        <ele>572.9</ele>
        <time>2019-09-03T12:41:30Z</time>
      </trkpt>
      <trkpt lat="46.46904" lon="5.62496">
        <ele>571.6</ele>
        <time>2019-09-03T12:41:38Z</time>
      </trkpt>
      <trkpt lat="46.46908" lon="5.62493">
        <ele>570.7</ele>
        <time>2019-09-03T12:41:43Z</time>
      </trkpt>
      <trkpt lat="46.46913" lon="5.62489">
        <ele>570</ele>
        <time>2019-09-03T12:41:47Z</time>
      </trkpt>
      <trkpt lat="46.46918" lon="5.62486">
        <ele>569</ele>
        <time>2019-09-03T12:41:52Z</time>
      </trkpt>
      <trkpt lat="46.46922" lon="5.62484">
        <ele>568.2</ele>
        <time>2019-09-03T12:41:57Z</time>
      </trkpt>
      <trkpt lat="46.46927" lon="5.62481">
        <ele>567.6</ele>
        <time>2019-09-03T12:42:02Z</time>
      </trkpt>
      <trkpt lat="46.46932" lon="5.62478">
        <ele>567.2</ele>
        <time>2019-09-03T12:42:07Z</time>
      </trkpt>
      <trkpt lat="46.46936" lon="5.62473">
        <ele>566.9</ele>
        <time>2019-09-03T12:42:12Z</time>
      </trkpt>
      <trkpt lat="46.4694" lon="5.6247">
        <ele>566.6</ele>
        <time>2019-09-03T12:42:17Z</time>
      </trkpt>
      <trkpt lat="46.46943" lon="5.62465">
        <ele>566.6</ele>
        <time>2019-09-03T12:42:22Z</time>
      </trkpt>
      <trkpt lat="46.46948" lon="5.62461">
        <ele>566.6</ele>
        <time>2019-09-03T12:42:27Z</time>
      </trkpt>
      <trkpt lat="46.46953" lon="5.62458">
        <ele>566.3</ele>
        <time>2019-09-03T12:42:33Z</time>
      </trkpt>
      <trkpt lat="46.46957" lon="5.62456">
        <ele>566</ele>
        <time>2019-09-03T12:42:38Z</time>
      </trkpt>
      <trkpt lat="46.46961" lon="5.62452">
        <ele>565.9</ele>
        <time>2019-09-03T12:42:42Z</time>
      </trkpt>
      <trkpt lat="46.46965" lon="5.62448">
        <ele>565.7</ele>
        <time>2019-09-03T12:42:46Z</time>
      </trkpt>
      <trkpt lat="46.46969" lon="5.62444">
        <ele>565.6</ele>
        <time>2019-09-03T12:42:50Z</time>
      </trkpt>
      <trkpt lat="46.46973" lon="5.6244">
        <ele>565.4</ele>
        <time>2019-09-03T12:42:54Z</time>
      </trkpt>
      <trkpt lat="46.46978" lon="5.62436">
        <ele>564.8</ele>
        <time>2019-09-03T12:42:59Z</time>
      </trkpt>
      <trkpt lat="46.46983" lon="5.62433">
        <ele>564.1</ele>
        <time>2019-09-03T12:43:04Z</time>
      </trkpt>
      <trkpt lat="46.46989" lon="5.6243">
        <ele>563.8</ele>
        <time>2019-09-03T12:43:08Z</time>
      </trkpt>
      <trkpt lat="46.46994" lon="5.62428">
        <ele>563.3</ele>
        <time>2019-09-03T12:43:12Z</time>
      </trkpt>
      <trkpt lat="46.46999" lon="5.62427">
        <ele>562.7</ele>
        <time>2019-09-03T12:43:16Z</time>
      </trkpt>
      <trkpt lat="46.47004" lon="5.62427">
        <ele>562.2</ele>
        <time>2019-09-03T12:43:20Z</time>
      </trkpt>
      <trkpt lat="46.47009" lon="5.62428">
        <ele>561.7</ele>
        <time>2019-09-03T12:43:23Z</time>
      </trkpt>
      <trkpt lat="46.47013" lon="5.62428">
        <ele>561</ele>
        <time>2019-09-03T12:43:27Z</time>
      </trkpt>
      <trkpt lat="46.47018" lon="5.62429">
        <ele>560.6</ele>
        <time>2019-09-03T12:43:30Z</time>
      </trkpt>
      <trkpt lat="46.47023" lon="5.6243">
        <ele>560.2</ele>
        <time>2019-09-03T12:43:33Z</time>
      </trkpt>
      <trkpt lat="46.47027" lon="5.62432">
        <ele>559.8</ele>
        <time>2019-09-03T12:43:36Z</time>
      </trkpt>
      <trkpt lat="46.47032" lon="5.62432">
        <ele>559.1</ele>
        <time>2019-09-03T12:43:41Z</time>
      </trkpt>
      <trkpt lat="46.47037" lon="5.62432">
        <ele>557.6</ele>
        <time>2019-09-03T12:43:49Z</time>
      </trkpt>
      <trkpt lat="46.47043" lon="5.62431">
        <ele>557</ele>
        <time>2019-09-03T12:43:54Z</time>
      </trkpt>
      <trkpt lat="46.47048" lon="5.62429">
        <ele>556.8</ele>
        <time>2019-09-03T12:43:59Z</time>
      </trkpt>
      <trkpt lat="46.47053" lon="5.62428">
        <ele>557.1</ele>
        <time>2019-09-03T12:44:04Z</time>
      </trkpt>
      <trkpt lat="46.47057" lon="5.62424">
        <ele>557.7</ele>
        <time>2019-09-03T12:44:08Z</time>
      </trkpt>
      <trkpt lat="46.47062" lon="5.62424">
        <ele>558.6</ele>
        <time>2019-09-03T12:44:12Z</time>
      </trkpt>
      <trkpt lat="46.47066" lon="5.62424">
        <ele>559.4</ele>
        <time>2019-09-03T12:44:16Z</time>
      </trkpt>
      <trkpt lat="46.47071" lon="5.62424">
        <ele>559.9</ele>
        <time>2019-09-03T12:44:19Z</time>
      </trkpt>
      <trkpt lat="46.47076" lon="5.62424">
        <ele>560.3</ele>
        <time>2019-09-03T12:44:23Z</time>
      </trkpt>
      <trkpt lat="46.47081" lon="5.6242">
        <ele>561</ele>
        <time>2019-09-03T12:44:28Z</time>
      </trkpt>
      <trkpt lat="46.47085" lon="5.62418">
        <ele>561.5</ele>
        <time>2019-09-03T12:44:32Z</time>
      </trkpt>
      <trkpt lat="46.4709" lon="5.62417">
        <ele>562.1</ele>
        <time>2019-09-03T12:44:36Z</time>
      </trkpt>
      <trkpt lat="46.47095" lon="5.62417">
        <ele>562.9</ele>
        <time>2019-09-03T12:44:43Z</time>
      </trkpt>
      <trkpt lat="46.471" lon="5.62417">
        <ele>562.8</ele>
        <time>2019-09-03T12:44:50Z</time>
      </trkpt>
      <trkpt lat="46.47104" lon="5.62414">
        <ele>562.3</ele>
        <time>2019-09-03T12:44:56Z</time>
      </trkpt>
      <trkpt lat="46.47109" lon="5.6241">
        <ele>562</ele>
        <time>2019-09-03T12:45:01Z</time>
      </trkpt>
      <trkpt lat="46.47113" lon="5.62408">
        <ele>561.4</ele>
        <time>2019-09-03T12:45:06Z</time>
      </trkpt>
      <trkpt lat="46.47118" lon="5.62408">
        <ele>560.2</ele>
        <time>2019-09-03T12:45:12Z</time>
      </trkpt>
      <trkpt lat="46.47123" lon="5.62406">
        <ele>559.6</ele>
        <time>2019-09-03T12:45:15Z</time>
      </trkpt>
      <trkpt lat="46.47128" lon="5.62405">
        <ele>558.5</ele>
        <time>2019-09-03T12:45:20Z</time>
      </trkpt>
      <trkpt lat="46.47133" lon="5.62403">
        <ele>557.6</ele>
        <time>2019-09-03T12:45:25Z</time>
      </trkpt>
      <trkpt lat="46.47137" lon="5.62399">
        <ele>556.7</ele>
        <time>2019-09-03T12:45:30Z</time>
      </trkpt>
      <trkpt lat="46.47142" lon="5.62395">
        <ele>556.1</ele>
        <time>2019-09-03T12:45:35Z</time>
      </trkpt>
      <trkpt lat="46.47146" lon="5.62391">
        <ele>555.8</ele>
        <time>2019-09-03T12:45:39Z</time>
      </trkpt>
      <trkpt lat="46.47149" lon="5.62385">
        <ele>555.7</ele>
        <time>2019-09-03T12:45:43Z</time>
      </trkpt>
      <trkpt lat="46.47153" lon="5.62382">
        <ele>555.8</ele>
        <time>2019-09-03T12:45:49Z</time>
      </trkpt>
      <trkpt lat="46.47158" lon="5.62378">
        <ele>555.9</ele>
        <time>2019-09-03T12:45:54Z</time>
      </trkpt>
      <trkpt lat="46.47162" lon="5.62375">
        <ele>556.1</ele>
        <time>2019-09-03T12:45:58Z</time>
      </trkpt>
      <trkpt lat="46.47167" lon="5.62371">
        <ele>556.1</ele>
        <time>2019-09-03T12:46:03Z</time>
      </trkpt>
      <trkpt lat="46.47171" lon="5.62366">
        <ele>555.7</ele>
        <time>2019-09-03T12:46:08Z</time>
      </trkpt>
      <trkpt lat="46.47175" lon="5.62362">
        <ele>554.8</ele>
        <time>2019-09-03T12:46:14Z</time>
      </trkpt>
      <trkpt lat="46.47178" lon="5.62356">
        <ele>553.9</ele>
        <time>2019-09-03T12:46:19Z</time>
      </trkpt>
      <trkpt lat="46.47181" lon="5.62351">
        <ele>553.3</ele>
        <time>2019-09-03T12:46:23Z</time>
      </trkpt>
      <trkpt lat="46.47186" lon="5.62347">
        <ele>552.5</ele>
        <time>2019-09-03T12:46:28Z</time>
      </trkpt>
      <trkpt lat="46.47189" lon="5.62341">
        <ele>551.8</ele>
        <time>2019-09-03T12:46:33Z</time>
      </trkpt>
      <trkpt lat="46.47193" lon="5.62336">
        <ele>551.1</ele>
        <time>2019-09-03T12:46:38Z</time>
      </trkpt>
      <trkpt lat="46.47197" lon="5.62332">
        <ele>550.3</ele>
        <time>2019-09-03T12:46:43Z</time>
      </trkpt>
      <trkpt lat="46.47201" lon="5.62329">
        <ele>549.6</ele>
        <time>2019-09-03T12:46:48Z</time>
      </trkpt>
      <trkpt lat="46.47205" lon="5.62323">
        <ele>548.7</ele>
        <time>2019-09-03T12:46:53Z</time>
      </trkpt>
      <trkpt lat="46.47208" lon="5.62318">
        <ele>548.3</ele>
        <time>2019-09-03T12:46:57Z</time>
      </trkpt>
      <trkpt lat="46.47211" lon="5.62312">
        <ele>548.1</ele>
        <time>2019-09-03T12:47:01Z</time>
      </trkpt>
      <trkpt lat="46.47213" lon="5.62305">
        <ele>548.1</ele>
        <time>2019-09-03T12:47:05Z</time>
      </trkpt>
      <trkpt lat="46.47217" lon="5.62299">
        <ele>548.4</ele>
        <time>2019-09-03T12:47:09Z</time>
      </trkpt>
      <trkpt lat="46.4722" lon="5.62293">
        <ele>549</ele>
        <time>2019-09-03T12:47:13Z</time>
      </trkpt>
      <trkpt lat="46.47224" lon="5.62289">
        <ele>549.5</ele>
        <time>2019-09-03T12:47:18Z</time>
      </trkpt>
      <trkpt lat="46.47228" lon="5.62286">
        <ele>549.9</ele>
        <time>2019-09-03T12:47:22Z</time>
      </trkpt>
      <trkpt lat="46.47233" lon="5.62282">
        <ele>550.3</ele>
        <time>2019-09-03T12:47:27Z</time>
      </trkpt>
      <trkpt lat="46.47236" lon="5.62277">
        <ele>550.7</ele>
        <time>2019-09-03T12:47:31Z</time>
      </trkpt>
      <trkpt lat="46.47241" lon="5.62275">
        <ele>551.4</ele>
        <time>2019-09-03T12:47:36Z</time>
      </trkpt>
      <trkpt lat="46.47245" lon="5.62272">
        <ele>553.3</ele>
        <time>2019-09-03T12:47:44Z</time>
      </trkpt>
      <trkpt lat="46.47249" lon="5.62268">
        <ele>555.5</ele>
        <time>2019-09-03T12:47:51Z</time>
      </trkpt>
      <trkpt lat="46.47253" lon="5.62265">
        <ele>557.9</ele>
        <time>2019-09-03T12:47:58Z</time>
      </trkpt>
      <trkpt lat="46.47258" lon="5.62263">
        <ele>559.4</ele>
        <time>2019-09-03T12:48:03Z</time>
      </trkpt>
      <trkpt lat="46.47259" lon="5.62257">
        <ele>560.9</ele>
        <time>2019-09-03T12:48:09Z</time>
      </trkpt>
      <trkpt lat="46.47258" lon="5.6225">
        <ele>561.5</ele>
        <time>2019-09-03T12:48:15Z</time>
      </trkpt>
      <trkpt lat="46.47256" lon="5.62243">
        <ele>562.8</ele>
        <time>2019-09-03T12:48:25Z</time>
      </trkpt>
      <trkpt lat="46.47255" lon="5.62237">
        <ele>563.2</ele>
        <time>2019-09-03T12:48:28Z</time>
      </trkpt>
      <trkpt lat="46.47254" lon="5.62228">
        <ele>563.8</ele>
        <time>2019-09-03T12:48:32Z</time>
      </trkpt>
      <trkpt lat="46.47248" lon="5.6221">
        <ele>565.8</ele>
        <time>2019-09-03T12:48:47Z</time>
      </trkpt>
      <trkpt lat="46.47246" lon="5.62203">
        <ele>565.9</ele>
        <time>2019-09-03T12:48:51Z</time>
      </trkpt>
      <trkpt lat="46.47248" lon="5.62195">
        <ele>565.3</ele>
        <time>2019-09-03T12:48:56Z</time>
      </trkpt>
      <trkpt lat="46.47251" lon="5.6219">
        <ele>564.3</ele>
        <time>2019-09-03T12:49:01Z</time>
      </trkpt>
      <trkpt lat="46.47254" lon="5.62185">
        <ele>563.2</ele>
        <time>2019-09-03T12:49:06Z</time>
      </trkpt>
      <trkpt lat="46.47261" lon="5.62173">
        <ele>560.4</ele>
        <time>2019-09-03T12:49:16Z</time>
      </trkpt>
      <trkpt lat="46.47263" lon="5.62168">
        <ele>559.7</ele>
        <time>2019-09-03T12:49:20Z</time>
      </trkpt>
      <trkpt lat="46.47266" lon="5.62162">
        <ele>558.8</ele>
        <time>2019-09-03T12:49:25Z</time>
      </trkpt>
      <trkpt lat="46.47269" lon="5.62156">
        <ele>557.5</ele>
        <time>2019-09-03T12:49:30Z</time>
      </trkpt>
      <trkpt lat="46.47272" lon="5.62151">
        <ele>555.8</ele>
        <time>2019-09-03T12:49:36Z</time>
      </trkpt>
      <trkpt lat="46.47274" lon="5.62145">
        <ele>554.1</ele>
        <time>2019-09-03T12:49:42Z</time>
      </trkpt>
      <trkpt lat="46.47276" lon="5.62137">
        <ele>552.9</ele>
        <time>2019-09-03T12:49:46Z</time>
      </trkpt>
      <trkpt lat="46.47277" lon="5.62129">
        <ele>551.7</ele>
        <time>2019-09-03T12:49:50Z</time>
      </trkpt>
      <trkpt lat="46.47279" lon="5.62121">
        <ele>550.2</ele>
        <time>2019-09-03T12:49:55Z</time>
      </trkpt>
      <trkpt lat="46.47282" lon="5.62115">
        <ele>549.2</ele>
        <time>2019-09-03T12:49:59Z</time>
      </trkpt>
      <trkpt lat="46.47285" lon="5.6211">
        <ele>548.2</ele>
        <time>2019-09-03T12:50:04Z</time>
      </trkpt>
      <trkpt lat="46.47288" lon="5.62104">
        <ele>547.1</ele>
        <time>2019-09-03T12:50:12Z</time>
      </trkpt>
      <trkpt lat="46.4729" lon="5.62097">
        <ele>546.7</ele>
        <time>2019-09-03T12:50:16Z</time>
      </trkpt>
      <trkpt lat="46.47291" lon="5.6209">
        <ele>546.2</ele>
        <time>2019-09-03T12:50:20Z</time>
      </trkpt>
      <trkpt lat="46.47293" lon="5.62084">
        <ele>545.7</ele>
        <time>2019-09-03T12:50:24Z</time>
      </trkpt>
      <trkpt lat="46.47293" lon="5.62063">
        <ele>543.7</ele>
        <time>2019-09-03T12:50:34Z</time>
      </trkpt>
      <trkpt lat="46.47295" lon="5.62056">
        <ele>543.3</ele>
        <time>2019-09-03T12:50:39Z</time>
      </trkpt>
      <trkpt lat="46.47298" lon="5.6205">
        <ele>542.8</ele>
        <time>2019-09-03T12:50:44Z</time>
      </trkpt>
      <trkpt lat="46.473" lon="5.62044">
        <ele>542.3</ele>
        <time>2019-09-03T12:50:50Z</time>
      </trkpt>
      <trkpt lat="46.47303" lon="5.62037">
        <ele>541.8</ele>
        <time>2019-09-03T12:50:54Z</time>
      </trkpt>
      <trkpt lat="46.47306" lon="5.62032">
        <ele>541.1</ele>
        <time>2019-09-03T12:50:59Z</time>
      </trkpt>
      <trkpt lat="46.4731" lon="5.62027">
        <ele>540.2</ele>
        <time>2019-09-03T12:51:05Z</time>
      </trkpt>
      <trkpt lat="46.47313" lon="5.62021">
        <ele>539.6</ele>
        <time>2019-09-03T12:51:10Z</time>
      </trkpt>
      <trkpt lat="46.47316" lon="5.62014">
        <ele>539.4</ele>
        <time>2019-09-03T12:51:18Z</time>
      </trkpt>
      <trkpt lat="46.47318" lon="5.62005">
        <ele>539.3</ele>
        <time>2019-09-03T12:51:22Z</time>
      </trkpt>
      <trkpt lat="46.47319" lon="5.61999">
        <ele>539.3</ele>
        <time>2019-09-03T12:51:25Z</time>
      </trkpt>
      <trkpt lat="46.47321" lon="5.61992">
        <ele>539</ele>
        <time>2019-09-03T12:51:29Z</time>
      </trkpt>
      <trkpt lat="46.47322" lon="5.61984">
        <ele>538.7</ele>
        <time>2019-09-03T12:51:34Z</time>
      </trkpt>
      <trkpt lat="46.47323" lon="5.61978">
        <ele>538.5</ele>
        <time>2019-09-03T12:51:38Z</time>
      </trkpt>
      <trkpt lat="46.47325" lon="5.61971">
        <ele>538.1</ele>
        <time>2019-09-03T12:51:44Z</time>
      </trkpt>
      <trkpt lat="46.47328" lon="5.61964">
        <ele>537.9</ele>
        <time>2019-09-03T12:51:49Z</time>
      </trkpt>
      <trkpt lat="46.47328" lon="5.61956">
        <ele>538</ele>
        <time>2019-09-03T12:51:54Z</time>
      </trkpt>
      <trkpt lat="46.47328" lon="5.61949">
        <ele>538.8</ele>
        <time>2019-09-03T12:52:00Z</time>
      </trkpt>
      <trkpt lat="46.47327" lon="5.61941">
        <ele>540.5</ele>
        <time>2019-09-03T12:52:06Z</time>
      </trkpt>
      <trkpt lat="46.47328" lon="5.61934">
        <ele>541.3</ele>
        <time>2019-09-03T12:52:09Z</time>
      </trkpt>
      <trkpt lat="46.47329" lon="5.61927">
        <ele>543.3</ele>
        <time>2019-09-03T12:52:18Z</time>
      </trkpt>
      <trkpt lat="46.47333" lon="5.61922">
        <ele>544.1</ele>
        <time>2019-09-03T12:52:23Z</time>
      </trkpt>
      <trkpt lat="46.47335" lon="5.61916">
        <ele>544.5</ele>
        <time>2019-09-03T12:52:26Z</time>
      </trkpt>
      <trkpt lat="46.47336" lon="5.61908">
        <ele>544.7</ele>
        <time>2019-09-03T12:52:28Z</time>
      </trkpt>
      <trkpt lat="46.47337" lon="5.61901">
        <ele>544.7</ele>
        <time>2019-09-03T12:52:31Z</time>
      </trkpt>
      <trkpt lat="46.47339" lon="5.61894">
        <ele>544.5</ele>
        <time>2019-09-03T12:52:35Z</time>
      </trkpt>
      <trkpt lat="46.47342" lon="5.61888">
        <ele>544.2</ele>
        <time>2019-09-03T12:52:39Z</time>
      </trkpt>
      <trkpt lat="46.47344" lon="5.61881">
        <ele>543.5</ele>
        <time>2019-09-03T12:52:45Z</time>
      </trkpt>
      <trkpt lat="46.47347" lon="5.61875">
        <ele>542.6</ele>
        <time>2019-09-03T12:52:51Z</time>
      </trkpt>
      <trkpt lat="46.47351" lon="5.6187">
        <ele>541.7</ele>
        <time>2019-09-03T12:52:57Z</time>
      </trkpt>
      <trkpt lat="46.47353" lon="5.61864">
        <ele>540.5</ele>
        <time>2019-09-03T12:53:04Z</time>
      </trkpt>
      <trkpt lat="46.47355" lon="5.61857">
        <ele>539.4</ele>
        <time>2019-09-03T12:53:10Z</time>
      </trkpt>
      <trkpt lat="46.47357" lon="5.6185">
        <ele>538.5</ele>
        <time>2019-09-03T12:53:14Z</time>
      </trkpt>
      <trkpt lat="46.47355" lon="5.61843">
        <ele>537.4</ele>
        <time>2019-09-03T12:53:19Z</time>
      </trkpt>
      <trkpt lat="46.47353" lon="5.61836">
        <ele>536.5</ele>
        <time>2019-09-03T12:53:24Z</time>
      </trkpt>
      <trkpt lat="46.4735" lon="5.6183">
        <ele>535.8</ele>
        <time>2019-09-03T12:53:29Z</time>
      </trkpt>
      <trkpt lat="46.47348" lon="5.61822">
        <ele>534.9</ele>
        <time>2019-09-03T12:53:34Z</time>
      </trkpt>
      <trkpt lat="46.47345" lon="5.61816">
        <ele>534.2</ele>
        <time>2019-09-03T12:53:38Z</time>
      </trkpt>
      <trkpt lat="46.47342" lon="5.61809">
        <ele>533.4</ele>
        <time>2019-09-03T12:53:43Z</time>
      </trkpt>
      <trkpt lat="46.4734" lon="5.61803">
        <ele>533</ele>
        <time>2019-09-03T12:53:47Z</time>
      </trkpt>
      <trkpt lat="46.47338" lon="5.61797">
        <ele>532.6</ele>
        <time>2019-09-03T12:53:51Z</time>
      </trkpt>
      <trkpt lat="46.47333" lon="5.61792">
        <ele>532.2</ele>
        <time>2019-09-03T12:53:56Z</time>
      </trkpt>
      <trkpt lat="46.47331" lon="5.61786">
        <ele>532.1</ele>
        <time>2019-09-03T12:53:59Z</time>
      </trkpt>
      <trkpt lat="46.47328" lon="5.61781">
        <ele>531.8</ele>
        <time>2019-09-03T12:54:03Z</time>
      </trkpt>
      <trkpt lat="46.47324" lon="5.61774">
        <ele>531.5</ele>
        <time>2019-09-03T12:54:08Z</time>
      </trkpt>
      <trkpt lat="46.47321" lon="5.61769">
        <ele>531.4</ele>
        <time>2019-09-03T12:54:11Z</time>
      </trkpt>
      <trkpt lat="46.47317" lon="5.61764">
        <ele>531.2</ele>
        <time>2019-09-03T12:54:15Z</time>
      </trkpt>
      <trkpt lat="46.47314" lon="5.61759">
        <ele>531.1</ele>
        <time>2019-09-03T12:54:19Z</time>
      </trkpt>
      <trkpt lat="46.47311" lon="5.61753">
        <ele>531</ele>
        <time>2019-09-03T12:54:23Z</time>
      </trkpt>
      <trkpt lat="46.47309" lon="5.61748">
        <ele>531</ele>
        <time>2019-09-03T12:54:27Z</time>
      </trkpt>
      <trkpt lat="46.47306" lon="5.61741">
        <ele>531.1</ele>
        <time>2019-09-03T12:54:32Z</time>
      </trkpt>
      <trkpt lat="46.47303" lon="5.61736">
        <ele>530.9</ele>
        <time>2019-09-03T12:54:38Z</time>
      </trkpt>
      <trkpt lat="46.473" lon="5.6173">
        <ele>530.6</ele>
        <time>2019-09-03T12:54:43Z</time>
      </trkpt>
      <trkpt lat="46.47297" lon="5.61724">
        <ele>530.2</ele>
        <time>2019-09-03T12:54:48Z</time>
      </trkpt>
      <trkpt lat="46.47293" lon="5.61719">
        <ele>529.8</ele>
        <time>2019-09-03T12:54:53Z</time>
      </trkpt>
      <trkpt lat="46.4729" lon="5.61713">
        <ele>529.5</ele>
        <time>2019-09-03T12:54:58Z</time>
      </trkpt>
      <trkpt lat="46.47287" lon="5.61707">
        <ele>529</ele>
        <time>2019-09-03T12:55:03Z</time>
      </trkpt>
      <trkpt lat="46.47284" lon="5.61701">
        <ele>528.7</ele>
        <time>2019-09-03T12:55:08Z</time>
      </trkpt>
      <trkpt lat="46.47281" lon="5.61695">
        <ele>528.6</ele>
        <time>2019-09-03T12:55:13Z</time>
      </trkpt>
      <trkpt lat="46.47278" lon="5.6169">
        <ele>528.6</ele>
        <time>2019-09-03T12:55:17Z</time>
      </trkpt>
      <trkpt lat="46.47275" lon="5.61683">
        <ele>528.5</ele>
        <time>2019-09-03T12:55:23Z</time>
      </trkpt>
      <trkpt lat="46.47272" lon="5.61678">
        <ele>528.6</ele>
        <time>2019-09-03T12:55:27Z</time>
      </trkpt>
      <trkpt lat="46.47269" lon="5.61672">
        <ele>528.4</ele>
        <time>2019-09-03T12:55:32Z</time>
      </trkpt>
      <trkpt lat="46.47267" lon="5.61666">
        <ele>528.2</ele>
        <time>2019-09-03T12:55:37Z</time>
      </trkpt>
      <trkpt lat="46.47265" lon="5.61659">
        <ele>527.5</ele>
        <time>2019-09-03T12:55:43Z</time>
      </trkpt>
      <trkpt lat="46.47264" lon="5.61652">
        <ele>527</ele>
        <time>2019-09-03T12:55:48Z</time>
      </trkpt>
      <trkpt lat="46.47261" lon="5.61646">
        <ele>526.6</ele>
        <time>2019-09-03T12:55:53Z</time>
      </trkpt>
      <trkpt lat="46.4726" lon="5.6164">
        <ele>526.3</ele>
        <time>2019-09-03T12:55:57Z</time>
      </trkpt>
      <trkpt lat="46.47258" lon="5.61633">
        <ele>525.9</ele>
        <time>2019-09-03T12:56:02Z</time>
      </trkpt>
      <trkpt lat="46.47257" lon="5.61627">
        <ele>525.5</ele>
        <time>2019-09-03T12:56:07Z</time>
      </trkpt>
      <trkpt lat="46.47256" lon="5.61619">
        <ele>525.2</ele>
        <time>2019-09-03T12:56:11Z</time>
      </trkpt>
      <trkpt lat="46.47254" lon="5.61612">
        <ele>524.9</ele>
        <time>2019-09-03T12:56:16Z</time>
      </trkpt>
      <trkpt lat="46.47252" lon="5.61605">
        <ele>524.6</ele>
        <time>2019-09-03T12:56:21Z</time>
      </trkpt>
      <trkpt lat="46.4725" lon="5.61598">
        <ele>524.4</ele>
        <time>2019-09-03T12:56:25Z</time>
      </trkpt>
      <trkpt lat="46.47247" lon="5.61591">
        <ele>524.2</ele>
        <time>2019-09-03T12:56:29Z</time>
      </trkpt>
      <trkpt lat="46.47246" lon="5.61584">
        <ele>524.2</ele>
        <time>2019-09-03T12:56:34Z</time>
      </trkpt>
      <trkpt lat="46.47244" lon="5.61577">
        <ele>524.1</ele>
        <time>2019-09-03T12:56:39Z</time>
      </trkpt>
      <trkpt lat="46.47242" lon="5.61572">
        <ele>523.5</ele>
        <time>2019-09-03T12:56:44Z</time>
      </trkpt>
      <trkpt lat="46.47238" lon="5.61565">
        <ele>522.7</ele>
        <time>2019-09-03T12:56:51Z</time>
      </trkpt>
      <trkpt lat="46.47236" lon="5.61559">
        <ele>522.4</ele>
        <time>2019-09-03T12:56:55Z</time>
      </trkpt>
      <trkpt lat="46.47231" lon="5.61552">
        <ele>522.5</ele>
        <time>2019-09-03T12:56:58Z</time>
      </trkpt>
      <trkpt lat="46.47228" lon="5.61546">
        <ele>522.6</ele>
        <time>2019-09-03T12:57:01Z</time>
      </trkpt>
      <trkpt lat="46.47225" lon="5.6154">
        <ele>523.1</ele>
        <time>2019-09-03T12:57:06Z</time>
      </trkpt>
      <trkpt lat="46.47222" lon="5.61534">
        <ele>523.5</ele>
        <time>2019-09-03T12:57:09Z</time>
      </trkpt>
      <trkpt lat="46.47219" lon="5.61527">
        <ele>524.4</ele>
        <time>2019-09-03T12:57:13Z</time>
      </trkpt>
      <trkpt lat="46.47216" lon="5.61521">
        <ele>525.2</ele>
        <time>2019-09-03T12:57:17Z</time>
      </trkpt>
      <trkpt lat="46.47213" lon="5.61515">
        <ele>526.1</ele>
        <time>2019-09-03T12:57:23Z</time>
      </trkpt>
      <trkpt lat="46.47213" lon="5.61508">
        <ele>526.8</ele>
        <time>2019-09-03T12:57:28Z</time>
      </trkpt>
      <trkpt lat="46.47213" lon="5.615">
        <ele>527.6</ele>
        <time>2019-09-03T12:57:33Z</time>
      </trkpt>
      <trkpt lat="46.47212" lon="5.61492">
        <ele>528.4</ele>
        <time>2019-09-03T12:57:39Z</time>
      </trkpt>
      <trkpt lat="46.47211" lon="5.61485">
        <ele>528.8</ele>
        <time>2019-09-03T12:57:44Z</time>
      </trkpt>
      <trkpt lat="46.47211" lon="5.61478">
        <ele>529</ele>
        <time>2019-09-03T12:57:49Z</time>
      </trkpt>
      <trkpt lat="46.47211" lon="5.61471">
        <ele>529.2</ele>
        <time>2019-09-03T12:57:53Z</time>
      </trkpt>
      <trkpt lat="46.47211" lon="5.61464">
        <ele>529.3</ele>
        <time>2019-09-03T12:57:57Z</time>
      </trkpt>
      <trkpt lat="46.47211" lon="5.61457">
        <ele>529.4</ele>
        <time>2019-09-03T12:58:02Z</time>
      </trkpt>
      <trkpt lat="46.47211" lon="5.6145">
        <ele>529.8</ele>
        <time>2019-09-03T12:58:08Z</time>
      </trkpt>
      <trkpt lat="46.47212" lon="5.61444">
        <ele>530.6</ele>
        <time>2019-09-03T12:58:15Z</time>
      </trkpt>
      <trkpt lat="46.47212" lon="5.61436">
        <ele>531.4</ele>
        <time>2019-09-03T12:58:21Z</time>
      </trkpt>
      <trkpt lat="46.47215" lon="5.61429">
        <ele>531.8</ele>
        <time>2019-09-03T12:58:26Z</time>
      </trkpt>
      <trkpt lat="46.47218" lon="5.61424">
        <ele>532</ele>
        <time>2019-09-03T12:58:31Z</time>
      </trkpt>
      <trkpt lat="46.47222" lon="5.61419">
        <ele>532</ele>
        <time>2019-09-03T12:58:37Z</time>
      </trkpt>
      <trkpt lat="46.47227" lon="5.61415">
        <ele>532</ele>
        <time>2019-09-03T12:58:41Z</time>
      </trkpt>
      <trkpt lat="46.47232" lon="5.61411">
        <ele>531.9</ele>
        <time>2019-09-03T12:58:44Z</time>
      </trkpt>
      <trkpt lat="46.47236" lon="5.61408">
        <ele>531.8</ele>
        <time>2019-09-03T12:58:47Z</time>
      </trkpt>
      <trkpt lat="46.47241" lon="5.61408">
        <ele>532.1</ele>
        <time>2019-09-03T12:58:53Z</time>
      </trkpt>
      <trkpt lat="46.47245" lon="5.61404">
        <ele>532.3</ele>
        <time>2019-09-03T12:59:00Z</time>
      </trkpt>
      <trkpt lat="46.47247" lon="5.61397">
        <ele>533</ele>
        <time>2019-09-03T12:59:06Z</time>
      </trkpt>
      <trkpt lat="46.47247" lon="5.6139">
        <ele>533.4</ele>
        <time>2019-09-03T12:59:11Z</time>
      </trkpt>
      <trkpt lat="46.47245" lon="5.61384">
        <ele>533.5</ele>
        <time>2019-09-03T12:59:15Z</time>
      </trkpt>
      <trkpt lat="46.47242" lon="5.61379">
        <ele>533.4</ele>
        <time>2019-09-03T12:59:19Z</time>
      </trkpt>
      <trkpt lat="46.47237" lon="5.61376">
        <ele>533.2</ele>
        <time>2019-09-03T12:59:23Z</time>
      </trkpt>
      <trkpt lat="46.47231" lon="5.61375">
        <ele>532.8</ele>
        <time>2019-09-03T12:59:27Z</time>
      </trkpt>
      <trkpt lat="46.47227" lon="5.61373">
        <ele>532.1</ele>
        <time>2019-09-03T12:59:34Z</time>
      </trkpt>
      <trkpt lat="46.47222" lon="5.61371">
        <ele>531.7</ele>
        <time>2019-09-03T12:59:39Z</time>
      </trkpt>
      <trkpt lat="46.47218" lon="5.6137">
        <ele>531.4</ele>
        <time>2019-09-03T12:59:43Z</time>
      </trkpt>
      <trkpt lat="46.47213" lon="5.61369">
        <ele>531.2</ele>
        <time>2019-09-03T12:59:47Z</time>
      </trkpt>
      <trkpt lat="46.47209" lon="5.61366">
        <ele>531.1</ele>
        <time>2019-09-03T12:59:53Z</time>
      </trkpt>
      <trkpt lat="46.47204" lon="5.61363">
        <ele>531.2</ele>
        <time>2019-09-03T12:59:58Z</time>
      </trkpt>
      <trkpt lat="46.472" lon="5.61361">
        <ele>531.2</ele>
        <time>2019-09-03T13:00:02Z</time>
      </trkpt>
      <trkpt lat="46.47194" lon="5.6136">
        <ele>531.3</ele>
        <time>2019-09-03T13:00:06Z</time>
      </trkpt>
      <trkpt lat="46.4719" lon="5.61356">
        <ele>531</ele>
        <time>2019-09-03T13:00:11Z</time>
      </trkpt>
      <trkpt lat="46.47186" lon="5.61352">
        <ele>530.6</ele>
        <time>2019-09-03T13:00:16Z</time>
      </trkpt>
      <trkpt lat="46.47183" lon="5.61346">
        <ele>530.1</ele>
        <time>2019-09-03T13:00:21Z</time>
      </trkpt>
      <trkpt lat="46.4718" lon="5.61341">
        <ele>529.5</ele>
        <time>2019-09-03T13:00:26Z</time>
      </trkpt>
      <trkpt lat="46.47177" lon="5.61334">
        <ele>528.7</ele>
        <time>2019-09-03T13:00:30Z</time>
      </trkpt>
      <trkpt lat="46.47176" lon="5.61327">
        <ele>527.7</ele>
        <time>2019-09-03T13:00:34Z</time>
      </trkpt>
      <trkpt lat="46.47174" lon="5.61321">
        <ele>526.8</ele>
        <time>2019-09-03T13:00:38Z</time>
      </trkpt>
      <trkpt lat="46.47172" lon="5.61314">
        <ele>525.6</ele>
        <time>2019-09-03T13:00:43Z</time>
      </trkpt>
      <trkpt lat="46.4717" lon="5.61307">
        <ele>524.4</ele>
        <time>2019-09-03T13:00:47Z</time>
      </trkpt>
      <trkpt lat="46.47168" lon="5.61299">
        <ele>523.1</ele>
        <time>2019-09-03T13:00:52Z</time>
      </trkpt>
      <trkpt lat="46.47166" lon="5.61293">
        <ele>522.2</ele>
        <time>2019-09-03T13:00:56Z</time>
      </trkpt>
      <trkpt lat="46.47164" lon="5.61287">
        <ele>521.2</ele>
        <time>2019-09-03T13:01:00Z</time>
      </trkpt>
      <trkpt lat="46.47161" lon="5.61282">
        <ele>520</ele>
        <time>2019-09-03T13:01:05Z</time>
      </trkpt>
      <trkpt lat="46.47157" lon="5.61277">
        <ele>519</ele>
        <time>2019-09-03T13:01:10Z</time>
      </trkpt>
      <trkpt lat="46.47152" lon="5.61275">
        <ele>518.1</ele>
        <time>2019-09-03T13:01:16Z</time>
      </trkpt>
      <trkpt lat="46.47147" lon="5.61273">
        <ele>517.6</ele>
        <time>2019-09-03T13:01:21Z</time>
      </trkpt>
      <trkpt lat="46.47142" lon="5.61271">
        <ele>517.4</ele>
        <time>2019-09-03T13:01:25Z</time>
      </trkpt>
      <trkpt lat="46.47138" lon="5.61268">
        <ele>517.2</ele>
        <time>2019-09-03T13:01:30Z</time>
      </trkpt>
      <trkpt lat="46.47133" lon="5.61265">
        <ele>517</ele>
        <time>2019-09-03T13:01:35Z</time>
      </trkpt>
      <trkpt lat="46.47128" lon="5.61262">
        <ele>516.7</ele>
        <time>2019-09-03T13:01:40Z</time>
      </trkpt>
      <trkpt lat="46.47123" lon="5.6126">
        <ele>516.4</ele>
        <time>2019-09-03T13:01:45Z</time>
      </trkpt>
      <trkpt lat="46.47118" lon="5.61258">
        <ele>516.2</ele>
        <time>2019-09-03T13:01:50Z</time>
      </trkpt>
      <trkpt lat="46.47113" lon="5.61258">
        <ele>516.1</ele>
        <time>2019-09-03T13:01:54Z</time>
      </trkpt>
      <trkpt lat="46.47108" lon="5.61258">
        <ele>516.1</ele>
        <time>2019-09-03T13:01:58Z</time>
      </trkpt>
      <trkpt lat="46.47103" lon="5.61259">
        <ele>516</ele>
        <time>2019-09-03T13:02:03Z</time>
      </trkpt>
      <trkpt lat="46.47097" lon="5.61258">
        <ele>515.9</ele>
        <time>2019-09-03T13:02:07Z</time>
      </trkpt>
      <trkpt lat="46.47092" lon="5.61258">
        <ele>515.8</ele>
        <time>2019-09-03T13:02:11Z</time>
      </trkpt>
      <trkpt lat="46.47088" lon="5.61257">
        <ele>515.5</ele>
        <time>2019-09-03T13:02:15Z</time>
      </trkpt>
      <trkpt lat="46.47082" lon="5.61256">
        <ele>515.3</ele>
        <time>2019-09-03T13:02:19Z</time>
      </trkpt>
      <trkpt lat="46.47078" lon="5.61254">
        <ele>515</ele>
        <time>2019-09-03T13:02:24Z</time>
      </trkpt>
      <trkpt lat="46.47073" lon="5.61252">
        <ele>514.9</ele>
        <time>2019-09-03T13:02:30Z</time>
      </trkpt>
      <trkpt lat="46.47068" lon="5.61252">
        <ele>514.9</ele>
        <time>2019-09-03T13:02:34Z</time>
      </trkpt>
      <trkpt lat="46.47063" lon="5.61252">
        <ele>514.7</ele>
        <time>2019-09-03T13:02:39Z</time>
      </trkpt>
      <trkpt lat="46.47058" lon="5.6125">
        <ele>514.9</ele>
        <time>2019-09-03T13:02:50Z</time>
      </trkpt>
      <trkpt lat="46.47053" lon="5.6125">
        <ele>514.9</ele>
        <time>2019-09-03T13:02:55Z</time>
      </trkpt>
      <trkpt lat="46.47048" lon="5.6125">
        <ele>514.9</ele>
        <time>2019-09-03T13:02:59Z</time>
      </trkpt>
      <trkpt lat="46.47043" lon="5.61249">
        <ele>515.3</ele>
        <time>2019-09-03T13:03:05Z</time>
      </trkpt>
      <trkpt lat="46.47038" lon="5.61249">
        <ele>515.9</ele>
        <time>2019-09-03T13:03:10Z</time>
      </trkpt>
      <trkpt lat="46.47032" lon="5.61251">
        <ele>516.2</ele>
        <time>2019-09-03T13:03:13Z</time>
      </trkpt>
      <trkpt lat="46.47027" lon="5.61253">
        <ele>516.5</ele>
        <time>2019-09-03T13:03:16Z</time>
      </trkpt>
      <trkpt lat="46.47022" lon="5.61255">
        <ele>516.7</ele>
        <time>2019-09-03T13:03:20Z</time>
      </trkpt>
      <trkpt lat="46.47017" lon="5.61256">
        <ele>516.6</ele>
        <time>2019-09-03T13:03:25Z</time>
      </trkpt>
      <trkpt lat="46.47012" lon="5.61254">
        <ele>516.5</ele>
        <time>2019-09-03T13:03:29Z</time>
      </trkpt>
      <trkpt lat="46.47008" lon="5.6125">
        <ele>515.9</ele>
        <time>2019-09-03T13:03:34Z</time>
      </trkpt>
      <trkpt lat="46.47004" lon="5.61244">
        <ele>515.4</ele>
        <time>2019-09-03T13:03:39Z</time>
      </trkpt>
      <trkpt lat="46.47003" lon="5.61238">
        <ele>515.4</ele>
        <time>2019-09-03T13:03:45Z</time>
      </trkpt>
      <trkpt lat="46.47006" lon="5.61232">
        <ele>515.7</ele>
        <time>2019-09-03T13:03:51Z</time>
      </trkpt>
      <trkpt lat="46.47009" lon="5.61226">
        <ele>515.8</ele>
        <time>2019-09-03T13:03:55Z</time>
      </trkpt>
      <trkpt lat="46.47012" lon="5.61219">
        <ele>516</ele>
        <time>2019-09-03T13:03:59Z</time>
      </trkpt>
      <trkpt lat="46.47014" lon="5.61213">
        <ele>516.2</ele>
        <time>2019-09-03T13:04:04Z</time>
      </trkpt>
      <trkpt lat="46.47016" lon="5.61207">
        <ele>516.2</ele>
        <time>2019-09-03T13:04:08Z</time>
      </trkpt>
      <trkpt lat="46.47018" lon="5.61201">
        <ele>516.3</ele>
        <time>2019-09-03T13:04:12Z</time>
      </trkpt>
      <trkpt lat="46.47021" lon="5.61193">
        <ele>516.5</ele>
        <time>2019-09-03T13:04:16Z</time>
      </trkpt>
      <trkpt lat="46.47022" lon="5.61187">
        <ele>516.6</ele>
        <time>2019-09-03T13:04:21Z</time>
      </trkpt>
      <trkpt lat="46.47024" lon="5.6118">
        <ele>516.8</ele>
        <time>2019-09-03T13:04:26Z</time>
      </trkpt>
      <trkpt lat="46.47026" lon="5.61173">
        <ele>517</ele>
        <time>2019-09-03T13:04:30Z</time>
      </trkpt>
      <trkpt lat="46.47027" lon="5.61166">
        <ele>517.1</ele>
        <time>2019-09-03T13:04:34Z</time>
      </trkpt>
      <trkpt lat="46.47029" lon="5.61159">
        <ele>517.4</ele>
        <time>2019-09-03T13:04:41Z</time>
      </trkpt>
      <trkpt lat="46.47031" lon="5.61153">
        <ele>517.3</ele>
        <time>2019-09-03T13:04:44Z</time>
      </trkpt>
      <trkpt lat="46.47032" lon="5.61145">
        <ele>517.1</ele>
        <time>2019-09-03T13:04:48Z</time>
      </trkpt>
      <trkpt lat="46.47033" lon="5.61136">
        <ele>516.5</ele>
        <time>2019-09-03T13:04:52Z</time>
      </trkpt>
      <trkpt lat="46.47035" lon="5.61129">
        <ele>515.3</ele>
        <time>2019-09-03T13:04:57Z</time>
      </trkpt>
      <trkpt lat="46.47037" lon="5.61122">
        <ele>514</ele>
        <time>2019-09-03T13:05:02Z</time>
      </trkpt>
      <trkpt lat="46.47039" lon="5.61115">
        <ele>513</ele>
        <time>2019-09-03T13:05:06Z</time>
      </trkpt>
      <trkpt lat="46.47042" lon="5.6111">
        <ele>511.9</ele>
        <time>2019-09-03T13:05:10Z</time>
      </trkpt>
      <trkpt lat="46.47045" lon="5.61104">
        <ele>510.6</ele>
        <time>2019-09-03T13:05:15Z</time>
      </trkpt>
      <trkpt lat="46.47048" lon="5.61097">
        <ele>509.1</ele>
        <time>2019-09-03T13:05:20Z</time>
      </trkpt>
      <trkpt lat="46.4705" lon="5.61092">
        <ele>507.9</ele>
        <time>2019-09-03T13:05:24Z</time>
      </trkpt>
      <trkpt lat="46.47051" lon="5.61085">
        <ele>506.7</ele>
        <time>2019-09-03T13:05:28Z</time>
      </trkpt>
      <trkpt lat="46.47052" lon="5.61078">
        <ele>505.8</ele>
        <time>2019-09-03T13:05:32Z</time>
      </trkpt>
      <trkpt lat="46.47053" lon="5.6107">
        <ele>504.7</ele>
        <time>2019-09-03T13:05:37Z</time>
      </trkpt>
      <trkpt lat="46.47054" lon="5.61063">
        <ele>503.8</ele>
        <time>2019-09-03T13:05:42Z</time>
      </trkpt>
      <trkpt lat="46.47053" lon="5.61055">
        <ele>503</ele>
        <time>2019-09-03T13:05:47Z</time>
      </trkpt>
      <trkpt lat="46.47055" lon="5.61048">
        <ele>502.4</ele>
        <time>2019-09-03T13:05:52Z</time>
      </trkpt>
      <trkpt lat="46.47057" lon="5.61042">
        <ele>501.9</ele>
        <time>2019-09-03T13:05:56Z</time>
      </trkpt>
      <trkpt lat="46.47059" lon="5.61036">
        <ele>501</ele>
        <time>2019-09-03T13:06:01Z</time>
      </trkpt>
      <trkpt lat="46.47061" lon="5.61029">
        <ele>500.1</ele>
        <time>2019-09-03T13:06:06Z</time>
      </trkpt>
      <trkpt lat="46.47062" lon="5.61021">
        <ele>499.2</ele>
        <time>2019-09-03T13:06:12Z</time>
      </trkpt>
      <trkpt lat="46.47061" lon="5.61014">
        <ele>499</ele>
        <time>2019-09-03T13:06:16Z</time>
      </trkpt>
      <trkpt lat="46.47061" lon="5.61006">
        <ele>499.4</ele>
        <time>2019-09-03T13:06:20Z</time>
      </trkpt>
      <trkpt lat="46.4706" lon="5.60998">
        <ele>499.8</ele>
        <time>2019-09-03T13:06:24Z</time>
      </trkpt>
      <trkpt lat="46.4706" lon="5.6099">
        <ele>500.3</ele>
        <time>2019-09-03T13:06:28Z</time>
      </trkpt>
      <trkpt lat="46.47061" lon="5.60983">
        <ele>500.7</ele>
        <time>2019-09-03T13:06:33Z</time>
      </trkpt>
      <trkpt lat="46.47061" lon="5.60976">
        <ele>501</ele>
        <time>2019-09-03T13:06:37Z</time>
      </trkpt>
      <trkpt lat="46.47064" lon="5.6097">
        <ele>501.3</ele>
        <time>2019-09-03T13:06:42Z</time>
      </trkpt>
      <trkpt lat="46.47067" lon="5.60964">
        <ele>501.5</ele>
        <time>2019-09-03T13:06:47Z</time>
      </trkpt>
      <trkpt lat="46.47068" lon="5.60957">
        <ele>501.8</ele>
        <time>2019-09-03T13:06:52Z</time>
      </trkpt>
      <trkpt lat="46.47068" lon="5.60949">
        <ele>502.1</ele>
        <time>2019-09-03T13:06:56Z</time>
      </trkpt>
      <trkpt lat="46.47069" lon="5.60941">
        <ele>502.4</ele>
        <time>2019-09-03T13:07:01Z</time>
      </trkpt>
      <trkpt lat="46.47071" lon="5.60935">
        <ele>502.4</ele>
        <time>2019-09-03T13:07:06Z</time>
      </trkpt>
      <trkpt lat="46.47074" lon="5.60928">
        <ele>502.5</ele>
        <time>2019-09-03T13:07:10Z</time>
      </trkpt>
      <trkpt lat="46.47076" lon="5.60922">
        <ele>502.9</ele>
        <time>2019-09-03T13:07:15Z</time>
      </trkpt>
      <trkpt lat="46.47078" lon="5.60915">
        <ele>503.2</ele>
        <time>2019-09-03T13:07:19Z</time>
      </trkpt>
      <trkpt lat="46.47081" lon="5.60908">
        <ele>503.6</ele>
        <time>2019-09-03T13:07:23Z</time>
      </trkpt>
      <trkpt lat="46.47084" lon="5.60903">
        <ele>503.8</ele>
        <time>2019-09-03T13:07:28Z</time>
      </trkpt>
      <trkpt lat="46.47086" lon="5.60897">
        <ele>504</ele>
        <time>2019-09-03T13:07:32Z</time>
      </trkpt>
      <trkpt lat="46.47088" lon="5.6089">
        <ele>504.2</ele>
        <time>2019-09-03T13:07:36Z</time>
      </trkpt>
      <trkpt lat="46.4709" lon="5.60884">
        <ele>504.5</ele>
        <time>2019-09-03T13:07:40Z</time>
      </trkpt>
      <trkpt lat="46.47093" lon="5.60878">
        <ele>504.7</ele>
        <time>2019-09-03T13:07:45Z</time>
      </trkpt>
      <trkpt lat="46.47095" lon="5.60871">
        <ele>504.7</ele>
        <time>2019-09-03T13:07:49Z</time>
      </trkpt>
      <trkpt lat="46.47098" lon="5.60866">
        <ele>504.7</ele>
        <time>2019-09-03T13:07:53Z</time>
      </trkpt>
      <trkpt lat="46.47102" lon="5.60861">
        <ele>504.6</ele>
        <time>2019-09-03T13:07:57Z</time>
      </trkpt>
      <trkpt lat="46.47106" lon="5.60857">
        <ele>504.4</ele>
        <time>2019-09-03T13:08:02Z</time>
      </trkpt>
      <trkpt lat="46.47109" lon="5.6085">
        <ele>504.1</ele>
        <time>2019-09-03T13:08:07Z</time>
      </trkpt>
      <trkpt lat="46.47112" lon="5.60844">
        <ele>503.9</ele>
        <time>2019-09-03T13:08:11Z</time>
      </trkpt>
      <trkpt lat="46.47115" lon="5.60839">
        <ele>503.7</ele>
        <time>2019-09-03T13:08:14Z</time>
      </trkpt>
      <trkpt lat="46.47119" lon="5.60833">
        <ele>503.4</ele>
        <time>2019-09-03T13:08:18Z</time>
      </trkpt>
      <trkpt lat="46.47122" lon="5.60828">
        <ele>503</ele>
        <time>2019-09-03T13:08:24Z</time>
      </trkpt>
      <trkpt lat="46.47127" lon="5.60824">
        <ele>502.7</ele>
        <time>2019-09-03T13:08:29Z</time>
      </trkpt>
      <trkpt lat="46.47131" lon="5.60818">
        <ele>502.4</ele>
        <time>2019-09-03T13:08:33Z</time>
      </trkpt>
      <trkpt lat="46.47135" lon="5.60813">
        <ele>502</ele>
        <time>2019-09-03T13:08:37Z</time>
      </trkpt>
      <trkpt lat="46.47138" lon="5.60809">
        <ele>501.5</ele>
        <time>2019-09-03T13:08:41Z</time>
      </trkpt>
      <trkpt lat="46.47142" lon="5.60805">
        <ele>501</ele>
        <time>2019-09-03T13:08:45Z</time>
      </trkpt>
      <trkpt lat="46.47146" lon="5.60798">
        <ele>500.5</ele>
        <time>2019-09-03T13:08:50Z</time>
      </trkpt>
      <trkpt lat="46.47149" lon="5.60793">
        <ele>500.5</ele>
        <time>2019-09-03T13:08:53Z</time>
      </trkpt>
      <trkpt lat="46.47151" lon="5.60786">
        <ele>501.1</ele>
        <time>2019-09-03T13:08:57Z</time>
      </trkpt>
      <trkpt lat="46.47154" lon="5.60781">
        <ele>502.1</ele>
        <time>2019-09-03T13:09:02Z</time>
      </trkpt>
      <trkpt lat="46.47158" lon="5.60774">
        <ele>502.6</ele>
        <time>2019-09-03T13:09:07Z</time>
      </trkpt>
      <trkpt lat="46.47161" lon="5.60768">
        <ele>502.7</ele>
        <time>2019-09-03T13:09:11Z</time>
      </trkpt>
      <trkpt lat="46.47164" lon="5.60764">
        <ele>502.5</ele>
        <time>2019-09-03T13:09:16Z</time>
      </trkpt>
      <trkpt lat="46.47167" lon="5.60758">
        <ele>502.2</ele>
        <time>2019-09-03T13:09:21Z</time>
      </trkpt>
      <trkpt lat="46.47171" lon="5.60753">
        <ele>501.9</ele>
        <time>2019-09-03T13:09:26Z</time>
      </trkpt>
      <trkpt lat="46.47175" lon="5.60747">
        <ele>501.7</ele>
        <time>2019-09-03T13:09:35Z</time>
      </trkpt>
      <trkpt lat="46.47179" lon="5.60742">
        <ele>501.7</ele>
        <time>2019-09-03T13:09:39Z</time>
      </trkpt>
      <trkpt lat="46.47184" lon="5.60737">
        <ele>501.7</ele>
        <time>2019-09-03T13:09:44Z</time>
      </trkpt>
      <trkpt lat="46.47187" lon="5.6073">
        <ele>501.7</ele>
        <time>2019-09-03T13:09:48Z</time>
      </trkpt>
      <trkpt lat="46.47189" lon="5.60724">
        <ele>501.5</ele>
        <time>2019-09-03T13:09:52Z</time>
      </trkpt>
      <trkpt lat="46.47192" lon="5.60717">
        <ele>501.4</ele>
        <time>2019-09-03T13:09:57Z</time>
      </trkpt>
      <trkpt lat="46.47194" lon="5.60711">
        <ele>501.5</ele>
        <time>2019-09-03T13:10:02Z</time>
      </trkpt>
      <trkpt lat="46.47198" lon="5.60707">
        <ele>501.9</ele>
        <time>2019-09-03T13:10:07Z</time>
      </trkpt>
      <trkpt lat="46.47203" lon="5.60704">
        <ele>502.3</ele>
        <time>2019-09-03T13:10:12Z</time>
      </trkpt>
      <trkpt lat="46.47208" lon="5.60699">
        <ele>502.6</ele>
        <time>2019-09-03T13:10:17Z</time>
      </trkpt>
      <trkpt lat="46.47211" lon="5.60694">
        <ele>502.9</ele>
        <time>2019-09-03T13:10:22Z</time>
      </trkpt>
      <trkpt lat="46.47215" lon="5.60687">
        <ele>503.1</ele>
        <time>2019-09-03T13:10:27Z</time>
      </trkpt>
      <trkpt lat="46.47217" lon="5.60681">
        <ele>503.1</ele>
        <time>2019-09-03T13:10:30Z</time>
      </trkpt>
      <trkpt lat="46.47219" lon="5.60674">
        <ele>503.1</ele>
        <time>2019-09-03T13:10:34Z</time>
      </trkpt>
      <trkpt lat="46.4722" lon="5.60667">
        <ele>503</ele>
        <time>2019-09-03T13:10:38Z</time>
      </trkpt>
      <trkpt lat="46.47222" lon="5.6066">
        <ele>503</ele>
        <time>2019-09-03T13:10:42Z</time>
      </trkpt>
      <trkpt lat="46.47225" lon="5.60654">
        <ele>502.9</ele>
        <time>2019-09-03T13:10:46Z</time>
      </trkpt>
      <trkpt lat="46.47228" lon="5.60648">
        <ele>502.9</ele>
        <time>2019-09-03T13:10:51Z</time>
      </trkpt>
      <trkpt lat="46.47232" lon="5.60643">
        <ele>503.2</ele>
        <time>2019-09-03T13:10:56Z</time>
      </trkpt>
      <trkpt lat="46.47233" lon="5.60636">
        <ele>503.5</ele>
        <time>2019-09-03T13:11:01Z</time>
      </trkpt>
      <trkpt lat="46.47235" lon="5.6063">
        <ele>503.7</ele>
        <time>2019-09-03T13:11:06Z</time>
      </trkpt>
      <trkpt lat="46.47238" lon="5.60623">
        <ele>504.2</ele>
        <time>2019-09-03T13:11:12Z</time>
      </trkpt>
      <trkpt lat="46.47241" lon="5.60618">
        <ele>505</ele>
        <time>2019-09-03T13:11:19Z</time>
      </trkpt>
      <trkpt lat="46.47246" lon="5.60619">
        <ele>505.8</ele>
        <time>2019-09-03T13:11:28Z</time>
      </trkpt>
      <trkpt lat="46.47242" lon="5.60616">
        <ele>508.1</ele>
        <time>2019-09-03T13:12:12Z</time>
      </trkpt>
      <trkpt lat="46.47244" lon="5.6061">
        <ele>510.7</ele>
        <time>2019-09-03T13:13:00Z</time>
      </trkpt>
      <trkpt lat="46.47247" lon="5.60603">
        <ele>511.4</ele>
        <time>2019-09-03T13:13:16Z</time>
      </trkpt>
      <trkpt lat="46.47249" lon="5.60597">
        <ele>510.9</ele>
        <time>2019-09-03T13:13:22Z</time>
      </trkpt>
      <trkpt lat="46.47252" lon="5.60592">
        <ele>508.4</ele>
        <time>2019-09-03T13:13:34Z</time>
      </trkpt>
      <trkpt lat="46.47256" lon="5.6059">
        <ele>506.4</ele>
        <time>2019-09-03T13:13:41Z</time>
      </trkpt>
      <trkpt lat="46.4726" lon="5.60587">
        <ele>504.3</ele>
        <time>2019-09-03T13:13:47Z</time>
      </trkpt>
      <trkpt lat="46.47265" lon="5.60585">
        <ele>502.5</ele>
        <time>2019-09-03T13:13:53Z</time>
      </trkpt>
      <trkpt lat="46.47269" lon="5.60583">
        <ele>498.2</ele>
        <time>2019-09-03T13:14:09Z</time>
      </trkpt>
      <trkpt lat="46.47273" lon="5.60579">
        <ele>496</ele>
        <time>2019-09-03T13:14:15Z</time>
      </trkpt>
      <trkpt lat="46.47278" lon="5.60576">
        <ele>494.3</ele>
        <time>2019-09-03T13:14:20Z</time>
      </trkpt>
      <trkpt lat="46.47282" lon="5.60573">
        <ele>493.1</ele>
        <time>2019-09-03T13:14:24Z</time>
      </trkpt>
      <trkpt lat="46.47287" lon="5.60568">
        <ele>491.9</ele>
        <time>2019-09-03T13:14:28Z</time>
      </trkpt>
      <trkpt lat="46.47291" lon="5.60564">
        <ele>491</ele>
        <time>2019-09-03T13:14:32Z</time>
      </trkpt>
      <trkpt lat="46.47296" lon="5.60559">
        <ele>490.2</ele>
        <time>2019-09-03T13:14:36Z</time>
      </trkpt>
      <trkpt lat="46.47299" lon="5.60555">
        <ele>489.8</ele>
        <time>2019-09-03T13:14:39Z</time>
      </trkpt>
      <trkpt lat="46.47303" lon="5.60549">
        <ele>489.3</ele>
        <time>2019-09-03T13:14:43Z</time>
      </trkpt>
      <trkpt lat="46.47307" lon="5.60544">
        <ele>488.9</ele>
        <time>2019-09-03T13:14:47Z</time>
      </trkpt>
      <trkpt lat="46.47311" lon="5.60539">
        <ele>488.5</ele>
        <time>2019-09-03T13:14:51Z</time>
      </trkpt>
      <trkpt lat="46.47315" lon="5.60536">
        <ele>488.7</ele>
        <time>2019-09-03T13:15:00Z</time>
      </trkpt>
      <trkpt lat="46.4732" lon="5.60535">
        <ele>489.7</ele>
        <time>2019-09-03T13:15:06Z</time>
      </trkpt>
      <trkpt lat="46.47324" lon="5.60532">
        <ele>490.2</ele>
        <time>2019-09-03T13:15:09Z</time>
      </trkpt>
      <trkpt lat="46.47328" lon="5.60528">
        <ele>491</ele>
        <time>2019-09-03T13:15:13Z</time>
      </trkpt>
      <trkpt lat="46.47333" lon="5.60524">
        <ele>492.2</ele>
        <time>2019-09-03T13:15:19Z</time>
      </trkpt>
      <trkpt lat="46.47338" lon="5.6052">
        <ele>492.8</ele>
        <time>2019-09-03T13:15:23Z</time>
      </trkpt>
      <trkpt lat="46.47342" lon="5.60516">
        <ele>493.3</ele>
        <time>2019-09-03T13:15:27Z</time>
      </trkpt>
      <trkpt lat="46.47346" lon="5.60511">
        <ele>494.2</ele>
        <time>2019-09-03T13:15:33Z</time>
      </trkpt>
      <trkpt lat="46.47349" lon="5.60506">
        <ele>495.1</ele>
        <time>2019-09-03T13:15:40Z</time>
      </trkpt>
      <trkpt lat="46.47354" lon="5.60502">
        <ele>495.7</ele>
        <time>2019-09-03T13:15:46Z</time>
      </trkpt>
      <trkpt lat="46.47358" lon="5.60497">
        <ele>496.1</ele>
        <time>2019-09-03T13:15:51Z</time>
      </trkpt>
      <trkpt lat="46.47362" lon="5.60493">
        <ele>496.5</ele>
        <time>2019-09-03T13:15:56Z</time>
      </trkpt>
      <trkpt lat="46.47366" lon="5.60489">
        <ele>497</ele>
        <time>2019-09-03T13:16:00Z</time>
      </trkpt>
      <trkpt lat="46.47369" lon="5.60482">
        <ele>497.7</ele>
        <time>2019-09-03T13:16:05Z</time>
      </trkpt>
      <trkpt lat="46.47372" lon="5.60475">
        <ele>498.2</ele>
        <time>2019-09-03T13:16:09Z</time>
      </trkpt>
      <trkpt lat="46.47374" lon="5.60469">
        <ele>498.9</ele>
        <time>2019-09-03T13:16:14Z</time>
      </trkpt>
      <trkpt lat="46.47375" lon="5.60463">
        <ele>499.6</ele>
        <time>2019-09-03T13:16:19Z</time>
      </trkpt>
      <trkpt lat="46.47377" lon="5.60457">
        <ele>500.1</ele>
        <time>2019-09-03T13:16:23Z</time>
      </trkpt>
      <trkpt lat="46.4738" lon="5.60451">
        <ele>500.4</ele>
        <time>2019-09-03T13:16:28Z</time>
      </trkpt>
      <trkpt lat="46.47384" lon="5.60447">
        <ele>500.8</ele>
        <time>2019-09-03T13:16:34Z</time>
      </trkpt>
      <trkpt lat="46.47388" lon="5.60442">
        <ele>501.2</ele>
        <time>2019-09-03T13:16:39Z</time>
      </trkpt>
      <trkpt lat="46.47392" lon="5.60438">
        <ele>501.3</ele>
        <time>2019-09-03T13:16:46Z</time>
      </trkpt>
      <trkpt lat="46.47396" lon="5.60435">
        <ele>501.3</ele>
        <time>2019-09-03T13:16:50Z</time>
      </trkpt>
      <trkpt lat="46.47399" lon="5.6043">
        <ele>501.3</ele>
        <time>2019-09-03T13:16:54Z</time>
      </trkpt>
      <trkpt lat="46.47403" lon="5.60427">
        <ele>501</ele>
        <time>2019-09-03T13:16:59Z</time>
      </trkpt>
      <trkpt lat="46.47408" lon="5.60424">
        <ele>500.5</ele>
        <time>2019-09-03T13:17:03Z</time>
      </trkpt>
      <trkpt lat="46.47412" lon="5.6042">
        <ele>499.9</ele>
        <time>2019-09-03T13:17:07Z</time>
      </trkpt>
      <trkpt lat="46.47417" lon="5.60417">
        <ele>499.4</ele>
        <time>2019-09-03T13:17:13Z</time>
      </trkpt>
      <trkpt lat="46.47421" lon="5.60415">
        <ele>498.9</ele>
        <time>2019-09-03T13:17:19Z</time>
      </trkpt>
      <trkpt lat="46.47426" lon="5.60413">
        <ele>498.3</ele>
        <time>2019-09-03T13:17:25Z</time>
      </trkpt>
      <trkpt lat="46.47431" lon="5.60412">
        <ele>497.7</ele>
        <time>2019-09-03T13:17:29Z</time>
      </trkpt>
      <trkpt lat="46.47436" lon="5.60411">
        <ele>496.7</ele>
        <time>2019-09-03T13:17:34Z</time>
      </trkpt>
      <trkpt lat="46.47441" lon="5.6041">
        <ele>496.1</ele>
        <time>2019-09-03T13:17:38Z</time>
      </trkpt>
      <trkpt lat="46.47446" lon="5.60409">
        <ele>495.3</ele>
        <time>2019-09-03T13:17:42Z</time>
      </trkpt>
      <trkpt lat="46.47451" lon="5.60407">
        <ele>494.6</ele>
        <time>2019-09-03T13:17:46Z</time>
      </trkpt>
      <trkpt lat="46.47455" lon="5.60405">
        <ele>494.1</ele>
        <time>2019-09-03T13:17:50Z</time>
      </trkpt>
      <trkpt lat="46.4746" lon="5.60403">
        <ele>493.6</ele>
        <time>2019-09-03T13:17:55Z</time>
      </trkpt>
      <trkpt lat="46.47465" lon="5.60401">
        <ele>493.3</ele>
        <time>2019-09-03T13:18:00Z</time>
      </trkpt>
      <trkpt lat="46.47471" lon="5.604">
        <ele>493.3</ele>
        <time>2019-09-03T13:18:03Z</time>
      </trkpt>
      <trkpt lat="46.47476" lon="5.60399">
        <ele>493.3</ele>
        <time>2019-09-03T13:18:07Z</time>
      </trkpt>
      <trkpt lat="46.47482" lon="5.60398">
        <ele>493.3</ele>
        <time>2019-09-03T13:18:12Z</time>
      </trkpt>
      <trkpt lat="46.47487" lon="5.60398">
        <ele>493.4</ele>
        <time>2019-09-03T13:18:16Z</time>
      </trkpt>
      <trkpt lat="46.47492" lon="5.60397">
        <ele>493.7</ele>
        <time>2019-09-03T13:18:21Z</time>
      </trkpt>
      <trkpt lat="46.47497" lon="5.60395">
        <ele>493.8</ele>
        <time>2019-09-03T13:18:27Z</time>
      </trkpt>
      <trkpt lat="46.47502" lon="5.60395">
        <ele>493.8</ele>
        <time>2019-09-03T13:18:32Z</time>
      </trkpt>
      <trkpt lat="46.47506" lon="5.60397">
        <ele>493.9</ele>
        <time>2019-09-03T13:18:36Z</time>
      </trkpt>
      <trkpt lat="46.47511" lon="5.60398">
        <ele>494.1</ele>
        <time>2019-09-03T13:18:40Z</time>
      </trkpt>
      <trkpt lat="46.47518" lon="5.60398">
        <ele>494.2</ele>
        <time>2019-09-03T13:18:44Z</time>
      </trkpt>
      <trkpt lat="46.47523" lon="5.60397">
        <ele>494.1</ele>
        <time>2019-09-03T13:18:48Z</time>
      </trkpt>
      <trkpt lat="46.47528" lon="5.60397">
        <ele>494</ele>
        <time>2019-09-03T13:18:53Z</time>
      </trkpt>
      <trkpt lat="46.47533" lon="5.60398">
        <ele>493.8</ele>
        <time>2019-09-03T13:18:58Z</time>
      </trkpt>
      <trkpt lat="46.47538" lon="5.60397">
        <ele>493.7</ele>
        <time>2019-09-03T13:19:02Z</time>
      </trkpt>
      <trkpt lat="46.47542" lon="5.60397">
        <ele>493.6</ele>
        <time>2019-09-03T13:19:07Z</time>
      </trkpt>
      <trkpt lat="46.47548" lon="5.60395">
        <ele>493.5</ele>
        <time>2019-09-03T13:19:14Z</time>
      </trkpt>
      <trkpt lat="46.47553" lon="5.60394">
        <ele>493.2</ele>
        <time>2019-09-03T13:19:19Z</time>
      </trkpt>
      <trkpt lat="46.47558" lon="5.60394">
        <ele>492.7</ele>
        <time>2019-09-03T13:19:25Z</time>
      </trkpt>
      <trkpt lat="46.47563" lon="5.60393">
        <ele>492.3</ele>
        <time>2019-09-03T13:19:30Z</time>
      </trkpt>
      <trkpt lat="46.47568" lon="5.60392">
        <ele>491.6</ele>
        <time>2019-09-03T13:19:36Z</time>
      </trkpt>
      <trkpt lat="46.47573" lon="5.60391">
        <ele>491.1</ele>
        <time>2019-09-03T13:19:40Z</time>
      </trkpt>
      <trkpt lat="46.47577" lon="5.60387">
        <ele>490.4</ele>
        <time>2019-09-03T13:19:45Z</time>
      </trkpt>
      <trkpt lat="46.47582" lon="5.60385">
        <ele>490.5</ele>
        <time>2019-09-03T13:19:52Z</time>
      </trkpt>
      <trkpt lat="46.47581" lon="5.60392">
        <ele>492.4</ele>
        <time>2019-09-03T13:20:29Z</time>
      </trkpt>
      <trkpt lat="46.47582" lon="5.60399">
        <ele>492.5</ele>
        <time>2019-09-03T13:20:35Z</time>
      </trkpt>
      <trkpt lat="46.47586" lon="5.60405">
        <ele>492.6</ele>
        <time>2019-09-03T13:20:40Z</time>
      </trkpt>
      <trkpt lat="46.47589" lon="5.6041">
        <ele>492.7</ele>
        <time>2019-09-03T13:20:45Z</time>
      </trkpt>
      <trkpt lat="46.47594" lon="5.60415">
        <ele>492.8</ele>
        <time>2019-09-03T13:20:50Z</time>
      </trkpt>
      <trkpt lat="46.47598" lon="5.60418">
        <ele>493</ele>
        <time>2019-09-03T13:20:56Z</time>
      </trkpt>
      <trkpt lat="46.47601" lon="5.60422">
        <ele>493.2</ele>
        <time>2019-09-03T13:21:00Z</time>
      </trkpt>
      <trkpt lat="46.47606" lon="5.60425">
        <ele>493.6</ele>
        <time>2019-09-03T13:21:05Z</time>
      </trkpt>
      <trkpt lat="46.4761" lon="5.60426">
        <ele>494.3</ele>
        <time>2019-09-03T13:21:15Z</time>
      </trkpt>
      <trkpt lat="46.47615" lon="5.60429">
        <ele>494.5</ele>
        <time>2019-09-03T13:21:20Z</time>
      </trkpt>
      <trkpt lat="46.4762" lon="5.60431">
        <ele>494.7</ele>
        <time>2019-09-03T13:21:26Z</time>
      </trkpt>
      <trkpt lat="46.47629" lon="5.60435">
        <ele>494.4</ele>
        <time>2019-09-03T13:21:36Z</time>
      </trkpt>
      <trkpt lat="46.47638" lon="5.60435">
        <ele>492.3</ele>
        <time>2019-09-03T13:21:47Z</time>
      </trkpt>
      <trkpt lat="46.47643" lon="5.60432">
        <ele>490.8</ele>
        <time>2019-09-03T13:21:53Z</time>
      </trkpt>
      <trkpt lat="46.47648" lon="5.60429">
        <ele>489.1</ele>
        <time>2019-09-03T13:21:59Z</time>
      </trkpt>
      <trkpt lat="46.47652" lon="5.60429">
        <ele>487.5</ele>
        <time>2019-09-03T13:22:04Z</time>
      </trkpt>
      <trkpt lat="46.47657" lon="5.60428">
        <ele>485.6</ele>
        <time>2019-09-03T13:22:10Z</time>
      </trkpt>
      <trkpt lat="46.47663" lon="5.60428">
        <ele>484.5</ele>
        <time>2019-09-03T13:22:14Z</time>
      </trkpt>
      <trkpt lat="46.47669" lon="5.60427">
        <ele>484</ele>
        <time>2019-09-03T13:22:17Z</time>
      </trkpt>
      <trkpt lat="46.47675" lon="5.60427">
        <ele>483.6</ele>
        <time>2019-09-03T13:22:21Z</time>
      </trkpt>
      <trkpt lat="46.47681" lon="5.60428">
        <ele>483.3</ele>
        <time>2019-09-03T13:22:25Z</time>
      </trkpt>
      <trkpt lat="46.47685" lon="5.60427">
        <ele>483</ele>
        <time>2019-09-03T13:22:30Z</time>
      </trkpt>
      <trkpt lat="46.4769" lon="5.60426">
        <ele>482.5</ele>
        <time>2019-09-03T13:22:36Z</time>
      </trkpt>
      <trkpt lat="46.47694" lon="5.60426">
        <ele>482.2</ele>
        <time>2019-09-03T13:22:41Z</time>
      </trkpt>
      <trkpt lat="46.47699" lon="5.60425">
        <ele>482</ele>
        <time>2019-09-03T13:22:46Z</time>
      </trkpt>
      <trkpt lat="46.47704" lon="5.60424">
        <ele>481.9</ele>
        <time>2019-09-03T13:22:50Z</time>
      </trkpt>
      <trkpt lat="46.47709" lon="5.60424">
        <ele>482</ele>
        <time>2019-09-03T13:22:53Z</time>
      </trkpt>
      <trkpt lat="46.47713" lon="5.60424">
        <ele>482.1</ele>
        <time>2019-09-03T13:22:57Z</time>
      </trkpt>
      <trkpt lat="46.47719" lon="5.60423">
        <ele>482.2</ele>
        <time>2019-09-03T13:23:01Z</time>
      </trkpt>
      <trkpt lat="46.47724" lon="5.60422">
        <ele>482.4</ele>
        <time>2019-09-03T13:23:05Z</time>
      </trkpt>
      <trkpt lat="46.4773" lon="5.60421">
        <ele>482.6</ele>
        <time>2019-09-03T13:23:10Z</time>
      </trkpt>
      <trkpt lat="46.47735" lon="5.6042">
        <ele>482.8</ele>
        <time>2019-09-03T13:23:14Z</time>
      </trkpt>
      <trkpt lat="46.4774" lon="5.60419">
        <ele>482.9</ele>
        <time>2019-09-03T13:23:18Z</time>
      </trkpt>
      <trkpt lat="46.47745" lon="5.60418">
        <ele>482.9</ele>
        <time>2019-09-03T13:23:22Z</time>
      </trkpt>
      <trkpt lat="46.4775" lon="5.60418">
        <ele>482.6</ele>
        <time>2019-09-03T13:23:28Z</time>
      </trkpt>
      <trkpt lat="46.47755" lon="5.60419">
        <ele>482.2</ele>
        <time>2019-09-03T13:23:33Z</time>
      </trkpt>
      <trkpt lat="46.4776" lon="5.6042">
        <ele>482</ele>
        <time>2019-09-03T13:23:38Z</time>
      </trkpt>
      <trkpt lat="46.47765" lon="5.60423">
        <ele>481.8</ele>
        <time>2019-09-03T13:23:43Z</time>
      </trkpt>
      <trkpt lat="46.47767" lon="5.60429">
        <ele>481.8</ele>
        <time>2019-09-03T13:23:48Z</time>
      </trkpt>
      <trkpt lat="46.47769" lon="5.60435">
        <ele>482.2</ele>
        <time>2019-09-03T13:23:52Z</time>
      </trkpt>
      <trkpt lat="46.4777" lon="5.60442">
        <ele>482.7</ele>
        <time>2019-09-03T13:23:56Z</time>
      </trkpt>
      <trkpt lat="46.4777" lon="5.6045">
        <ele>483.4</ele>
        <time>2019-09-03T13:24:01Z</time>
      </trkpt>
      <trkpt lat="46.4777" lon="5.60456">
        <ele>484</ele>
        <time>2019-09-03T13:24:05Z</time>
      </trkpt>
      <trkpt lat="46.47769" lon="5.60463">
        <ele>484.5</ele>
        <time>2019-09-03T13:24:09Z</time>
      </trkpt>
      <trkpt lat="46.47768" lon="5.60471">
        <ele>485.3</ele>
        <time>2019-09-03T13:24:14Z</time>
      </trkpt>
      <trkpt lat="46.47769" lon="5.60477">
        <ele>486.2</ele>
        <time>2019-09-03T13:24:19Z</time>
      </trkpt>
      <trkpt lat="46.47771" lon="5.60484">
        <ele>487.3</ele>
        <time>2019-09-03T13:24:24Z</time>
      </trkpt>
      <trkpt lat="46.47774" lon="5.6049">
        <ele>488.5</ele>
        <time>2019-09-03T13:24:28Z</time>
      </trkpt>
      <trkpt lat="46.47777" lon="5.60496">
        <ele>489.9</ele>
        <time>2019-09-03T13:24:33Z</time>
      </trkpt>
      <trkpt lat="46.47779" lon="5.60504">
        <ele>490.9</ele>
        <time>2019-09-03T13:24:37Z</time>
      </trkpt>
      <trkpt lat="46.47782" lon="5.6051">
        <ele>491.9</ele>
        <time>2019-09-03T13:24:41Z</time>
      </trkpt>
      <trkpt lat="46.47784" lon="5.60516">
        <ele>492.8</ele>
        <time>2019-09-03T13:24:45Z</time>
      </trkpt>
      <trkpt lat="46.47785" lon="5.60523">
        <ele>493.8</ele>
        <time>2019-09-03T13:24:50Z</time>
      </trkpt>
      <trkpt lat="46.47788" lon="5.6053">
        <ele>494.7</ele>
        <time>2019-09-03T13:24:55Z</time>
      </trkpt>
      <trkpt lat="46.47791" lon="5.60535">
        <ele>495.4</ele>
        <time>2019-09-03T13:24:59Z</time>
      </trkpt>
      <trkpt lat="46.47794" lon="5.60541">
        <ele>496.7</ele>
        <time>2019-09-03T13:25:07Z</time>
      </trkpt>
      <trkpt lat="46.47798" lon="5.60547">
        <ele>497.5</ele>
        <time>2019-09-03T13:25:15Z</time>
      </trkpt>
      <trkpt lat="46.478" lon="5.60553">
        <ele>497.7</ele>
        <time>2019-09-03T13:25:19Z</time>
      </trkpt>
      <trkpt lat="46.47803" lon="5.60559">
        <ele>497.5</ele>
        <time>2019-09-03T13:25:23Z</time>
      </trkpt>
      <trkpt lat="46.47807" lon="5.60564">
        <ele>497.1</ele>
        <time>2019-09-03T13:25:28Z</time>
      </trkpt>
      <trkpt lat="46.4781" lon="5.6057">
        <ele>496.8</ele>
        <time>2019-09-03T13:25:33Z</time>
      </trkpt>
      <trkpt lat="46.47813" lon="5.60575">
        <ele>496.8</ele>
        <time>2019-09-03T13:25:37Z</time>
      </trkpt>
      <trkpt lat="46.47817" lon="5.60581">
        <ele>496.9</ele>
        <time>2019-09-03T13:25:41Z</time>
      </trkpt>
      <trkpt lat="46.4782" lon="5.60587">
        <ele>498</ele>
        <time>2019-09-03T13:25:49Z</time>
      </trkpt>
      <trkpt lat="46.47823" lon="5.60593">
        <ele>499.3</ele>
        <time>2019-09-03T13:26:00Z</time>
      </trkpt>
      <trkpt lat="46.47825" lon="5.606">
        <ele>500.3</ele>
        <time>2019-09-03T13:26:08Z</time>
      </trkpt>
      <trkpt lat="46.47826" lon="5.60594">
        <ele>502</ele>
        <time>2019-09-03T13:26:22Z</time>
      </trkpt>
      <trkpt lat="46.4783" lon="5.60594">
        <ele>502.5</ele>
        <time>2019-09-03T13:26:30Z</time>
      </trkpt>
      <trkpt lat="46.47835" lon="5.60596">
        <ele>501.4</ele>
        <time>2019-09-03T13:27:08Z</time>
      </trkpt>
      <trkpt lat="46.4784" lon="5.60599">
        <ele>501.8</ele>
        <time>2019-09-03T13:27:15Z</time>
      </trkpt>
      <trkpt lat="46.47844" lon="5.60601">
        <ele>501.6</ele>
        <time>2019-09-03T13:27:23Z</time>
      </trkpt>
      <trkpt lat="46.47849" lon="5.60603">
        <ele>500.8</ele>
        <time>2019-09-03T13:27:30Z</time>
      </trkpt>
      <trkpt lat="46.47853" lon="5.60607">
        <ele>499.9</ele>
        <time>2019-09-03T13:27:37Z</time>
      </trkpt>
      <trkpt lat="46.47856" lon="5.60612">
        <ele>499.4</ele>
        <time>2019-09-03T13:27:42Z</time>
      </trkpt>
      <trkpt lat="46.47859" lon="5.60617">
        <ele>498.8</ele>
        <time>2019-09-03T13:27:46Z</time>
      </trkpt>
      <trkpt lat="46.47864" lon="5.60621">
        <ele>498.1</ele>
        <time>2019-09-03T13:27:51Z</time>
      </trkpt>
      <trkpt lat="46.47867" lon="5.60625">
        <ele>497.6</ele>
        <time>2019-09-03T13:27:55Z</time>
      </trkpt>
      <trkpt lat="46.47872" lon="5.60628">
        <ele>497.2</ele>
        <time>2019-09-03T13:27:58Z</time>
      </trkpt>
      <trkpt lat="46.47877" lon="5.60631">
        <ele>496.8</ele>
        <time>2019-09-03T13:28:02Z</time>
      </trkpt>
      <trkpt lat="46.47882" lon="5.60629">
        <ele>496.4</ele>
        <time>2019-09-03T13:28:08Z</time>
      </trkpt>
      <trkpt lat="46.47884" lon="5.60622">
        <ele>496</ele>
        <time>2019-09-03T13:28:13Z</time>
      </trkpt>
      <trkpt lat="46.47885" lon="5.60615">
        <ele>495.8</ele>
        <time>2019-09-03T13:28:18Z</time>
      </trkpt>
      <trkpt lat="46.47886" lon="5.60608">
        <ele>495.7</ele>
        <time>2019-09-03T13:28:22Z</time>
      </trkpt>
      <trkpt lat="46.47885" lon="5.60602">
        <ele>495.9</ele>
        <time>2019-09-03T13:28:30Z</time>
      </trkpt>
      <trkpt lat="46.47883" lon="5.60595">
        <ele>496.3</ele>
        <time>2019-09-03T13:28:37Z</time>
      </trkpt>
      <trkpt lat="46.47882" lon="5.60589">
        <ele>496.8</ele>
        <time>2019-09-03T13:28:45Z</time>
      </trkpt>
      <trkpt lat="46.4788" lon="5.60583">
        <ele>497.7</ele>
        <time>2019-09-03T13:28:53Z</time>
      </trkpt>
      <trkpt lat="46.47878" lon="5.60576">
        <ele>499.2</ele>
        <time>2019-09-03T13:28:59Z</time>
      </trkpt>
      <trkpt lat="46.47876" lon="5.6057">
        <ele>500.2</ele>
        <time>2019-09-03T13:29:03Z</time>
      </trkpt>
      <trkpt lat="46.47872" lon="5.60565">
        <ele>501.6</ele>
        <time>2019-09-03T13:29:10Z</time>
      </trkpt>
      <trkpt lat="46.47869" lon="5.60561">
        <ele>502.1</ele>
        <time>2019-09-03T13:29:14Z</time>
      </trkpt>
      <trkpt lat="46.47866" lon="5.60555">
        <ele>502.7</ele>
        <time>2019-09-03T13:29:18Z</time>
      </trkpt>
      <trkpt lat="46.47865" lon="5.60548">
        <ele>503.1</ele>
        <time>2019-09-03T13:29:24Z</time>
      </trkpt>
      <trkpt lat="46.47864" lon="5.60541">
        <ele>503.3</ele>
        <time>2019-09-03T13:29:30Z</time>
      </trkpt>
      <trkpt lat="46.47863" lon="5.60534">
        <ele>503.4</ele>
        <time>2019-09-03T13:29:37Z</time>
      </trkpt>
      <trkpt lat="46.47862" lon="5.60527">
        <ele>503.7</ele>
        <time>2019-09-03T13:29:41Z</time>
      </trkpt>
      <trkpt lat="46.47861" lon="5.60519">
        <ele>504.2</ele>
        <time>2019-09-03T13:29:46Z</time>
      </trkpt>
      <trkpt lat="46.47859" lon="5.60513">
        <ele>505</ele>
        <time>2019-09-03T13:29:52Z</time>
      </trkpt>
      <trkpt lat="46.47858" lon="5.60505">
        <ele>505.6</ele>
        <time>2019-09-03T13:29:58Z</time>
      </trkpt>
      <trkpt lat="46.47859" lon="5.60498">
        <ele>505.7</ele>
        <time>2019-09-03T13:30:03Z</time>
      </trkpt>
      <trkpt lat="46.47855" lon="5.60492">
        <ele>505.6</ele>
        <time>2019-09-03T13:30:07Z</time>
      </trkpt>
      <trkpt lat="46.47854" lon="5.60485">
        <ele>505.8</ele>
        <time>2019-09-03T13:30:10Z</time>
      </trkpt>
      <trkpt lat="46.47854" lon="5.60478">
        <ele>505.5</ele>
        <time>2019-09-03T13:30:16Z</time>
      </trkpt>
      <trkpt lat="46.47858" lon="5.60473">
        <ele>504.8</ele>
        <time>2019-09-03T13:30:22Z</time>
      </trkpt>
      <trkpt lat="46.47862" lon="5.60468">
        <ele>503.9</ele>
        <time>2019-09-03T13:30:28Z</time>
      </trkpt>
      <trkpt lat="46.47862" lon="5.60461">
        <ele>503.2</ele>
        <time>2019-09-03T13:30:34Z</time>
      </trkpt>
      <trkpt lat="46.47862" lon="5.60454">
        <ele>502.7</ele>
        <time>2019-09-03T13:30:38Z</time>
      </trkpt>
      <trkpt lat="46.47863" lon="5.60447">
        <ele>502.2</ele>
        <time>2019-09-03T13:30:42Z</time>
      </trkpt>
      <trkpt lat="46.47865" lon="5.60434">
        <ele>501.1</ele>
        <time>2019-09-03T13:30:52Z</time>
      </trkpt>
      <trkpt lat="46.47867" lon="5.60428">
        <ele>500.9</ele>
        <time>2019-09-03T13:30:57Z</time>
      </trkpt>
      <trkpt lat="46.47867" lon="5.60421">
        <ele>500.7</ele>
        <time>2019-09-03T13:31:02Z</time>
      </trkpt>
      <trkpt lat="46.47866" lon="5.60414">
        <ele>500.5</ele>
        <time>2019-09-03T13:31:07Z</time>
      </trkpt>
      <trkpt lat="46.47866" lon="5.60406">
        <ele>500.2</ele>
        <time>2019-09-03T13:31:13Z</time>
      </trkpt>
      <trkpt lat="46.47867" lon="5.60398">
        <ele>500.3</ele>
        <time>2019-09-03T13:31:18Z</time>
      </trkpt>
      <trkpt lat="46.47867" lon="5.6039">
        <ele>500.3</ele>
        <time>2019-09-03T13:31:21Z</time>
      </trkpt>
      <trkpt lat="46.47868" lon="5.60384">
        <ele>500.2</ele>
        <time>2019-09-03T13:31:25Z</time>
      </trkpt>
      <trkpt lat="46.4787" lon="5.60377">
        <ele>499.7</ele>
        <time>2019-09-03T13:31:32Z</time>
      </trkpt>
      <trkpt lat="46.47871" lon="5.6037">
        <ele>498.4</ele>
        <time>2019-09-03T13:31:39Z</time>
      </trkpt>
      <trkpt lat="46.47872" lon="5.60364">
        <ele>497.1</ele>
        <time>2019-09-03T13:31:46Z</time>
      </trkpt>
      <trkpt lat="46.47873" lon="5.60357">
        <ele>495.9</ele>
        <time>2019-09-03T13:31:52Z</time>
      </trkpt>
      <trkpt lat="46.47873" lon="5.6035">
        <ele>495.1</ele>
        <time>2019-09-03T13:31:56Z</time>
      </trkpt>
      <trkpt lat="46.47874" lon="5.60343">
        <ele>494.1</ele>
        <time>2019-09-03T13:32:01Z</time>
      </trkpt>
      <trkpt lat="46.47874" lon="5.60335">
        <ele>492.6</ele>
        <time>2019-09-03T13:32:08Z</time>
      </trkpt>
      <trkpt lat="46.47875" lon="5.60328">
        <ele>491.3</ele>
        <time>2019-09-03T13:32:14Z</time>
      </trkpt>
      <trkpt lat="46.47876" lon="5.60321">
        <ele>490.4</ele>
        <time>2019-09-03T13:32:18Z</time>
      </trkpt>
      <trkpt lat="46.47878" lon="5.60315">
        <ele>489.4</ele>
        <time>2019-09-03T13:32:23Z</time>
      </trkpt>
      <trkpt lat="46.47882" lon="5.60309">
        <ele>488.5</ele>
        <time>2019-09-03T13:32:27Z</time>
      </trkpt>
      <trkpt lat="46.47884" lon="5.60302">
        <ele>487.8</ele>
        <time>2019-09-03T13:32:30Z</time>
      </trkpt>
      <trkpt lat="46.47886" lon="5.60296">
        <ele>486.6</ele>
        <time>2019-09-03T13:32:36Z</time>
      </trkpt>
      <trkpt lat="46.47889" lon="5.60289">
        <ele>485.8</ele>
        <time>2019-09-03T13:32:40Z</time>
      </trkpt>
      <trkpt lat="46.47891" lon="5.60282">
        <ele>484.4</ele>
        <time>2019-09-03T13:32:45Z</time>
      </trkpt>
      <trkpt lat="46.47893" lon="5.60277">
        <ele>482.9</ele>
        <time>2019-09-03T13:32:50Z</time>
      </trkpt>
      <trkpt lat="46.47898" lon="5.60275">
        <ele>481</ele>
        <time>2019-09-03T13:32:56Z</time>
      </trkpt>
      <trkpt lat="46.47902" lon="5.60271">
        <ele>479.1</ele>
        <time>2019-09-03T13:33:02Z</time>
      </trkpt>
      <trkpt lat="46.47913" lon="5.60262">
        <ele>477.2</ele>
        <time>2019-09-03T13:33:42Z</time>
      </trkpt>
      <trkpt lat="46.47918" lon="5.60258">
        <ele>477.3</ele>
        <time>2019-09-03T13:33:46Z</time>
      </trkpt>
      <trkpt lat="46.47922" lon="5.60256">
        <ele>477.1</ele>
        <time>2019-09-03T13:33:50Z</time>
      </trkpt>
      <trkpt lat="46.47927" lon="5.60254">
        <ele>476.9</ele>
        <time>2019-09-03T13:33:55Z</time>
      </trkpt>
      <trkpt lat="46.47931" lon="5.60251">
        <ele>476.1</ele>
        <time>2019-09-03T13:34:02Z</time>
      </trkpt>
      <trkpt lat="46.47936" lon="5.60249">
        <ele>475.5</ele>
        <time>2019-09-03T13:34:07Z</time>
      </trkpt>
      <trkpt lat="46.4794" lon="5.60245">
        <ele>475</ele>
        <time>2019-09-03T13:34:10Z</time>
      </trkpt>
      <trkpt lat="46.47944" lon="5.6024">
        <ele>474.1</ele>
        <time>2019-09-03T13:34:15Z</time>
      </trkpt>
      <trkpt lat="46.47946" lon="5.60233">
        <ele>473</ele>
        <time>2019-09-03T13:34:20Z</time>
      </trkpt>
      <trkpt lat="46.47948" lon="5.60226">
        <ele>472.1</ele>
        <time>2019-09-03T13:34:24Z</time>
      </trkpt>
      <trkpt lat="46.47949" lon="5.60219">
        <ele>471.3</ele>
        <time>2019-09-03T13:34:29Z</time>
      </trkpt>
      <trkpt lat="46.47949" lon="5.60212">
        <ele>470.7</ele>
        <time>2019-09-03T13:34:36Z</time>
      </trkpt>
      <trkpt lat="46.4795" lon="5.60204">
        <ele>470.8</ele>
        <time>2019-09-03T13:34:44Z</time>
      </trkpt>
      <trkpt lat="46.47948" lon="5.60197">
        <ele>471</ele>
        <time>2019-09-03T13:34:47Z</time>
      </trkpt>
      <trkpt lat="46.47948" lon="5.60189">
        <ele>471.6</ele>
        <time>2019-09-03T13:34:52Z</time>
      </trkpt>
      <trkpt lat="46.47948" lon="5.60182">
        <ele>472</ele>
        <time>2019-09-03T13:34:56Z</time>
      </trkpt>
      <trkpt lat="46.47949" lon="5.60174">
        <ele>472.4</ele>
        <time>2019-09-03T13:35:00Z</time>
      </trkpt>
      <trkpt lat="46.47951" lon="5.60167">
        <ele>472.7</ele>
        <time>2019-09-03T13:35:05Z</time>
      </trkpt>
      <trkpt lat="46.47953" lon="5.6016">
        <ele>472.6</ele>
        <time>2019-09-03T13:35:09Z</time>
      </trkpt>
      <trkpt lat="46.47955" lon="5.60154">
        <ele>472.3</ele>
        <time>2019-09-03T13:35:12Z</time>
      </trkpt>
      <trkpt lat="46.47957" lon="5.60148">
        <ele>471.2</ele>
        <time>2019-09-03T13:35:17Z</time>
      </trkpt>
      <trkpt lat="46.47959" lon="5.60142">
        <ele>468.8</ele>
        <time>2019-09-03T13:35:25Z</time>
      </trkpt>
      <trkpt lat="46.47963" lon="5.60133">
        <ele>464.4</ele>
        <time>2019-09-03T13:35:38Z</time>
      </trkpt>
      <trkpt lat="46.47966" lon="5.60128">
        <ele>462.6</ele>
        <time>2019-09-03T13:35:44Z</time>
      </trkpt>
      <trkpt lat="46.47967" lon="5.60121">
        <ele>461.6</ele>
        <time>2019-09-03T13:35:47Z</time>
      </trkpt>
      <trkpt lat="46.47969" lon="5.60115">
        <ele>459.1</ele>
        <time>2019-09-03T13:35:53Z</time>
      </trkpt>
      <trkpt lat="46.4797" lon="5.60108">
        <ele>454.7</ele>
        <time>2019-09-03T13:36:05Z</time>
      </trkpt>
      <trkpt lat="46.4797" lon="5.60101">
        <ele>453.3</ele>
        <time>2019-09-03T13:36:10Z</time>
      </trkpt>
      <trkpt lat="46.4797" lon="5.60094">
        <ele>452.2</ele>
        <time>2019-09-03T13:36:16Z</time>
      </trkpt>
      <trkpt lat="46.47967" lon="5.60082">
        <ele>455.7</ele>
        <time>2019-09-03T13:37:12Z</time>
      </trkpt>
      <trkpt lat="46.47969" lon="5.60075">
        <ele>456.3</ele>
        <time>2019-09-03T13:37:26Z</time>
      </trkpt>
      <trkpt lat="46.47972" lon="5.60071">
        <ele>455.7</ele>
        <time>2019-09-03T13:37:33Z</time>
      </trkpt>
      <trkpt lat="46.47972" lon="5.60063">
        <ele>455.2</ele>
        <time>2019-09-03T13:37:38Z</time>
      </trkpt>
      <trkpt lat="46.47974" lon="5.60057">
        <ele>453.9</ele>
        <time>2019-09-03T13:37:45Z</time>
      </trkpt>
      <trkpt lat="46.47977" lon="5.60049">
        <ele>453</ele>
        <time>2019-09-03T13:37:49Z</time>
      </trkpt>
      <trkpt lat="46.47978" lon="5.60042">
        <ele>452</ele>
        <time>2019-09-03T13:37:53Z</time>
      </trkpt>
      <trkpt lat="46.4798" lon="5.60034">
        <ele>450.7</ele>
        <time>2019-09-03T13:38:00Z</time>
      </trkpt>
      <trkpt lat="46.4798" lon="5.60027">
        <ele>449.8</ele>
        <time>2019-09-03T13:38:05Z</time>
      </trkpt>
      <trkpt lat="46.47982" lon="5.60021">
        <ele>448.7</ele>
        <time>2019-09-03T13:38:20Z</time>
      </trkpt>
      <trkpt lat="46.47984" lon="5.60001">
        <ele>448.4</ele>
        <time>2019-09-03T13:38:35Z</time>
      </trkpt>
      <trkpt lat="46.47987" lon="5.59992">
        <ele>448.5</ele>
        <time>2019-09-03T13:38:42Z</time>
      </trkpt>
      <trkpt lat="46.47989" lon="5.59986">
        <ele>448.3</ele>
        <time>2019-09-03T13:38:46Z</time>
      </trkpt>
      <trkpt lat="46.47997" lon="5.59964">
        <ele>444</ele>
        <time>2019-09-03T13:39:15Z</time>
      </trkpt>
      <trkpt lat="46.48" lon="5.59947">
        <ele>442.3</ele>
        <time>2019-09-03T13:39:24Z</time>
      </trkpt>
      <trkpt lat="46.48004" lon="5.59932">
        <ele>437.7</ele>
        <time>2019-09-03T13:39:55Z</time>
      </trkpt>
      <trkpt lat="46.48006" lon="5.59925">
        <ele>436.5</ele>
        <time>2019-09-03T13:40:02Z</time>
      </trkpt>
      <trkpt lat="46.48008" lon="5.59919">
        <ele>436.8</ele>
        <time>2019-09-03T13:40:10Z</time>
      </trkpt>
      <trkpt lat="46.48013" lon="5.59915">
        <ele>437.1</ele>
        <time>2019-09-03T13:40:16Z</time>
      </trkpt>
      <trkpt lat="46.48019" lon="5.59899">
        <ele>437.6</ele>
        <time>2019-09-03T13:40:31Z</time>
      </trkpt>
      <trkpt lat="46.4802" lon="5.59892">
        <ele>439.2</ele>
        <time>2019-09-03T13:40:40Z</time>
      </trkpt>
      <trkpt lat="46.4802" lon="5.59885">
        <ele>441</ele>
        <time>2019-09-03T13:40:46Z</time>
      </trkpt>
      <trkpt lat="46.48024" lon="5.59881">
        <ele>441.7</ele>
        <time>2019-09-03T13:40:53Z</time>
      </trkpt>
      <trkpt lat="46.48029" lon="5.59879">
        <ele>441.5</ele>
        <time>2019-09-03T13:40:56Z</time>
      </trkpt>
      <trkpt lat="46.48033" lon="5.59876">
        <ele>441.1</ele>
        <time>2019-09-03T13:41:00Z</time>
      </trkpt>
      <trkpt lat="46.48037" lon="5.59872">
        <ele>439.8</ele>
        <time>2019-09-03T13:41:06Z</time>
      </trkpt>
      <trkpt lat="46.48039" lon="5.59865">
        <ele>439</ele>
        <time>2019-09-03T13:41:10Z</time>
      </trkpt>
      <trkpt lat="46.48047" lon="5.59856">
        <ele>436.1</ele>
        <time>2019-09-03T13:41:19Z</time>
      </trkpt>
      <trkpt lat="46.4805" lon="5.5985">
        <ele>435.3</ele>
        <time>2019-09-03T13:41:24Z</time>
      </trkpt>
      <trkpt lat="46.48057" lon="5.59843">
        <ele>432.5</ele>
        <time>2019-09-03T13:41:32Z</time>
      </trkpt>
      <trkpt lat="46.48068" lon="5.59821">
        <ele>428.4</ele>
        <time>2019-09-03T13:41:46Z</time>
      </trkpt>
      <trkpt lat="46.48071" lon="5.59815">
        <ele>427.2</ele>
        <time>2019-09-03T13:42:02Z</time>
      </trkpt>
      <trkpt lat="46.48079" lon="5.59814">
        <ele>423.2</ele>
        <time>2019-09-03T13:42:30Z</time>
      </trkpt>
      <trkpt lat="46.48084" lon="5.59795">
        <ele>421.5</ele>
        <time>2019-09-03T13:42:41Z</time>
      </trkpt>
      <trkpt lat="46.48088" lon="5.5979">
        <ele>421</ele>
        <time>2019-09-03T13:42:45Z</time>
      </trkpt>
      <trkpt lat="46.48093" lon="5.59785">
        <ele>420.6</ele>
        <time>2019-09-03T13:42:48Z</time>
      </trkpt>
      <trkpt lat="46.48096" lon="5.5978">
        <ele>419.9</ele>
        <time>2019-09-03T13:42:52Z</time>
      </trkpt>
      <trkpt lat="46.481" lon="5.59777">
        <ele>419</ele>
        <time>2019-09-03T13:42:57Z</time>
      </trkpt>
      <trkpt lat="46.48103" lon="5.59771">
        <ele>417.7</ele>
        <time>2019-09-03T13:43:09Z</time>
      </trkpt>
      <trkpt lat="46.48108" lon="5.59767">
        <ele>416.3</ele>
        <time>2019-09-03T13:43:29Z</time>
      </trkpt>
      <trkpt lat="46.48114" lon="5.59751">
        <ele>414.7</ele>
        <time>2019-09-03T13:43:36Z</time>
      </trkpt>
      <trkpt lat="46.48116" lon="5.59745">
        <ele>414.6</ele>
        <time>2019-09-03T13:43:38Z</time>
      </trkpt>
      <trkpt lat="46.48119" lon="5.59739">
        <ele>414.3</ele>
        <time>2019-09-03T13:43:44Z</time>
      </trkpt>
      <trkpt lat="46.48121" lon="5.59732">
        <ele>413.5</ele>
        <time>2019-09-03T13:43:53Z</time>
      </trkpt>
      <trkpt lat="46.48122" lon="5.59724">
        <ele>412.8</ele>
        <time>2019-09-03T13:44:00Z</time>
      </trkpt>
      <trkpt lat="46.48124" lon="5.59717">
        <ele>412.1</ele>
        <time>2019-09-03T13:44:04Z</time>
      </trkpt>
      <trkpt lat="46.48127" lon="5.59712">
        <ele>411.5</ele>
        <time>2019-09-03T13:44:09Z</time>
      </trkpt>
      <trkpt lat="46.48128" lon="5.59705">
        <ele>411.3</ele>
        <time>2019-09-03T13:44:11Z</time>
      </trkpt>
      <trkpt lat="46.48129" lon="5.59697">
        <ele>411</ele>
        <time>2019-09-03T13:44:14Z</time>
      </trkpt>
      <trkpt lat="46.48131" lon="5.5969">
        <ele>410.6</ele>
        <time>2019-09-03T13:44:18Z</time>
      </trkpt>
      <trkpt lat="46.4813" lon="5.59681">
        <ele>410.4</ele>
        <time>2019-09-03T13:44:20Z</time>
      </trkpt>
      <trkpt lat="46.4813" lon="5.59674">
        <ele>410.2</ele>
        <time>2019-09-03T13:44:23Z</time>
      </trkpt>
      <trkpt lat="46.48131" lon="5.59664">
        <ele>410</ele>
        <time>2019-09-03T13:44:28Z</time>
      </trkpt>
      <trkpt lat="46.48131" lon="5.59657">
        <ele>410.4</ele>
        <time>2019-09-03T13:44:35Z</time>
      </trkpt>
      <trkpt lat="46.48132" lon="5.5965">
        <ele>411</ele>
        <time>2019-09-03T13:44:46Z</time>
      </trkpt>
      <trkpt lat="46.48135" lon="5.59645">
        <ele>411</ele>
        <time>2019-09-03T13:44:49Z</time>
      </trkpt>
      <trkpt lat="46.48146" lon="5.59621">
        <ele>407.6</ele>
        <time>2019-09-03T13:45:12Z</time>
      </trkpt>
      <trkpt lat="46.48148" lon="5.59614">
        <ele>407.3</ele>
        <time>2019-09-03T13:45:17Z</time>
      </trkpt>
      <trkpt lat="46.48148" lon="5.59607">
        <ele>406.8</ele>
        <time>2019-09-03T13:45:22Z</time>
      </trkpt>
      <trkpt lat="46.48164" lon="5.59587">
        <ele>406.5</ele>
        <time>2019-09-03T13:45:54Z</time>
      </trkpt>
      <trkpt lat="46.48169" lon="5.59583">
        <ele>405.7</ele>
        <time>2019-09-03T13:45:59Z</time>
      </trkpt>
      <trkpt lat="46.48172" lon="5.59579">
        <ele>404.7</ele>
        <time>2019-09-03T13:46:05Z</time>
      </trkpt>
      <trkpt lat="46.48177" lon="5.59544">
        <ele>404.2</ele>
        <time>2019-09-03T13:46:24Z</time>
      </trkpt>
      <trkpt lat="46.48165" lon="5.59509">
        <ele>406.2</ele>
        <time>2019-09-03T13:46:52Z</time>
      </trkpt>
      <trkpt lat="46.48165" lon="5.59502">
        <ele>406.9</ele>
        <time>2019-09-03T13:47:05Z</time>
      </trkpt>
      <trkpt lat="46.48164" lon="5.59495">
        <ele>406.9</ele>
        <time>2019-09-03T13:47:07Z</time>
      </trkpt>
      <trkpt lat="46.4817" lon="5.59475">
        <ele>406.2</ele>
        <time>2019-09-03T13:47:22Z</time>
      </trkpt>
      <trkpt lat="46.48172" lon="5.59468">
        <ele>406.1</ele>
        <time>2019-09-03T13:47:28Z</time>
      </trkpt>
      <trkpt lat="46.48177" lon="5.59446">
        <ele>402.6</ele>
        <time>2019-09-03T13:48:03Z</time>
      </trkpt>
      <trkpt lat="46.48181" lon="5.59408">
        <ele>400</ele>
        <time>2019-09-03T13:48:37Z</time>
      </trkpt>
      <trkpt lat="46.48183" lon="5.594">
        <ele>400.2</ele>
        <time>2019-09-03T13:48:41Z</time>
      </trkpt>
      <trkpt lat="46.48186" lon="5.59394">
        <ele>400.2</ele>
        <time>2019-09-03T13:48:44Z</time>
      </trkpt>
      <trkpt lat="46.48184" lon="5.59383">
        <ele>400.5</ele>
        <time>2019-09-03T13:49:02Z</time>
      </trkpt>
      <trkpt lat="46.48191" lon="5.59363">
        <ele>395.2</ele>
        <time>2019-09-03T13:49:40Z</time>
      </trkpt>
      <trkpt lat="46.48192" lon="5.59356">
        <ele>394.3</ele>
        <time>2019-09-03T13:49:52Z</time>
      </trkpt>
      <trkpt lat="46.48194" lon="5.5935">
        <ele>394.3</ele>
        <time>2019-09-03T13:49:54Z</time>
      </trkpt>
      <trkpt lat="46.48197" lon="5.59346">
        <ele>394.4</ele>
        <time>2019-09-03T13:49:57Z</time>
      </trkpt>
      <trkpt lat="46.48201" lon="5.59341">
        <ele>394.6</ele>
        <time>2019-09-03T13:49:59Z</time>
      </trkpt>
      <trkpt lat="46.48203" lon="5.59335">
        <ele>394.9</ele>
        <time>2019-09-03T13:50:03Z</time>
      </trkpt>
      <trkpt lat="46.48202" lon="5.5932">
        <ele>397.1</ele>
        <time>2019-09-03T13:50:25Z</time>
      </trkpt>
      <trkpt lat="46.48202" lon="5.59313">
        <ele>397.7</ele>
        <time>2019-09-03T13:50:30Z</time>
      </trkpt>
      <trkpt lat="46.48204" lon="5.59296">
        <ele>400.3</ele>
        <time>2019-09-03T13:50:48Z</time>
      </trkpt>
      <trkpt lat="46.48208" lon="5.59289">
        <ele>401.3</ele>
        <time>2019-09-03T13:50:57Z</time>
      </trkpt>
      <trkpt lat="46.48209" lon="5.59283">
        <ele>401.4</ele>
        <time>2019-09-03T13:50:59Z</time>
      </trkpt>
      <trkpt lat="46.4821" lon="5.59275">
        <ele>401.5</ele>
        <time>2019-09-03T13:51:03Z</time>
      </trkpt>
      <trkpt lat="46.48211" lon="5.59267">
        <ele>401.7</ele>
        <time>2019-09-03T13:51:07Z</time>
      </trkpt>
      <trkpt lat="46.48212" lon="5.5926">
        <ele>401.8</ele>
        <time>2019-09-03T13:51:13Z</time>
      </trkpt>
      <trkpt lat="46.48213" lon="5.59232">
        <ele>400.3</ele>
        <time>2019-09-03T13:51:41Z</time>
      </trkpt>
      <trkpt lat="46.48219" lon="5.59211">
        <ele>398.3</ele>
        <time>2019-09-03T13:51:54Z</time>
      </trkpt>
      <trkpt lat="46.48221" lon="5.59203">
        <ele>398</ele>
        <time>2019-09-03T13:51:57Z</time>
      </trkpt>
      <trkpt lat="46.48221" lon="5.59193">
        <ele>397.3</ele>
        <time>2019-09-03T13:52:03Z</time>
      </trkpt>
      <trkpt lat="46.48219" lon="5.59187">
        <ele>396.9</ele>
        <time>2019-09-03T13:52:06Z</time>
      </trkpt>
      <trkpt lat="46.48216" lon="5.59181">
        <ele>393.7</ele>
        <time>2019-09-03T13:52:38Z</time>
      </trkpt>
      <trkpt lat="46.48212" lon="5.59178">
        <ele>394</ele>
        <time>2019-09-03T13:52:47Z</time>
      </trkpt>
      <trkpt lat="46.48211" lon="5.59169">
        <ele>394.6</ele>
        <time>2019-09-03T13:52:52Z</time>
      </trkpt>
      <trkpt lat="46.4821" lon="5.59163">
        <ele>395.2</ele>
        <time>2019-09-03T13:52:56Z</time>
      </trkpt>
      <trkpt lat="46.4821" lon="5.59156">
        <ele>396</ele>
        <time>2019-09-03T13:53:01Z</time>
      </trkpt>
      <trkpt lat="46.48212" lon="5.5915">
        <ele>396.6</ele>
        <time>2019-09-03T13:53:06Z</time>
      </trkpt>
      <trkpt lat="46.48213" lon="5.59142">
        <ele>396.9</ele>
        <time>2019-09-03T13:53:12Z</time>
      </trkpt>
      <trkpt lat="46.4822" lon="5.59123">
        <ele>396.3</ele>
        <time>2019-09-03T13:53:23Z</time>
      </trkpt>
      <trkpt lat="46.48224" lon="5.59102">
        <ele>394.3</ele>
        <time>2019-09-03T13:53:30Z</time>
      </trkpt>
      <trkpt lat="46.48228" lon="5.59095">
        <ele>393.4</ele>
        <time>2019-09-03T13:53:33Z</time>
      </trkpt>
      <trkpt lat="46.48238" lon="5.59083">
        <ele>389.9</ele>
        <time>2019-09-03T13:53:44Z</time>
      </trkpt>
      <trkpt lat="46.48242" lon="5.59079">
        <ele>389.2</ele>
        <time>2019-09-03T13:53:48Z</time>
      </trkpt>
      <trkpt lat="46.48246" lon="5.59076">
        <ele>388.5</ele>
        <time>2019-09-03T13:53:52Z</time>
      </trkpt>
      <trkpt lat="46.4825" lon="5.59072">
        <ele>387.6</ele>
        <time>2019-09-03T13:53:57Z</time>
      </trkpt>
      <trkpt lat="46.48254" lon="5.59067">
        <ele>387.1</ele>
        <time>2019-09-03T13:54:02Z</time>
      </trkpt>
      <trkpt lat="46.48258" lon="5.59061">
        <ele>387.2</ele>
        <time>2019-09-03T13:54:07Z</time>
      </trkpt>
      <trkpt lat="46.48262" lon="5.59055">
        <ele>387.2</ele>
        <time>2019-09-03T13:54:10Z</time>
      </trkpt>
      <trkpt lat="46.48265" lon="5.59051">
        <ele>387.2</ele>
        <time>2019-09-03T13:54:15Z</time>
      </trkpt>
      <trkpt lat="46.48269" lon="5.59046">
        <ele>387.3</ele>
        <time>2019-09-03T13:54:20Z</time>
      </trkpt>
      <trkpt lat="46.48274" lon="5.59044">
        <ele>387.3</ele>
        <time>2019-09-03T13:54:25Z</time>
      </trkpt>
      <trkpt lat="46.48281" lon="5.59046">
        <ele>387.4</ele>
        <time>2019-09-03T13:54:37Z</time>
      </trkpt>
      <trkpt lat="46.48286" lon="5.59048">
        <ele>388.3</ele>
        <time>2019-09-03T13:54:52Z</time>
      </trkpt>
      <trkpt lat="46.4829" lon="5.59046">
        <ele>389.3</ele>
        <time>2019-09-03T13:55:01Z</time>
      </trkpt>
      <trkpt lat="46.48295" lon="5.59043">
        <ele>389.5</ele>
        <time>2019-09-03T13:55:04Z</time>
      </trkpt>
      <trkpt lat="46.48299" lon="5.5904">
        <ele>390</ele>
        <time>2019-09-03T13:55:12Z</time>
      </trkpt>
      <trkpt lat="46.48303" lon="5.59037">
        <ele>390.8</ele>
        <time>2019-09-03T13:55:20Z</time>
      </trkpt>
      <trkpt lat="46.48308" lon="5.59039">
        <ele>391.3</ele>
        <time>2019-09-03T13:55:24Z</time>
      </trkpt>
      <trkpt lat="46.48313" lon="5.59038">
        <ele>392.3</ele>
        <time>2019-09-03T13:55:30Z</time>
      </trkpt>
      <trkpt lat="46.48318" lon="5.59038">
        <ele>392.9</ele>
        <time>2019-09-03T13:55:34Z</time>
      </trkpt>
      <trkpt lat="46.48322" lon="5.59034">
        <ele>393.4</ele>
        <time>2019-09-03T13:55:39Z</time>
      </trkpt>
      <trkpt lat="46.48337" lon="5.59029">
        <ele>392.8</ele>
        <time>2019-09-03T13:55:53Z</time>
      </trkpt>
      <trkpt lat="46.48341" lon="5.59026">
        <ele>393.1</ele>
        <time>2019-09-03T13:56:27Z</time>
      </trkpt>
      <trkpt lat="46.48346" lon="5.59024">
        <ele>393.1</ele>
        <time>2019-09-03T13:56:31Z</time>
      </trkpt>
      <trkpt lat="46.48351" lon="5.59023">
        <ele>393</ele>
        <time>2019-09-03T13:56:35Z</time>
      </trkpt>
      <trkpt lat="46.48356" lon="5.59021">
        <ele>392.5</ele>
        <time>2019-09-03T13:56:43Z</time>
      </trkpt>
      <trkpt lat="46.48361" lon="5.5902">
        <ele>392.3</ele>
        <time>2019-09-03T13:56:49Z</time>
      </trkpt>
      <trkpt lat="46.48392" lon="5.59007">
        <ele>390.1</ele>
        <time>2019-09-03T13:59:23Z</time>
      </trkpt>
      <trkpt lat="46.48397" lon="5.59006">
        <ele>389.8</ele>
        <time>2019-09-03T13:59:32Z</time>
      </trkpt>
      <trkpt lat="46.48402" lon="5.59007">
        <ele>389.9</ele>
        <time>2019-09-03T13:59:38Z</time>
      </trkpt>
      <trkpt lat="46.48407" lon="5.59007">
        <ele>389.9</ele>
        <time>2019-09-03T13:59:40Z</time>
      </trkpt>
      <trkpt lat="46.48413" lon="5.59005">
        <ele>389.9</ele>
        <time>2019-09-03T13:59:42Z</time>
      </trkpt>
      <trkpt lat="46.48417" lon="5.59004">
        <ele>389.8</ele>
        <time>2019-09-03T13:59:46Z</time>
      </trkpt>
      <trkpt lat="46.48422" lon="5.59003">
        <ele>389.7</ele>
        <time>2019-09-03T13:59:51Z</time>
      </trkpt>
      <trkpt lat="46.48427" lon="5.58999">
        <ele>389.7</ele>
        <time>2019-09-03T13:59:54Z</time>
      </trkpt>
      <trkpt lat="46.48432" lon="5.58997">
        <ele>389.6</ele>
        <time>2019-09-03T13:59:57Z</time>
      </trkpt>
      <trkpt lat="46.48437" lon="5.58995">
        <ele>389.3</ele>
        <time>2019-09-03T14:00:01Z</time>
      </trkpt>
      <trkpt lat="46.48448" lon="5.58997">
        <ele>386</ele>
        <time>2019-09-03T14:00:41Z</time>
      </trkpt>
      <trkpt lat="46.48453" lon="5.58998">
        <ele>385.7</ele>
        <time>2019-09-03T14:00:45Z</time>
      </trkpt>
      <trkpt lat="46.48459" lon="5.58997">
        <ele>385.4</ele>
        <time>2019-09-03T14:00:50Z</time>
      </trkpt>
      <trkpt lat="46.48464" lon="5.58996">
        <ele>385</ele>
        <time>2019-09-03T14:00:53Z</time>
      </trkpt>
      <trkpt lat="46.48469" lon="5.58996">
        <ele>384.7</ele>
        <time>2019-09-03T14:00:57Z</time>
      </trkpt>
      <trkpt lat="46.4848" lon="5.5899">
        <ele>384.6</ele>
        <time>2019-09-03T14:01:12Z</time>
      </trkpt>
      <trkpt lat="46.48484" lon="5.58987">
        <ele>384.8</ele>
        <time>2019-09-03T14:01:14Z</time>
      </trkpt>
      <trkpt lat="46.48489" lon="5.58985">
        <ele>385.2</ele>
        <time>2019-09-03T14:01:18Z</time>
      </trkpt>
      <trkpt lat="46.48501" lon="5.58981">
        <ele>386.5</ele>
        <time>2019-09-03T14:01:28Z</time>
      </trkpt>
      <trkpt lat="46.48506" lon="5.5898">
        <ele>386.9</ele>
        <time>2019-09-03T14:01:32Z</time>
      </trkpt>
      <trkpt lat="46.4851" lon="5.58977">
        <ele>388.6</ele>
        <time>2019-09-03T14:01:43Z</time>
      </trkpt>
      <trkpt lat="46.48516" lon="5.58977">
        <ele>389.2</ele>
        <time>2019-09-03T14:01:47Z</time>
      </trkpt>
      <trkpt lat="46.48524" lon="5.58971">
        <ele>390.5</ele>
        <time>2019-09-03T14:02:00Z</time>
      </trkpt>
      <trkpt lat="46.48528" lon="5.58966">
        <ele>390.8</ele>
        <time>2019-09-03T14:02:03Z</time>
      </trkpt>
      <trkpt lat="46.48532" lon="5.58962">
        <ele>391</ele>
        <time>2019-09-03T14:02:07Z</time>
      </trkpt>
      <trkpt lat="46.48536" lon="5.58958">
        <ele>391.1</ele>
        <time>2019-09-03T14:02:12Z</time>
      </trkpt>
      <trkpt lat="46.4854" lon="5.58954">
        <ele>391.5</ele>
        <time>2019-09-03T14:02:18Z</time>
      </trkpt>
      <trkpt lat="46.48545" lon="5.58952">
        <ele>391.9</ele>
        <time>2019-09-03T14:02:23Z</time>
      </trkpt>
      <trkpt lat="46.48549" lon="5.58952">
        <ele>391.9</ele>
        <time>2019-09-03T14:02:29Z</time>
      </trkpt>
      <trkpt lat="46.48554" lon="5.5895">
        <ele>391.6</ele>
        <time>2019-09-03T14:02:35Z</time>
      </trkpt>
      <trkpt lat="46.48559" lon="5.5895">
        <ele>391</ele>
        <time>2019-09-03T14:02:41Z</time>
      </trkpt>
      <trkpt lat="46.48564" lon="5.58949">
        <ele>390.4</ele>
        <time>2019-09-03T14:02:47Z</time>
      </trkpt>
      <trkpt lat="46.48573" lon="5.5895">
        <ele>388.6</ele>
        <time>2019-09-03T14:03:02Z</time>
      </trkpt>
      <trkpt lat="46.48578" lon="5.58949">
        <ele>388.5</ele>
        <time>2019-09-03T14:03:07Z</time>
      </trkpt>
      <trkpt lat="46.48584" lon="5.58949">
        <ele>388.4</ele>
        <time>2019-09-03T14:03:10Z</time>
      </trkpt>
      <trkpt lat="46.48589" lon="5.58948">
        <ele>388.4</ele>
        <time>2019-09-03T14:03:13Z</time>
      </trkpt>
      <trkpt lat="46.48594" lon="5.58946">
        <ele>388.6</ele>
        <time>2019-09-03T14:03:17Z</time>
      </trkpt>
      <trkpt lat="46.48599" lon="5.58945">
        <ele>388.8</ele>
        <time>2019-09-03T14:03:25Z</time>
      </trkpt>
      <trkpt lat="46.48603" lon="5.58942">
        <ele>389.1</ele>
        <time>2019-09-03T14:03:32Z</time>
      </trkpt>
      <trkpt lat="46.48607" lon="5.58938">
        <ele>389.5</ele>
        <time>2019-09-03T14:03:40Z</time>
      </trkpt>
      <trkpt lat="46.48611" lon="5.58936">
        <ele>390</ele>
        <time>2019-09-03T14:03:48Z</time>
      </trkpt>
      <trkpt lat="46.48616" lon="5.58932">
        <ele>390.2</ele>
        <time>2019-09-03T14:03:53Z</time>
      </trkpt>
      <trkpt lat="46.48621" lon="5.58929">
        <ele>389.9</ele>
        <time>2019-09-03T14:03:59Z</time>
      </trkpt>
      <trkpt lat="46.48624" lon="5.58925">
        <ele>389.4</ele>
        <time>2019-09-03T14:04:04Z</time>
      </trkpt>
      <trkpt lat="46.48628" lon="5.58918">
        <ele>388.9</ele>
        <time>2019-09-03T14:04:08Z</time>
      </trkpt>
      <trkpt lat="46.48631" lon="5.58913">
        <ele>388.4</ele>
        <time>2019-09-03T14:04:12Z</time>
      </trkpt>
      <trkpt lat="46.48636" lon="5.58909">
        <ele>387.9</ele>
        <time>2019-09-03T14:04:17Z</time>
      </trkpt>
      <trkpt lat="46.4864" lon="5.58907">
        <ele>387.5</ele>
        <time>2019-09-03T14:04:22Z</time>
      </trkpt>
      <trkpt lat="46.48645" lon="5.58905">
        <ele>387.1</ele>
        <time>2019-09-03T14:04:26Z</time>
      </trkpt>
      <trkpt lat="46.48649" lon="5.58905">
        <ele>386.3</ele>
        <time>2019-09-03T14:04:31Z</time>
      </trkpt>
      <trkpt lat="46.4866" lon="5.58894">
        <ele>382.1</ele>
        <time>2019-09-03T14:04:53Z</time>
      </trkpt>
      <trkpt lat="46.48665" lon="5.58893">
        <ele>381.5</ele>
        <time>2019-09-03T14:05:00Z</time>
      </trkpt>
      <trkpt lat="46.48676" lon="5.5888">
        <ele>381.9</ele>
        <time>2019-09-03T14:05:08Z</time>
      </trkpt>
      <trkpt lat="46.48681" lon="5.58877">
        <ele>382.8</ele>
        <time>2019-09-03T14:05:14Z</time>
      </trkpt>
      <trkpt lat="46.48688" lon="5.5888">
        <ele>383.2</ele>
        <time>2019-09-03T14:05:17Z</time>
      </trkpt>
      <trkpt lat="46.48694" lon="5.58881">
        <ele>383.6</ele>
        <time>2019-09-03T14:05:20Z</time>
      </trkpt>
      <trkpt lat="46.487" lon="5.58879">
        <ele>383.8</ele>
        <time>2019-09-03T14:05:22Z</time>
      </trkpt>
      <trkpt lat="46.48704" lon="5.58873">
        <ele>384.1</ele>
        <time>2019-09-03T14:05:25Z</time>
      </trkpt>
      <trkpt lat="46.48709" lon="5.5887">
        <ele>384.3</ele>
        <time>2019-09-03T14:05:29Z</time>
      </trkpt>
      <trkpt lat="46.48716" lon="5.5887">
        <ele>384.2</ele>
        <time>2019-09-03T14:05:38Z</time>
      </trkpt>
      <trkpt lat="46.48721" lon="5.5887">
        <ele>384.5</ele>
        <time>2019-09-03T14:05:41Z</time>
      </trkpt>
      <trkpt lat="46.48727" lon="5.58871">
        <ele>385</ele>
        <time>2019-09-03T14:05:45Z</time>
      </trkpt>
      <trkpt lat="46.48734" lon="5.58869">
        <ele>385.5</ele>
        <time>2019-09-03T14:05:49Z</time>
      </trkpt>
      <trkpt lat="46.48738" lon="5.58867">
        <ele>385.9</ele>
        <time>2019-09-03T14:05:53Z</time>
      </trkpt>
      <trkpt lat="46.48742" lon="5.58866">
        <ele>387.2</ele>
        <time>2019-09-03T14:06:02Z</time>
      </trkpt>
      <trkpt lat="46.48747" lon="5.58863">
        <ele>388.2</ele>
        <time>2019-09-03T14:06:07Z</time>
      </trkpt>
      <trkpt lat="46.48753" lon="5.58857">
        <ele>388.6</ele>
        <time>2019-09-03T14:06:10Z</time>
      </trkpt>
      <trkpt lat="46.48758" lon="5.58855">
        <ele>389</ele>
        <time>2019-09-03T14:06:13Z</time>
      </trkpt>
      <trkpt lat="46.48764" lon="5.58856">
        <ele>390.1</ele>
        <time>2019-09-03T14:06:20Z</time>
      </trkpt>
      <trkpt lat="46.48769" lon="5.58858">
        <ele>390.4</ele>
        <time>2019-09-03T14:06:23Z</time>
      </trkpt>
      <trkpt lat="46.48773" lon="5.58859">
        <ele>390.5</ele>
        <time>2019-09-03T14:06:28Z</time>
      </trkpt>
      <trkpt lat="46.48778" lon="5.58856">
        <ele>390.5</ele>
        <time>2019-09-03T14:06:32Z</time>
      </trkpt>
      <trkpt lat="46.48782" lon="5.58852">
        <ele>390.4</ele>
        <time>2019-09-03T14:06:38Z</time>
      </trkpt>
      <trkpt lat="46.48787" lon="5.58853">
        <ele>390.5</ele>
        <time>2019-09-03T14:06:42Z</time>
      </trkpt>
      <trkpt lat="46.48794" lon="5.58847">
        <ele>391.6</ele>
        <time>2019-09-03T14:06:58Z</time>
      </trkpt>
      <trkpt lat="46.48799" lon="5.58848">
        <ele>391.8</ele>
        <time>2019-09-03T14:07:03Z</time>
      </trkpt>
      <trkpt lat="46.48804" lon="5.58848">
        <ele>391.9</ele>
        <time>2019-09-03T14:07:08Z</time>
      </trkpt>
      <trkpt lat="46.48808" lon="5.58849">
        <ele>392</ele>
        <time>2019-09-03T14:07:11Z</time>
      </trkpt>
      <trkpt lat="46.48813" lon="5.58847">
        <ele>392.2</ele>
        <time>2019-09-03T14:07:16Z</time>
      </trkpt>
      <trkpt lat="46.48817" lon="5.58841">
        <ele>392.4</ele>
        <time>2019-09-03T14:07:18Z</time>
      </trkpt>
      <trkpt lat="46.48821" lon="5.58837">
        <ele>392.6</ele>
        <time>2019-09-03T14:07:21Z</time>
      </trkpt>
      <trkpt lat="46.48825" lon="5.58834">
        <ele>393.2</ele>
        <time>2019-09-03T14:07:26Z</time>
      </trkpt>
      <trkpt lat="46.4883" lon="5.58833">
        <ele>393.9</ele>
        <time>2019-09-03T14:07:33Z</time>
      </trkpt>
      <trkpt lat="46.48836" lon="5.58832">
        <ele>394.1</ele>
        <time>2019-09-03T14:07:38Z</time>
      </trkpt>
      <trkpt lat="46.48842" lon="5.58831">
        <ele>394</ele>
        <time>2019-09-03T14:07:41Z</time>
      </trkpt>
      <trkpt lat="46.48847" lon="5.58831">
        <ele>393.6</ele>
        <time>2019-09-03T14:07:45Z</time>
      </trkpt>
      <trkpt lat="46.48851" lon="5.58828">
        <ele>392.8</ele>
        <time>2019-09-03T14:07:52Z</time>
      </trkpt>
      <trkpt lat="46.48855" lon="5.58828">
        <ele>392.4</ele>
        <time>2019-09-03T14:07:57Z</time>
      </trkpt>
      <trkpt lat="46.4886" lon="5.58825">
        <ele>392.1</ele>
        <time>2019-09-03T14:08:02Z</time>
      </trkpt>
      <trkpt lat="46.48865" lon="5.58822">
        <ele>391.9</ele>
        <time>2019-09-03T14:08:07Z</time>
      </trkpt>
      <trkpt lat="46.48874" lon="5.58821">
        <ele>391.7</ele>
        <time>2019-09-03T14:08:17Z</time>
      </trkpt>
      <trkpt lat="46.48879" lon="5.5882">
        <ele>391.6</ele>
        <time>2019-09-03T14:08:26Z</time>
      </trkpt>
      <trkpt lat="46.48885" lon="5.58821">
        <ele>391.5</ele>
        <time>2019-09-03T14:08:30Z</time>
      </trkpt>
      <trkpt lat="46.4889" lon="5.5882">
        <ele>391.3</ele>
        <time>2019-09-03T14:08:35Z</time>
      </trkpt>
      <trkpt lat="46.48912" lon="5.58799">
        <ele>390.1</ele>
        <time>2019-09-03T14:08:53Z</time>
      </trkpt>
      <trkpt lat="46.48942" lon="5.5881">
        <ele>392.7</ele>
        <time>2019-09-03T14:09:32Z</time>
      </trkpt>
      <trkpt lat="46.48947" lon="5.58812">
        <ele>392.8</ele>
        <time>2019-09-03T14:09:35Z</time>
      </trkpt>
      <trkpt lat="46.48952" lon="5.58812">
        <ele>392.8</ele>
        <time>2019-09-03T14:09:39Z</time>
      </trkpt>
      <trkpt lat="46.48958" lon="5.58811">
        <ele>392.7</ele>
        <time>2019-09-03T14:09:46Z</time>
      </trkpt>
      <trkpt lat="46.48962" lon="5.58813">
        <ele>392.8</ele>
        <time>2019-09-03T14:09:50Z</time>
      </trkpt>
      <trkpt lat="46.48974" lon="5.5882">
        <ele>393.7</ele>
        <time>2019-09-03T14:10:01Z</time>
      </trkpt>
      <trkpt lat="46.48979" lon="5.5882">
        <ele>393.6</ele>
        <time>2019-09-03T14:10:10Z</time>
      </trkpt>
      <trkpt lat="46.48984" lon="5.5882">
        <ele>393.5</ele>
        <time>2019-09-03T14:10:13Z</time>
      </trkpt>
      <trkpt lat="46.4899" lon="5.58824">
        <ele>393.1</ele>
        <time>2019-09-03T14:10:18Z</time>
      </trkpt>
      <trkpt lat="46.48994" lon="5.5883">
        <ele>393</ele>
        <time>2019-09-03T14:10:20Z</time>
      </trkpt>
      <trkpt lat="46.48998" lon="5.58835">
        <ele>393</ele>
        <time>2019-09-03T14:10:23Z</time>
      </trkpt>
      <trkpt lat="46.49019" lon="5.58857">
        <ele>394.1</ele>
        <time>2019-09-03T14:10:57Z</time>
      </trkpt>
      <trkpt lat="46.49022" lon="5.58863">
        <ele>394.2</ele>
        <time>2019-09-03T14:10:59Z</time>
      </trkpt>
      <trkpt lat="46.49025" lon="5.58869">
        <ele>394.3</ele>
        <time>2019-09-03T14:11:02Z</time>
      </trkpt>
      <trkpt lat="46.49027" lon="5.58876">
        <ele>394.2</ele>
        <time>2019-09-03T14:11:08Z</time>
      </trkpt>
      <trkpt lat="46.4903" lon="5.58882">
        <ele>393.9</ele>
        <time>2019-09-03T14:11:14Z</time>
      </trkpt>
      <trkpt lat="46.49034" lon="5.58886">
        <ele>393.7</ele>
        <time>2019-09-03T14:11:19Z</time>
      </trkpt>
      <trkpt lat="46.49039" lon="5.58889">
        <ele>393.4</ele>
        <time>2019-09-03T14:11:25Z</time>
      </trkpt>
      <trkpt lat="46.49043" lon="5.58887">
        <ele>392.9</ele>
        <time>2019-09-03T14:11:33Z</time>
      </trkpt>
      <trkpt lat="46.49048" lon="5.58889">
        <ele>392.2</ele>
        <time>2019-09-03T14:11:41Z</time>
      </trkpt>
      <trkpt lat="46.49052" lon="5.58893">
        <ele>391.5</ele>
        <time>2019-09-03T14:11:46Z</time>
      </trkpt>
      <trkpt lat="46.49057" lon="5.58895">
        <ele>390.6</ele>
        <time>2019-09-03T14:11:51Z</time>
      </trkpt>
      <trkpt lat="46.49062" lon="5.58896">
        <ele>389.6</ele>
        <time>2019-09-03T14:11:57Z</time>
      </trkpt>
      <trkpt lat="46.49067" lon="5.58896">
        <ele>389</ele>
        <time>2019-09-03T14:12:02Z</time>
      </trkpt>
      <trkpt lat="46.49072" lon="5.58895">
        <ele>387.7</ele>
        <time>2019-09-03T14:12:09Z</time>
      </trkpt>
      <trkpt lat="46.49077" lon="5.58894">
        <ele>386.9</ele>
        <time>2019-09-03T14:12:14Z</time>
      </trkpt>
      <trkpt lat="46.49095" lon="5.58895">
        <ele>385.2</ele>
        <time>2019-09-03T14:12:33Z</time>
      </trkpt>
      <trkpt lat="46.49099" lon="5.58894">
        <ele>384.9</ele>
        <time>2019-09-03T14:12:39Z</time>
      </trkpt>
      <trkpt lat="46.49104" lon="5.58895">
        <ele>384.7</ele>
        <time>2019-09-03T14:12:44Z</time>
      </trkpt>
      <trkpt lat="46.49109" lon="5.58898">
        <ele>384.5</ele>
        <time>2019-09-03T14:12:48Z</time>
      </trkpt>
      <trkpt lat="46.49114" lon="5.589">
        <ele>384.2</ele>
        <time>2019-09-03T14:12:51Z</time>
      </trkpt>
      <trkpt lat="46.49121" lon="5.58907">
        <ele>382.4</ele>
        <time>2019-09-03T14:13:03Z</time>
      </trkpt>
      <trkpt lat="46.49126" lon="5.58911">
        <ele>381.7</ele>
        <time>2019-09-03T14:13:08Z</time>
      </trkpt>
      <trkpt lat="46.4914" lon="5.58923">
        <ele>378.6</ele>
        <time>2019-09-03T14:13:25Z</time>
      </trkpt>
      <trkpt lat="46.49161" lon="5.58939">
        <ele>376.9</ele>
        <time>2019-09-03T14:13:48Z</time>
      </trkpt>
      <trkpt lat="46.4918" lon="5.58959">
        <ele>377.5</ele>
        <time>2019-09-03T14:14:07Z</time>
      </trkpt>
      <trkpt lat="46.49184" lon="5.58963">
        <ele>377.5</ele>
        <time>2019-09-03T14:14:11Z</time>
      </trkpt>
      <trkpt lat="46.49188" lon="5.58964">
        <ele>377.2</ele>
        <time>2019-09-03T14:14:20Z</time>
      </trkpt>
      <trkpt lat="46.49185" lon="5.58969">
        <ele>376.1</ele>
        <time>2019-09-03T14:14:38Z</time>
      </trkpt>
      <trkpt lat="46.49183" lon="5.58975">
        <ele>375.6</ele>
        <time>2019-09-03T14:14:41Z</time>
      </trkpt>
      <trkpt lat="46.49183" lon="5.58983">
        <ele>375.2</ele>
        <time>2019-09-03T14:14:46Z</time>
      </trkpt>
      <trkpt lat="46.49185" lon="5.58989">
        <ele>374.9</ele>
        <time>2019-09-03T14:14:57Z</time>
      </trkpt>
      <trkpt lat="46.49203" lon="5.58988">
        <ele>374</ele>
        <time>2019-09-03T14:15:12Z</time>
      </trkpt>
      <trkpt lat="46.49208" lon="5.58988">
        <ele>374.2</ele>
        <time>2019-09-03T14:15:15Z</time>
      </trkpt>
      <trkpt lat="46.49213" lon="5.58987">
        <ele>374.7</ele>
        <time>2019-09-03T14:15:18Z</time>
      </trkpt>
      <trkpt lat="46.49218" lon="5.58987">
        <ele>375.7</ele>
        <time>2019-09-03T14:15:22Z</time>
      </trkpt>
      <trkpt lat="46.49222" lon="5.58983">
        <ele>377.2</ele>
        <time>2019-09-03T14:15:27Z</time>
      </trkpt>
      <trkpt lat="46.49227" lon="5.58982">
        <ele>379.1</ele>
        <time>2019-09-03T14:15:32Z</time>
      </trkpt>
      <trkpt lat="46.49231" lon="5.58984">
        <ele>380.9</ele>
        <time>2019-09-03T14:15:37Z</time>
      </trkpt>
      <trkpt lat="46.49235" lon="5.58987">
        <ele>382.2</ele>
        <time>2019-09-03T14:15:41Z</time>
      </trkpt>
      <trkpt lat="46.4924" lon="5.58991">
        <ele>383.2</ele>
        <time>2019-09-03T14:15:45Z</time>
      </trkpt>
      <trkpt lat="46.49245" lon="5.58997">
        <ele>384.1</ele>
        <time>2019-09-03T14:15:49Z</time>
      </trkpt>
      <trkpt lat="46.49249" lon="5.59001">
        <ele>384.7</ele>
        <time>2019-09-03T14:15:52Z</time>
      </trkpt>
      <trkpt lat="46.49254" lon="5.59006">
        <ele>385.4</ele>
        <time>2019-09-03T14:15:56Z</time>
      </trkpt>
      <trkpt lat="46.49257" lon="5.59011">
        <ele>385.8</ele>
        <time>2019-09-03T14:15:59Z</time>
      </trkpt>
      <trkpt lat="46.49261" lon="5.59016">
        <ele>386.2</ele>
        <time>2019-09-03T14:16:03Z</time>
      </trkpt>
      <trkpt lat="46.49265" lon="5.59021">
        <ele>386.8</ele>
        <time>2019-09-03T14:16:07Z</time>
      </trkpt>
      <trkpt lat="46.4927" lon="5.59025">
        <ele>387.2</ele>
        <time>2019-09-03T14:16:10Z</time>
      </trkpt>
      <trkpt lat="46.49273" lon="5.5903">
        <ele>387.7</ele>
        <time>2019-09-03T14:16:14Z</time>
      </trkpt>
      <trkpt lat="46.49277" lon="5.59034">
        <ele>388.1</ele>
        <time>2019-09-03T14:16:18Z</time>
      </trkpt>
      <trkpt lat="46.49281" lon="5.59039">
        <ele>388.9</ele>
        <time>2019-09-03T14:16:24Z</time>
      </trkpt>
      <trkpt lat="46.49286" lon="5.59042">
        <ele>389.3</ele>
        <time>2019-09-03T14:16:27Z</time>
      </trkpt>
      <trkpt lat="46.49291" lon="5.59045">
        <ele>389.8</ele>
        <time>2019-09-03T14:16:30Z</time>
      </trkpt>
      <trkpt lat="46.49296" lon="5.59048">
        <ele>390.2</ele>
        <time>2019-09-03T14:16:33Z</time>
      </trkpt>
      <trkpt lat="46.493" lon="5.59051">
        <ele>390.9</ele>
        <time>2019-09-03T14:16:37Z</time>
      </trkpt>
      <trkpt lat="46.49327" lon="5.59046">
        <ele>394.7</ele>
        <time>2019-09-03T14:16:58Z</time>
      </trkpt>
      <trkpt lat="46.49351" lon="5.59055">
        <ele>399.4</ele>
        <time>2019-09-03T14:17:16Z</time>
      </trkpt>
      <trkpt lat="46.49356" lon="5.59061">
        <ele>399.4</ele>
        <time>2019-09-03T14:17:19Z</time>
      </trkpt>
      <trkpt lat="46.49359" lon="5.59066">
        <ele>399.3</ele>
        <time>2019-09-03T14:17:21Z</time>
      </trkpt>
      <trkpt lat="46.49367" lon="5.59079">
        <ele>398.4</ele>
        <time>2019-09-03T14:17:28Z</time>
      </trkpt>
      <trkpt lat="46.49392" lon="5.59103">
        <ele>398.3</ele>
        <time>2019-09-03T14:17:58Z</time>
      </trkpt>
      <trkpt lat="46.49398" lon="5.59106">
        <ele>400</ele>
        <time>2019-09-03T14:18:03Z</time>
      </trkpt>
      <trkpt lat="46.49403" lon="5.59108">
        <ele>401.5</ele>
        <time>2019-09-03T14:18:07Z</time>
      </trkpt>
      <trkpt lat="46.49407" lon="5.5911">
        <ele>402.9</ele>
        <time>2019-09-03T14:18:11Z</time>
      </trkpt>
      <trkpt lat="46.49412" lon="5.59112">
        <ele>404.3</ele>
        <time>2019-09-03T14:18:15Z</time>
      </trkpt>
      <trkpt lat="46.49416" lon="5.59116">
        <ele>405.6</ele>
        <time>2019-09-03T14:18:19Z</time>
      </trkpt>
      <trkpt lat="46.49427" lon="5.59128">
        <ele>407.2</ele>
        <time>2019-09-03T14:18:34Z</time>
      </trkpt>
      <trkpt lat="46.49438" lon="5.59137">
        <ele>407.8</ele>
        <time>2019-09-03T14:18:47Z</time>
      </trkpt>
      <trkpt lat="46.49442" lon="5.59141">
        <ele>407.9</ele>
        <time>2019-09-03T14:18:50Z</time>
      </trkpt>
      <trkpt lat="46.49446" lon="5.59145">
        <ele>407.9</ele>
        <time>2019-09-03T14:18:53Z</time>
      </trkpt>
      <trkpt lat="46.4945" lon="5.5915">
        <ele>407.8</ele>
        <time>2019-09-03T14:18:57Z</time>
      </trkpt>
      <trkpt lat="46.49455" lon="5.59156">
        <ele>407.7</ele>
        <time>2019-09-03T14:19:02Z</time>
      </trkpt>
      <trkpt lat="46.49459" lon="5.59159">
        <ele>407.6</ele>
        <time>2019-09-03T14:19:04Z</time>
      </trkpt>
      <trkpt lat="46.49464" lon="5.59163">
        <ele>407.3</ele>
        <time>2019-09-03T14:19:08Z</time>
      </trkpt>
      <trkpt lat="46.49469" lon="5.59169">
        <ele>406.6</ele>
        <time>2019-09-03T14:19:13Z</time>
      </trkpt>
      <trkpt lat="46.49473" lon="5.59177">
        <ele>405.7</ele>
        <time>2019-09-03T14:19:18Z</time>
      </trkpt>
      <trkpt lat="46.49482" lon="5.59195">
        <ele>404.2</ele>
        <time>2019-09-03T14:19:28Z</time>
      </trkpt>
      <trkpt lat="46.49485" lon="5.592">
        <ele>403.8</ele>
        <time>2019-09-03T14:19:31Z</time>
      </trkpt>
      <trkpt lat="46.49489" lon="5.59205">
        <ele>403</ele>
        <time>2019-09-03T14:19:36Z</time>
      </trkpt>
      <trkpt lat="46.49493" lon="5.5921">
        <ele>402</ele>
        <time>2019-09-03T14:19:41Z</time>
      </trkpt>
      <trkpt lat="46.49497" lon="5.59213">
        <ele>400.4</ele>
        <time>2019-09-03T14:19:48Z</time>
      </trkpt>
      <trkpt lat="46.49501" lon="5.59216">
        <ele>398.7</ele>
        <time>2019-09-03T14:19:55Z</time>
      </trkpt>
      <trkpt lat="46.49506" lon="5.59219">
        <ele>397.1</ele>
        <time>2019-09-03T14:20:03Z</time>
      </trkpt>
      <trkpt lat="46.49508" lon="5.59226">
        <ele>394.7</ele>
        <time>2019-09-03T14:20:13Z</time>
      </trkpt>
      <trkpt lat="46.49511" lon="5.59231">
        <ele>393.9</ele>
        <time>2019-09-03T14:20:19Z</time>
      </trkpt>
      <trkpt lat="46.49515" lon="5.59236">
        <ele>393.1</ele>
        <time>2019-09-03T14:20:25Z</time>
      </trkpt>
      <trkpt lat="46.49519" lon="5.5924">
        <ele>392.2</ele>
        <time>2019-09-03T14:20:31Z</time>
      </trkpt>
      <trkpt lat="46.49523" lon="5.59245">
        <ele>391.6</ele>
        <time>2019-09-03T14:20:35Z</time>
      </trkpt>
      <trkpt lat="46.49527" lon="5.59248">
        <ele>390.8</ele>
        <time>2019-09-03T14:20:39Z</time>
      </trkpt>
      <trkpt lat="46.49531" lon="5.59251">
        <ele>390.4</ele>
        <time>2019-09-03T14:20:43Z</time>
      </trkpt>
      <trkpt lat="46.49536" lon="5.59254">
        <ele>390.1</ele>
        <time>2019-09-03T14:20:49Z</time>
      </trkpt>
      <trkpt lat="46.49541" lon="5.59258">
        <ele>390.1</ele>
        <time>2019-09-03T14:20:55Z</time>
      </trkpt>
      <trkpt lat="46.49545" lon="5.59261">
        <ele>390</ele>
        <time>2019-09-03T14:21:01Z</time>
      </trkpt>
      <trkpt lat="46.4955" lon="5.59263">
        <ele>390</ele>
        <time>2019-09-03T14:21:05Z</time>
      </trkpt>
      <trkpt lat="46.49555" lon="5.59265">
        <ele>390.1</ele>
        <time>2019-09-03T14:21:10Z</time>
      </trkpt>
      <trkpt lat="46.49558" lon="5.59269">
        <ele>390.2</ele>
        <time>2019-09-03T14:21:15Z</time>
      </trkpt>
      <trkpt lat="46.49563" lon="5.59271">
        <ele>390.2</ele>
        <time>2019-09-03T14:21:20Z</time>
      </trkpt>
      <trkpt lat="46.49567" lon="5.59275">
        <ele>390.4</ele>
        <time>2019-09-03T14:21:25Z</time>
      </trkpt>
      <trkpt lat="46.49572" lon="5.59279">
        <ele>390.4</ele>
        <time>2019-09-03T14:21:29Z</time>
      </trkpt>
      <trkpt lat="46.49576" lon="5.59284">
        <ele>390.3</ele>
        <time>2019-09-03T14:21:33Z</time>
      </trkpt>
      <trkpt lat="46.49582" lon="5.59287">
        <ele>390.1</ele>
        <time>2019-09-03T14:21:37Z</time>
      </trkpt>
      <trkpt lat="46.49585" lon="5.59292">
        <ele>390</ele>
        <time>2019-09-03T14:21:40Z</time>
      </trkpt>
      <trkpt lat="46.4959" lon="5.59297">
        <ele>389.5</ele>
        <time>2019-09-03T14:21:45Z</time>
      </trkpt>
      <trkpt lat="46.49593" lon="5.59303">
        <ele>389.1</ele>
        <time>2019-09-03T14:21:49Z</time>
      </trkpt>
      <trkpt lat="46.49597" lon="5.59308">
        <ele>388.5</ele>
        <time>2019-09-03T14:21:55Z</time>
      </trkpt>
      <trkpt lat="46.49601" lon="5.59312">
        <ele>388.3</ele>
        <time>2019-09-03T14:22:02Z</time>
      </trkpt>
      <trkpt lat="46.49604" lon="5.59317">
        <ele>388.2</ele>
        <time>2019-09-03T14:22:08Z</time>
      </trkpt>
      <trkpt lat="46.49607" lon="5.59324">
        <ele>388.2</ele>
        <time>2019-09-03T14:22:13Z</time>
      </trkpt>
      <trkpt lat="46.4961" lon="5.59329">
        <ele>388</ele>
        <time>2019-09-03T14:22:17Z</time>
      </trkpt>
      <trkpt lat="46.49615" lon="5.59332">
        <ele>387.5</ele>
        <time>2019-09-03T14:22:22Z</time>
      </trkpt>
      <trkpt lat="46.4962" lon="5.59332">
        <ele>387.2</ele>
        <time>2019-09-03T14:22:26Z</time>
      </trkpt>
      <trkpt lat="46.49625" lon="5.59334">
        <ele>387.1</ele>
        <time>2019-09-03T14:22:31Z</time>
      </trkpt>
      <trkpt lat="46.49631" lon="5.59336">
        <ele>387</ele>
        <time>2019-09-03T14:22:35Z</time>
      </trkpt>
      <trkpt lat="46.49636" lon="5.59339">
        <ele>387.1</ele>
        <time>2019-09-03T14:22:40Z</time>
      </trkpt>
      <trkpt lat="46.4964" lon="5.59342">
        <ele>387.2</ele>
        <time>2019-09-03T14:22:45Z</time>
      </trkpt>
      <trkpt lat="46.49644" lon="5.59345">
        <ele>387.3</ele>
        <time>2019-09-03T14:22:50Z</time>
      </trkpt>
      <trkpt lat="46.49648" lon="5.59349">
        <ele>387.2</ele>
        <time>2019-09-03T14:22:54Z</time>
      </trkpt>
      <trkpt lat="46.49652" lon="5.59353">
        <ele>387.1</ele>
        <time>2019-09-03T14:22:58Z</time>
      </trkpt>
      <trkpt lat="46.49657" lon="5.59357">
        <ele>386.9</ele>
        <time>2019-09-03T14:23:02Z</time>
      </trkpt>
      <trkpt lat="46.49662" lon="5.5936">
        <ele>386.8</ele>
        <time>2019-09-03T14:23:07Z</time>
      </trkpt>
      <trkpt lat="46.49665" lon="5.59366">
        <ele>386.5</ele>
        <time>2019-09-03T14:23:13Z</time>
      </trkpt>
      <trkpt lat="46.49668" lon="5.59371">
        <ele>386.1</ele>
        <time>2019-09-03T14:23:18Z</time>
      </trkpt>
      <trkpt lat="46.49672" lon="5.59375">
        <ele>385.7</ele>
        <time>2019-09-03T14:23:22Z</time>
      </trkpt>
      <trkpt lat="46.49676" lon="5.59378">
        <ele>385.6</ele>
        <time>2019-09-03T14:23:26Z</time>
      </trkpt>
      <trkpt lat="46.4968" lon="5.59381">
        <ele>385.5</ele>
        <time>2019-09-03T14:23:30Z</time>
      </trkpt>
      <trkpt lat="46.49684" lon="5.59385">
        <ele>385.4</ele>
        <time>2019-09-03T14:23:35Z</time>
      </trkpt>
      <trkpt lat="46.4969" lon="5.59387">
        <ele>385.4</ele>
        <time>2019-09-03T14:23:41Z</time>
      </trkpt>
      <trkpt lat="46.49694" lon="5.59391">
        <ele>385.4</ele>
        <time>2019-09-03T14:23:46Z</time>
      </trkpt>
      <trkpt lat="46.49699" lon="5.59395">
        <ele>385.6</ele>
        <time>2019-09-03T14:23:51Z</time>
      </trkpt>
      <trkpt lat="46.49704" lon="5.59398">
        <ele>385.8</ele>
        <time>2019-09-03T14:23:57Z</time>
      </trkpt>
      <trkpt lat="46.49709" lon="5.59401">
        <ele>385.9</ele>
        <time>2019-09-03T14:24:01Z</time>
      </trkpt>
      <trkpt lat="46.49713" lon="5.59403">
        <ele>385.9</ele>
        <time>2019-09-03T14:24:05Z</time>
      </trkpt>
      <trkpt lat="46.49718" lon="5.59405">
        <ele>385.8</ele>
        <time>2019-09-03T14:24:10Z</time>
      </trkpt>
      <trkpt lat="46.49723" lon="5.59408">
        <ele>385.8</ele>
        <time>2019-09-03T14:24:16Z</time>
      </trkpt>
      <trkpt lat="46.49727" lon="5.5941">
        <ele>385.7</ele>
        <time>2019-09-03T14:24:22Z</time>
      </trkpt>
      <trkpt lat="46.49732" lon="5.59412">
        <ele>385.8</ele>
        <time>2019-09-03T14:24:27Z</time>
      </trkpt>
      <trkpt lat="46.49737" lon="5.59412">
        <ele>385.9</ele>
        <time>2019-09-03T14:24:31Z</time>
      </trkpt>
      <trkpt lat="46.49741" lon="5.59409">
        <ele>386.1</ele>
        <time>2019-09-03T14:24:38Z</time>
      </trkpt>
      <trkpt lat="46.49745" lon="5.59403">
        <ele>386.1</ele>
        <time>2019-09-03T14:24:43Z</time>
      </trkpt>
      <trkpt lat="46.4975" lon="5.59399">
        <ele>386</ele>
        <time>2019-09-03T14:24:47Z</time>
      </trkpt>
      <trkpt lat="46.49753" lon="5.59394">
        <ele>385.8</ele>
        <time>2019-09-03T14:24:52Z</time>
      </trkpt>
      <trkpt lat="46.49756" lon="5.5939">
        <ele>385.2</ele>
        <time>2019-09-03T14:24:58Z</time>
      </trkpt>
      <trkpt lat="46.4976" lon="5.59389">
        <ele>382.7</ele>
        <time>2019-09-03T14:26:41Z</time>
      </trkpt>
      <trkpt lat="46.49764" lon="5.59386">
        <ele>381.6</ele>
        <time>2019-09-03T14:26:48Z</time>
      </trkpt>
      <trkpt lat="46.49766" lon="5.5938">
        <ele>380.9</ele>
        <time>2019-09-03T14:26:53Z</time>
      </trkpt>
      <trkpt lat="46.49767" lon="5.59373">
        <ele>381.4</ele>
        <time>2019-09-03T14:27:09Z</time>
      </trkpt>
      <trkpt lat="46.4977" lon="5.59369">
        <ele>381.7</ele>
        <time>2019-09-03T14:27:15Z</time>
      </trkpt>
      <trkpt lat="46.49774" lon="5.59362">
        <ele>381.6</ele>
        <time>2019-09-03T14:27:22Z</time>
      </trkpt>
      <trkpt lat="46.49777" lon="5.59356">
        <ele>381.5</ele>
        <time>2019-09-03T14:27:27Z</time>
      </trkpt>
      <trkpt lat="46.49781" lon="5.59351">
        <ele>381.6</ele>
        <time>2019-09-03T14:27:31Z</time>
      </trkpt>
      <trkpt lat="46.49784" lon="5.59346">
        <ele>381.7</ele>
        <time>2019-09-03T14:27:37Z</time>
      </trkpt>
      <trkpt lat="46.49787" lon="5.5934">
        <ele>381.9</ele>
        <time>2019-09-03T14:27:46Z</time>
      </trkpt>
      <trkpt lat="46.49791" lon="5.59335">
        <ele>381.9</ele>
        <time>2019-09-03T14:27:53Z</time>
      </trkpt>
      <trkpt lat="46.49794" lon="5.5933">
        <ele>381.9</ele>
        <time>2019-09-03T14:27:57Z</time>
      </trkpt>
      <trkpt lat="46.49796" lon="5.59325">
        <ele>382</ele>
        <time>2019-09-03T14:28:02Z</time>
      </trkpt>
      <trkpt lat="46.49799" lon="5.59319">
        <ele>382.5</ele>
        <time>2019-09-03T14:28:09Z</time>
      </trkpt>
      <trkpt lat="46.49803" lon="5.59314">
        <ele>382.9</ele>
        <time>2019-09-03T14:28:15Z</time>
      </trkpt>
      <trkpt lat="46.49805" lon="5.59309">
        <ele>383.2</ele>
        <time>2019-09-03T14:28:28Z</time>
      </trkpt>
      <trkpt lat="46.49809" lon="5.59304">
        <ele>383.4</ele>
        <time>2019-09-03T14:28:36Z</time>
      </trkpt>
      <trkpt lat="46.49814" lon="5.59306">
        <ele>384</ele>
        <time>2019-09-03T14:28:43Z</time>
      </trkpt>
      <trkpt lat="46.4981" lon="5.59309">
        <ele>385.8</ele>
        <time>2019-09-03T14:29:23Z</time>
      </trkpt>
    </trkseg>
  </trk>
</gpx>